Wetterdaten: Montag, 01.01.2018
Datum Zeit Temp. A. Pool Temp. Feuchte A. Luftdruck Regen Wind Richtung Richtung Sonnenschein ET UV Solar Taupunkt Windchill Windben Empfang
01.01.2018 00:01 2,8 C 3,9 C 91 % 1007,2 hPa 0,0 l/m 1,6 km/h (1 Bft) NW 315 0 min 0,000 mm 0,0 UV-I 0 W/m 1,5 C 2,8 C 1,6 km/h (1 Bft) 4,35 %
01.01.2018 00:02 2,8 C 3,9 C 92 % 1007,3 hPa 0,0 l/m 0,0 km/h (0 Bft) N 0 0 min 0,000 mm 0,0 UV-I 0 W/m 1,6 C 2,8 C 0,0 km/h (0 Bft) 0,00 %
01.01.2018 00:03 2,8 C 3,9 C 92 % 1007,2 hPa 0,0 l/m 1,6 km/h (1 Bft) NW 315 0 min 0,000 mm 0,0 UV-I 0 W/m 1,6 C 2,8 C 3,2 km/h (1 Bft) 78,26 %
01.01.2018 00:04 2,7 C 3,9 C 92 % 1007,3 hPa 0,0 l/m 0,0 km/h (0 Bft) NW 315 0 min 0,000 mm 0,0 UV-I 0 W/m 1,5 C 2,7 C 1,6 km/h (1 Bft) 100,00 %
01.01.2018 00:05 2,7 C 3,9 C 92 % 1007,3 hPa 0,0 l/m 1,6 km/h (1 Bft) NW 315 0 min 0,000 mm 0,0 UV-I 0 W/m 1,5 C 2,7 C 3,2 km/h (1 Bft) 95,65 %
01.01.2018 00:06 2,7 C 3,9 C 92 % 1007,3 hPa 0,0 l/m 1,6 km/h (1 Bft) NW 315 0 min 0,000 mm 0,0 UV-I 0 W/m 1,5 C 2,7 C 1,6 km/h (1 Bft) 100,00 %
01.01.2018 00:07 2,7 C 3,9 C 92 % 1007,3 hPa 0,0 l/m 0,0 km/h (0 Bft) NW 315 0 min 0,000 mm 0,0 UV-I 0 W/m 1,5 C 2,7 C 1,6 km/h (1 Bft) 100,00 %
01.01.2018 00:08 2,7 C 3,9 C 93 % 1007,3 hPa 0,0 l/m 0,0 km/h (0 Bft) NW 315 0 min 0,000 mm 0,0 UV-I 0 W/m 1,7 C 2,7 C 1,6 km/h (1 Bft) 100,00 %
01.01.2018 00:09 2,7 C 3,9 C 93 % 1007,3 hPa 0,0 l/m 0,0 km/h (0 Bft) NW 315 0 min 0,000 mm 0,0 UV-I 0 W/m 1,7 C 2,7 C 1,6 km/h (1 Bft) 95,65 %
01.01.2018 00:10 2,8 C 3,9 C 93 % 1007,3 hPa 0,0 l/m 1,6 km/h (1 Bft) NW 315 0 min 0,000 mm 0,0 UV-I 0 W/m 1,8 C 2,8 C 1,6 km/h (1 Bft) 95,65 %
01.01.2018 00:11 2,7 C 3,9 C 92 % 1007,2 hPa 0,0 l/m 1,6 km/h (1 Bft) NW 315 0 min 0,000 mm 0,0 UV-I 0 W/m 1,5 C 2,7 C 1,6 km/h (1 Bft) 95,65 %
01.01.2018 00:12 2,7 C 3,9 C 92 % 1007,3 hPa 0,0 l/m 1,6 km/h (1 Bft) NW 315 0 min 0,000 mm 0,0 UV-I 0 W/m 1,5 C 2,7 C 3,2 km/h (1 Bft) 95,65 %
01.01.2018 00:13 2,8 C 3,9 C 93 % 1007,3 hPa 0,0 l/m 1,6 km/h (1 Bft) NW 315 0 min 0,000 mm 0,0 UV-I 0 W/m 1,8 C 2,8 C 3,2 km/h (1 Bft) 100,00 %
01.01.2018 00:14 2,8 C 3,9 C 93 % 1007,3 hPa 0,0 l/m 1,6 km/h (1 Bft) NW 315 0 min 0,000 mm 0,0 UV-I 0 W/m 1,8 C 2,8 C 3,2 km/h (1 Bft) 95,65 %
01.01.2018 00:15 2,8 C 3,9 C 93 % 1007,3 hPa 0,0 l/m 0,0 km/h (0 Bft) NW 315 0 min 0,000 mm 0,0 UV-I 0 W/m 1,8 C 2,8 C 1,6 km/h (1 Bft) 100,00 %
01.01.2018 00:16 2,8 C 3,9 C 92 % 1007,3 hPa 0,0 l/m 0,0 km/h (0 Bft) NW 315 0 min 0,000 mm 0,0 UV-I 0 W/m 1,6 C 2,8 C 1,6 km/h (1 Bft) 100,00 %
01.01.2018 00:17 2,8 C 3,9 C 92 % 1007,3 hPa 0,0 l/m 1,6 km/h (1 Bft) NW 315 0 min 0,000 mm 0,0 UV-I 0 W/m 1,6 C 2,8 C 1,6 km/h (1 Bft) 100,00 %
01.01.2018 00:18 2,8 C 3,9 C 92 % 1007,2 hPa 0,0 l/m 1,6 km/h (1 Bft) NW 315 0 min 0,000 mm 0,0 UV-I 0 W/m 1,6 C 2,8 C 3,2 km/h (1 Bft) 95,65 %
01.01.2018 00:19 2,8 C 3,9 C 92 % 1007,3 hPa 0,0 l/m 1,6 km/h (1 Bft) NW 315 0 min 0,000 mm 0,0 UV-I 0 W/m 1,6 C 2,8 C 1,6 km/h (1 Bft) 95,65 %
01.01.2018 00:20 2,8 C 3,9 C 92 % 1007,2 hPa 0,0 l/m 0,0 km/h (0 Bft) NW 315 0 min 0,000 mm 0,0 UV-I 0 W/m 1,6 C 2,8 C 1,6 km/h (1 Bft) 100,00 %
01.01.2018 00:21 2,8 C 3,9 C 92 % 1007,2 hPa 0,0 l/m 0,0 km/h (0 Bft) N 0 0 min 0,000 mm 0,0 UV-I 0 W/m 1,6 C 2,8 C 0,0 km/h (0 Bft) 95,65 %
01.01.2018 00:22 2,8 C 3,9 C 92 % 1007,2 hPa 0,0 l/m 1,6 km/h (1 Bft) NW 315 0 min 0,000 mm 0,0 UV-I 0 W/m 1,6 C 2,8 C 3,2 km/h (1 Bft) 91,30 %
01.01.2018 00:23 2,8 C 3,9 C 92 % 1007,3 hPa 0,0 l/m 1,6 km/h (1 Bft) NW 315 0 min 0,000 mm 0,0 UV-I 0 W/m 1,6 C 2,8 C 3,2 km/h (1 Bft) 95,65 %
01.01.2018 00:24 2,7 C 3,9 C 92 % 1007,3 hPa 0,0 l/m 3,2 km/h (1 Bft) NW 315 0 min 0,000 mm 0,0 UV-I 0 W/m 1,5 C 2,7 C 3,2 km/h (1 Bft) 100,00 %
01.01.2018 00:25 2,6 C 3,9 C 92 % 1007,4 hPa 0,0 l/m 1,6 km/h (1 Bft) NW 315 0 min 0,000 mm 0,0 UV-I 0 W/m 1,4 C 2,6 C 3,2 km/h (1 Bft) 100,00 %
01.01.2018 00:26 2,6 C 3,9 C 92 % 1007,4 hPa 0,0 l/m 1,6 km/h (1 Bft) NW 315 0 min 0,000 mm 0,0 UV-I 0 W/m 1,4 C 2,6 C 1,6 km/h (1 Bft) 91,30 %
01.01.2018 00:27 2,6 C 3,9 C 93 % 1007,4 hPa 0,0 l/m 0,0 km/h (0 Bft) NW 315 0 min 0,000 mm 0,0 UV-I 0 W/m 1,6 C 2,6 C 1,6 km/h (1 Bft) 100,00 %
01.01.2018 00:28 2,5 C 3,9 C 93 % 1007,4 hPa 0,0 l/m 0,0 km/h (0 Bft) NW 315 0 min 0,000 mm 0,0 UV-I 0 W/m 1,5 C 2,5 C 1,6 km/h (1 Bft) 100,00 %
01.01.2018 00:29 2,4 C 3,9 C 93 % 1007,4 hPa 0,0 l/m 0,0 km/h (0 Bft) N 0 0 min 0,000 mm 0,0 UV-I 0 W/m 1,4 C 2,4 C 0,0 km/h (0 Bft) 100,00 %
01.01.2018 00:30 2,4 C 3,9 C 93 % 1007,4 hPa 0,0 l/m 0,0 km/h (0 Bft) N 0 0 min 0,000 mm 0,0 UV-I 0 W/m 1,4 C 2,4 C 0,0 km/h (0 Bft) 100,00 %
01.01.2018 00:31 2,4 C 3,9 C 93 % 1007,5 hPa 0,0 l/m 1,6 km/h (1 Bft) NW 315 0 min 0,000 mm 0,0 UV-I 0 W/m 1,4 C 2,4 C 4,8 km/h (1 Bft) 100,00 %
01.01.2018 00:32 2,3 C 3,9 C 93 % 1007,4 hPa 0,0 l/m 4,8 km/h (1 Bft) NW 315 0 min 0,000 mm 0,0 UV-I 0 W/m 1,3 C 2,3 C 4,8 km/h (1 Bft) 100,00 %
01.01.2018 00:33 2,3 C 3,9 C 93 % 1007,5 hPa 0,0 l/m 3,2 km/h (1 Bft) NW 315 0 min 0,000 mm 0,0 UV-I 0 W/m 1,3 C 2,3 C 4,8 km/h (1 Bft) 95,65 %
01.01.2018 00:34 2,3 C 3,9 C 93 % 1007,4 hPa 0,0 l/m 1,6 km/h (1 Bft) NW 315 0 min 0,000 mm 0,0 UV-I 0 W/m 1,3 C 2,3 C 3,2 km/h (1 Bft) 100,00 %
01.01.2018 00:35 2,2 C 3,9 C 93 % 1007,4 hPa 0,0 l/m 1,6 km/h (1 Bft) NW 315 0 min 0,000 mm 0,0 UV-I 0 W/m 1,2 C 2,2 C 3,2 km/h (1 Bft) 100,00 %
01.01.2018 00:36 2,2 C 3,9 C 93 % 1007,3 hPa 0,0 l/m 4,8 km/h (1 Bft) O-NO 67 0 min 0,000 mm 0,0 UV-I 0 W/m 1,2 C 2,2 C 6,4 km/h (2 Bft) 95,65 %
01.01.2018 00:37 2,1 C 3,9 C 93 % 1007,3 hPa 0,0 l/m 6,4 km/h (2 Bft) O-NO 67 0 min 0,000 mm 0,0 UV-I 0 W/m 1,1 C 2,1 C 8,0 km/h (2 Bft) 100,00 %
01.01.2018 00:38 2,1 C 3,9 C 93 % 1007,3 hPa 0,0 l/m 8,0 km/h (2 Bft) O-NO 67 0 min 0,000 mm 0,0 UV-I 0 W/m 1,1 C 0,6 C 8,0 km/h (2 Bft) 100,00 %
01.01.2018 00:39 2,1 C 3,9 C 94 % 1007,3 hPa 0,0 l/m 6,4 km/h (2 Bft) O-NO 67 0 min 0,000 mm 0,0 UV-I 0 W/m 1,2 C 2,1 C 6,4 km/h (2 Bft) 100,00 %
01.01.2018 00:40 2,2 C 3,9 C 94 % 1007,2 hPa 0,0 l/m 4,8 km/h (1 Bft) O-NO 67 0 min 0,000 mm 0,0 UV-I 0 W/m 1,3 C 2,2 C 8,0 km/h (2 Bft) 100,00 %
01.01.2018 00:41 2,3 C 3,9 C 94 % 1007,3 hPa 0,0 l/m 3,2 km/h (1 Bft) O-NO 67 0 min 0,000 mm 0,0 UV-I 0 W/m 1,4 C 2,3 C 4,8 km/h (1 Bft) 95,65 %
01.01.2018 00:42 2,4 C 3,9 C 94 % 1007,3 hPa 0,0 l/m 0,0 km/h (0 Bft) O-NO 67 0 min 0,000 mm 0,0 UV-I 0 W/m 1,5 C 2,4 C 3,2 km/h (1 Bft) 100,00 %
01.01.2018 00:43 2,4 C 3,9 C 94 % 1007,2 hPa 0,0 l/m 3,2 km/h (1 Bft) SO 135 0 min 0,000 mm 0,0 UV-I 0 W/m 1,5 C 2,4 C 4,8 km/h (1 Bft) 100,00 %
01.01.2018 00:44 2,4 C 3,9 C 93 % 1007,3 hPa 0,0 l/m 4,8 km/h (1 Bft) S-SW 202 0 min 0,000 mm 0,0 UV-I 0 W/m 1,4 C 2,4 C 6,4 km/h (2 Bft) 95,65 %
01.01.2018 00:45 2,3 C 3,9 C 94 % 1007,3 hPa 0,0 l/m 4,8 km/h (1 Bft) S-SW 202 0 min 0,000 mm 0,0 UV-I 0 W/m 1,4 C 2,3 C 6,4 km/h (2 Bft) 100,00 %
01.01.2018 00:46 2,4 C 3,9 C 94 % 1007,3 hPa 0,0 l/m 3,2 km/h (1 Bft) S-SW 202 0 min 0,000 mm 0,0 UV-I 0 W/m 1,5 C 2,4 C 4,8 km/h (1 Bft) 95,65 %
01.01.2018 00:47 2,2 C 3,9 C 93 % 1007,4 hPa 0,0 l/m 1,6 km/h (1 Bft) S-SW 202 0 min 0,000 mm 0,0 UV-I 0 W/m 1,2 C 2,2 C 4,8 km/h (1 Bft) 95,65 %
01.01.2018 00:48 2,0 C 3,9 C 92 % 1007,4 hPa 0,0 l/m 3,2 km/h (1 Bft) S 180 0 min 0,000 mm 0,0 UV-I 0 W/m 0,8 C 2,0 C 6,4 km/h (2 Bft) 100,00 %
01.01.2018 00:49 1,9 C 3,9 C 93 % 1007,4 hPa 0,0 l/m 4,8 km/h (1 Bft) S-SO 157 0 min 0,000 mm 0,0 UV-I 0 W/m 0,9 C 1,9 C 8,0 km/h (2 Bft) 95,65 %
01.01.2018 00:50 2,1 C 3,9 C 94 % 1007,5 hPa 0,0 l/m 4,8 km/h (1 Bft) S-SO 157 0 min 0,000 mm 0,0 UV-I 0 W/m 1,2 C 2,1 C 8,0 km/h (2 Bft) 95,65 %
01.01.2018 00:51 2,1 C 3,9 C 94 % 1007,5 hPa 0,0 l/m 4,8 km/h (1 Bft) S 180 0 min 0,000 mm 0,0 UV-I 0 W/m 1,2 C 2,1 C 6,4 km/h (2 Bft) 95,65 %
01.01.2018 00:52 2,2 C 3,9 C 94 % 1007,5 hPa 0,0 l/m 4,8 km/h (1 Bft) S 180 0 min 0,000 mm 0,0 UV-I 0 W/m 1,3 C 2,2 C 6,4 km/h (2 Bft) 100,00 %
01.01.2018 00:53 2,2 C 3,9 C 94 % 1007,6 hPa 0,0 l/m 6,4 km/h (2 Bft) S-SW 202 0 min 0,000 mm 0,0 UV-I 0 W/m 1,3 C 2,2 C 6,4 km/h (2 Bft) 95,65 %
01.01.2018 00:54 2,2 C 3,9 C 94 % 1007,5 hPa 0,0 l/m 6,4 km/h (2 Bft) S-SW 202 0 min 0,000 mm 0,0 UV-I 0 W/m 1,3 C 2,2 C 8,0 km/h (2 Bft) 95,65 %
01.01.2018 00:55 2,1 C 3,9 C 94 % 1007,6 hPa 0,0 l/m 6,4 km/h (2 Bft) S-SW 202 0 min 0,000 mm 0,0 UV-I 0 W/m 1,2 C 2,1 C 8,0 km/h (2 Bft) 91,30 %
01.01.2018 00:56 1,9 C 3,9 C 93 % 1007,6 hPa 0,0 l/m 8,0 km/h (2 Bft) S-SW 202 0 min 0,000 mm 0,0 UV-I 0 W/m 0,9 C 0,3 C 9,7 km/h (2 Bft) 100,00 %
01.01.2018 00:57 1,8 C 3,9 C 93 % 1007,5 hPa 0,0 l/m 4,8 km/h (1 Bft) S-SW 202 0 min 0,000 mm 0,0 UV-I 0 W/m 0,8 C 1,8 C 11,3 km/h (2 Bft) 95,65 %
01.01.2018 00:58 1,7 C 3,9 C 93 % 1007,5 hPa 0,0 l/m 6,4 km/h (2 Bft) S-SO 157 0 min 0,000 mm 0,0 UV-I 0 W/m 0,7 C 1,7 C 11,3 km/h (2 Bft) 100,00 %
01.01.2018 00:59 1,6 C 3,9 C 93 % 1007,5 hPa 0,0 l/m 6,4 km/h (2 Bft) S-SO 157 0 min 0,000 mm 0,0 UV-I 0 W/m 0,6 C 1,6 C 8,0 km/h (2 Bft) 95,65 %
01.01.2018 01:00 1,7 C 3,9 C 94 % 1007,4 hPa 0,0 l/m 3,2 km/h (1 Bft) S-SO 157 0 min 0,000 mm 0,0 UV-I 0 W/m 0,8 C 1,7 C 6,4 km/h (2 Bft) 100,00 %
01.01.2018 01:01 1,8 C 3,9 C 94 % 1007,4 hPa 0,0 l/m 6,4 km/h (2 Bft) S-SW 202 0 min 0,000 mm 0,0 UV-I 0 W/m 0,9 C 1,8 C 9,7 km/h (2 Bft) 91,30 %
01.01.2018 01:02 1,9 C 3,9 C 95 % 1007,5 hPa 0,0 l/m 6,4 km/h (2 Bft) SW 225 0 min 0,000 mm 0,0 UV-I 0 W/m 1,2 C 1,9 C 8,0 km/h (2 Bft) 100,00 %
01.01.2018 01:03 2,0 C 3,9 C 94 % 1007,5 hPa 0,0 l/m 6,4 km/h (2 Bft) W-SW 247 0 min 0,000 mm 0,0 UV-I 0 W/m 1,1 C 2,0 C 8,0 km/h (2 Bft) 95,65 %
01.01.2018 01:04 2,0 C 3,9 C 94 % 1007,6 hPa 0,0 l/m 8,0 km/h (2 Bft) W-SW 247 0 min 0,000 mm 0,0 UV-I 0 W/m 1,1 C 0,5 C 11,3 km/h (2 Bft) 100,00 %
01.01.2018 01:05 1,9 C 3,9 C 94 % 1007,6 hPa 0,0 l/m 4,8 km/h (1 Bft) W-SW 247 0 min 0,000 mm 0,0 UV-I 0 W/m 1,0 C 1,9 C 6,4 km/h (2 Bft) 95,65 %
01.01.2018 01:06 1,8 C 3,9 C 94 % 1007,5 hPa 0,0 l/m 3,2 km/h (1 Bft) S 180 0 min 0,000 mm 0,0 UV-I 0 W/m 0,9 C 1,8 C 6,4 km/h (2 Bft) 95,65 %
01.01.2018 01:07 1,8 C 3,9 C 93 % 1007,5 hPa 0,0 l/m 4,8 km/h (1 Bft) S-SO 157 0 min 0,000 mm 0,0 UV-I 0 W/m 0,8 C 1,8 C 8,0 km/h (2 Bft) 95,65 %
01.01.2018 01:08 1,7 C 3,9 C 94 % 1007,4 hPa 0,0 l/m 3,2 km/h (1 Bft) S-SO 157 0 min 0,000 mm 0,0 UV-I 0 W/m 0,8 C 1,7 C 8,0 km/h (2 Bft) 91,30 %
01.01.2018 01:09 1,7 C 3,9 C 94 % 1007,4 hPa 0,0 l/m 4,8 km/h (1 Bft) S-SO 157 0 min 0,000 mm 0,0 UV-I 0 W/m 0,8 C 1,7 C 6,4 km/h (2 Bft) 95,65 %
01.01.2018 01:10 1,7 C 3,9 C 94 % 1007,5 hPa 0,0 l/m 3,2 km/h (1 Bft) S-SO 157 0 min 0,000 mm 0,0 UV-I 0 W/m 0,8 C 1,7 C 4,8 km/h (1 Bft) 95,65 %
01.01.2018 01:11 1,7 C 3,9 C 94 % 1007,6 hPa 0,0 l/m 4,8 km/h (1 Bft) S 180 0 min 0,000 mm 0,0 UV-I 0 W/m 0,8 C 1,7 C 4,8 km/h (1 Bft) 100,00 %
01.01.2018 01:12 1,7 C 3,9 C 94 % 1007,6 hPa 0,0 l/m 4,8 km/h (1 Bft) SW 225 0 min 0,000 mm 0,0 UV-I 0 W/m 0,8 C 1,7 C 6,4 km/h (2 Bft) 100,00 %
01.01.2018 01:13 1,7 C 3,9 C 94 % 1007,6 hPa 0,0 l/m 3,2 km/h (1 Bft) SW 225 0 min 0,000 mm 0,0 UV-I 0 W/m 0,8 C 1,7 C 4,8 km/h (1 Bft) 100,00 %
01.01.2018 01:14 1,7 C 3,9 C 94 % 1007,6 hPa 0,0 l/m 3,2 km/h (1 Bft) SW 225 0 min 0,000 mm 0,0 UV-I 0 W/m 0,8 C 1,7 C 6,4 km/h (2 Bft) 95,65 %
01.01.2018 01:15 1,8 C 3,9 C 94 % 1007,5 hPa 0,0 l/m 3,2 km/h (1 Bft) S-SO 157 0 min 0,000 mm 0,0 UV-I 0 W/m 0,9 C 1,8 C 6,4 km/h (2 Bft) 100,00 %
01.01.2018 01:16 1,8 C 3,9 C 94 % 1007,4 hPa 0,0 l/m 3,2 km/h (1 Bft) S-SO 157 0 min 0,000 mm 0,0 UV-I 0 W/m 0,9 C 1,8 C 6,4 km/h (2 Bft) 95,65 %
01.01.2018 01:17 1,8 C 3,9 C 94 % 1007,5 hPa 0,0 l/m 3,2 km/h (1 Bft) S-SO 157 0 min 0,000 mm 0,0 UV-I 0 W/m 0,9 C 1,8 C 6,4 km/h (2 Bft) 95,65 %
01.01.2018 01:18 1,8 C 3,9 C 94 % 1007,7 hPa 0,0 l/m 6,4 km/h (2 Bft) W 270 0 min 0,000 mm 0,0 UV-I 0 W/m 0,9 C 1,8 C 9,7 km/h (2 Bft) 100,00 %
01.01.2018 01:19 1,7 C 3,9 C 94 % 1007,8 hPa 0,0 l/m 4,8 km/h (1 Bft) W-NW 292 0 min 0,000 mm 0,0 UV-I 0 W/m 0,8 C 1,7 C 9,7 km/h (2 Bft) 95,65 %
01.01.2018 01:20 1,7 C 3,9 C 94 % 1007,8 hPa 0,0 l/m 1,6 km/h (1 Bft) W-NW 292 0 min 0,000 mm 0,0 UV-I 0 W/m 0,8 C 1,7 C 3,2 km/h (1 Bft) 100,00 %
01.01.2018 01:21 1,6 C 3,9 C 94 % 1007,5 hPa 0,0 l/m 4,8 km/h (1 Bft) SO 135 0 min 0,000 mm 0,0 UV-I 0 W/m 0,7 C 1,6 C 6,4 km/h (2 Bft) 95,65 %
01.01.2018 01:22 1,6 C 3,9 C 94 % 1007,5 hPa 0,0 l/m 4,8 km/h (1 Bft) SO 135 0 min 0,000 mm 0,0 UV-I 0 W/m 0,7 C 1,6 C 8,0 km/h (2 Bft) 95,65 %
01.01.2018 01:23 1,7 C 3,9 C 94 % 1007,6 hPa 0,0 l/m 4,8 km/h (1 Bft) S-SW 202 0 min 0,000 mm 0,0 UV-I 0 W/m 0,8 C 1,7 C 6,4 km/h (2 Bft) 95,65 %
01.01.2018 01:24 1,7 C 3,9 C 94 % 1007,7 hPa 0,0 l/m 6,4 km/h (2 Bft) SW 225 0 min 0,000 mm 0,0 UV-I 0 W/m 0,8 C 1,7 C 9,7 km/h (2 Bft) 91,30 %
01.01.2018 01:25 1,7 C 3,9 C 94 % 1007,7 hPa 0,0 l/m 4,8 km/h (1 Bft) SW 225 0 min 0,000 mm 0,0 UV-I 0 W/m 0,8 C 1,7 C 6,4 km/h (2 Bft) 100,00 %
01.01.2018 01:26 1,7 C 3,9 C 94 % 1007,6 hPa 0,0 l/m 1,6 km/h (1 Bft) S 180 0 min 0,000 mm 0,0 UV-I 0 W/m 0,8 C 1,7 C 6,4 km/h (2 Bft) 91,30 %
01.01.2018 01:27 1,8 C 3,9 C 95 % 1007,5 hPa 0,0 l/m 1,6 km/h (1 Bft) S 180 0 min 0,000 mm 0,0 UV-I 0 W/m 1,1 C 1,8 C 6,4 km/h (2 Bft) 95,65 %
01.01.2018 01:28 1,8 C 3,9 C 94 % 1007,6 hPa 0,0 l/m 4,8 km/h (1 Bft) W-SW 247 0 min 0,000 mm 0,0 UV-I 0 W/m 0,9 C 1,8 C 6,4 km/h (2 Bft) 95,65 %
01.01.2018 01:29 1,8 C 3,9 C 94 % 1007,7 hPa 0,0 l/m 6,4 km/h (2 Bft) W 270 0 min 0,000 mm 0,0 UV-I 0 W/m 0,9 C 1,8 C 9,7 km/h (2 Bft) 100,00 %
01.01.2018 01:30 1,7 C 3,9 C 94 % 1007,7 hPa 0,0 l/m 3,2 km/h (1 Bft) W 270 0 min 0,000 mm 0,0 UV-I 0 W/m 0,8 C 1,7 C 6,4 km/h (2 Bft) 91,30 %
01.01.2018 01:31 1,7 C 3,9 C 94 % 1007,6 hPa 0,0 l/m 3,2 km/h (1 Bft) S 180 0 min 0,000 mm 0,0 UV-I 0 W/m 0,8 C 1,7 C 6,4 km/h (2 Bft) 95,65 %
01.01.2018 01:32 1,8 C 3,9 C 94 % 1007,5 hPa 0,0 l/m 1,6 km/h (1 Bft) S-SO 157 0 min 0,000 mm 0,0 UV-I 0 W/m 0,9 C 1,8 C 6,4 km/h (2 Bft) 100,00 %
01.01.2018 01:33 1,7 C 3,9 C 94 % 1007,6 hPa 0,0 l/m 4,8 km/h (1 Bft) S-SO 157 0 min 0,000 mm 0,0 UV-I 0 W/m 0,8 C 1,7 C 6,4 km/h (2 Bft) 95,65 %
01.01.2018 01:34 1,7 C 3,9 C 94 % 1007,7 hPa 0,0 l/m 3,2 km/h (1 Bft) W 270 0 min 0,000 mm 0,0 UV-I 0 W/m 0,8 C 1,7 C 6,4 km/h (2 Bft) 95,65 %
01.01.2018 01:35 1,7 C 3,9 C 94 % 1007,7 hPa 0,0 l/m 3,2 km/h (1 Bft) W 270 0 min 0,000 mm 0,0 UV-I 0 W/m 0,8 C 1,7 C 4,8 km/h (1 Bft) 95,65 %
01.01.2018 01:36 1,7 C 3,9 C 94 % 1007,7 hPa 0,0 l/m 4,8 km/h (1 Bft) S-SO 157 0 min 0,000 mm 0,0 UV-I 0 W/m 0,8 C 1,7 C 6,4 km/h (2 Bft) 100,00 %
01.01.2018 01:37 1,7 C 3,9 C 94 % 1007,5 hPa 0,0 l/m 3,2 km/h (1 Bft) S-SO 157 0 min 0,000 mm 0,0 UV-I 0 W/m 0,8 C 1,7 C 8,0 km/h (2 Bft) 91,30 %
01.01.2018 01:38 1,7 C 3,9 C 94 % 1007,6 hPa 0,0 l/m 4,8 km/h (1 Bft) S 180 0 min 0,000 mm 0,0 UV-I 0 W/m 0,8 C 1,7 C 6,4 km/h (2 Bft) 100,00 %
01.01.2018 01:39 1,7 C 3,9 C 94 % 1007,7 hPa 0,0 l/m 8,0 km/h (2 Bft) W 270 0 min 0,000 mm 0,0 UV-I 0 W/m 0,8 C 0,1 C 11,3 km/h (2 Bft) 95,65 %
01.01.2018 01:40 1,7 C 3,9 C 94 % 1007,7 hPa 0,0 l/m 4,8 km/h (1 Bft) W 270 0 min 0,000 mm 0,0 UV-I 0 W/m 0,8 C 1,7 C 6,4 km/h (2 Bft) 91,30 %
01.01.2018 01:41 1,7 C 3,9 C 94 % 1007,6 hPa 0,0 l/m 3,2 km/h (1 Bft) W 270 0 min 0,000 mm 0,0 UV-I 0 W/m 0,8 C 1,7 C 4,8 km/h (1 Bft) 100,00 %
01.01.2018 01:42 1,7 C 3,9 C 95 % 1007,5 hPa 0,0 l/m 3,2 km/h (1 Bft) S 180 0 min 0,000 mm 0,0 UV-I 0 W/m 1,0 C 1,7 C 6,4 km/h (2 Bft) 95,65 %
01.01.2018 01:43 1,7 C 3,9 C 95 % 1007,6 hPa 0,0 l/m 4,8 km/h (1 Bft) S-SW 202 0 min 0,000 mm 0,0 UV-I 0 W/m 1,0 C 1,7 C 9,7 km/h (2 Bft) 100,00 %
01.01.2018 01:44 1,7 C 3,9 C 95 % 1007,7 hPa 0,0 l/m 4,8 km/h (1 Bft) W-SW 247 0 min 0,000 mm 0,0 UV-I 0 W/m 1,0 C 1,7 C 9,7 km/h (2 Bft) 86,96 %
01.01.2018 01:45 1,7 C 3,9 C 95 % 1007,7 hPa 0,0 l/m 4,8 km/h (1 Bft) W-SW 247 0 min 0,000 mm 0,0 UV-I 0 W/m 1,0 C 1,7 C 6,4 km/h (2 Bft) 100,00 %
01.01.2018 01:46 1,8 C 3,9 C 95 % 1007,5 hPa 0,0 l/m 3,2 km/h (1 Bft) S-SW 202 0 min 0,000 mm 0,0 UV-I 0 W/m 1,1 C 1,8 C 4,8 km/h (1 Bft) 91,30 %
01.01.2018 01:47 1,8 C 3,9 C 95 % 1007,5 hPa 0,0 l/m 3,2 km/h (1 Bft) S 180 0 min 0,000 mm 0,0 UV-I 0 W/m 1,1 C 1,8 C 4,8 km/h (1 Bft) 100,00 %
01.01.2018 01:48 1,8 C 3,9 C 95 % 1007,4 hPa 0,0 l/m 1,6 km/h (1 Bft) S 180 0 min 0,000 mm 0,0 UV-I 0 W/m 1,1 C 1,8 C 4,8 km/h (1 Bft) 95,65 %
01.01.2018 01:49 1,8 C 3,9 C 94 % 1007,5 hPa 0,0 l/m 1,6 km/h (1 Bft) S 180 0 min 0,000 mm 0,0 UV-I 0 W/m 0,9 C 1,8 C 3,2 km/h (1 Bft) 95,65 %
01.01.2018 01:50 1,8 C 3,9 C 94 % 1007,5 hPa 0,0 l/m 3,2 km/h (1 Bft) W-NW 292 0 min 0,000 mm 0,0 UV-I 0 W/m 0,9 C 1,8 C 4,8 km/h (1 Bft) 100,00 %
01.01.2018 01:51 1,8 C 3,9 C 94 % 1007,6 hPa 0,0 l/m 1,6 km/h (1 Bft) W-NW 292 0 min 0,000 mm 0,0 UV-I 0 W/m 0,9 C 1,8 C 4,8 km/h (1 Bft) 86,96 %
01.01.2018 01:52 1,8 C 3,9 C 94 % 1007,6 hPa 0,0 l/m 0,0 km/h (0 Bft) W-NW 292 0 min 0,000 mm 0,0 UV-I 0 W/m 0,9 C 1,8 C 1,6 km/h (1 Bft) 100,00 %
01.01.2018 01:53 1,8 C 3,9 C 95 % 1007,6 hPa 0,0 l/m 0,0 km/h (0 Bft) W-NW 292 0 min 0,000 mm 0,0 UV-I 0 W/m 1,1 C 1,8 C 1,6 km/h (1 Bft) 95,65 %
01.01.2018 01:54 1,8 C 3,9 C 94 % 1007,7 hPa 0,0 l/m 3,2 km/h (1 Bft) W-NW 292 0 min 0,000 mm 0,0 UV-I 0 W/m 0,9 C 1,8 C 4,8 km/h (1 Bft) 100,00 %
01.01.2018 01:55 1,9 C 3,9 C 95 % 1007,6 hPa 0,0 l/m 3,2 km/h (1 Bft) W-NW 292 0 min 0,000 mm 0,0 UV-I 0 W/m 1,2 C 1,9 C 4,8 km/h (1 Bft) 95,65 %
01.01.2018 01:56 1,9 C 3,9 C 95 % 1007,7 hPa 0,0 l/m 3,2 km/h (1 Bft) W-NW 292 0 min 0,000 mm 0,0 UV-I 0 W/m 1,2 C 1,9 C 3,2 km/h (1 Bft) 100,00 %
01.01.2018 01:57 1,9 C 3,9 C 95 % 1007,7 hPa 0,0 l/m 3,2 km/h (1 Bft) W-NW 292 0 min 0,000 mm 0,0 UV-I 0 W/m 1,2 C 1,9 C 4,8 km/h (1 Bft) 95,65 %
01.01.2018 01:58 1,9 C 3,9 C 95 % 1007,7 hPa 0,0 l/m 1,6 km/h (1 Bft) W-NW 292 0 min 0,000 mm 0,0 UV-I 0 W/m 1,2 C 1,9 C 3,2 km/h (1 Bft) 91,30 %
01.01.2018 01:59 1,9 C 3,9 C 95 % 1007,7 hPa 0,0 l/m 1,6 km/h (1 Bft) W-NW 292 0 min 0,000 mm 0,0 UV-I 0 W/m 1,2 C 1,9 C 3,2 km/h (1 Bft) 100,00 %
01.01.2018 02:00 1,9 C 3,9 C 94 % 1007,7 hPa 0,0 l/m 3,2 km/h (1 Bft) W-NW 292 0 min 0,000 mm 0,0 UV-I 0 W/m 1,0 C 1,9 C 3,2 km/h (1 Bft) 100,00 %
01.01.2018 02:01 1,9 C 3,9 C 95 % 1007,7 hPa 0,0 l/m 3,2 km/h (1 Bft) W-NW 292 0 min 0,000 mm 0,0 UV-I 0 W/m 1,2 C 1,9 C 4,8 km/h (1 Bft) 100,00 %
01.01.2018 02:02 1,9 C 3,9 C 95 % 1007,6 hPa 0,0 l/m 4,8 km/h (1 Bft) W-NW 292 0 min 0,000 mm 0,0 UV-I 0 W/m 1,2 C 1,9 C 4,8 km/h (1 Bft) 95,65 %
01.01.2018 02:03 1,9 C 3,9 C 94 % 1007,6 hPa 0,0 l/m 3,2 km/h (1 Bft) W-NW 292 0 min 0,000 mm 0,0 UV-I 0 W/m 1,0 C 1,9 C 4,8 km/h (1 Bft) 100,00 %
01.01.2018 02:04 1,9 C 3,9 C 94 % 1007,6 hPa 0,0 l/m 1,6 km/h (1 Bft) W-NW 292 0 min 0,000 mm 0,0 UV-I 0 W/m 1,0 C 1,9 C 3,2 km/h (1 Bft) 95,65 %
01.01.2018 02:05 1,9 C 3,9 C 94 % 1007,6 hPa 0,0 l/m 1,6 km/h (1 Bft) W-NW 292 0 min 0,000 mm 0,0 UV-I 0 W/m 1,0 C 1,9 C 3,2 km/h (1 Bft) 91,30 %
01.01.2018 02:06 2,0 C 3,9 C 94 % 1007,6 hPa 0,0 l/m 3,2 km/h (1 Bft) W-NW 292 0 min 0,000 mm 0,0 UV-I 0 W/m 1,1 C 2,0 C 3,2 km/h (1 Bft) 100,00 %
01.01.2018 02:07 2,1 C 3,9 C 94 % 1007,7 hPa 0,0 l/m 0,0 km/h (0 Bft) W-NW 292 0 min 0,000 mm 0,0 UV-I 0 W/m 1,2 C 2,1 C 3,2 km/h (1 Bft) 95,65 %
01.01.2018 02:08 2,0 C 3,9 C 94 % 1007,7 hPa 0,0 l/m 0,0 km/h (0 Bft) W-NW 292 0 min 0,000 mm 0,0 UV-I 0 W/m 1,1 C 2,0 C 1,6 km/h (1 Bft) 100,00 %
01.01.2018 02:09 1,9 C 3,9 C 94 % 1007,6 hPa 0,0 l/m 0,0 km/h (0 Bft) N 0 0 min 0,000 mm 0,0 UV-I 0 W/m 1,0 C 1,9 C 0,0 km/h (0 Bft) 100,00 %
01.01.2018 02:10 1,8 C 3,9 C 94 % 1007,6 hPa 0,0 l/m 3,2 km/h (1 Bft) W-NW 292 0 min 0,000 mm 0,0 UV-I 0 W/m 0,9 C 1,8 C 4,8 km/h (1 Bft) 95,65 %
01.01.2018 02:11 1,8 C 3,9 C 94 % 1007,6 hPa 0,0 l/m 3,2 km/h (1 Bft) W-NW 292 0 min 0,000 mm 0,0 UV-I 0 W/m 0,9 C 1,8 C 3,2 km/h (1 Bft) 100,00 %
01.01.2018 02:12 1,8 C 3,9 C 94 % 1007,6 hPa 0,0 l/m 3,2 km/h (1 Bft) W-NW 292 0 min 0,000 mm 0,0 UV-I 0 W/m 0,9 C 1,8 C 3,2 km/h (1 Bft) 86,96 %
01.01.2018 02:13 1,7 C 3,9 C 94 % 1007,5 hPa 0,0 l/m 1,6 km/h (1 Bft) W-NW 292 0 min 0,000 mm 0,0 UV-I 0 W/m 0,8 C 1,7 C 3,2 km/h (1 Bft) 100,00 %
01.01.2018 02:14 1,6 C 3,9 C 94 % 1007,5 hPa 0,0 l/m 1,6 km/h (1 Bft) W-NW 292 0 min 0,000 mm 0,0 UV-I 0 W/m 0,7 C 1,6 C 1,6 km/h (1 Bft) 95,65 %
01.01.2018 02:15 1,4 C 3,9 C 94 % 1007,6 hPa 0,0 l/m 3,2 km/h (1 Bft) W-NW 292 0 min 0,000 mm 0,0 UV-I 0 W/m 0,5 C 1,4 C 4,8 km/h (1 Bft) 100,00 %
01.01.2018 02:16 1,5 C 3,9 C 94 % 1007,6 hPa 0,0 l/m 3,2 km/h (1 Bft) W-NW 292 0 min 0,000 mm 0,0 UV-I 0 W/m 0,6 C 1,5 C 4,8 km/h (1 Bft) 95,65 %
01.01.2018 02:17 1,6 C 3,9 C 94 % 1007,6 hPa 0,0 l/m 1,6 km/h (1 Bft) W-NW 292 0 min 0,000 mm 0,0 UV-I 0 W/m 0,7 C 1,6 C 3,2 km/h (1 Bft) 100,00 %
01.01.2018 02:18 1,7 C 3,9 C 95 % 1007,5 hPa 0,0 l/m 1,6 km/h (1 Bft) W 270 0 min 0,000 mm 0,0 UV-I 0 W/m 1,0 C 1,7 C 3,2 km/h (1 Bft) 95,65 %
01.01.2018 02:19 1,7 C 3,9 C 95 % 1007,5 hPa 0,0 l/m 4,8 km/h (1 Bft) SO 135 0 min 0,000 mm 0,0 UV-I 0 W/m 1,0 C 1,7 C 4,8 km/h (1 Bft) 95,65 %
01.01.2018 02:20 1,5 C 3,9 C 94 % 1007,5 hPa 0,0 l/m 3,2 km/h (1 Bft) SO 135 0 min 0,000 mm 0,0 UV-I 0 W/m 0,6 C 1,5 C 6,4 km/h (2 Bft) 95,65 %
01.01.2018 02:21 1,5 C 3,9 C 94 % 1007,7 hPa 0,0 l/m 4,8 km/h (1 Bft) W 270 0 min 0,000 mm 0,0 UV-I 0 W/m 0,6 C 1,5 C 4,8 km/h (1 Bft) 100,00 %
01.01.2018 02:22 1,5 C 3,9 C 94 % 1007,8 hPa 0,0 l/m 3,2 km/h (1 Bft) W 270 0 min 0,000 mm 0,0 UV-I 0 W/m 0,6 C 1,5 C 4,8 km/h (1 Bft) 95,65 %
01.01.2018 02:23 1,5 C 3,9 C 94 % 1007,5 hPa 0,0 l/m 6,4 km/h (2 Bft) SO 135 0 min 0,000 mm 0,0 UV-I 0 W/m 0,6 C 1,5 C 12,9 km/h (3 Bft) 100,00 %
01.01.2018 02:24 1,6 C 3,9 C 95 % 1007,3 hPa 0,0 l/m 6,4 km/h (2 Bft) SO 135 0 min 0,000 mm 0,0 UV-I 0 W/m 0,9 C 1,6 C 12,9 km/h (3 Bft) 95,65 %
01.01.2018 02:25 1,5 C 3,9 C 95 % 1007,4 hPa 0,0 l/m 3,2 km/h (1 Bft) SO 135 0 min 0,000 mm 0,0 UV-I 0 W/m 0,8 C 1,5 C 12,9 km/h (3 Bft) 100,00 %
01.01.2018 02:26 1,6 C 3,9 C 95 % 1007,7 hPa 0,0 l/m 4,8 km/h (1 Bft) NW 315 0 min 0,000 mm 0,0 UV-I 0 W/m 0,9 C 1,6 C 8,0 km/h (2 Bft) 91,30 %
01.01.2018 02:27 1,6 C 3,9 C 95 % 1007,7 hPa 0,0 l/m 1,6 km/h (1 Bft) NW 315 0 min 0,000 mm 0,0 UV-I 0 W/m 0,9 C 1,6 C 3,2 km/h (1 Bft) 95,65 %
01.01.2018 02:28 1,6 C 3,9 C 95 % 1007,6 hPa 0,0 l/m 1,6 km/h (1 Bft) NW 315 0 min 0,000 mm 0,0 UV-I 0 W/m 0,9 C 1,6 C 4,8 km/h (1 Bft) 100,00 %
01.01.2018 02:29 1,6 C 3,9 C 95 % 1007,6 hPa 0,0 l/m 4,8 km/h (1 Bft) SW 225 0 min 0,000 mm 0,0 UV-I 0 W/m 0,9 C 1,6 C 6,4 km/h (2 Bft) 95,65 %
01.01.2018 02:30 1,7 C 3,9 C 95 % 1007,7 hPa 0,0 l/m 3,2 km/h (1 Bft) SW 225 0 min 0,000 mm 0,0 UV-I 0 W/m 1,0 C 1,7 C 4,8 km/h (1 Bft) 100,00 %
01.01.2018 02:31 1,7 C 3,9 C 95 % 1007,8 hPa 0,0 l/m 3,2 km/h (1 Bft) SW 225 0 min 0,000 mm 0,0 UV-I 0 W/m 1,0 C 1,7 C 3,2 km/h (1 Bft) 95,65 %
01.01.2018 02:32 1,7 C 3,9 C 95 % 1007,8 hPa 0,0 l/m 1,6 km/h (1 Bft) SW 225 0 min 0,000 mm 0,0 UV-I 0 W/m 1,0 C 1,7 C 3,2 km/h (1 Bft) 100,00 %
01.01.2018 02:33 1,6 C 3,9 C 95 % 1007,8 hPa 0,0 l/m 3,2 km/h (1 Bft) SW 225 0 min 0,000 mm 0,0 UV-I 0 W/m 0,9 C 1,6 C 3,2 km/h (1 Bft) 91,30 %
01.01.2018 02:34 1,6 C 3,9 C 95 % 1007,8 hPa 0,0 l/m 3,2 km/h (1 Bft) SW 225 0 min 0,000 mm 0,0 UV-I 0 W/m 0,9 C 1,6 C 4,8 km/h (1 Bft) 95,65 %
01.01.2018 02:35 1,5 C 3,9 C 95 % 1007,8 hPa 0,0 l/m 3,2 km/h (1 Bft) SW 225 0 min 0,000 mm 0,0 UV-I 0 W/m 0,8 C 1,5 C 4,8 km/h (1 Bft) 95,65 %
01.01.2018 02:36 1,5 C 3,9 C 95 % 1007,7 hPa 0,0 l/m 3,2 km/h (1 Bft) SW 225 0 min 0,000 mm 0,0 UV-I 0 W/m 0,8 C 1,5 C 4,8 km/h (1 Bft) 95,65 %
01.01.2018 02:37 1,5 C 3,9 C 95 % 1007,7 hPa 0,0 l/m 1,6 km/h (1 Bft) S-SW 202 0 min 0,000 mm 0,0 UV-I 0 W/m 0,8 C 1,5 C 4,8 km/h (1 Bft) 95,65 %
01.01.2018 02:38 1,5 C 3,9 C 95 % 1007,6 hPa 0,0 l/m 1,6 km/h (1 Bft) S-SW 202 0 min 0,000 mm 0,0 UV-I 0 W/m 0,8 C 1,5 C 3,2 km/h (1 Bft) 100,00 %
01.01.2018 02:39 1,5 C 3,9 C 95 % 1007,5 hPa 0,0 l/m 1,6 km/h (1 Bft) S 180 0 min 0,000 mm 0,0 UV-I 0 W/m 0,8 C 1,5 C 3,2 km/h (1 Bft) 100,00 %
01.01.2018 02:40 1,6 C 3,9 C 95 % 1007,5 hPa 0,0 l/m 3,2 km/h (1 Bft) S 180 0 min 0,000 mm 0,0 UV-I 0 W/m 0,9 C 1,6 C 4,8 km/h (1 Bft) 95,65 %
01.01.2018 02:41 1,6 C 3,9 C 95 % 1007,5 hPa 0,0 l/m 3,2 km/h (1 Bft) S 180 0 min 0,000 mm 0,0 UV-I 0 W/m 0,9 C 1,6 C 4,8 km/h (1 Bft) 100,00 %
01.01.2018 02:42 1,6 C 3,9 C 95 % 1007,6 hPa 0,0 l/m 1,6 km/h (1 Bft) S 180 0 min 0,000 mm 0,0 UV-I 0 W/m 0,9 C 1,6 C 3,2 km/h (1 Bft) 95,65 %
01.01.2018 02:43 1,7 C 3,9 C 95 % 1007,5 hPa 0,0 l/m 3,2 km/h (1 Bft) S 180 0 min 0,000 mm 0,0 UV-I 0 W/m 1,0 C 1,7 C 4,8 km/h (1 Bft) 100,00 %
01.01.2018 02:44 1,7 C 3,9 C 95 % 1007,6 hPa 0,0 l/m 3,2 km/h (1 Bft) S 180 0 min 0,000 mm 0,0 UV-I 0 W/m 1,0 C 1,7 C 4,8 km/h (1 Bft) 91,30 %
01.01.2018 02:45 1,7 C 3,9 C 95 % 1007,5 hPa 0,0 l/m 3,2 km/h (1 Bft) S 180 0 min 0,000 mm 0,0 UV-I 0 W/m 1,0 C 1,7 C 6,4 km/h (2 Bft) 100,00 %
01.01.2018 02:46 1,8 C 3,9 C 95 % 1007,6 hPa 0,0 l/m 4,8 km/h (1 Bft) S-SW 202 0 min 0,000 mm 0,0 UV-I 0 W/m 1,1 C 1,8 C 6,4 km/h (2 Bft) 100,00 %
01.01.2018 02:47 1,8 C 3,9 C 95 % 1007,7 hPa 0,0 l/m 4,8 km/h (1 Bft) S-SW 202 0 min 0,000 mm 0,0 UV-I 0 W/m 1,1 C 1,8 C 6,4 km/h (2 Bft) 95,65 %
01.01.2018 02:48 1,9 C 3,9 C 95 % 1007,6 hPa 0,0 l/m 3,2 km/h (1 Bft) S-SW 202 0 min 0,000 mm 0,0 UV-I 0 W/m 1,2 C 1,9 C 4,8 km/h (1 Bft) 100,00 %
01.01.2018 02:49 1,9 C 3,9 C 95 % 1007,6 hPa 0,0 l/m 3,2 km/h (1 Bft) S-SW 202 0 min 0,000 mm 0,0 UV-I 0 W/m 1,2 C 1,9 C 4,8 km/h (1 Bft) 100,00 %
01.01.2018 02:50 1,9 C 3,9 C 95 % 1007,6 hPa 0,0 l/m 3,2 km/h (1 Bft) S-SW 202 0 min 0,000 mm 0,0 UV-I 0 W/m 1,2 C 1,9 C 4,8 km/h (1 Bft) 100,00 %
01.01.2018 02:51 2,0 C 3,9 C 95 % 1007,7 hPa 0,0 l/m 3,2 km/h (1 Bft) S-SW 202 0 min 0,000 mm 0,0 UV-I 0 W/m 1,3 C 2,0 C 4,8 km/h (1 Bft) 100,00 %
01.01.2018 02:52 2,0 C 3,9 C 95 % 1007,7 hPa 0,0 l/m 4,8 km/h (1 Bft) SW 225 0 min 0,000 mm 0,0 UV-I 0 W/m 1,3 C 2,0 C 6,4 km/h (2 Bft) 100,00 %
01.01.2018 02:53 2,0 C 3,9 C 95 % 1007,7 hPa 0,0 l/m 1,6 km/h (1 Bft) SW 225 0 min 0,000 mm 0,0 UV-I 0 W/m 1,3 C 2,0 C 4,8 km/h (1 Bft) 100,00 %
01.01.2018 02:54 1,9 C 3,9 C 95 % 1007,6 hPa 0,0 l/m 0,0 km/h (0 Bft) SW 225 0 min 0,000 mm 0,0 UV-I 0 W/m 1,2 C 1,9 C 1,6 km/h (1 Bft) 95,65 %
01.01.2018 02:55 1,9 C 3,9 C 94 % 1007,6 hPa 0,0 l/m 3,2 km/h (1 Bft) SW 225 0 min 0,000 mm 0,0 UV-I 0 W/m 1,0 C 1,9 C 4,8 km/h (1 Bft) 100,00 %
01.01.2018 02:56 1,8 C 3,9 C 94 % 1007,7 hPa 0,0 l/m 4,8 km/h (1 Bft) SW 225 0 min 0,000 mm 0,0 UV-I 0 W/m 0,9 C 1,8 C 4,8 km/h (1 Bft) 100,00 %
01.01.2018 02:57 1,7 C 3,9 C 94 % 1007,7 hPa 0,0 l/m 3,2 km/h (1 Bft) SW 225 0 min 0,000 mm 0,0 UV-I 0 W/m 0,8 C 1,7 C 3,2 km/h (1 Bft) 100,00 %
01.01.2018 02:58 1,7 C 3,9 C 94 % 1007,7 hPa 0,0 l/m 3,2 km/h (1 Bft) SW 225 0 min 0,000 mm 0,0 UV-I 0 W/m 0,8 C 1,7 C 4,8 km/h (1 Bft) 100,00 %
01.01.2018 02:59 1,6 C 3,9 C 94 % 1007,6 hPa 0,0 l/m 3,2 km/h (1 Bft) SW 225 0 min 0,000 mm 0,0 UV-I 0 W/m 0,7 C 1,6 C 3,2 km/h (1 Bft) 100,00 %
01.01.2018 03:00 1,4 C 3,9 C 94 % 1007,7 hPa 0,0 l/m 4,8 km/h (1 Bft) SW 225 0 min 0,000 mm 0,0 UV-I 0 W/m 0,5 C 1,4 C 6,4 km/h (2 Bft) 100,00 %
01.01.2018 03:01 1,3 C 3,9 C 94 % 1007,7 hPa 0,0 l/m 4,8 km/h (1 Bft) SW 225 0 min 0,000 mm 0,0 UV-I 0 W/m 0,4 C 1,3 C 6,4 km/h (2 Bft) 95,65 %
01.01.2018 03:02 1,2 C 3,9 C 94 % 1007,7 hPa 0,0 l/m 1,6 km/h (1 Bft) SW 225 0 min 0,000 mm 0,0 UV-I 0 W/m 0,3 C 1,2 C 3,2 km/h (1 Bft) 95,65 %
01.01.2018 03:03 1,2 C 3,9 C 94 % 1007,6 hPa 0,0 l/m 3,2 km/h (1 Bft) SW 225 0 min 0,000 mm 0,0 UV-I 0 W/m 0,3 C 1,2 C 4,8 km/h (1 Bft) 100,00 %
01.01.2018 03:04 1,1 C 3,9 C 94 % 1007,7 hPa 0,0 l/m 4,8 km/h (1 Bft) SW 225 0 min 0,000 mm 0,0 UV-I 0 W/m 0,2 C 1,1 C 6,4 km/h (2 Bft) 100,00 %
01.01.2018 03:05 1,2 C 3,9 C 95 % 1007,7 hPa 0,0 l/m 3,2 km/h (1 Bft) SW 225 0 min 0,000 mm 0,0 UV-I 0 W/m 0,5 C 1,2 C 4,8 km/h (1 Bft) 100,00 %
01.01.2018 03:06 1,3 C 3,9 C 95 % 1007,6 hPa 0,0 l/m 3,2 km/h (1 Bft) SW 225 0 min 0,000 mm 0,0 UV-I 0 W/m 0,6 C 1,3 C 4,8 km/h (1 Bft) 100,00 %
01.01.2018 03:07 1,3 C 3,9 C 95 % 1007,6 hPa 0,0 l/m 4,8 km/h (1 Bft) SW 225 0 min 0,000 mm 0,0 UV-I 0 W/m 0,6 C 1,3 C 6,4 km/h (2 Bft) 95,65 %
01.01.2018 03:08 1,3 C 3,9 C 95 % 1007,7 hPa 0,0 l/m 3,2 km/h (1 Bft) SW 225 0 min 0,000 mm 0,0 UV-I 0 W/m 0,6 C 1,3 C 6,4 km/h (2 Bft) 95,65 %
01.01.2018 03:09 1,3 C 3,9 C 95 % 1007,7 hPa 0,0 l/m 3,2 km/h (1 Bft) SW 225 0 min 0,000 mm 0,0 UV-I 0 W/m 0,6 C 1,3 C 4,8 km/h (1 Bft) 100,00 %
01.01.2018 03:10 1,3 C 3,9 C 95 % 1007,7 hPa 0,0 l/m 4,8 km/h (1 Bft) SW 225 0 min 0,000 mm 0,0 UV-I 0 W/m 0,6 C 1,3 C 6,4 km/h (2 Bft) 100,00 %
01.01.2018 03:11 1,3 C 3,9 C 95 % 1007,7 hPa 0,0 l/m 4,8 km/h (1 Bft) SW 225 0 min 0,000 mm 0,0 UV-I 0 W/m 0,6 C 1,3 C 6,4 km/h (2 Bft) 100,00 %
01.01.2018 03:12 1,3 C 3,9 C 95 % 1007,7 hPa 0,0 l/m 4,8 km/h (1 Bft) SW 225 0 min 0,000 mm 0,0 UV-I 0 W/m 0,6 C 1,3 C 6,4 km/h (2 Bft) 100,00 %
01.01.2018 03:13 1,3 C 3,9 C 95 % 1007,7 hPa 0,0 l/m 3,2 km/h (1 Bft) SW 225 0 min 0,000 mm 0,0 UV-I 0 W/m 0,6 C 1,3 C 6,4 km/h (2 Bft) 100,00 %
01.01.2018 03:14 1,4 C 3,9 C 95 % 1007,7 hPa 0,0 l/m 4,8 km/h (1 Bft) SW 225 0 min 0,000 mm 0,0 UV-I 0 W/m 0,7 C 1,4 C 8,0 km/h (2 Bft) 100,00 %
01.01.2018 03:15 1,5 C 3,9 C 95 % 1007,7 hPa 0,0 l/m 4,8 km/h (1 Bft) SW 225 0 min 0,000 mm 0,0 UV-I 0 W/m 0,8 C 1,5 C 6,4 km/h (2 Bft) 86,96 %
01.01.2018 03:16 1,6 C 3,9 C 95 % 1007,7 hPa 0,0 l/m 4,8 km/h (1 Bft) SW 225 0 min 0,000 mm 0,0 UV-I 0 W/m 0,9 C 1,6 C 8,0 km/h (2 Bft) 100,00 %
01.01.2018 03:17 1,6 C 3,9 C 95 % 1007,7 hPa 0,0 l/m 4,8 km/h (1 Bft) SW 225 0 min 0,000 mm 0,0 UV-I 0 W/m 0,9 C 1,6 C 6,4 km/h (2 Bft) 100,00 %
01.01.2018 03:18 1,7 C 3,9 C 95 % 1007,7 hPa 0,0 l/m 4,8 km/h (1 Bft) SW 225 0 min 0,000 mm 0,0 UV-I 0 W/m 1,0 C 1,7 C 8,0 km/h (2 Bft) 95,65 %
01.01.2018 03:19 1,7 C 3,9 C 95 % 1007,7 hPa 0,0 l/m 4,8 km/h (1 Bft) SW 225 0 min 0,000 mm 0,0 UV-I 0 W/m 1,0 C 1,7 C 8,0 km/h (2 Bft) 100,00 %
01.01.2018 03:20 1,7 C 3,9 C 95 % 1007,7 hPa 0,0 l/m 6,4 km/h (2 Bft) SW 225 0 min 0,000 mm 0,0 UV-I 0 W/m 1,0 C 1,7 C 8,0 km/h (2 Bft) 100,00 %
01.01.2018 03:21 1,7 C 3,9 C 95 % 1007,8 hPa 0,0 l/m 6,4 km/h (2 Bft) SW 225 0 min 0,000 mm 0,0 UV-I 0 W/m 1,0 C 1,7 C 8,0 km/h (2 Bft) 100,00 %
01.01.2018 03:22 1,8 C 3,9 C 95 % 1007,7 hPa 0,0 l/m 4,8 km/h (1 Bft) SW 225 0 min 0,000 mm 0,0 UV-I 0 W/m 1,1 C 1,8 C 6,4 km/h (2 Bft) 95,65 %
01.01.2018 03:23 1,8 C 3,9 C 95 % 1007,8 hPa 0,0 l/m 6,4 km/h (2 Bft) SW 225 0 min 0,000 mm 0,0 UV-I 0 W/m 1,1 C 1,8 C 8,0 km/h (2 Bft) 91,30 %
01.01.2018 03:24 1,8 C 3,9 C 95 % 1007,8 hPa 0,0 l/m 9,7 km/h (2 Bft) SW 225 0 min 0,000 mm 0,0 UV-I 0 W/m 1,1 C -1,2 C 11,3 km/h (2 Bft) 100,00 %
01.01.2018 03:25 1,8 C 3,9 C 95 % 1007,8 hPa 0,0 l/m 6,4 km/h (2 Bft) SW 225 0 min 0,000 mm 0,0 UV-I 0 W/m 1,1 C 1,8 C 9,7 km/h (2 Bft) 100,00 %
01.01.2018 03:26 1,9 C 3,9 C 95 % 1007,7 hPa 0,0 l/m 8,0 km/h (2 Bft) SW 225 0 min 0,000 mm 0,0 UV-I 0 W/m 1,2 C 0,3 C 9,7 km/h (2 Bft) 100,00 %
01.01.2018 03:27 1,9 C 3,9 C 95 % 1007,8 hPa 0,0 l/m 6,4 km/h (2 Bft) S-SW 202 0 min 0,000 mm 0,0 UV-I 0 W/m 1,2 C 1,9 C 11,3 km/h (2 Bft) 95,65 %
01.01.2018 03:28 1,9 C 3,9 C 95 % 1007,7 hPa 0,0 l/m 4,8 km/h (1 Bft) S 180 0 min 0,000 mm 0,0 UV-I 0 W/m 1,2 C 1,9 C 8,0 km/h (2 Bft) 100,00 %
01.01.2018 03:29 1,9 C 3,9 C 94 % 1007,7 hPa 0,0 l/m 3,2 km/h (1 Bft) S 180 0 min 0,000 mm 0,0 UV-I 0 W/m 1,0 C 1,9 C 4,8 km/h (1 Bft) 95,65 %
01.01.2018 03:30 1,9 C 3,9 C 95 % 1007,7 hPa 0,0 l/m 4,8 km/h (1 Bft) S 180 0 min 0,000 mm 0,0 UV-I 0 W/m 1,2 C 1,9 C 8,0 km/h (2 Bft) 100,00 %
01.01.2018 03:31 2,1 C 3,9 C 95 % 1007,8 hPa 0,0 l/m 4,8 km/h (1 Bft) S-SW 202 0 min 0,000 mm 0,0 UV-I 0 W/m 1,4 C 2,1 C 6,4 km/h (2 Bft) 100,00 %
01.01.2018 03:32 2,1 C 3,9 C 95 % 1007,8 hPa 0,0 l/m 6,4 km/h (2 Bft) S-SW 202 0 min 0,000 mm 0,0 UV-I 0 W/m 1,4 C 2,1 C 8,0 km/h (2 Bft) 91,30 %
01.01.2018 03:33 2,2 C 3,9 C 95 % 1007,8 hPa 0,0 l/m 6,4 km/h (2 Bft) S-SW 202 0 min 0,000 mm 0,0 UV-I 0 W/m 1,5 C 2,2 C 8,0 km/h (2 Bft) 95,65 %
01.01.2018 03:34 2,2 C 3,9 C 95 % 1007,9 hPa 0,0 l/m 4,8 km/h (1 Bft) SW 225 0 min 0,000 mm 0,0 UV-I 0 W/m 1,5 C 2,2 C 6,4 km/h (2 Bft) 100,00 %
01.01.2018 03:35 2,3 C 3,9 C 94 % 1007,8 hPa 0,0 l/m 6,4 km/h (2 Bft) SW 225 0 min 0,000 mm 0,0 UV-I 0 W/m 1,4 C 2,3 C 8,0 km/h (2 Bft) 91,30 %
01.01.2018 03:36 2,3 C 3,9 C 94 % 1007,9 hPa 0,0 l/m 6,4 km/h (2 Bft) SW 225 0 min 0,000 mm 0,0 UV-I 0 W/m 1,4 C 2,3 C 8,0 km/h (2 Bft) 95,65 %
01.01.2018 03:37 2,4 C 3,9 C 94 % 1008,0 hPa 0,0 l/m 6,4 km/h (2 Bft) SW 225 0 min 0,000 mm 0,0 UV-I 0 W/m 1,5 C 2,4 C 8,0 km/h (2 Bft) 91,30 %
01.01.2018 03:38 2,4 C 3,9 C 94 % 1008,0 hPa 0,0 l/m 6,4 km/h (2 Bft) SW 225 0 min 0,000 mm 0,0 UV-I 0 W/m 1,5 C 2,4 C 6,4 km/h (2 Bft) 100,00 %
01.01.2018 03:39 2,4 C 3,9 C 94 % 1008,0 hPa 0,0 l/m 6,4 km/h (2 Bft) SW 225 0 min 0,000 mm 0,0 UV-I 0 W/m 1,5 C 2,4 C 9,7 km/h (2 Bft) 91,30 %
01.01.2018 03:40 2,4 C 3,9 C 94 % 1008,0 hPa 0,0 l/m 8,0 km/h (2 Bft) S-SW 202 0 min 0,000 mm 0,0 UV-I 0 W/m 1,5 C 0,9 C 9,7 km/h (2 Bft) 100,00 %
01.01.2018 03:41 2,4 C 3,9 C 94 % 1008,0 hPa 0,0 l/m 8,0 km/h (2 Bft) SW 225 0 min 0,000 mm 0,0 UV-I 0 W/m 1,5 C 0,9 C 12,9 km/h (3 Bft) 91,30 %
01.01.2018 03:42 2,4 C 3,9 C 93 % 1008,0 hPa 0,0 l/m 9,7 km/h (2 Bft) SW 225 0 min 0,000 mm 0,0 UV-I 0 W/m 1,4 C -0,6 C 11,3 km/h (2 Bft) 95,65 %
01.01.2018 03:43 2,4 C 3,9 C 93 % 1008,0 hPa 0,0 l/m 8,0 km/h (2 Bft) SW 225 0 min 0,000 mm 0,0 UV-I 0 W/m 1,4 C 0,9 C 9,7 km/h (2 Bft) 91,30 %
01.01.2018 03:44 2,4 C 3,9 C 94 % 1008,1 hPa 0,0 l/m 8,0 km/h (2 Bft) SW 225 0 min 0,000 mm 0,0 UV-I 0 W/m 1,5 C 0,9 C 11,3 km/h (2 Bft) 95,65 %
01.01.2018 03:45 2,4 C 3,9 C 93 % 1008,1 hPa 0,0 l/m 6,4 km/h (2 Bft) SW 225 0 min 0,000 mm 0,0 UV-I 0 W/m 1,4 C 2,4 C 8,0 km/h (2 Bft) 95,65 %
01.01.2018 03:46 2,3 C 3,9 C 93 % 1008,1 hPa 0,0 l/m 6,4 km/h (2 Bft) SW 225 0 min 0,000 mm 0,0 UV-I 0 W/m 1,3 C 2,3 C 9,7 km/h (2 Bft) 91,30 %
01.01.2018 03:47 2,3 C 3,9 C 93 % 1008,1 hPa 0,0 l/m 6,4 km/h (2 Bft) SW 225 0 min 0,000 mm 0,0 UV-I 0 W/m 1,3 C 2,3 C 8,0 km/h (2 Bft) 100,00 %
01.01.2018 03:48 2,3 C 3,9 C 93 % 1008,2 hPa 0,0 l/m 8,0 km/h (2 Bft) SW 225 0 min 0,000 mm 0,0 UV-I 0 W/m 1,3 C 0,8 C 11,3 km/h (2 Bft) 91,30 %
01.01.2018 03:49 2,2 C 3,9 C 93 % 1008,2 hPa 0,0 l/m 8,0 km/h (2 Bft) SW 225 0 min 0,000 mm 0,0 UV-I 0 W/m 1,2 C 0,7 C 11,3 km/h (2 Bft) 95,65 %
01.01.2018 03:50 2,2 C 3,9 C 93 % 1008,2 hPa 0,0 l/m 8,0 km/h (2 Bft) SW 225 0 min 0,000 mm 0,0 UV-I 0 W/m 1,2 C 0,7 C 11,3 km/h (2 Bft) 91,30 %
01.01.2018 03:51 2,2 C 3,9 C 93 % 1008,2 hPa 0,0 l/m 8,0 km/h (2 Bft) SW 225 0 min 0,000 mm 0,0 UV-I 0 W/m 1,2 C 0,7 C 11,3 km/h (2 Bft) 91,30 %
01.01.2018 03:52 2,3 C 3,9 C 94 % 1008,2 hPa 0,0 l/m 6,4 km/h (2 Bft) W-SW 247 0 min 0,000 mm 0,0 UV-I 0 W/m 1,4 C 2,3 C 9,7 km/h (2 Bft) 95,65 %
01.01.2018 03:53 2,3 C 3,9 C 94 % 1008,2 hPa 0,0 l/m 8,0 km/h (2 Bft) SW 225 0 min 0,000 mm 0,0 UV-I 0 W/m 1,4 C 0,8 C 11,3 km/h (2 Bft) 95,65 %
01.01.2018 03:54 2,3 C 3,9 C 93 % 1008,2 hPa 0,0 l/m 9,7 km/h (2 Bft) SW 225 0 min 0,000 mm 0,0 UV-I 0 W/m 1,3 C -0,7 C 14,5 km/h (3 Bft) 95,65 %
01.01.2018 03:55 2,3 C 3,9 C 93 % 1008,2 hPa 0,0 l/m 9,7 km/h (2 Bft) W-SW 247 0 min 0,000 mm 0,0 UV-I 0 W/m 1,3 C -0,7 C 14,5 km/h (3 Bft) 91,30 %
01.01.2018 03:56 2,3 C 3,9 C 93 % 1008,2 hPa 0,0 l/m 6,4 km/h (2 Bft) SW 225 0 min 0,000 mm 0,0 UV-I 0 W/m 1,3 C 2,3 C 11,3 km/h (2 Bft) 95,65 %
01.01.2018 03:57 2,4 C 3,9 C 93 % 1008,2 hPa 0,0 l/m 6,4 km/h (2 Bft) SW 225 0 min 0,000 mm 0,0 UV-I 0 W/m 1,4 C 2,4 C 9,7 km/h (2 Bft) 91,30 %
01.01.2018 03:58 2,4 C 3,9 C 93 % 1008,3 hPa 0,0 l/m 6,4 km/h (2 Bft) W-SW 247 0 min 0,000 mm 0,0 UV-I 0 W/m 1,4 C 2,4 C 11,3 km/h (2 Bft) 91,30 %
01.01.2018 03:59 2,4 C 3,9 C 93 % 1008,2 hPa 0,0 l/m 6,4 km/h (2 Bft) W-SW 247 0 min 0,000 mm 0,0 UV-I 0 W/m 1,4 C 2,4 C 6,4 km/h (2 Bft) 100,00 %
01.01.2018 04:00 2,4 C 3,9 C 93 % 1008,2 hPa 0,0 l/m 6,4 km/h (2 Bft) SW 225 0 min 0,000 mm 0,0 UV-I 0 W/m 1,4 C 2,4 C 9,7 km/h (2 Bft) 91,30 %
01.01.2018 04:01 2,4 C 3,9 C 93 % 1008,1 hPa 0,0 l/m 4,8 km/h (1 Bft) SW 225 0 min 0,000 mm 0,0 UV-I 0 W/m 1,4 C 2,4 C 8,0 km/h (2 Bft) 100,00 %
01.01.2018 04:02 2,4 C 3,9 C 93 % 1008,1 hPa 0,0 l/m 6,4 km/h (2 Bft) SW 225 0 min 0,000 mm 0,0 UV-I 0 W/m 1,4 C 2,4 C 8,0 km/h (2 Bft) 91,30 %
01.01.2018 04:03 2,3 C 3,9 C 93 % 1008,1 hPa 0,0 l/m 6,4 km/h (2 Bft) S-SW 202 0 min 0,000 mm 0,0 UV-I 0 W/m 1,3 C 2,3 C 8,0 km/h (2 Bft) 100,00 %
01.01.2018 04:04 2,3 C 3,9 C 93 % 1008,1 hPa 0,0 l/m 6,4 km/h (2 Bft) S-SW 202 0 min 0,000 mm 0,0 UV-I 0 W/m 1,3 C 2,3 C 9,7 km/h (2 Bft) 91,30 %
01.01.2018 04:05 2,4 C 3,9 C 93 % 1008,1 hPa 0,0 l/m 6,4 km/h (2 Bft) SW 225 0 min 0,000 mm 0,0 UV-I 0 W/m 1,4 C 2,4 C 8,0 km/h (2 Bft) 95,65 %
01.01.2018 04:06 2,4 C 3,9 C 93 % 1008,0 hPa 0,0 l/m 4,8 km/h (1 Bft) SW 225 0 min 0,000 mm 0,0 UV-I 0 W/m 1,4 C 2,4 C 6,4 km/h (2 Bft) 91,30 %
01.01.2018 04:07 2,4 C 3,9 C 93 % 1008,1 hPa 0,0 l/m 4,8 km/h (1 Bft) SW 225 0 min 0,000 mm 0,0 UV-I 0 W/m 1,4 C 2,4 C 6,4 km/h (2 Bft) 95,65 %
01.01.2018 04:08 2,3 C 3,9 C 93 % 1008,1 hPa 0,0 l/m 4,8 km/h (1 Bft) SW 225 0 min 0,000 mm 0,0 UV-I 0 W/m 1,3 C 2,3 C 6,4 km/h (2 Bft) 100,00 %
01.01.2018 04:09 2,4 C 3,9 C 93 % 1008,1 hPa 0,0 l/m 4,8 km/h (1 Bft) W-SW 247 0 min 0,000 mm 0,0 UV-I 0 W/m 1,4 C 2,4 C 6,4 km/h (2 Bft) 95,65 %
01.01.2018 04:10 2,4 C 3,9 C 93 % 1008,1 hPa 0,0 l/m 3,2 km/h (1 Bft) W-SW 247 0 min 0,000 mm 0,0 UV-I 0 W/m 1,4 C 2,4 C 4,8 km/h (1 Bft) 100,00 %
01.01.2018 04:11 2,3 C 3,9 C 93 % 1008,0 hPa 0,0 l/m 4,8 km/h (1 Bft) W-SW 247 0 min 0,000 mm 0,0 UV-I 0 W/m 1,3 C 2,3 C 6,4 km/h (2 Bft) 86,96 %
01.01.2018 04:12 2,3 C 3,9 C 93 % 1008,1 hPa 0,0 l/m 3,2 km/h (1 Bft) SW 225 0 min 0,000 mm 0,0 UV-I 0 W/m 1,3 C 2,3 C 4,8 km/h (1 Bft) 95,65 %
01.01.2018 04:13 2,2 C 3,9 C 93 % 1008,1 hPa 0,0 l/m 3,2 km/h (1 Bft) SW 225 0 min 0,000 mm 0,0 UV-I 0 W/m 1,2 C 2,2 C 4,8 km/h (1 Bft) 100,00 %
01.01.2018 04:14 2,2 C 3,9 C 93 % 1008,1 hPa 0,0 l/m 3,2 km/h (1 Bft) SW 225 0 min 0,000 mm 0,0 UV-I 0 W/m 1,2 C 2,2 C 4,8 km/h (1 Bft) 100,00 %
01.01.2018 04:15 2,2 C 3,9 C 93 % 1008,0 hPa 0,0 l/m 3,2 km/h (1 Bft) SW 225 0 min 0,000 mm 0,0 UV-I 0 W/m 1,2 C 2,2 C 4,8 km/h (1 Bft) 95,65 %
01.01.2018 04:16 2,1 C 3,9 C 93 % 1008,0 hPa 0,0 l/m 3,2 km/h (1 Bft) SW 225 0 min 0,000 mm 0,0 UV-I 0 W/m 1,1 C 2,1 C 4,8 km/h (1 Bft) 95,65 %
01.01.2018 04:17 1,9 C 3,9 C 93 % 1008,0 hPa 0,0 l/m 3,2 km/h (1 Bft) S-SW 202 0 min 0,000 mm 0,0 UV-I 0 W/m 0,9 C 1,9 C 6,4 km/h (2 Bft) 100,00 %
01.01.2018 04:18 1,9 C 3,9 C 93 % 1008,0 hPa 0,0 l/m 3,2 km/h (1 Bft) S-SW 202 0 min 0,000 mm 0,0 UV-I 0 W/m 0,9 C 1,9 C 6,4 km/h (2 Bft) 95,65 %
01.01.2018 04:19 1,8 C 3,9 C 93 % 1008,0 hPa 0,0 l/m 3,2 km/h (1 Bft) S-SW 202 0 min 0,000 mm 0,0 UV-I 0 W/m 0,8 C 1,8 C 6,4 km/h (2 Bft) 95,65 %
01.01.2018 04:20 1,8 C 3,9 C 93 % 1008,0 hPa 0,0 l/m 4,8 km/h (1 Bft) S-SW 202 0 min 0,000 mm 0,0 UV-I 0 W/m 0,8 C 1,8 C 6,4 km/h (2 Bft) 100,00 %
01.01.2018 04:21 1,9 C 3,9 C 94 % 1008,0 hPa 0,0 l/m 4,8 km/h (1 Bft) S-SW 202 0 min 0,000 mm 0,0 UV-I 0 W/m 1,0 C 1,9 C 8,0 km/h (2 Bft) 100,00 %
01.01.2018 04:22 1,9 C 3,9 C 94 % 1008,0 hPa 0,0 l/m 6,4 km/h (2 Bft) S-SW 202 0 min 0,000 mm 0,0 UV-I 0 W/m 1,0 C 1,9 C 8,0 km/h (2 Bft) 100,00 %
01.01.2018 04:23 1,9 C 3,9 C 94 % 1008,0 hPa 0,0 l/m 4,8 km/h (1 Bft) SW 225 0 min 0,000 mm 0,0 UV-I 0 W/m 1,0 C 1,9 C 8,0 km/h (2 Bft) 100,00 %
01.01.2018 04:24 1,9 C 3,9 C 94 % 1008,0 hPa 0,0 l/m 6,4 km/h (2 Bft) S 180 0 min 0,000 mm 0,0 UV-I 0 W/m 1,0 C 1,9 C 9,7 km/h (2 Bft) 100,00 %
01.01.2018 04:25 1,9 C 3,9 C 93 % 1007,9 hPa 0,0 l/m 4,8 km/h (1 Bft) S 180 0 min 0,000 mm 0,0 UV-I 0 W/m 0,9 C 1,9 C 9,7 km/h (2 Bft) 91,30 %
01.01.2018 04:26 1,9 C 3,9 C 93 % 1007,9 hPa 0,0 l/m 4,8 km/h (1 Bft) S 180 0 min 0,000 mm 0,0 UV-I 0 W/m 0,9 C 1,9 C 8,0 km/h (2 Bft) 100,00 %
01.01.2018 04:27 1,9 C 3,9 C 93 % 1007,9 hPa 0,0 l/m 4,8 km/h (1 Bft) S-SW 202 0 min 0,000 mm 0,0 UV-I 0 W/m 0,9 C 1,9 C 8,0 km/h (2 Bft) 100,00 %
01.01.2018 04:28 1,9 C 3,9 C 93 % 1007,9 hPa 0,0 l/m 4,8 km/h (1 Bft) S 180 0 min 0,000 mm 0,0 UV-I 0 W/m 0,9 C 1,9 C 8,0 km/h (2 Bft) 100,00 %
01.01.2018 04:29 2,0 C 3,9 C 93 % 1007,8 hPa 0,0 l/m 6,4 km/h (2 Bft) S-SW 202 0 min 0,000 mm 0,0 UV-I 0 W/m 1,0 C 2,0 C 8,0 km/h (2 Bft) 100,00 %
01.01.2018 04:30 2,1 C 3,9 C 93 % 1007,8 hPa 0,0 l/m 4,8 km/h (1 Bft) S-SW 202 0 min 0,000 mm 0,0 UV-I 0 W/m 1,1 C 2,1 C 8,0 km/h (2 Bft) 100,00 %
01.01.2018 04:31 2,1 C 3,9 C 93 % 1007,8 hPa 0,0 l/m 4,8 km/h (1 Bft) SW 225 0 min 0,000 mm 0,0 UV-I 0 W/m 1,1 C 2,1 C 8,0 km/h (2 Bft) 100,00 %
01.01.2018 04:32 2,1 C 3,9 C 93 % 1007,7 hPa 0,0 l/m 4,8 km/h (1 Bft) SW 225 0 min 0,000 mm 0,0 UV-I 0 W/m 1,1 C 2,1 C 6,4 km/h (2 Bft) 95,65 %
01.01.2018 04:33 2,1 C 3,9 C 93 % 1007,8 hPa 0,0 l/m 3,2 km/h (1 Bft) S-SW 202 0 min 0,000 mm 0,0 UV-I 0 W/m 1,1 C 2,1 C 6,4 km/h (2 Bft) 100,00 %
01.01.2018 04:34 2,1 C 3,9 C 93 % 1007,8 hPa 0,0 l/m 6,4 km/h (2 Bft) S-SW 202 0 min 0,000 mm 0,0 UV-I 0 W/m 1,1 C 2,1 C 8,0 km/h (2 Bft) 100,00 %
01.01.2018 04:35 2,1 C 3,9 C 93 % 1007,9 hPa 0,0 l/m 4,8 km/h (1 Bft) S-SW 202 0 min 0,000 mm 0,0 UV-I 0 W/m 1,1 C 2,1 C 6,4 km/h (2 Bft) 100,00 %
01.01.2018 04:36 2,1 C 3,9 C 93 % 1007,9 hPa 0,0 l/m 4,8 km/h (1 Bft) SW 225 0 min 0,000 mm 0,0 UV-I 0 W/m 1,1 C 2,1 C 8,0 km/h (2 Bft) 95,65 %
01.01.2018 04:37 2,1 C 3,9 C 93 % 1007,8 hPa 0,0 l/m 6,4 km/h (2 Bft) SW 225 0 min 0,000 mm 0,0 UV-I 0 W/m 1,1 C 2,1 C 9,7 km/h (2 Bft) 100,00 %
01.01.2018 04:38 2,1 C 3,9 C 93 % 1007,9 hPa 0,0 l/m 6,4 km/h (2 Bft) S-SW 202 0 min 0,000 mm 0,0 UV-I 0 W/m 1,1 C 2,1 C 9,7 km/h (2 Bft) 100,00 %
01.01.2018 04:39 2,1 C 3,9 C 93 % 1007,8 hPa 0,0 l/m 6,4 km/h (2 Bft) S-SW 202 0 min 0,000 mm 0,0 UV-I 0 W/m 1,1 C 2,1 C 8,0 km/h (2 Bft) 95,65 %
01.01.2018 04:40 2,2 C 3,9 C 93 % 1007,8 hPa 0,0 l/m 6,4 km/h (2 Bft) SW 225 0 min 0,000 mm 0,0 UV-I 0 W/m 1,2 C 2,2 C 8,0 km/h (2 Bft) 100,00 %
01.01.2018 04:41 2,3 C 3,9 C 93 % 1007,8 hPa 0,0 l/m 6,4 km/h (2 Bft) S-SW 202 0 min 0,000 mm 0,0 UV-I 0 W/m 1,3 C 2,3 C 8,0 km/h (2 Bft) 100,00 %
01.01.2018 04:42 2,3 C 3,9 C 93 % 1007,7 hPa 0,0 l/m 4,8 km/h (1 Bft) SW 225 0 min 0,000 mm 0,0 UV-I 0 W/m 1,3 C 2,3 C 6,4 km/h (2 Bft) 100,00 %
01.01.2018 04:43 2,3 C 3,9 C 93 % 1007,8 hPa 0,0 l/m 6,4 km/h (2 Bft) SW 225 0 min 0,000 mm 0,0 UV-I 0 W/m 1,3 C 2,3 C 9,7 km/h (2 Bft) 100,00 %
01.01.2018 04:44 2,3 C 3,9 C 93 % 1007,8 hPa 0,0 l/m 8,0 km/h (2 Bft) SW 225 0 min 0,000 mm 0,0 UV-I 0 W/m 1,3 C 0,8 C 9,7 km/h (2 Bft) 100,00 %
01.01.2018 04:45 2,4 C 3,9 C 93 % 1007,8 hPa 0,0 l/m 6,4 km/h (2 Bft) S-SW 202 0 min 0,000 mm 0,0 UV-I 0 W/m 1,4 C 2,4 C 8,0 km/h (2 Bft) 100,00 %
01.01.2018 04:46 2,4 C 3,9 C 93 % 1007,8 hPa 0,0 l/m 6,4 km/h (2 Bft) S-SW 202 0 min 0,000 mm 0,0 UV-I 0 W/m 1,4 C 2,4 C 8,0 km/h (2 Bft) 95,65 %
01.01.2018 04:47 2,3 C 3,9 C 92 % 1007,8 hPa 0,0 l/m 4,8 km/h (1 Bft) SW 225 0 min 0,000 mm 0,0 UV-I 0 W/m 1,1 C 2,3 C 6,4 km/h (2 Bft) 100,00 %
01.01.2018 04:48 2,3 C 3,9 C 92 % 1007,8 hPa 0,0 l/m 4,8 km/h (1 Bft) SW 225 0 min 0,000 mm 0,0 UV-I 0 W/m 1,1 C 2,3 C 6,4 km/h (2 Bft) 95,65 %
01.01.2018 04:49 2,2 C 3,9 C 92 % 1007,9 hPa 0,0 l/m 6,4 km/h (2 Bft) SW 225 0 min 0,000 mm 0,0 UV-I 0 W/m 1,0 C 2,2 C 8,0 km/h (2 Bft) 95,65 %
01.01.2018 04:50 2,3 C 3,9 C 93 % 1007,9 hPa 0,0 l/m 6,4 km/h (2 Bft) SW 225 0 min 0,000 mm 0,0 UV-I 0 W/m 1,3 C 2,3 C 8,0 km/h (2 Bft) 100,00 %
01.01.2018 04:51 2,3 C 3,9 C 93 % 1007,9 hPa 0,0 l/m 4,8 km/h (1 Bft) SW 225 0 min 0,000 mm 0,0 UV-I 0 W/m 1,3 C 2,3 C 6,4 km/h (2 Bft) 100,00 %
01.01.2018 04:52 2,4 C 3,9 C 93 % 1007,9 hPa 0,0 l/m 4,8 km/h (1 Bft) SW 225 0 min 0,000 mm 0,0 UV-I 0 W/m 1,4 C 2,4 C 6,4 km/h (2 Bft) 100,00 %
01.01.2018 04:53 2,4 C 3,9 C 93 % 1007,9 hPa 0,0 l/m 4,8 km/h (1 Bft) SW 225 0 min 0,000 mm 0,0 UV-I 0 W/m 1,4 C 2,4 C 6,4 km/h (2 Bft) 95,65 %
01.01.2018 04:54 2,4 C 3,9 C 92 % 1007,8 hPa 0,0 l/m 4,8 km/h (1 Bft) SW 225 0 min 0,000 mm 0,0 UV-I 0 W/m 1,2 C 2,4 C 6,4 km/h (2 Bft) 100,00 %
01.01.2018 04:55 2,3 C 3,9 C 92 % 1007,9 hPa 0,0 l/m 4,8 km/h (1 Bft) SW 225 0 min 0,000 mm 0,0 UV-I 0 W/m 1,1 C 2,3 C 4,8 km/h (1 Bft) 95,65 %
01.01.2018 04:56 2,3 C 3,9 C 92 % 1007,8 hPa 0,0 l/m 4,8 km/h (1 Bft) SW 225 0 min 0,000 mm 0,0 UV-I 0 W/m 1,1 C 2,3 C 6,4 km/h (2 Bft) 100,00 %
01.01.2018 04:57 2,3 C 3,9 C 93 % 1007,9 hPa 0,0 l/m 3,2 km/h (1 Bft) SW 225 0 min 0,000 mm 0,0 UV-I 0 W/m 1,3 C 2,3 C 6,4 km/h (2 Bft) 100,00 %
01.01.2018 04:58 2,3 C 3,9 C 92 % 1007,9 hPa 0,0 l/m 4,8 km/h (1 Bft) SW 225 0 min 0,000 mm 0,0 UV-I 0 W/m 1,1 C 2,3 C 6,4 km/h (2 Bft) 100,00 %
01.01.2018 04:59 2,3 C 3,9 C 92 % 1007,9 hPa 0,0 l/m 3,2 km/h (1 Bft) SW 225 0 min 0,000 mm 0,0 UV-I 0 W/m 1,1 C 2,3 C 4,8 km/h (1 Bft) 100,00 %
01.01.2018 05:00 2,4 C 3,9 C 93 % 1007,9 hPa 0,0 l/m 3,2 km/h (1 Bft) SW 225 0 min 0,000 mm 0,0 UV-I 0 W/m 1,4 C 2,4 C 4,8 km/h (1 Bft) 95,65 %
01.01.2018 05:01 2,4 C 3,9 C 93 % 1007,9 hPa 0,0 l/m 3,2 km/h (1 Bft) SW 225 0 min 0,000 mm 0,0 UV-I 0 W/m 1,4 C 2,4 C 4,8 km/h (1 Bft) 95,65 %
01.01.2018 05:02 2,4 C 3,9 C 92 % 1007,9 hPa 0,0 l/m 3,2 km/h (1 Bft) SW 225 0 min 0,000 mm 0,0 UV-I 0 W/m 1,2 C 2,4 C 4,8 km/h (1 Bft) 95,65 %
01.01.2018 05:03 2,4 C 3,9 C 92 % 1007,8 hPa 0,0 l/m 3,2 km/h (1 Bft) SW 225 0 min 0,000 mm 0,0 UV-I 0 W/m 1,2 C 2,4 C 4,8 km/h (1 Bft) 100,00 %
01.01.2018 05:04 2,4 C 3,9 C 92 % 1007,9 hPa 0,0 l/m 3,2 km/h (1 Bft) SW 225 0 min 0,000 mm 0,0 UV-I 0 W/m 1,2 C 2,4 C 4,8 km/h (1 Bft) 100,00 %
01.01.2018 05:05 2,3 C 3,9 C 92 % 1007,8 hPa 0,0 l/m 3,2 km/h (1 Bft) SW 225 0 min 0,000 mm 0,0 UV-I 0 W/m 1,1 C 2,3 C 4,8 km/h (1 Bft) 100,00 %
01.01.2018 05:06 2,4 C 3,9 C 92 % 1007,8 hPa 0,0 l/m 6,4 km/h (2 Bft) SW 225 0 min 0,000 mm 0,0 UV-I 0 W/m 1,2 C 2,4 C 8,0 km/h (2 Bft) 100,00 %
01.01.2018 05:07 2,4 C 3,9 C 92 % 1007,8 hPa 0,0 l/m 4,8 km/h (1 Bft) SW 225 0 min 0,000 mm 0,0 UV-I 0 W/m 1,2 C 2,4 C 8,0 km/h (2 Bft) 91,30 %
01.01.2018 05:08 2,5 C 3,9 C 93 % 1007,8 hPa 0,0 l/m 4,8 km/h (1 Bft) SW 225 0 min 0,000 mm 0,0 UV-I 0 W/m 1,5 C 2,5 C 6,4 km/h (2 Bft) 100,00 %
01.01.2018 05:09 2,7 C 3,9 C 92 % 1007,8 hPa 0,0 l/m 4,8 km/h (1 Bft) SW 225 0 min 0,000 mm 0,0 UV-I 0 W/m 1,5 C 2,7 C 4,8 km/h (1 Bft) 91,30 %
01.01.2018 05:10 2,6 C 3,9 C 92 % 1007,8 hPa 0,0 l/m 3,2 km/h (1 Bft) SW 225 0 min 0,000 mm 0,0 UV-I 0 W/m 1,4 C 2,6 C 4,8 km/h (1 Bft) 100,00 %
01.01.2018 05:11 2,6 C 3,9 C 92 % 1007,8 hPa 0,0 l/m 3,2 km/h (1 Bft) S-SW 202 0 min 0,000 mm 0,0 UV-I 0 W/m 1,4 C 2,6 C 6,4 km/h (2 Bft) 95,65 %
01.01.2018 05:12 2,6 C 3,9 C 92 % 1007,8 hPa 0,0 l/m 3,2 km/h (1 Bft) S-SW 202 0 min 0,000 mm 0,0 UV-I 0 W/m 1,4 C 2,6 C 6,4 km/h (2 Bft) 100,00 %
01.01.2018 05:13 2,5 C 3,9 C 92 % 1007,8 hPa 0,0 l/m 4,8 km/h (1 Bft) SW 225 0 min 0,000 mm 0,0 UV-I 0 W/m 1,3 C 2,5 C 4,8 km/h (1 Bft) 95,65 %
01.01.2018 05:14 2,6 C 3,9 C 92 % 1007,8 hPa 0,0 l/m 4,8 km/h (1 Bft) SW 225 0 min 0,000 mm 0,0 UV-I 0 W/m 1,4 C 2,6 C 4,8 km/h (1 Bft) 95,65 %
01.01.2018 05:15 2,6 C 3,9 C 92 % 1007,9 hPa 0,0 l/m 4,8 km/h (1 Bft) SW 225 0 min 0,000 mm 0,0 UV-I 0 W/m 1,4 C 2,6 C 4,8 km/h (1 Bft) 95,65 %
01.01.2018 05:16 2,6 C 3,9 C 92 % 1007,8 hPa 0,0 l/m 3,2 km/h (1 Bft) SW 225 0 min 0,000 mm 0,0 UV-I 0 W/m 1,4 C 2,6 C 4,8 km/h (1 Bft) 100,00 %
01.01.2018 05:17 2,6 C 3,9 C 92 % 1007,8 hPa 0,0 l/m 3,2 km/h (1 Bft) SW 225 0 min 0,000 mm 0,0 UV-I 0 W/m 1,4 C 2,6 C 4,8 km/h (1 Bft) 95,65 %
01.01.2018 05:18 2,5 C 3,9 C 92 % 1007,8 hPa 0,0 l/m 1,6 km/h (1 Bft) SW 225 0 min 0,000 mm 0,0 UV-I 0 W/m 1,3 C 2,5 C 1,6 km/h (1 Bft) 100,00 %
01.01.2018 05:19 2,5 C 3,9 C 92 % 1007,8 hPa 0,0 l/m 1,6 km/h (1 Bft) SW 225 0 min 0,000 mm 0,0 UV-I 0 W/m 1,3 C 2,5 C 3,2 km/h (1 Bft) 95,65 %
01.01.2018 05:20 2,6 C 3,9 C 93 % 1007,7 hPa 0,0 l/m 1,6 km/h (1 Bft) SW 225 0 min 0,000 mm 0,0 UV-I 0 W/m 1,6 C 2,6 C 3,2 km/h (1 Bft) 95,65 %
01.01.2018 05:21 2,7 C 3,9 C 92 % 1007,7 hPa 0,0 l/m 3,2 km/h (1 Bft) SW 225 0 min 0,000 mm 0,0 UV-I 0 W/m 1,5 C 2,7 C 4,8 km/h (1 Bft) 91,30 %
01.01.2018 05:22 2,7 C 3,9 C 93 % 1007,8 hPa 0,0 l/m 3,2 km/h (1 Bft) SW 225 0 min 0,000 mm 0,0 UV-I 0 W/m 1,7 C 2,7 C 4,8 km/h (1 Bft) 91,30 %
01.01.2018 05:23 2,8 C 3,9 C 92 % 1007,8 hPa 0,0 l/m 4,8 km/h (1 Bft) SW 225 0 min 0,000 mm 0,0 UV-I 0 W/m 1,6 C 2,8 C 4,8 km/h (1 Bft) 100,00 %
01.01.2018 05:24 2,9 C 3,9 C 92 % 1007,8 hPa 0,0 l/m 3,2 km/h (1 Bft) SW 225 0 min 0,000 mm 0,0 UV-I 0 W/m 1,7 C 2,9 C 4,8 km/h (1 Bft) 95,65 %
01.01.2018 05:25 3,0 C 3,9 C 92 % 1007,8 hPa 0,0 l/m 4,8 km/h (1 Bft) SW 225 0 min 0,000 mm 0,0 UV-I 0 W/m 1,8 C 3,0 C 4,8 km/h (1 Bft) 100,00 %
01.01.2018 05:26 3,1 C 3,9 C 92 % 1007,8 hPa 0,0 l/m 3,2 km/h (1 Bft) SW 225 0 min 0,000 mm 0,0 UV-I 0 W/m 1,9 C 3,1 C 4,8 km/h (1 Bft) 95,65 %
01.01.2018 05:27 3,1 C 3,9 C 92 % 1007,8 hPa 0,0 l/m 3,2 km/h (1 Bft) SW 225 0 min 0,000 mm 0,0 UV-I 0 W/m 1,9 C 3,1 C 4,8 km/h (1 Bft) 100,00 %
01.01.2018 05:28 3,1 C 3,9 C 91 % 1007,8 hPa 0,0 l/m 1,6 km/h (1 Bft) SW 225 0 min 0,000 mm 0,0 UV-I 0 W/m 1,8 C 3,1 C 3,2 km/h (1 Bft) 91,30 %
01.01.2018 05:29 3,1 C 3,9 C 91 % 1007,8 hPa 0,0 l/m 3,2 km/h (1 Bft) SW 225 0 min 0,000 mm 0,0 UV-I 0 W/m 1,8 C 3,1 C 3,2 km/h (1 Bft) 100,00 %
01.01.2018 05:30 3,2 C 3,9 C 91 % 1007,8 hPa 0,0 l/m 3,2 km/h (1 Bft) SW 225 0 min 0,000 mm 0,0 UV-I 0 W/m 1,9 C 3,2 C 3,2 km/h (1 Bft) 95,65 %
01.01.2018 05:31 3,2 C 3,9 C 91 % 1007,8 hPa 0,0 l/m 1,6 km/h (1 Bft) SW 225 0 min 0,000 mm 0,0 UV-I 0 W/m 1,9 C 3,2 C 3,2 km/h (1 Bft) 100,00 %
01.01.2018 05:32 3,2 C 3,9 C 91 % 1007,8 hPa 0,0 l/m 1,6 km/h (1 Bft) SW 225 0 min 0,000 mm 0,0 UV-I 0 W/m 1,9 C 3,2 C 3,2 km/h (1 Bft) 95,65 %
01.01.2018 05:33 3,2 C 3,9 C 91 % 1007,8 hPa 0,0 l/m 3,2 km/h (1 Bft) SW 225 0 min 0,000 mm 0,0 UV-I 0 W/m 1,9 C 3,2 C 4,8 km/h (1 Bft) 100,00 %
01.01.2018 05:34 3,3 C 3,9 C 91 % 1007,9 hPa 0,0 l/m 4,8 km/h (1 Bft) SW 225 0 min 0,000 mm 0,0 UV-I 0 W/m 2,0 C 3,3 C 4,8 km/h (1 Bft) 91,30 %
01.01.2018 05:35 3,3 C 3,9 C 91 % 1007,9 hPa 0,0 l/m 3,2 km/h (1 Bft) SW 225 0 min 0,000 mm 0,0 UV-I 0 W/m 2,0 C 3,3 C 4,8 km/h (1 Bft) 91,30 %
01.01.2018 05:36 3,4 C 3,9 C 91 % 1007,9 hPa 0,0 l/m 1,6 km/h (1 Bft) SW 225 0 min 0,000 mm 0,0 UV-I 0 W/m 2,1 C 3,4 C 3,2 km/h (1 Bft) 100,00 %
01.01.2018 05:37 3,5 C 3,9 C 90 % 1007,9 hPa 0,0 l/m 3,2 km/h (1 Bft) SW 225 0 min 0,000 mm 0,0 UV-I 0 W/m 2,0 C 3,5 C 3,2 km/h (1 Bft) 95,65 %
01.01.2018 05:38 3,6 C 3,9 C 90 % 1007,9 hPa 0,0 l/m 3,2 km/h (1 Bft) SW 225 0 min 0,000 mm 0,0 UV-I 0 W/m 2,1 C 3,6 C 4,8 km/h (1 Bft) 100,00 %
01.01.2018 05:39 3,6 C 3,9 C 90 % 1007,9 hPa 0,0 l/m 3,2 km/h (1 Bft) SW 225 0 min 0,000 mm 0,0 UV-I 0 W/m 2,1 C 3,6 C 4,8 km/h (1 Bft) 95,65 %
01.01.2018 05:40 3,5 C 3,9 C 90 % 1008,0 hPa 0,0 l/m 3,2 km/h (1 Bft) SW 225 0 min 0,000 mm 0,0 UV-I 0 W/m 2,0 C 3,5 C 4,8 km/h (1 Bft) 100,00 %
01.01.2018 05:41 3,4 C 3,9 C 90 % 1007,9 hPa 0,0 l/m 4,8 km/h (1 Bft) SW 225 0 min 0,000 mm 0,0 UV-I 0 W/m 1,9 C 3,4 C 4,8 km/h (1 Bft) 100,00 %
01.01.2018 05:42 3,4 C 3,9 C 90 % 1008,0 hPa 0,0 l/m 4,8 km/h (1 Bft) SW 225 0 min 0,000 mm 0,0 UV-I 0 W/m 1,9 C 3,4 C 6,4 km/h (2 Bft) 95,65 %
01.01.2018 05:43 3,3 C 3,9 C 90 % 1008,0 hPa 0,0 l/m 3,2 km/h (1 Bft) SW 225 0 min 0,000 mm 0,0 UV-I 0 W/m 1,8 C 3,3 C 6,4 km/h (2 Bft) 100,00 %
01.01.2018 05:44 3,2 C 3,9 C 90 % 1008,0 hPa 0,0 l/m 3,2 km/h (1 Bft) SW 225 0 min 0,000 mm 0,0 UV-I 0 W/m 1,7 C 3,2 C 4,8 km/h (1 Bft) 95,65 %
01.01.2018 05:45 3,1 C 3,9 C 91 % 1008,0 hPa 0,0 l/m 3,2 km/h (1 Bft) SW 225 0 min 0,000 mm 0,0 UV-I 0 W/m 1,8 C 3,1 C 4,8 km/h (1 Bft) 100,00 %
01.01.2018 05:46 3,1 C 3,9 C 91 % 1008,0 hPa 0,0 l/m 3,2 km/h (1 Bft) SW 225 0 min 0,000 mm 0,0 UV-I 0 W/m 1,8 C 3,1 C 6,4 km/h (2 Bft) 91,30 %
01.01.2018 05:47 3,2 C 3,9 C 91 % 1008,0 hPa 0,0 l/m 3,2 km/h (1 Bft) SW 225 0 min 0,000 mm 0,0 UV-I 0 W/m 1,9 C 3,2 C 4,8 km/h (1 Bft) 100,00 %
01.01.2018 05:48 3,3 C 3,9 C 91 % 1008,0 hPa 0,0 l/m 4,8 km/h (1 Bft) SW 225 0 min 0,000 mm 0,0 UV-I 0 W/m 2,0 C 3,3 C 4,8 km/h (1 Bft) 95,65 %
01.01.2018 05:49 3,5 C 3,9 C 91 % 1008,1 hPa 0,0 l/m 4,8 km/h (1 Bft) SW 225 0 min 0,000 mm 0,0 UV-I 0 W/m 2,2 C 3,5 C 6,4 km/h (2 Bft) 95,65 %
01.01.2018 05:50 3,6 C 3,9 C 90 % 1008,1 hPa 0,0 l/m 3,2 km/h (1 Bft) SW 225 0 min 0,000 mm 0,0 UV-I 0 W/m 2,1 C 3,6 C 4,8 km/h (1 Bft) 91,30 %
01.01.2018 05:51 3,6 C 3,9 C 90 % 1008,1 hPa 0,0 l/m 3,2 km/h (1 Bft) SW 225 0 min 0,000 mm 0,0 UV-I 0 W/m 2,1 C 3,6 C 3,2 km/h (1 Bft) 100,00 %
01.01.2018 05:52 3,7 C 3,9 C 90 % 1008,1 hPa 0,0 l/m 4,8 km/h (1 Bft) SW 225 0 min 0,000 mm 0,0 UV-I 0 W/m 2,2 C 3,7 C 6,4 km/h (2 Bft) 100,00 %
01.01.2018 05:53 3,7 C 3,9 C 90 % 1008,2 hPa 0,0 l/m 4,8 km/h (1 Bft) W 270 0 min 0,000 mm 0,0 UV-I 0 W/m 2,2 C 3,7 C 6,4 km/h (2 Bft) 95,65 %
01.01.2018 05:54 3,7 C 3,9 C 89 % 1008,2 hPa 0,0 l/m 3,2 km/h (1 Bft) W 270 0 min 0,000 mm 0,0 UV-I 0 W/m 2,1 C 3,7 C 6,4 km/h (2 Bft) 100,00 %
01.01.2018 05:55 3,7 C 3,9 C 89 % 1008,2 hPa 0,0 l/m 3,2 km/h (1 Bft) W 270 0 min 0,000 mm 0,0 UV-I 0 W/m 2,1 C 3,7 C 4,8 km/h (1 Bft) 95,65 %
01.01.2018 05:56 3,4 C 3,9 C 89 % 1008,2 hPa 0,0 l/m 1,6 km/h (1 Bft) W 270 0 min 0,000 mm 0,0 UV-I 0 W/m 1,8 C 3,4 C 3,2 km/h (1 Bft) 95,65 %
01.01.2018 05:57 3,3 C 3,9 C 89 % 1008,2 hPa 0,0 l/m 3,2 km/h (1 Bft) W 270 0 min 0,000 mm 0,0 UV-I 0 W/m 1,7 C 3,3 C 4,8 km/h (1 Bft) 100,00 %
01.01.2018 05:58 3,2 C 3,9 C 90 % 1008,2 hPa 0,0 l/m 3,2 km/h (1 Bft) W 270 0 min 0,000 mm 0,0 UV-I 0 W/m 1,7 C 3,2 C 4,8 km/h (1 Bft) 100,00 %
01.01.2018 05:59 3,1 C 3,9 C 90 % 1008,3 hPa 0,0 l/m 3,2 km/h (1 Bft) W 270 0 min 0,000 mm 0,0 UV-I 0 W/m 1,6 C 3,1 C 4,8 km/h (1 Bft) 95,65 %
01.01.2018 06:00 2,9 C 3,9 C 90 % 1008,3 hPa 0,0 l/m 3,2 km/h (1 Bft) W 270 0 min 0,000 mm 0,0 UV-I 0 W/m 1,4 C 2,9 C 4,8 km/h (1 Bft) 95,65 %
01.01.2018 06:01 3,0 C 3,9 C 91 % 1008,3 hPa 0,0 l/m 3,2 km/h (1 Bft) W 270 0 min 0,000 mm 0,0 UV-I 0 W/m 1,7 C 3,0 C 4,8 km/h (1 Bft) 100,00 %
01.01.2018 06:02 3,1 C 3,9 C 91 % 1008,3 hPa 0,0 l/m 3,2 km/h (1 Bft) W 270 0 min 0,000 mm 0,0 UV-I 0 W/m 1,8 C 3,1 C 4,8 km/h (1 Bft) 95,65 %
01.01.2018 06:03 3,2 C 3,9 C 91 % 1008,4 hPa 0,0 l/m 1,6 km/h (1 Bft) W 270 0 min 0,000 mm 0,0 UV-I 0 W/m 1,9 C 3,2 C 1,6 km/h (1 Bft) 95,65 %
01.01.2018 06:04 3,2 C 3,9 C 91 % 1008,4 hPa 0,0 l/m 0,0 km/h (0 Bft) W 270 0 min 0,000 mm 0,0 UV-I 0 W/m 1,9 C 3,2 C 1,6 km/h (1 Bft) 91,30 %
01.01.2018 06:05 3,2 C 3,9 C 91 % 1008,4 hPa 0,0 l/m 0,0 km/h (0 Bft) W 270 0 min 0,000 mm 0,0 UV-I 0 W/m 1,9 C 3,2 C 1,6 km/h (1 Bft) 100,00 %
01.01.2018 06:06 3,1 C 3,9 C 91 % 1008,4 hPa 0,0 l/m 0,0 km/h (0 Bft) W 270 0 min 0,000 mm 0,0 UV-I 0 W/m 1,8 C 3,1 C 1,6 km/h (1 Bft) 95,65 %
01.01.2018 06:07 3,0 C 3,9 C 91 % 1008,4 hPa 0,0 l/m 1,6 km/h (1 Bft) W 270 0 min 0,000 mm 0,0 UV-I 0 W/m 1,7 C 3,0 C 1,6 km/h (1 Bft) 100,00 %
01.01.2018 06:08 2,9 C 3,9 C 91 % 1008,5 hPa 0,0 l/m 1,6 km/h (1 Bft) W 270 0 min 0,000 mm 0,0 UV-I 0 W/m 1,6 C 2,9 C 3,2 km/h (1 Bft) 91,30 %
01.01.2018 06:09 2,9 C 3,9 C 91 % 1008,5 hPa 0,0 l/m 3,2 km/h (1 Bft) W-NW 292 0 min 0,000 mm 0,0 UV-I 0 W/m 1,6 C 2,9 C 4,8 km/h (1 Bft) 95,65 %
01.01.2018 06:10 2,9 C 3,9 C 91 % 1008,5 hPa 0,0 l/m 0,0 km/h (0 Bft) W-NW 292 0 min 0,000 mm 0,0 UV-I 0 W/m 1,6 C 2,9 C 1,6 km/h (1 Bft) 91,30 %
01.01.2018 06:11 2,9 C 3,9 C 91 % 1008,6 hPa 0,0 l/m 1,6 km/h (1 Bft) W-NW 292 0 min 0,000 mm 0,0 UV-I 0 W/m 1,6 C 2,9 C 3,2 km/h (1 Bft) 95,65 %
01.01.2018 06:12 2,9 C 3,9 C 91 % 1008,7 hPa 0,0 l/m 1,6 km/h (1 Bft) W-NW 292 0 min 0,000 mm 0,0 UV-I 0 W/m 1,6 C 2,9 C 3,2 km/h (1 Bft) 100,00 %
01.01.2018 06:13 2,9 C 3,9 C 91 % 1008,7 hPa 0,0 l/m 3,2 km/h (1 Bft) W-NW 292 0 min 0,000 mm 0,0 UV-I 0 W/m 1,6 C 2,9 C 4,8 km/h (1 Bft) 91,30 %
01.01.2018 06:14 2,9 C 3,9 C 91 % 1008,8 hPa 0,0 l/m 0,0 km/h (0 Bft) W-NW 292 0 min 0,000 mm 0,0 UV-I 0 W/m 1,6 C 2,9 C 1,6 km/h (1 Bft) 100,00 %
01.01.2018 06:15 2,9 C 3,9 C 92 % 1008,6 hPa 0,0 l/m 0,0 km/h (0 Bft) W-NW 292 0 min 0,000 mm 0,0 UV-I 0 W/m 1,7 C 2,9 C 1,6 km/h (1 Bft) 95,65 %
01.01.2018 06:16 2,9 C 3,9 C 91 % 1008,7 hPa 0,0 l/m 1,6 km/h (1 Bft) W-NW 292 0 min 0,000 mm 0,0 UV-I 0 W/m 1,6 C 2,9 C 3,2 km/h (1 Bft) 100,00 %
01.01.2018 06:17 3,0 C 3,9 C 92 % 1008,7 hPa 0,0 l/m 0,0 km/h (0 Bft) W-NW 292 0 min 0,000 mm 0,0 UV-I 0 W/m 1,8 C 3,0 C 1,6 km/h (1 Bft) 86,96 %
01.01.2018 06:18 3,0 C 3,9 C 92 % 1008,6 hPa 0,0 l/m 0,0 km/h (0 Bft) N 0 0 min 0,000 mm 0,0 UV-I 0 W/m 1,8 C 3,0 C 0,0 km/h (0 Bft) 95,65 %
01.01.2018 06:19 3,1 C 3,9 C 92 % 1008,7 hPa 0,0 l/m 0,0 km/h (0 Bft) W-NW 292 0 min 0,000 mm 0,0 UV-I 0 W/m 1,9 C 3,1 C 1,6 km/h (1 Bft) 100,00 %
01.01.2018 06:20 3,1 C 3,9 C 92 % 1008,7 hPa 0,0 l/m 0,0 km/h (0 Bft) N 0 0 min 0,000 mm 0,0 UV-I 0 W/m 1,9 C 3,1 C 0,0 km/h (0 Bft) 95,65 %
01.01.2018 06:21 3,1 C 3,9 C 91 % 1008,6 hPa 0,0 l/m 0,0 km/h (0 Bft) N 0 0 min 0,000 mm 0,0 UV-I 0 W/m 1,8 C 3,1 C 0,0 km/h (0 Bft) 100,00 %
01.01.2018 06:22 3,1 C 3,9 C 92 % 1008,6 hPa 0,0 l/m 0,0 km/h (0 Bft) N 0 0 min 0,000 mm 0,0 UV-I 0 W/m 1,9 C 3,1 C 0,0 km/h (0 Bft) 95,65 %
01.01.2018 06:23 3,1 C 3,9 C 91 % 1008,7 hPa 0,0 l/m 0,0 km/h (0 Bft) N 0 0 min 0,000 mm 0,0 UV-I 0 W/m 1,8 C 3,1 C 0,0 km/h (0 Bft) 100,00 %
01.01.2018 06:24 3,1 C 3,9 C 92 % 1008,7 hPa 0,0 l/m 0,0 km/h (0 Bft) W-NW 292 0 min 0,000 mm 0,0 UV-I 0 W/m 1,9 C 3,1 C 3,2 km/h (1 Bft) 82,61 %
01.01.2018 06:25 3,0 C 3,9 C 92 % 1008,7 hPa 0,0 l/m 1,6 km/h (1 Bft) W-NW 292 0 min 0,000 mm 0,0 UV-I 0 W/m 1,8 C 3,0 C 3,2 km/h (1 Bft) 100,00 %
01.01.2018 06:26 3,0 C 3,9 C 92 % 1008,8 hPa 0,0 l/m 0,0 km/h (0 Bft) N 0 0 min 0,000 mm 0,0 UV-I 0 W/m 1,8 C 3,0 C 0,0 km/h (0 Bft) 95,65 %
01.01.2018 06:27 2,9 C 3,9 C 92 % 1008,8 hPa 0,0 l/m 0,0 km/h (0 Bft) N 0 0 min 0,000 mm 0,0 UV-I 0 W/m 1,7 C 2,9 C 0,0 km/h (0 Bft) 91,30 %
01.01.2018 06:28 2,8 C 3,9 C 92 % 1008,8 hPa 0,0 l/m 0,0 km/h (0 Bft) N 0 0 min 0,000 mm 0,0 UV-I 0 W/m 1,6 C 2,8 C 0,0 km/h (0 Bft) 100,00 %
01.01.2018 06:29 2,8 C 3,9 C 92 % 1008,9 hPa 0,0 l/m 0,0 km/h (0 Bft) W-NW 292 0 min 0,000 mm 0,0 UV-I 0 W/m 1,6 C 2,8 C 1,6 km/h (1 Bft) 95,65 %
01.01.2018 06:30 2,7 C 3,9 C 92 % 1008,9 hPa 0,0 l/m 1,6 km/h (1 Bft) W-NW 292 0 min 0,000 mm 0,0 UV-I 0 W/m 1,5 C 2,7 C 1,6 km/h (1 Bft) 100,00 %
01.01.2018 06:31 2,7 C 3,9 C 93 % 1008,9 hPa 0,0 l/m 1,6 km/h (1 Bft) W-NW 292 0 min 0,000 mm 0,0 UV-I 0 W/m 1,7 C 2,7 C 3,2 km/h (1 Bft) 91,30 %
01.01.2018 06:32 2,8 C 3,9 C 93 % 1009,0 hPa 0,0 l/m 1,6 km/h (1 Bft) W-NW 292 0 min 0,000 mm 0,0 UV-I 0 W/m 1,8 C 2,8 C 1,6 km/h (1 Bft) 100,00 %
01.01.2018 06:33 2,8 C 3,9 C 93 % 1009,0 hPa 0,0 l/m 0,0 km/h (0 Bft) N 0 0 min 0,000 mm 0,0 UV-I 0 W/m 1,8 C 2,8 C 0,0 km/h (0 Bft) 95,65 %
01.01.2018 06:34 2,8 C 3,9 C 92 % 1009,0 hPa 0,0 l/m 0,0 km/h (0 Bft) N 0 0 min 0,000 mm 0,0 UV-I 0 W/m 1,6 C 2,8 C 0,0 km/h (0 Bft) 95,65 %
01.01.2018 06:35 2,7 C 3,9 C 92 % 1009,0 hPa 0,0 l/m 0,0 km/h (0 Bft) N 0 0 min 0,000 mm 0,0 UV-I 0 W/m 1,5 C 2,7 C 0,0 km/h (0 Bft) 95,65 %
01.01.2018 06:36 2,7 C 3,9 C 93 % 1009,1 hPa 0,0 l/m 0,0 km/h (0 Bft) N 0 0 min 0,000 mm 0,0 UV-I 0 W/m 1,7 C 2,7 C 0,0 km/h (0 Bft) 95,65 %
01.01.2018 06:37 2,7 C 3,9 C 93 % 1009,1 hPa 0,0 l/m 0,0 km/h (0 Bft) N 0 0 min 0,000 mm 0,0 UV-I 0 W/m 1,7 C 2,7 C 0,0 km/h (0 Bft) 100,00 %
01.01.2018 06:38 2,7 C 3,9 C 93 % 1009,1 hPa 0,0 l/m 1,6 km/h (1 Bft) W-NW 292 0 min 0,000 mm 0,0 UV-I 0 W/m 1,7 C 2,7 C 3,2 km/h (1 Bft) 91,30 %
01.01.2018 06:39 2,8 C 3,9 C 93 % 1009,1 hPa 0,0 l/m 3,2 km/h (1 Bft) W-NW 292 0 min 0,000 mm 0,0 UV-I 0 W/m 1,8 C 2,8 C 3,2 km/h (1 Bft) 100,00 %
01.01.2018 06:40 2,8 C 3,9 C 93 % 1009,1 hPa 0,0 l/m 3,2 km/h (1 Bft) W-NW 292 0 min 0,000 mm 0,0 UV-I 0 W/m 1,8 C 2,8 C 4,8 km/h (1 Bft) 100,00 %
01.01.2018 06:41 2,8 C 3,9 C 93 % 1009,1 hPa 0,0 l/m 3,2 km/h (1 Bft) W 270 0 min 0,000 mm 0,0 UV-I 0 W/m 1,8 C 2,8 C 4,8 km/h (1 Bft) 100,00 %
01.01.2018 06:42 2,8 C 3,9 C 93 % 1009,1 hPa 0,0 l/m 4,8 km/h (1 Bft) W-SW 247 0 min 0,000 mm 0,0 UV-I 0 W/m 1,8 C 2,8 C 4,8 km/h (1 Bft) 100,00 %
01.01.2018 06:43 2,8 C 3,9 C 93 % 1009,1 hPa 0,0 l/m 4,8 km/h (1 Bft) W-SW 247 0 min 0,000 mm 0,0 UV-I 0 W/m 1,8 C 2,8 C 6,4 km/h (2 Bft) 100,00 %
01.01.2018 06:44 2,8 C 3,9 C 93 % 1009,1 hPa 0,0 l/m 4,8 km/h (1 Bft) W-SW 247 0 min 0,000 mm 0,0 UV-I 0 W/m 1,8 C 2,8 C 6,4 km/h (2 Bft) 95,65 %
01.01.2018 06:45 2,9 C 3,9 C 93 % 1009,1 hPa 0,0 l/m 4,8 km/h (1 Bft) W-SW 247 0 min 0,000 mm 0,0 UV-I 0 W/m 1,9 C 2,9 C 4,8 km/h (1 Bft) 91,30 %
01.01.2018 06:46 3,0 C 3,9 C 93 % 1009,2 hPa 0,0 l/m 4,8 km/h (1 Bft) W-SW 247 0 min 0,000 mm 0,0 UV-I 0 W/m 2,0 C 3,0 C 6,4 km/h (2 Bft) 100,00 %
01.01.2018 06:47 3,1 C 3,9 C 93 % 1009,2 hPa 0,0 l/m 4,8 km/h (1 Bft) W-SW 247 0 min 0,000 mm 0,0 UV-I 0 W/m 2,1 C 3,1 C 6,4 km/h (2 Bft) 95,65 %
01.01.2018 06:48 3,2 C 3,9 C 92 % 1009,3 hPa 0,0 l/m 4,8 km/h (1 Bft) W-SW 247 0 min 0,000 mm 0,0 UV-I 0 W/m 2,0 C 3,2 C 6,4 km/h (2 Bft) 100,00 %
01.01.2018 06:49 3,3 C 3,9 C 92 % 1009,3 hPa 0,0 l/m 6,4 km/h (2 Bft) W-SW 247 0 min 0,000 mm 0,0 UV-I 0 W/m 2,1 C 3,3 C 6,4 km/h (2 Bft) 95,65 %
01.01.2018 06:50 3,4 C 3,9 C 92 % 1009,3 hPa 0,0 l/m 4,8 km/h (1 Bft) W-SW 247 0 min 0,000 mm 0,0 UV-I 0 W/m 2,2 C 3,4 C 6,4 km/h (2 Bft) 100,00 %
01.01.2018 06:51 3,5 C 3,9 C 92 % 1009,3 hPa 0,0 l/m 6,4 km/h (2 Bft) W-SW 247 0 min 0,000 mm 0,0 UV-I 0 W/m 2,3 C 3,5 C 8,0 km/h (2 Bft) 95,65 %
01.01.2018 06:52 3,7 C 3,9 C 91 % 1009,4 hPa 0,0 l/m 4,8 km/h (1 Bft) W-SW 247 0 min 0,000 mm 0,0 UV-I 0 W/m 2,4 C 3,7 C 8,0 km/h (2 Bft) 95,65 %
01.01.2018 06:53 3,7 C 3,9 C 91 % 1009,4 hPa 0,0 l/m 4,8 km/h (1 Bft) SW 225 0 min 0,000 mm 0,0 UV-I 0 W/m 2,4 C 3,7 C 6,4 km/h (2 Bft) 95,65 %
01.01.2018 06:54 3,8 C 3,9 C 90 % 1009,4 hPa 0,0 l/m 4,8 km/h (1 Bft) SW 225 0 min 0,000 mm 0,0 UV-I 0 W/m 2,3 C 3,8 C 8,0 km/h (2 Bft) 100,00 %
01.01.2018 06:55 3,8 C 3,9 C 90 % 1009,4 hPa 0,0 l/m 6,4 km/h (2 Bft) SW 225 0 min 0,000 mm 0,0 UV-I 0 W/m 2,3 C 3,8 C 8,0 km/h (2 Bft) 95,65 %
01.01.2018 06:56 3,9 C 3,9 C 90 % 1009,5 hPa 0,0 l/m 4,8 km/h (1 Bft) SW 225 0 min 0,000 mm 0,0 UV-I 0 W/m 2,4 C 3,9 C 6,4 km/h (2 Bft) 95,65 %
01.01.2018 06:57 4,0 C 3,9 C 90 % 1009,5 hPa 0,0 l/m 4,8 km/h (1 Bft) W-SW 247 0 min 0,000 mm 0,0 UV-I 0 W/m 2,5 C 4,0 C 8,0 km/h (2 Bft) 95,65 %
01.01.2018 06:58 4,1 C 3,9 C 90 % 1009,5 hPa 0,0 l/m 6,4 km/h (2 Bft) W-SW 247 0 min 0,000 mm 0,0 UV-I 0 W/m 2,6 C 4,1 C 8,0 km/h (2 Bft) 95,65 %
01.01.2018 06:59 4,2 C 3,9 C 89 % 1009,5 hPa 0,0 l/m 4,8 km/h (1 Bft) W-SW 247 0 min 0,000 mm 0,0 UV-I 0 W/m 2,6 C 4,2 C 6,4 km/h (2 Bft) 95,65 %
01.01.2018 07:00 4,3 C 3,9 C 89 % 1009,4 hPa 0,0 l/m 4,8 km/h (1 Bft) W-SW 247 0 min 0,000 mm 0,0 UV-I 0 W/m 2,7 C 4,3 C 6,4 km/h (2 Bft) 91,30 %
01.01.2018 07:01 4,4 C 3,9 C 89 % 1009,4 hPa 0,0 l/m 6,4 km/h (2 Bft) W-SW 247 0 min 0,000 mm 0,0 UV-I 0 W/m 2,7 C 4,4 C 8,0 km/h (2 Bft) 95,65 %
01.01.2018 07:02 4,5 C 3,9 C 89 % 1009,5 hPa 0,0 l/m 8,0 km/h (2 Bft) W-SW 247 0 min 0,000 mm 0,0 UV-I 0 W/m 2,8 C 3,1 C 11,3 km/h (2 Bft) 95,65 %
01.01.2018 07:03 4,7 C 3,9 C 88 % 1009,5 hPa 0,0 l/m 8,0 km/h (2 Bft) W-SW 247 0 min 0,000 mm 0,0 UV-I 0 W/m 2,9 C 3,3 C 11,3 km/h (2 Bft) 100,00 %
01.01.2018 07:04 4,8 C 3,9 C 88 % 1009,5 hPa 0,0 l/m 8,0 km/h (2 Bft) W-SW 247 0 min 0,000 mm 0,0 UV-I 0 W/m 3,0 C 3,4 C 12,9 km/h (3 Bft) 91,30 %
01.01.2018 07:05 5,0 C 3,9 C 87 % 1009,6 hPa 0,0 l/m 8,0 km/h (2 Bft) W-SW 247 0 min 0,000 mm 0,0 UV-I 0 W/m 3,0 C 3,6 C 11,3 km/h (2 Bft) 100,00 %
01.01.2018 07:06 5,1 C 3,9 C 87 % 1009,7 hPa 0,0 l/m 6,4 km/h (2 Bft) W-SW 247 0 min 0,000 mm 0,0 UV-I 0 W/m 3,1 C 5,1 C 8,0 km/h (2 Bft) 91,30 %
01.01.2018 07:07 5,1 C 3,9 C 86 % 1009,7 hPa 0,0 l/m 8,0 km/h (2 Bft) SW 225 0 min 0,000 mm 0,0 UV-I 0 W/m 3,0 C 3,7 C 11,3 km/h (2 Bft) 95,65 %
01.01.2018 07:08 5,1 C 3,9 C 86 % 1009,8 hPa 0,0 l/m 6,4 km/h (2 Bft) SW 225 0 min 0,000 mm 0,0 UV-I 0 W/m 3,0 C 5,1 C 9,7 km/h (2 Bft) 95,65 %
01.01.2018 07:09 5,1 C 3,9 C 86 % 1009,8 hPa 0,0 l/m 6,4 km/h (2 Bft) SW 225 0 min 0,000 mm 0,0 UV-I 0 W/m 3,0 C 5,1 C 8,0 km/h (2 Bft) 100,00 %
01.01.2018 07:10 4,9 C 3,9 C 86 % 1009,8 hPa 0,0 l/m 6,4 km/h (2 Bft) SW 225 0 min 0,000 mm 0,0 UV-I 0 W/m 2,8 C 4,9 C 8,0 km/h (2 Bft) 95,65 %
01.01.2018 07:11 4,8 C 3,9 C 87 % 1009,8 hPa 0,0 l/m 6,4 km/h (2 Bft) W-SW 247 0 min 0,000 mm 0,0 UV-I 0 W/m 2,8 C 4,8 C 8,0 km/h (2 Bft) 100,00 %
01.01.2018 07:12 4,7 C 3,9 C 87 % 1009,8 hPa 0,0 l/m 6,4 km/h (2 Bft) W-SW 247 0 min 0,000 mm 0,0 UV-I 0 W/m 2,7 C 4,7 C 6,4 km/h (2 Bft) 95,65 %
01.01.2018 07:13 4,7 C 3,9 C 87 % 1009,9 hPa 0,0 l/m 3,2 km/h (1 Bft) W 270 0 min 0,000 mm 0,0 UV-I 0 W/m 2,7 C 4,7 C 6,4 km/h (2 Bft) 91,30 %
01.01.2018 07:14 4,7 C 3,9 C 87 % 1010,0 hPa 0,0 l/m 3,2 km/h (1 Bft) NW 315 0 min 0,000 mm 0,0 UV-I 0 W/m 2,7 C 4,7 C 4,8 km/h (1 Bft) 95,65 %
01.01.2018 07:15 4,7 C 3,9 C 88 % 1010,0 hPa 0,0 l/m 1,6 km/h (1 Bft) NW 315 0 min 0,000 mm 0,0 UV-I 0 W/m 2,9 C 4,7 C 3,2 km/h (1 Bft) 100,00 %
01.01.2018 07:16 4,6 C 3,9 C 88 % 1010,1 hPa 0,0 l/m 1,6 km/h (1 Bft) NW 315 0 min 0,000 mm 0,0 UV-I 0 W/m 2,8 C 4,6 C 3,2 km/h (1 Bft) 100,00 %
01.01.2018 07:17 4,3 C 3,9 C 88 % 1010,1 hPa 0,0 l/m 3,2 km/h (1 Bft) NW 315 0 min 0,000 mm 0,0 UV-I 0 W/m 2,5 C 4,3 C 4,8 km/h (1 Bft) 95,65 %
01.01.2018 07:18 4,1 C 3,9 C 89 % 1010,1 hPa 0,0 l/m 4,8 km/h (1 Bft) W-NW 292 0 min 0,000 mm 0,0 UV-I 0 W/m 2,5 C 4,1 C 6,4 km/h (2 Bft) 100,00 %
01.01.2018 07:19 4,1 C 3,9 C 90 % 1010,1 hPa 0,0 l/m 4,8 km/h (1 Bft) W 270 0 min 0,000 mm 0,0 UV-I 0 W/m 2,6 C 4,1 C 9,7 km/h (2 Bft) 95,65 %
01.01.2018 07:20 4,2 C 3,9 C 91 % 1010,1 hPa 0,0 l/m 6,4 km/h (2 Bft) W 270 0 min 0,000 mm 0,0 UV-I 0 W/m 2,9 C 4,2 C 9,7 km/h (2 Bft) 95,65 %
01.01.2018 07:21 4,3 C 3,9 C 91 % 1010,0 hPa 0,0 l/m 1,6 km/h (1 Bft) W-SW 247 0 min 0,000 mm 0,0 UV-I 0 W/m 3,0 C 4,3 C 3,2 km/h (1 Bft) 100,00 %
01.01.2018 07:22 4,3 C 3,9 C 90 % 1010,0 hPa 0,0 l/m 3,2 km/h (1 Bft) SW 225 0 min 0,000 mm 0,0 UV-I 0 W/m 2,8 C 4,3 C 4,8 km/h (1 Bft) 95,65 %
01.01.2018 07:23 4,3 C 3,9 C 90 % 1010,0 hPa 0,0 l/m 3,2 km/h (1 Bft) S 180 0 min 0,000 mm 0,0 UV-I 0 W/m 2,8 C 4,3 C 4,8 km/h (1 Bft) 91,30 %
01.01.2018 07:24 4,4 C 3,9 C 90 % 1010,0 hPa 0,0 l/m 6,4 km/h (2 Bft) SW 225 0 min 0,000 mm 0,0 UV-I 0 W/m 2,9 C 4,4 C 11,3 km/h (2 Bft) 100,00 %
01.01.2018 07:25 4,6 C 3,9 C 90 % 1010,0 hPa 0,0 l/m 4,8 km/h (1 Bft) S-SW 202 0 min 0,000 mm 0,0 UV-I 0 W/m 3,1 C 4,6 C 8,0 km/h (2 Bft) 100,00 %
01.01.2018 07:26 4,7 C 3,9 C 90 % 1010,0 hPa 0,0 l/m 6,4 km/h (2 Bft) S-SW 202 0 min 0,000 mm 0,0 UV-I 0 W/m 3,2 C 4,7 C 8,0 km/h (2 Bft) 100,00 %
01.01.2018 07:27 4,8 C 3,9 C 90 % 1010,1 hPa 0,0 l/m 6,4 km/h (2 Bft) S-SW 202 0 min 0,000 mm 0,0 UV-I 0 W/m 3,3 C 4,8 C 9,7 km/h (2 Bft) 95,65 %
01.01.2018 07:28 4,9 C 3,9 C 89 % 1010,1 hPa 0,0 l/m 8,0 km/h (2 Bft) S-SW 202 0 min 0,000 mm 0,0 UV-I 0 W/m 3,2 C 3,5 C 9,7 km/h (2 Bft) 100,00 %
01.01.2018 07:29 5,0 C 3,9 C 89 % 1010,1 hPa 0,2 l/m 8,0 km/h (2 Bft) S-SW 202 0 min 0,000 mm 0,0 UV-I 0 W/m 3,3 C 3,6 C 12,9 km/h (3 Bft) 100,00 %
01.01.2018 07:30 5,1 C 3,9 C 89 % 1010,2 hPa 0,0 l/m 8,0 km/h (2 Bft) S-SW 202 0 min 0,000 mm 0,0 UV-I 0 W/m 3,4 C 3,7 C 9,7 km/h (2 Bft) 100,00 %
01.01.2018 07:31 5,2 C 3,9 C 88 % 1010,1 hPa 0,0 l/m 9,7 km/h (2 Bft) S-SW 202 0 min 0,000 mm 0,0 UV-I 0 W/m 3,4 C 2,5 C 14,5 km/h (3 Bft) 100,00 %
01.01.2018 07:32 5,3 C 3,9 C 88 % 1010,2 hPa 0,0 l/m 6,4 km/h (2 Bft) SW 225 0 min 0,000 mm 0,0 UV-I 0 W/m 3,5 C 5,3 C 8,0 km/h (2 Bft) 100,00 %
01.01.2018 07:33 5,4 C 3,9 C 88 % 1010,2 hPa 0,0 l/m 8,0 km/h (2 Bft) S-SW 202 0 min 0,000 mm 0,0 UV-I 0 W/m 3,6 C 4,0 C 11,3 km/h (2 Bft) 100,00 %
01.01.2018 07:34 5,5 C 3,9 C 87 % 1010,2 hPa 0,0 l/m 11,3 km/h (2 Bft) S-SW 202 0 min 0,000 mm 0,0 UV-I 0 W/m 3,5 C 1,8 C 14,5 km/h (3 Bft) 95,65 %
01.01.2018 07:35 5,6 C 3,9 C 87 % 1010,3 hPa 0,0 l/m 6,4 km/h (2 Bft) S-SW 202 0 min 0,000 mm 0,0 UV-I 0 W/m 3,6 C 5,6 C 11,3 km/h (2 Bft) 100,00 %
01.01.2018 07:36 5,6 C 3,9 C 87 % 1010,3 hPa 0,0 l/m 3,2 km/h (1 Bft) S 180 0 min 0,000 mm 0,0 UV-I 0 W/m 3,6 C 5,6 C 9,7 km/h (2 Bft) 100,00 %
01.01.2018 07:37 5,5 C 3,9 C 87 % 1010,3 hPa 0,0 l/m 4,8 km/h (1 Bft) S-SO 157 0 min 0,000 mm 0,0 UV-I 0 W/m 3,5 C 5,5 C 8,0 km/h (2 Bft) 100,00 %
01.01.2018 07:38 5,5 C 3,9 C 87 % 1010,3 hPa 0,0 l/m 4,8 km/h (1 Bft) S 180 0 min 0,000 mm 0,0 UV-I 0 W/m 3,5 C 5,5 C 6,4 km/h (2 Bft) 100,00 %
01.01.2018 07:39 5,4 C 3,9 C 87 % 1010,4 hPa 0,0 l/m 4,8 km/h (1 Bft) S 180 0 min 0,000 mm 0,0 UV-I 0 W/m 3,4 C 5,4 C 8,0 km/h (2 Bft) 100,00 %
01.01.2018 07:40 5,4 C 3,9 C 87 % 1010,4 hPa 0,0 l/m 4,8 km/h (1 Bft) S 180 0 min 0,000 mm 0,0 UV-I 0 W/m 3,4 C 5,4 C 6,4 km/h (2 Bft) 100,00 %
01.01.2018 07:41 5,4 C 3,9 C 87 % 1010,4 hPa 0,0 l/m 3,2 km/h (1 Bft) S 180 0 min 0,000 mm 0,0 UV-I 0 W/m 3,4 C 5,4 C 4,8 km/h (1 Bft) 95,65 %
01.01.2018 07:42 5,4 C 3,9 C 87 % 1010,4 hPa 0,0 l/m 4,8 km/h (1 Bft) S 180 0 min 0,000 mm 0,0 UV-I 0 W/m 3,4 C 5,4 C 8,0 km/h (2 Bft) 100,00 %
01.01.2018 07:43 5,4 C 3,9 C 87 % 1010,4 hPa 0,0 l/m 4,8 km/h (1 Bft) S-SO 157 0 min 0,000 mm 0,0 UV-I 0 W/m 3,4 C 5,4 C 6,4 km/h (2 Bft) 100,00 %
01.01.2018 07:44 5,5 C 3,9 C 87 % 1010,4 hPa 0,0 l/m 4,8 km/h (1 Bft) S 180 0 min 0,000 mm 0,0 UV-I 0 W/m 3,5 C 5,5 C 6,4 km/h (2 Bft) 100,00 %
01.01.2018 07:45 5,4 C 3,9 C 87 % 1010,4 hPa 0,0 l/m 4,8 km/h (1 Bft) S-SO 157 0 min 0,000 mm 0,0 UV-I 0 W/m 3,4 C 5,4 C 6,4 km/h (2 Bft) 100,00 %
01.01.2018 07:46 5,5 C 3,9 C 88 % 1010,5 hPa 0,0 l/m 6,4 km/h (2 Bft) S 180 0 min 0,000 mm 0,0 UV-I 0 W/m 3,7 C 5,5 C 9,7 km/h (2 Bft) 100,00 %
01.01.2018 07:47 5,5 C 3,9 C 88 % 1010,5 hPa 0,0 l/m 4,8 km/h (1 Bft) S 180 0 min 0,000 mm 0,0 UV-I 0 W/m 3,7 C 5,5 C 8,0 km/h (2 Bft) 95,65 %
01.01.2018 07:48 5,6 C 3,9 C 88 % 1010,6 hPa 0,0 l/m 4,8 km/h (1 Bft) S-SW 202 0 min 0,000 mm 0,0 UV-I 0 W/m 3,8 C 5,6 C 8,0 km/h (2 Bft) 95,65 %
01.01.2018 07:49 5,6 C 3,9 C 88 % 1010,6 hPa 0,0 l/m 6,4 km/h (2 Bft) S 180 0 min 0,000 mm 0,0 UV-I 0 W/m 3,8 C 5,6 C 11,3 km/h (2 Bft) 100,00 %
01.01.2018 07:50 5,6 C 3,9 C 88 % 1010,6 hPa 0,0 l/m 4,8 km/h (1 Bft) S 180 0 min 0,000 mm 0,0 UV-I 0 W/m 3,8 C 5,6 C 8,0 km/h (2 Bft) 95,65 %
01.01.2018 07:51 5,6 C 3,9 C 88 % 1010,6 hPa 0,0 l/m 4,8 km/h (1 Bft) S 180 0 min 0,000 mm 0,0 UV-I 0 W/m 3,8 C 5,6 C 8,0 km/h (2 Bft) 100,00 %
01.01.2018 07:52 5,6 C 3,9 C 88 % 1010,7 hPa 0,0 l/m 6,4 km/h (2 Bft) S-SO 157 0 min 0,000 mm 0,0 UV-I 0 W/m 3,8 C 5,6 C 9,7 km/h (2 Bft) 100,00 %
01.01.2018 07:53 5,6 C 3,9 C 88 % 1010,6 hPa 0,0 l/m 8,0 km/h (2 Bft) S 180 0 min 0,000 mm 0,0 UV-I 0 W/m 3,8 C 4,2 C 12,9 km/h (3 Bft) 100,00 %
01.01.2018 07:54 5,6 C 3,9 C 89 % 1010,7 hPa 0,0 l/m 6,4 km/h (2 Bft) S-SW 202 0 min 0,000 mm 0,0 UV-I 0 W/m 3,9 C 5,6 C 9,7 km/h (2 Bft) 100,00 %
01.01.2018 07:55 5,7 C 3,9 C 89 % 1010,7 hPa 0,0 l/m 6,4 km/h (2 Bft) S-SW 202 0 min 0,000 mm 0,0 UV-I 0 W/m 4,0 C 5,7 C 8,0 km/h (2 Bft) 95,65 %
01.01.2018 07:56 5,7 C 3,9 C 89 % 1010,8 hPa 0,0 l/m 8,0 km/h (2 Bft) S-SW 202 0 min 0,000 mm 0,0 UV-I 0 W/m 4,0 C 4,3 C 11,3 km/h (2 Bft) 100,00 %
01.01.2018 07:57 5,7 C 3,9 C 89 % 1010,8 hPa 0,0 l/m 8,0 km/h (2 Bft) S-SW 202 0 min 0,000 mm 0,0 UV-I 0 W/m 4,0 C 4,3 C 9,7 km/h (2 Bft) 95,65 %
01.01.2018 07:58 5,6 C 3,9 C 89 % 1010,9 hPa 0,0 l/m 6,4 km/h (2 Bft) S-SW 202 0 min 0,000 mm 0,0 UV-I 0 W/m 3,9 C 5,6 C 8,0 km/h (2 Bft) 95,65 %
01.01.2018 07:59 5,6 C 3,9 C 89 % 1010,9 hPa 0,0 l/m 6,4 km/h (2 Bft) S-SW 202 0 min 0,000 mm 0,0 UV-I 0 W/m 3,9 C 5,6 C 8,0 km/h (2 Bft) 100,00 %
01.01.2018 08:00 5,5 C 3,9 C 89 % 1010,9 hPa 0,0 l/m 6,4 km/h (2 Bft) S-SW 202 0 min 0,000 mm 0,0 UV-I 3 W/m 3,8 C 5,5 C 9,7 km/h (2 Bft) 100,00 %
01.01.2018 08:01 5,4 C 3,9 C 90 % 1011,0 hPa 0,0 l/m 6,4 km/h (2 Bft) S-SW 202 0 min 0,000 mm 0,0 UV-I 5 W/m 3,9 C 5,4 C 8,0 km/h (2 Bft) 100,00 %
01.01.2018 08:02 5,4 C 3,9 C 90 % 1011,0 hPa 0,2 l/m 8,0 km/h (2 Bft) S-SW 202 0 min 0,000 mm 0,0 UV-I 5 W/m 3,9 C 4,0 C 12,9 km/h (3 Bft) 95,65 %
01.01.2018 08:03 5,4 C 3,9 C 90 % 1011,0 hPa 0,0 l/m 9,7 km/h (2 Bft) S-SW 202 0 min 0,000 mm 0,0 UV-I 5 W/m 3,9 C 2,7 C 11,3 km/h (2 Bft) 100,00 %
01.01.2018 08:04 5,4 C 3,9 C 91 % 1011,1 hPa 0,0 l/m 9,7 km/h (2 Bft) S-SW 202 0 min 0,000 mm 0,0 UV-I 5 W/m 4,1 C 2,7 C 11,3 km/h (2 Bft) 100,00 %
01.01.2018 08:05 5,5 C 3,9 C 91 % 1011,1 hPa 0,0 l/m 8,0 km/h (2 Bft) S-SW 202 0 min 0,000 mm 0,0 UV-I 5 W/m 4,2 C 4,1 C 12,9 km/h (3 Bft) 100,00 %
01.01.2018 08:06 5,5 C 3,9 C 91 % 1011,1 hPa 0,0 l/m 9,7 km/h (2 Bft) S-SW 202 0 min 0,000 mm 0,0 UV-I 5 W/m 4,2 C 2,8 C 12,9 km/h (3 Bft) 95,65 %
01.01.2018 08:07 5,6 C 3,9 C 91 % 1011,1 hPa 0,0 l/m 9,7 km/h (2 Bft) SW 225 0 min 0,000 mm 0,0 UV-I 5 W/m 4,2 C 2,9 C 11,3 km/h (2 Bft) 100,00 %
01.01.2018 08:08 5,6 C 3,9 C 91 % 1011,2 hPa 0,0 l/m 9,7 km/h (2 Bft) SW 225 0 min 0,000 mm 0,0 UV-I 5 W/m 4,2 C 2,9 C 12,9 km/h (3 Bft) 100,00 %
01.01.2018 08:09 5,7 C 3,9 C 91 % 1011,2 hPa 0,0 l/m 12,9 km/h (3 Bft) S-SW 202 0 min 0,000 mm 0,0 UV-I 5 W/m 4,3 C 1,0 C 20,9 km/h (4 Bft) 95,65 %
01.01.2018 08:10 5,7 C 3,9 C 91 % 1011,3 hPa 0,0 l/m 12,9 km/h (3 Bft) SW 225 0 min 0,000 mm 0,0 UV-I 5 W/m 4,3 C 1,0 C 19,3 km/h (3 Bft) 95,65 %
01.01.2018 08:11 5,7 C 3,9 C 91 % 1011,3 hPa 0,0 l/m 12,9 km/h (3 Bft) SW 225 0 min 0,000 mm 0,0 UV-I 5 W/m 4,3 C 1,0 C 17,7 km/h (3 Bft) 100,00 %
01.01.2018 08:12 5,8 C 3,9 C 91 % 1011,3 hPa 0,0 l/m 12,9 km/h (3 Bft) SW 225 0 min 0,000 mm 0,0 UV-I 6 W/m 4,4 C 1,2 C 20,9 km/h (4 Bft) 95,65 %
01.01.2018 08:13 5,8 C 3,9 C 91 % 1011,4 hPa 0,0 l/m 11,3 km/h (2 Bft) SW 225 0 min 0,000 mm 0,0 UV-I 7 W/m 4,4 C 2,1 C 19,3 km/h (3 Bft) 91,30 %
01.01.2018 08:14 5,8 C 3,9 C 91 % 1011,4 hPa 0,0 l/m 12,9 km/h (3 Bft) SW 225 0 min 0,000 mm 0,0 UV-I 7 W/m 4,4 C 1,2 C 17,7 km/h (3 Bft) 95,65 %
01.01.2018 08:15 5,8 C 3,9 C 91 % 1011,4 hPa 0,0 l/m 16,1 km/h (3 Bft) SW 225 0 min 0,000 mm 0,0 UV-I 7 W/m 4,4 C -0,5 C 22,5 km/h (4 Bft) 95,65 %
01.01.2018 08:16 5,9 C 3,9 C 91 % 1011,5 hPa 0,0 l/m 16,1 km/h (3 Bft) SW 225 0 min 0,000 mm 0,0 UV-I 7 W/m 4,5 C -0,4 C 22,5 km/h (4 Bft) 91,30 %
01.01.2018 08:17 5,9 C 3,9 C 91 % 1011,4 hPa 0,0 l/m 12,9 km/h (3 Bft) SW 225 0 min 0,000 mm 0,0 UV-I 7 W/m 4,5 C 1,3 C 20,9 km/h (4 Bft) 100,00 %
01.01.2018 08:18 5,9 C 3,9 C 91 % 1011,4 hPa 0,0 l/m 12,9 km/h (3 Bft) SW 225 0 min 0,000 mm 0,0 UV-I 7 W/m 4,5 C 1,3 C 19,3 km/h (3 Bft) 91,30 %
01.01.2018 08:19 6,0 C 3,9 C 91 % 1011,5 hPa 0,0 l/m 17,7 km/h (3 Bft) SW 225 0 min 0,000 mm 0,0 UV-I 9 W/m 4,6 C -1,0 C 25,7 km/h (4 Bft) 100,00 %
01.01.2018 08:20 6,0 C 3,9 C 91 % 1011,4 hPa 0,0 l/m 19,3 km/h (3 Bft) SW 225 0 min 0,000 mm 0,0 UV-I 9 W/m 4,6 C -1,6 C 25,7 km/h (4 Bft) 95,65 %
01.01.2018 08:21 6,1 C 3,9 C 90 % 1011,5 hPa 0,2 l/m 16,1 km/h (3 Bft) SW 225 0 min 0,000 mm 0,0 UV-I 9 W/m 4,6 C -0,1 C 25,7 km/h (4 Bft) 95,65 %
01.01.2018 08:22 6,1 C 3,9 C 90 % 1011,5 hPa 0,0 l/m 16,1 km/h (3 Bft) SW 225 0 min 0,000 mm 0,0 UV-I 11 W/m 4,6 C -0,1 C 20,9 km/h (4 Bft) 95,65 %
01.01.2018 08:23 6,2 C 3,9 C 90 % 1011,5 hPa 0,0 l/m 17,7 km/h (3 Bft) SW 225 0 min 0,000 mm 0,0 UV-I 11 W/m 4,7 C -0,7 C 20,9 km/h (4 Bft) 91,30 %
01.01.2018 08:24 6,2 C 3,9 C 90 % 1011,5 hPa 0,0 l/m 17,7 km/h (3 Bft) W-SW 247 0 min 0,000 mm 0,0 UV-I 12 W/m 4,7 C -0,7 C 25,7 km/h (4 Bft) 95,65 %
01.01.2018 08:25 6,2 C 3,9 C 89 % 1011,5 hPa 0,0 l/m 17,7 km/h (3 Bft) SW 225 0 min 0,000 mm 0,0 UV-I 12 W/m 4,5 C -0,7 C 24,1 km/h (4 Bft) 95,65 %
01.01.2018 08:26 6,3 C 3,9 C 89 % 1011,5 hPa 0,0 l/m 17,7 km/h (3 Bft) W-SW 247 0 min 0,000 mm 0,0 UV-I 12 W/m 4,6 C -0,6 C 27,4 km/h (4 Bft) 95,65 %
01.01.2018 08:27 6,3 C 3,9 C 89 % 1011,5 hPa 0,0 l/m 14,5 km/h (3 Bft) SW 225 0 min 0,000 mm 0,0 UV-I 12 W/m 4,6 C 0,9 C 27,4 km/h (4 Bft) 86,96 %
01.01.2018 08:28 6,3 C 3,9 C 88 % 1011,5 hPa 0,0 l/m 17,7 km/h (3 Bft) W-SW 247 0 min 0,000 mm 0,0 UV-I 12 W/m 4,5 C -0,6 C 27,4 km/h (4 Bft) 100,00 %
01.01.2018 08:29 6,4 C 3,9 C 88 % 1011,5 hPa 0,0 l/m 16,1 km/h (3 Bft) SW 225 0 min 0,000 mm 0,0 UV-I 14 W/m 4,6 C 0,3 C 25,7 km/h (4 Bft) 91,30 %
01.01.2018 08:30 6,4 C 3,9 C 88 % 1011,6 hPa 0,0 l/m 20,9 km/h (4 Bft) SW 225 0 min 0,000 mm 0,0 UV-I 14 W/m 4,6 C -1,7 C 29,0 km/h (5 Bft) 100,00 %
01.01.2018 08:31 6,4 C 3,9 C 87 % 1011,5 hPa 0,0 l/m 16,1 km/h (3 Bft) SW 225 0 min 0,000 mm 0,0 UV-I 14 W/m 4,4 C 0,3 C 29,0 km/h (5 Bft) 86,96 %
01.01.2018 08:32 6,5 C 3,9 C 87 % 1011,5 hPa 0,0 l/m 19,3 km/h (3 Bft) W-SW 247 0 min 0,000 mm 0,0 UV-I 14 W/m 4,5 C -1,0 C 29,0 km/h (5 Bft) 100,00 %
01.01.2018 08:33 6,5 C 3,9 C 87 % 1011,5 hPa 0,0 l/m 22,5 km/h (4 Bft) W-SW 247 0 min 0,000 mm 0,0 UV-I 14 W/m 4,5 C -2,1 C 29,0 km/h (5 Bft) 91,30 %
01.01.2018 08:34 6,5 C 3,9 C 86 % 1011,6 hPa 0,0 l/m 24,1 km/h (4 Bft) SW 225 0 min 0,000 mm 0,0 UV-I 16 W/m 4,3 C -2,6 C 32,2 km/h (5 Bft) 95,65 %
01.01.2018 08:35 6,6 C 3,9 C 86 % 1011,6 hPa 0,0 l/m 24,1 km/h (4 Bft) SW 225 0 min 0,000 mm 0,0 UV-I 16 W/m 4,4 C -2,5 C 32,2 km/h (5 Bft) 95,65 %
01.01.2018 08:36 6,6 C 3,9 C 86 % 1011,5 hPa 0,0 l/m 20,9 km/h (4 Bft) SW 225 0 min 0,000 mm 0,0 UV-I 16 W/m 4,4 C -1,4 C 30,6 km/h (5 Bft) 91,30 %
01.01.2018 08:37 6,6 C 3,9 C 86 % 1011,6 hPa 0,0 l/m 20,9 km/h (4 Bft) W-SW 247 0 min 0,000 mm 0,0 UV-I 18 W/m 4,4 C -1,4 C 25,7 km/h (4 Bft) 95,65 %
01.01.2018 08:38 6,6 C 3,9 C 85 % 1011,6 hPa 0,0 l/m 20,9 km/h (4 Bft) SW 225 0 min 0,000 mm 0,0 UV-I 18 W/m 4,3 C -1,4 C 27,4 km/h (4 Bft) 91,30 %
01.01.2018 08:39 6,6 C 3,9 C 85 % 1011,5 hPa 0,0 l/m 19,3 km/h (3 Bft) SW 225 0 min 0,000 mm 0,0 UV-I 18 W/m 4,3 C -0,8 C 27,4 km/h (4 Bft) 100,00 %
01.01.2018 08:40 6,6 C 3,9 C 85 % 1011,5 hPa 0,0 l/m 16,1 km/h (3 Bft) SW 225 0 min 0,000 mm 0,0 UV-I 18 W/m 4,3 C 0,5 C 25,7 km/h (4 Bft) 91,30 %
01.01.2018 08:41 6,6 C 3,9 C 85 % 1011,5 hPa 0,0 l/m 22,5 km/h (4 Bft) SW 225 0 min 0,000 mm 0,0 UV-I 19 W/m 4,3 C -2,0 C 30,6 km/h (5 Bft) 100,00 %
01.01.2018 08:42 6,6 C 3,9 C 84 % 1011,6 hPa 0,0 l/m 14,5 km/h (3 Bft) SW 225 0 min 0,000 mm 0,0 UV-I 19 W/m 4,1 C 1,3 C 22,5 km/h (4 Bft) 91,30 %
01.01.2018 08:43 6,6 C 3,9 C 85 % 1011,6 hPa 0,0 l/m 16,1 km/h (3 Bft) W-SW 247 0 min 0,000 mm 0,0 UV-I 21 W/m 4,3 C 0,5 C 20,9 km/h (4 Bft) 100,00 %
01.01.2018 08:44 6,6 C 3,9 C 84 % 1011,5 hPa 0,0 l/m 17,7 km/h (3 Bft) SW 225 0 min 0,000 mm 0,0 UV-I 21 W/m 4,1 C -0,2 C 22,5 km/h (4 Bft) 91,30 %
01.01.2018 08:45 6,6 C 3,9 C 84 % 1011,5 hPa 0,0 l/m 19,3 km/h (3 Bft) SW 225 0 min 0,000 mm 0,0 UV-I 19 W/m 4,1 C -0,8 C 24,1 km/h (4 Bft) 86,96 %
01.01.2018 08:46 6,5 C 3,9 C 84 % 1011,6 hPa 0,0 l/m 16,1 km/h (3 Bft) SW 225 0 min 0,000 mm 0,0 UV-I 19 W/m 4,0 C 0,4 C 22,5 km/h (4 Bft) 91,30 %
01.01.2018 08:47 6,5 C 3,9 C 84 % 1011,6 hPa 0,0 l/m 19,3 km/h (3 Bft) W-SW 247 0 min 0,000 mm 0,0 UV-I 19 W/m 4,0 C -1,0 C 25,7 km/h (4 Bft) 95,65 %
01.01.2018 08:48 6,4 C 3,9 C 84 % 1011,6 hPa 0,0 l/m 16,1 km/h (3 Bft) SW 225 0 min 0,000 mm 0,0 UV-I 19 W/m 3,9 C 0,3 C 25,7 km/h (4 Bft) 100,00 %
01.01.2018 08:49 6,4 C 3,9 C 85 % 1011,7 hPa 0,0 l/m 14,5 km/h (3 Bft) SW 225 0 min 0,000 mm 0,0 UV-I 19 W/m 4,1 C 1,0 C 19,3 km/h (3 Bft) 95,65 %
01.01.2018 08:50 6,3 C 3,9 C 85 % 1011,7 hPa 0,0 l/m 14,5 km/h (3 Bft) SW 225 0 min 0,000 mm 0,0 UV-I 19 W/m 4,0 C 0,9 C 20,9 km/h (4 Bft) 95,65 %
01.01.2018 08:51 6,3 C 3,9 C 85 % 1011,8 hPa 0,0 l/m 16,1 km/h (3 Bft) SW 225 0 min 0,000 mm 0,0 UV-I 19 W/m 4,0 C 0,1 C 22,5 km/h (4 Bft) 95,65 %
01.01.2018 08:52 6,3 C 3,9 C 85 % 1011,8 hPa 0,0 l/m 16,1 km/h (3 Bft) SW 225 0 min 0,000 mm 0,0 UV-I 19 W/m 4,0 C 0,1 C 22,5 km/h (4 Bft) 95,65 %
01.01.2018 08:53 6,3 C 3,9 C 85 % 1011,9 hPa 0,0 l/m 12,9 km/h (3 Bft) W-SW 247 0 min 0,000 mm 0,0 UV-I 21 W/m 4,0 C 1,7 C 24,1 km/h (4 Bft) 91,30 %
01.01.2018 08:54 6,3 C 3,9 C 85 % 1011,8 hPa 0,0 l/m 14,5 km/h (3 Bft) SW 225 0 min 0,000 mm 0,0 UV-I 23 W/m 4,0 C 0,9 C 19,3 km/h (3 Bft) 95,65 %
01.01.2018 08:55 6,3 C 3,9 C 85 % 1011,8 hPa 0,0 l/m 17,7 km/h (3 Bft) SW 225 0 min 0,000 mm 0,0 UV-I 23 W/m 4,0 C -0,6 C 25,7 km/h (4 Bft) 95,65 %
01.01.2018 08:56 6,3 C 3,9 C 85 % 1011,9 hPa 0,0 l/m 16,1 km/h (3 Bft) SW 225 0 min 0,000 mm 0,0 UV-I 25 W/m 4,0 C 0,1 C 24,1 km/h (4 Bft) 95,65 %
01.01.2018 08:57 6,3 C 3,9 C 85 % 1012,0 hPa 0,0 l/m 14,5 km/h (3 Bft) SW 225 0 min 0,000 mm 0,0 UV-I 25 W/m 4,0 C 0,9 C 17,7 km/h (3 Bft) 100,00 %
01.01.2018 08:58 6,4 C 3,9 C 85 % 1012,0 hPa 0,0 l/m 12,9 km/h (3 Bft) S-SW 202 0 min 0,000 mm 0,0 UV-I 26 W/m 4,1 C 1,9 C 19,3 km/h (3 Bft) 100,00 %
01.01.2018 08:59 6,3 C 3,9 C 85 % 1012,0 hPa 0,0 l/m 17,7 km/h (3 Bft) S-SW 202 0 min 0,000 mm 0,0 UV-I 26 W/m 4,0 C -0,6 C 25,7 km/h (4 Bft) 95,65 %
01.01.2018 09:00 6,3 C 3,9 C 85 % 1012,0 hPa 0,0 l/m 14,5 km/h (3 Bft) S-SW 202 0 min 0,025 mm 0,0 UV-I 26 W/m 4,0 C 0,9 C 22,5 km/h (4 Bft) 100,00 %
01.01.2018 09:01 6,3 C 3,9 C 85 % 1012,0 hPa 0,0 l/m 19,3 km/h (3 Bft) S-SW 202 0 min 0,000 mm 0,0 UV-I 26 W/m 4,0 C -1,2 C 27,4 km/h (4 Bft) 95,65 %
01.01.2018 09:02 6,4 C 3,9 C 85 % 1012,1 hPa 0,0 l/m 16,1 km/h (3 Bft) S-SW 202 0 min 0,000 mm 0,0 UV-I 26 W/m 4,1 C 0,3 C 22,5 km/h (4 Bft) 95,65 %
01.01.2018 09:03 6,4 C 3,9 C 85 % 1012,1 hPa 0,0 l/m 14,5 km/h (3 Bft) SW 225 0 min 0,000 mm 0,0 UV-I 26 W/m 4,1 C 1,0 C 17,7 km/h (3 Bft) 100,00 %
01.01.2018 09:04 6,4 C 3,9 C 85 % 1012,2 hPa 0,0 l/m 17,7 km/h (3 Bft) SW 225 0 min 0,000 mm 0,0 UV-I 26 W/m 4,1 C -0,4 C 24,1 km/h (4 Bft) 100,00 %
01.01.2018 09:05 6,4 C 3,9 C 85 % 1012,2 hPa 0,0 l/m 14,5 km/h (3 Bft) S-SW 202 0 min 0,000 mm 0,0 UV-I 28 W/m 4,1 C 1,0 C 19,3 km/h (3 Bft) 100,00 %
01.01.2018 09:06 6,4 C 3,9 C 85 % 1012,3 hPa 0,0 l/m 16,1 km/h (3 Bft) S-SW 202 0 min 0,000 mm 0,0 UV-I 30 W/m 4,1 C 0,3 C 20,9 km/h (4 Bft) 95,65 %
01.01.2018 09:07 6,4 C 3,9 C 85 % 1012,3 hPa 0,0 l/m 16,1 km/h (3 Bft) S-SW 202 0 min 0,000 mm 0,0 UV-I 30 W/m 4,1 C 0,3 C 25,7 km/h (4 Bft) 100,00 %
01.01.2018 09:08 6,4 C 3,9 C 85 % 1012,3 hPa 0,0 l/m 19,3 km/h (3 Bft) SW 225 0 min 0,000 mm 0,0 UV-I 32 W/m 4,1 C -1,1 C 27,4 km/h (4 Bft) 100,00 %
01.01.2018 09:09 6,4 C 3,9 C 84 % 1012,2 hPa 0,0 l/m 19,3 km/h (3 Bft) S-SW 202 0 min 0,000 mm 0,0 UV-I 32 W/m 3,9 C -1,1 C 29,0 km/h (5 Bft) 100,00 %
01.01.2018 09:10 6,4 C 3,9 C 84 % 1012,2 hPa 0,0 l/m 17,7 km/h (3 Bft) S-SW 202 0 min 0,000 mm 0,0 UV-I 33 W/m 3,9 C -0,4 C 27,4 km/h (4 Bft) 100,00 %
01.01.2018 09:11 6,4 C 3,9 C 84 % 1012,2 hPa 0,0 l/m 20,9 km/h (4 Bft) SW 225 0 min 0,000 mm 0,0 UV-I 33 W/m 3,9 C -1,7 C 30,6 km/h (5 Bft) 100,00 %
01.01.2018 09:12 6,4 C 3,9 C 84 % 1012,2 hPa 0,0 l/m 20,9 km/h (4 Bft) S-SW 202 0 min 0,000 mm 0,0 UV-I 32 W/m 3,9 C -1,7 C 27,4 km/h (4 Bft) 100,00 %
01.01.2018 09:13 6,4 C 3,9 C 84 % 1012,3 hPa 0,0 l/m 20,9 km/h (4 Bft) SW 225 0 min 0,000 mm 0,0 UV-I 32 W/m 3,9 C -1,7 C 32,2 km/h (5 Bft) 95,65 %
01.01.2018 09:14 6,4 C 3,9 C 83 % 1012,3 hPa 0,0 l/m 20,9 km/h (4 Bft) SW 225 0 min 0,000 mm 0,0 UV-I 30 W/m 3,7 C -1,7 C 30,6 km/h (5 Bft) 100,00 %
01.01.2018 09:15 6,4 C 3,9 C 83 % 1012,3 hPa 0,0 l/m 20,9 km/h (4 Bft) SW 225 0 min 0,000 mm 0,0 UV-I 30 W/m 3,7 C -1,7 C 33,8 km/h (5 Bft) 100,00 %
01.01.2018 09:16 6,4 C 3,9 C 83 % 1012,3 hPa 0,0 l/m 17,7 km/h (3 Bft) SW 225 0 min 0,000 mm 0,0 UV-I 30 W/m 3,7 C -0,4 C 33,8 km/h (5 Bft) 100,00 %
01.01.2018 09:17 6,4 C 3,9 C 83 % 1012,4 hPa 0,0 l/m 14,5 km/h (3 Bft) SW 225 0 min 0,000 mm 0,0 UV-I 32 W/m 3,7 C 1,0 C 19,3 km/h (3 Bft) 100,00 %
01.01.2018 09:18 6,4 C 3,9 C 83 % 1012,4 hPa 0,0 l/m 12,9 km/h (3 Bft) SW 225 0 min 0,000 mm 0,0 UV-I 32 W/m 3,7 C 1,9 C 17,7 km/h (3 Bft) 100,00 %
01.01.2018 09:19 6,4 C 3,9 C 83 % 1012,4 hPa 0,0 l/m 16,1 km/h (3 Bft) SW 225 0 min 0,000 mm 0,0 UV-I 33 W/m 3,7 C 0,3 C 20,9 km/h (4 Bft) 100,00 %
01.01.2018 09:20 6,4 C 3,9 C 83 % 1012,4 hPa 0,0 l/m 17,7 km/h (3 Bft) S-SW 202 0 min 0,000 mm 0,0 UV-I 33 W/m 3,7 C -0,4 C 25,7 km/h (4 Bft) 95,65 %
01.01.2018 09:21 6,4 C 3,9 C 82 % 1012,5 hPa 0,0 l/m 16,1 km/h (3 Bft) S-SW 202 0 min 0,000 mm 0,0 UV-I 33 W/m 3,6 C 0,3 C 24,1 km/h (4 Bft) 95,65 %
01.01.2018 09:22 6,4 C 3,9 C 82 % 1012,5 hPa 0,0 l/m 16,1 km/h (3 Bft) S-SW 202 0 min 0,000 mm 0,0 UV-I 35 W/m 3,6 C 0,3 C 22,5 km/h (4 Bft) 100,00 %
01.01.2018 09:23 6,4 C 3,9 C 82 % 1012,5 hPa 0,0 l/m 16,1 km/h (3 Bft) SW 225 0 min 0,000 mm 0,0 UV-I 37 W/m 3,6 C 0,3 C 22,5 km/h (4 Bft) 100,00 %
01.01.2018 09:24 6,4 C 3,9 C 83 % 1012,5 hPa 0,0 l/m 19,3 km/h (3 Bft) S-SW 202 0 min 0,000 mm 0,0 UV-I 40 W/m 3,7 C -1,1 C 25,7 km/h (4 Bft) 100,00 %
01.01.2018 09:25 6,4 C 3,9 C 82 % 1012,5 hPa 0,0 l/m 19,3 km/h (3 Bft) SW 225 0 min 0,000 mm 0,0 UV-I 42 W/m 3,6 C -1,1 C 29,0 km/h (5 Bft) 100,00 %
01.01.2018 09:26 6,4 C 3,9 C 82 % 1012,5 hPa 0,0 l/m 16,1 km/h (3 Bft) SW 225 0 min 0,000 mm 0,0 UV-I 44 W/m 3,6 C 0,3 C 24,1 km/h (4 Bft) 100,00 %
01.01.2018 09:27 6,4 C 3,9 C 82 % 1012,5 hPa 0,0 l/m 19,3 km/h (3 Bft) SW 225 0 min 0,000 mm 0,0 UV-I 46 W/m 3,6 C -1,1 C 27,4 km/h (4 Bft) 95,65 %
01.01.2018 09:28 6,4 C 3,9 C 82 % 1012,6 hPa 0,0 l/m 22,5 km/h (4 Bft) SW 225 0 min 0,000 mm 0,0 UV-I 46 W/m 3,6 C -2,3 C 33,8 km/h (5 Bft) 95,65 %
01.01.2018 09:29 6,4 C 3,9 C 82 % 1012,5 hPa 0,0 l/m 14,5 km/h (3 Bft) SW 225 0 min 0,000 mm 0,0 UV-I 46 W/m 3,6 C 1,0 C 22,5 km/h (4 Bft) 100,00 %
01.01.2018 09:30 6,4 C 3,9 C 82 % 1012,5 hPa 0,0 l/m 19,3 km/h (3 Bft) W-SW 247 0 min 0,000 mm 0,0 UV-I 46 W/m 3,6 C -1,1 C 24,1 km/h (4 Bft) 100,00 %
01.01.2018 09:31 6,4 C 3,9 C 82 % 1012,5 hPa 0,0 l/m 16,1 km/h (3 Bft) SW 225 0 min 0,000 mm 0,0 UV-I 46 W/m 3,6 C 0,3 C 22,5 km/h (4 Bft) 100,00 %
01.01.2018 09:32 6,4 C 3,9 C 82 % 1012,6 hPa 0,0 l/m 12,9 km/h (3 Bft) SW 225 0 min 0,000 mm 0,0 UV-I 46 W/m 3,6 C 1,9 C 24,1 km/h (4 Bft) 100,00 %
01.01.2018 09:33 6,4 C 3,9 C 82 % 1012,6 hPa 0,0 l/m 14,5 km/h (3 Bft) SW 225 0 min 0,000 mm 0,0 UV-I 47 W/m 3,6 C 1,0 C 25,7 km/h (4 Bft) 95,65 %
01.01.2018 09:34 6,4 C 3,9 C 82 % 1012,6 hPa 0,0 l/m 14,5 km/h (3 Bft) W-SW 247 0 min 0,000 mm 0,0 UV-I 50 W/m 3,6 C 1,0 C 17,7 km/h (3 Bft) 95,65 %
01.01.2018 09:35 6,4 C 3,9 C 82 % 1012,6 hPa 0,0 l/m 14,5 km/h (3 Bft) S-SW 202 0 min 0,000 mm 0,0 UV-I 53 W/m 3,6 C 1,0 C 20,9 km/h (4 Bft) 100,00 %
01.01.2018 09:36 6,4 C 3,9 C 82 % 1012,6 hPa 0,0 l/m 14,5 km/h (3 Bft) SW 225 0 min 0,000 mm 0,0 UV-I 56 W/m 3,6 C 1,0 C 22,5 km/h (4 Bft) 100,00 %
01.01.2018 09:37 6,4 C 3,9 C 82 % 1012,6 hPa 0,0 l/m 14,5 km/h (3 Bft) S-SW 202 0 min 0,000 mm 0,0 UV-I 56 W/m 3,6 C 1,0 C 27,4 km/h (4 Bft) 100,00 %
01.01.2018 09:38 6,4 C 3,9 C 82 % 1012,7 hPa 0,0 l/m 16,1 km/h (3 Bft) SW 225 0 min 0,000 mm 0,0 UV-I 60 W/m 3,6 C 0,3 C 24,1 km/h (4 Bft) 100,00 %
01.01.2018 09:39 6,4 C 3,9 C 82 % 1012,7 hPa 0,0 l/m 14,5 km/h (3 Bft) SW 225 0 min 0,000 mm 0,0 UV-I 62 W/m 3,6 C 1,0 C 22,5 km/h (4 Bft) 100,00 %
01.01.2018 09:40 6,4 C 3,9 C 82 % 1012,7 hPa 0,0 l/m 12,9 km/h (3 Bft) S-SW 202 0 min 0,000 mm 0,0 UV-I 63 W/m 3,6 C 1,9 C 22,5 km/h (4 Bft) 100,00 %
01.01.2018 09:41 6,4 C 3,9 C 82 % 1012,7 hPa 0,0 l/m 16,1 km/h (3 Bft) SW 225 0 min 0,000 mm 0,0 UV-I 62 W/m 3,6 C 0,3 C 25,7 km/h (4 Bft) 95,65 %
01.01.2018 09:42 6,4 C 3,9 C 82 % 1012,6 hPa 0,0 l/m 17,7 km/h (3 Bft) S-SW 202 0 min 0,000 mm 0,0 UV-I 62 W/m 3,6 C -0,4 C 25,7 km/h (4 Bft) 100,00 %
01.01.2018 09:43 6,4 C 3,9 C 82 % 1012,7 hPa 0,0 l/m 16,1 km/h (3 Bft) SW 225 0 min 0,000 mm 0,0 UV-I 62 W/m 3,6 C 0,3 C 22,5 km/h (4 Bft) 95,65 %
01.01.2018 09:44 6,4 C 3,9 C 82 % 1012,7 hPa 0,0 l/m 14,5 km/h (3 Bft) W-SW 247 0 min 0,000 mm 0,0 UV-I 62 W/m 3,6 C 1,0 C 20,9 km/h (4 Bft) 95,65 %
01.01.2018 09:45 6,4 C 3,9 C 82 % 1012,7 hPa 0,0 l/m 9,7 km/h (2 Bft) S-SW 202 0 min 0,000 mm 0,0 UV-I 62 W/m 3,6 C 3,8 C 17,7 km/h (3 Bft) 100,00 %
01.01.2018 09:46 6,4 C 3,9 C 82 % 1012,6 hPa 0,0 l/m 14,5 km/h (3 Bft) S-SW 202 0 min 0,000 mm 0,0 UV-I 62 W/m 3,6 C 1,0 C 22,5 km/h (4 Bft) 100,00 %
01.01.2018 09:47 6,4 C 3,9 C 82 % 1012,6 hPa 0,0 l/m 14,5 km/h (3 Bft) W-SW 247 0 min 0,000 mm 0,0 UV-I 63 W/m 3,6 C 1,0 C 17,7 km/h (3 Bft) 100,00 %
01.01.2018 09:48 6,4 C 3,9 C 82 % 1012,6 hPa 0,0 l/m 11,3 km/h (2 Bft) W-SW 247 0 min 0,000 mm 0,0 UV-I 63 W/m 3,6 C 2,8 C 16,1 km/h (3 Bft) 95,65 %
01.01.2018 09:49 6,4 C 3,9 C 82 % 1012,6 hPa 0,0 l/m 9,7 km/h (2 Bft) SW 225 0 min 0,000 mm 0,0 UV-I 65 W/m 3,6 C 3,8 C 14,5 km/h (3 Bft) 100,00 %
01.01.2018 09:50 6,4 C 3,9 C 82 % 1012,7 hPa 0,0 l/m 12,9 km/h (3 Bft) SW 225 0 min 0,000 mm 0,0 UV-I 65 W/m 3,6 C 1,9 C 17,7 km/h (3 Bft) 100,00 %
01.01.2018 09:51 6,3 C 3,9 C 83 % 1012,7 hPa 0,0 l/m 12,9 km/h (3 Bft) W-SW 247 0 min 0,000 mm 0,0 UV-I 68 W/m 3,6 C 1,7 C 19,3 km/h (3 Bft) 86,96 %
01.01.2018 09:52 6,3 C 3,9 C 83 % 1012,7 hPa 0,0 l/m 12,9 km/h (3 Bft) SW 225 0 min 0,000 mm 0,0 UV-I 70 W/m 3,6 C 1,7 C 19,3 km/h (3 Bft) 95,65 %
01.01.2018 09:53 6,3 C 3,9 C 83 % 1012,7 hPa 0,0 l/m 11,3 km/h (2 Bft) SW 225 0 min 0,000 mm 0,0 UV-I 74 W/m 3,6 C 2,7 C 16,1 km/h (3 Bft) 91,30 %
01.01.2018 09:54 6,3 C 3,9 C 83 % 1012,6 hPa 0,0 l/m 14,5 km/h (3 Bft) S-SW 202 0 min 0,000 mm 0,0 UV-I 76 W/m 3,6 C 0,9 C 20,9 km/h (4 Bft) 100,00 %
01.01.2018 09:55 6,3 C 3,9 C 83 % 1012,6 hPa 0,0 l/m 12,9 km/h (3 Bft) S-SW 202 0 min 0,000 mm 0,0 UV-I 77 W/m 3,6 C 1,7 C 16,1 km/h (3 Bft) 91,30 %
01.01.2018 09:56 6,4 C 3,9 C 83 % 1012,6 hPa 0,0 l/m 14,5 km/h (3 Bft) S-SW 202 0 min 0,000 mm 0,0 UV-I 81 W/m 3,7 C 1,0 C 19,3 km/h (3 Bft) 100,00 %
01.01.2018 09:57 6,4 C 3,9 C 83 % 1012,6 hPa 0,0 l/m 12,9 km/h (3 Bft) S-SW 202 0 min 0,000 mm 0,0 UV-I 86 W/m 3,7 C 1,9 C 25,7 km/h (4 Bft) 95,65 %
01.01.2018 09:58 6,4 C 3,9 C 83 % 1012,6 hPa 0,0 l/m 12,9 km/h (3 Bft) S-SW 202 0 min 0,000 mm 0,0 UV-I 93 W/m 3,7 C 1,9 C 19,3 km/h (3 Bft) 100,00 %
01.01.2018 09:59 6,4 C 3,9 C 83 % 1012,7 hPa 0,0 l/m 14,5 km/h (3 Bft) SW 225 0 min 0,000 mm 0,0 UV-I 97 W/m 3,7 C 1,0 C 20,9 km/h (4 Bft) 95,65 %
01.01.2018 10:00 6,4 C 3,9 C 82 % 1012,7 hPa 0,0 l/m 14,5 km/h (3 Bft) SW 225 0 min 0,051 mm 0,0 UV-I 95 W/m 3,6 C 1,0 C 22,5 km/h (4 Bft) 100,00 %
01.01.2018 10:01 6,4 C 3,9 C 83 % 1012,7 hPa 0,0 l/m 12,9 km/h (3 Bft) W-SW 247 0 min 0,000 mm 0,0 UV-I 91 W/m 3,7 C 1,9 C 19,3 km/h (3 Bft) 95,65 %
01.01.2018 10:02 6,4 C 3,9 C 83 % 1012,7 hPa 0,0 l/m 9,7 km/h (2 Bft) S-SW 202 0 min 0,000 mm 0,0 UV-I 86 W/m 3,7 C 3,8 C 16,1 km/h (3 Bft) 95,65 %
01.01.2018 10:03 6,4 C 3,9 C 83 % 1012,7 hPa 0,0 l/m 12,9 km/h (3 Bft) SW 225 0 min 0,000 mm 0,0 UV-I 84 W/m 3,7 C 1,9 C 16,1 km/h (3 Bft) 95,65 %
01.01.2018 10:04 6,4 C 3,9 C 83 % 1012,7 hPa 0,0 l/m 16,1 km/h (3 Bft) S-SW 202 0 min 0,000 mm 0,0 UV-I 84 W/m 3,7 C 0,3 C 19,3 km/h (3 Bft) 100,00 %
01.01.2018 10:05 6,4 C 3,9 C 83 % 1012,8 hPa 0,0 l/m 11,3 km/h (2 Bft) SW 225 0 min 0,000 mm 0,0 UV-I 90 W/m 3,7 C 2,8 C 16,1 km/h (3 Bft) 95,65 %
01.01.2018 10:06 6,4 C 3,9 C 83 % 1012,7 hPa 0,0 l/m 11,3 km/h (2 Bft) SW 225 0 min 0,000 mm 0,0 UV-I 95 W/m 3,7 C 2,8 C 16,1 km/h (3 Bft) 95,65 %
01.01.2018 10:07 6,5 C 3,9 C 83 % 1012,8 hPa 0,0 l/m 12,9 km/h (3 Bft) SW 225 0 min 0,000 mm 0,0 UV-I 97 W/m 3,8 C 2,0 C 17,7 km/h (3 Bft) 95,65 %
01.01.2018 10:08 6,5 C 3,9 C 83 % 1012,8 hPa 0,0 l/m 11,3 km/h (2 Bft) SW 225 0 min 0,000 mm 0,0 UV-I 100 W/m 3,8 C 2,9 C 16,1 km/h (3 Bft) 95,65 %
01.01.2018 10:09 6,5 C 3,9 C 83 % 1012,7 hPa 0,0 l/m 11,3 km/h (2 Bft) SW 225 0 min 0,000 mm 0,0 UV-I 106 W/m 3,8 C 2,9 C 17,7 km/h (3 Bft) 86,96 %
01.01.2018 10:10 6,5 C 3,9 C 83 % 1012,7 hPa 0,0 l/m 11,3 km/h (2 Bft) S-SW 202 0 min 0,000 mm 0,0 UV-I 109 W/m 3,8 C 2,9 C 14,5 km/h (3 Bft) 95,65 %
01.01.2018 10:11 6,6 C 3,9 C 83 % 1012,8 hPa 0,0 l/m 14,5 km/h (3 Bft) SW 225 0 min 0,000 mm 0,0 UV-I 109 W/m 3,9 C 1,3 C 20,9 km/h (4 Bft) 95,65 %
01.01.2018 10:12 6,6 C 3,9 C 82 % 1012,8 hPa 0,0 l/m 9,7 km/h (2 Bft) S-SW 202 0 min 0,000 mm 0,0 UV-I 109 W/m 3,8 C 4,0 C 14,5 km/h (3 Bft) 95,65 %
01.01.2018 10:13 6,6 C 3,9 C 82 % 1012,8 hPa 0,0 l/m 12,9 km/h (3 Bft) SW 225 0 min 0,000 mm 0,0 UV-I 107 W/m 3,8 C 2,1 C 20,9 km/h (4 Bft) 100,00 %
01.01.2018 10:14 6,6 C 3,9 C 82 % 1012,8 hPa 0,0 l/m 12,9 km/h (3 Bft) SW 225 0 min 0,000 mm 0,0 UV-I 105 W/m 3,8 C 2,1 C 20,9 km/h (4 Bft) 95,65 %
01.01.2018 10:15 6,6 C 3,9 C 82 % 1012,8 hPa 0,0 l/m 9,7 km/h (2 Bft) S-SW 202 0 min 0,000 mm 0,0 UV-I 103 W/m 3,8 C 4,0 C 14,5 km/h (3 Bft) 100,00 %
01.01.2018 10:16 6,6 C 3,9 C 82 % 1012,8 hPa 0,0 l/m 11,3 km/h (2 Bft) S-SW 202 0 min 0,000 mm 0,0 UV-I 102 W/m 3,8 C 3,0 C 19,3 km/h (3 Bft) 91,30 %
01.01.2018 10:17 6,7 C 3,9 C 82 % 1012,8 hPa 0,0 l/m 11,3 km/h (2 Bft) SW 225 0 min 0,000 mm 0,0 UV-I 102 W/m 3,8 C 3,1 C 14,5 km/h (3 Bft) 100,00 %
01.01.2018 10:18 6,7 C 3,9 C 82 % 1012,8 hPa 0,0 l/m 11,3 km/h (2 Bft) S-SW 202 0 min 0,000 mm 0,0 UV-I 102 W/m 3,8 C 3,1 C 16,1 km/h (3 Bft) 95,65 %
01.01.2018 10:19 6,7 C 3,9 C 82 % 1012,9 hPa 0,0 l/m 9,7 km/h (2 Bft) S-SW 202 0 min 0,000 mm 0,0 UV-I 104 W/m 3,8 C 4,2 C 17,7 km/h (3 Bft) 100,00 %
01.01.2018 10:20 6,7 C 3,9 C 82 % 1012,8 hPa 0,0 l/m 11,3 km/h (2 Bft) SW 225 0 min 0,000 mm 0,0 UV-I 104 W/m 3,8 C 3,1 C 16,1 km/h (3 Bft) 100,00 %
01.01.2018 10:21 6,7 C 3,9 C 82 % 1012,9 hPa 0,0 l/m 11,3 km/h (2 Bft) S-SW 202 0 min 0,000 mm 0,0 UV-I 105 W/m 3,8 C 3,1 C 16,1 km/h (3 Bft) 100,00 %
01.01.2018 10:22 6,7 C 3,9 C 82 % 1012,9 hPa 0,0 l/m 9,7 km/h (2 Bft) W-SW 247 0 min 0,000 mm 0,0 UV-I 107 W/m 3,8 C 4,2 C 14,5 km/h (3 Bft) 100,00 %
01.01.2018 10:23 6,7 C 3,9 C 82 % 1012,8 hPa 0,0 l/m 12,9 km/h (3 Bft) W-SW 247 0 min 0,000 mm 0,0 UV-I 109 W/m 3,8 C 2,2 C 19,3 km/h (3 Bft) 95,65 %
01.01.2018 10:24 6,7 C 3,9 C 82 % 1012,8 hPa 0,0 l/m 9,7 km/h (2 Bft) SW 225 0 min 0,000 mm 0,0 UV-I 111 W/m 3,8 C 4,2 C 14,5 km/h (3 Bft) 95,65 %
01.01.2018 10:25 6,7 C 3,9 C 82 % 1012,9 hPa 0,0 l/m 11,3 km/h (2 Bft) SW 225 0 min 0,000 mm 0,0 UV-I 113 W/m 3,8 C 3,1 C 16,1 km/h (3 Bft) 100,00 %
01.01.2018 10:26 6,7 C 3,9 C 82 % 1012,9 hPa 0,0 l/m 12,9 km/h (3 Bft) SW 225 0 min 0,000 mm 0,0 UV-I 116 W/m 3,8 C 2,2 C 17,7 km/h (3 Bft) 100,00 %
01.01.2018 10:27 6,7 C 3,9 C 82 % 1012,8 hPa 0,0 l/m 11,3 km/h (2 Bft) SW 225 0 min 0,000 mm 0,0 UV-I 117 W/m 3,8 C 3,1 C 16,1 km/h (3 Bft) 100,00 %
01.01.2018 10:28 6,8 C 3,9 C 82 % 1012,8 hPa 0,0 l/m 11,3 km/h (2 Bft) SW 225 0 min 0,000 mm 0,0 UV-I 118 W/m 3,9 C 3,2 C 17,7 km/h (3 Bft) 95,65 %
01.01.2018 10:29 6,8 C 3,9 C 82 % 1012,8 hPa 0,0 l/m 12,9 km/h (3 Bft) SW 225 0 min 0,000 mm 0,0 UV-I 118 W/m 3,9 C 2,3 C 17,7 km/h (3 Bft) 95,65 %
01.01.2018 10:30 6,8 C 3,9 C 81 % 1012,7 hPa 0,0 l/m 16,1 km/h (3 Bft) SW 225 0 min 0,000 mm 0,0 UV-I 116 W/m 3,8 C 0,7 C 24,1 km/h (4 Bft) 95,65 %
01.01.2018 10:31 6,8 C 3,9 C 81 % 1012,7 hPa 0,0 l/m 11,3 km/h (2 Bft) W-SW 247 0 min 0,000 mm 0,0 UV-I 116 W/m 3,8 C 3,2 C 16,1 km/h (3 Bft) 95,65 %
01.01.2018 10:32 6,9 C 3,9 C 81 % 1012,7 hPa 0,0 l/m 12,9 km/h (3 Bft) W-SW 247 0 min 0,000 mm 0,0 UV-I 114 W/m 3,9 C 2,4 C 19,3 km/h (3 Bft) 100,00 %
01.01.2018 10:33 6,9 C 3,9 C 81 % 1012,7 hPa 0,0 l/m 16,1 km/h (3 Bft) SW 225 0 min 0,000 mm 0,0 UV-I 113 W/m 3,9 C 0,9 C 20,9 km/h (4 Bft) 95,65 %
01.01.2018 10:34 6,9 C 3,9 C 81 % 1012,7 hPa 0,0 l/m 16,1 km/h (3 Bft) SW 225 0 min 0,000 mm 0,0 UV-I 113 W/m 3,9 C 0,9 C 24,1 km/h (4 Bft) 100,00 %
01.01.2018 10:35 6,9 C 3,9 C 80 % 1012,7 hPa 0,0 l/m 17,7 km/h (3 Bft) W-SW 247 0 min 0,000 mm 0,0 UV-I 111 W/m 3,7 C 0,2 C 24,1 km/h (4 Bft) 95,65 %
01.01.2018 10:36 7,0 C 3,9 C 80 % 1012,7 hPa 0,0 l/m 14,5 km/h (3 Bft) W-SW 247 0 min 0,000 mm 0,0 UV-I 109 W/m 3,8 C 1,7 C 19,3 km/h (3 Bft) 100,00 %
01.01.2018 10:37 7,1 C 3,9 C 80 % 1012,6 hPa 0,0 l/m 16,1 km/h (3 Bft) W-SW 247 0 min 0,000 mm 0,0 UV-I 109 W/m 3,9 C 1,1 C 19,3 km/h (3 Bft) 91,30 %
01.01.2018 10:38 7,1 C 3,9 C 79 % 1012,7 hPa 0,0 l/m 16,1 km/h (3 Bft) W-SW 247 0 min 0,000 mm 0,0 UV-I 106 W/m 3,7 C 1,1 C 19,3 km/h (3 Bft) 95,65 %
01.01.2018 10:39 7,1 C 3,9 C 79 % 1012,6 hPa 0,0 l/m 14,5 km/h (3 Bft) W-SW 247 0 min 0,000 mm 0,0 UV-I 105 W/m 3,7 C 1,9 C 17,7 km/h (3 Bft) 95,65 %
01.01.2018 10:40 7,1 C 3,9 C 79 % 1012,6 hPa 0,0 l/m 11,3 km/h (2 Bft) SW 225 0 min 0,000 mm 0,0 UV-I 104 W/m 3,7 C 3,6 C 19,3 km/h (3 Bft) 95,65 %
01.01.2018 10:41 7,1 C 3,9 C 79 % 1012,6 hPa 0,0 l/m 11,3 km/h (2 Bft) SW 225 0 min 0,000 mm 0,0 UV-I 105 W/m 3,7 C 3,6 C 16,1 km/h (3 Bft) 95,65 %
01.01.2018 10:42 7,1 C 3,9 C 79 % 1012,6 hPa 0,0 l/m 14,5 km/h (3 Bft) W-SW 247 0 min 0,000 mm 0,0 UV-I 107 W/m 3,7 C 1,9 C 19,3 km/h (3 Bft) 95,65 %
01.01.2018 10:43 7,1 C 3,9 C 79 % 1012,6 hPa 0,0 l/m 17,7 km/h (3 Bft) W-SW 247 0 min 0,000 mm 0,0 UV-I 107 W/m 3,7 C 0,4 C 22,5 km/h (4 Bft) 100,00 %
01.01.2018 10:44 7,1 C 3,9 C 79 % 1012,6 hPa 0,0 l/m 12,9 km/h (3 Bft) W-SW 247 0 min 0,000 mm 0,0 UV-I 109 W/m 3,7 C 2,7 C 20,9 km/h (4 Bft) 91,30 %
01.01.2018 10:45 7,1 C 3,9 C 79 % 1012,6 hPa 0,0 l/m 14,5 km/h (3 Bft) SW 225 0 min 0,000 mm 0,0 UV-I 107 W/m 3,7 C 1,9 C 24,1 km/h (4 Bft) 95,65 %
01.01.2018 10:46 7,1 C 3,9 C 79 % 1012,6 hPa 0,0 l/m 17,7 km/h (3 Bft) SW 225 0 min 0,000 mm 0,0 UV-I 107 W/m 3,7 C 0,4 C 22,5 km/h (4 Bft) 95,65 %
01.01.2018 10:47 7,1 C 3,9 C 79 % 1012,6 hPa 0,0 l/m 14,5 km/h (3 Bft) W-SW 247 0 min 0,000 mm 0,0 UV-I 114 W/m 3,7 C 1,9 C 20,9 km/h (4 Bft) 95,65 %
01.01.2018 10:48 7,1 C 3,9 C 79 % 1012,6 hPa 0,0 l/m 12,9 km/h (3 Bft) SW 225 0 min 0,000 mm 0,0 UV-I 123 W/m 3,7 C 2,7 C 20,9 km/h (4 Bft) 100,00 %
01.01.2018 10:49 7,1 C 3,9 C 79 % 1012,6 hPa 0,0 l/m 16,1 km/h (3 Bft) SW 225 0 min 0,000 mm 0,0 UV-I 130 W/m 3,7 C 1,1 C 22,5 km/h (4 Bft) 95,65 %
01.01.2018 10:50 7,1 C 3,9 C 79 % 1012,5 hPa 0,0 l/m 11,3 km/h (2 Bft) W-SW 247 0 min 0,000 mm 0,0 UV-I 145 W/m 3,7 C 3,6 C 14,5 km/h (3 Bft) 100,00 %
01.01.2018 10:51 7,1 C 3,9 C 79 % 1012,6 hPa 0,0 l/m 11,3 km/h (2 Bft) SW 225 0 min 0,000 mm 0,0 UV-I 156 W/m 3,7 C 3,6 C 12,9 km/h (3 Bft) 91,30 %
01.01.2018 10:52 7,1 C 3,9 C 79 % 1012,6 hPa 0,0 l/m 11,3 km/h (2 Bft) S-SW 202 0 min 0,000 mm 0,0 UV-I 158 W/m 3,7 C 3,6 C 16,1 km/h (3 Bft) 100,00 %
01.01.2018 10:53 7,1 C 3,9 C 79 % 1012,6 hPa 0,0 l/m 9,7 km/h (2 Bft) SW 225 1 min 0,000 mm 0,0 UV-I 167 W/m 3,7 C 4,6 C 12,9 km/h (3 Bft) 95,65 %
01.01.2018 10:54 7,1 C 3,9 C 79 % 1012,6 hPa 0,0 l/m 12,9 km/h (3 Bft) SW 225 1 min 0,000 mm 0,0 UV-I 181 W/m 3,7 C 2,7 C 19,3 km/h (3 Bft) 95,65 %
01.01.2018 10:55 7,1 C 3,9 C 79 % 1012,6 hPa 0,0 l/m 11,3 km/h (2 Bft) W-SW 247 1 min 0,000 mm 0,0 UV-I 190 W/m 3,7 C 3,6 C 14,5 km/h (3 Bft) 100,00 %
01.01.2018 10:56 7,1 C 3,9 C 79 % 1012,6 hPa 0,0 l/m 11,3 km/h (2 Bft) W-SW 247 1 min 0,000 mm 0,0 UV-I 189 W/m 3,7 C 3,6 C 17,7 km/h (3 Bft) 91,30 %
01.01.2018 10:57 7,2 C 3,9 C 79 % 1012,6 hPa 0,0 l/m 12,9 km/h (3 Bft) W-SW 247 0 min 0,000 mm 0,0 UV-I 162 W/m 3,8 C 2,8 C 16,1 km/h (3 Bft) 100,00 %
01.01.2018 10:58 7,2 C 3,9 C 79 % 1012,6 hPa 0,0 l/m 11,3 km/h (2 Bft) SW 225 1 min 0,000 mm 0,0 UV-I 179 W/m 3,8 C 3,7 C 16,1 km/h (3 Bft) 91,30 %
01.01.2018 10:59 7,2 C 3,9 C 79 % 1012,7 hPa 0,0 l/m 12,9 km/h (3 Bft) SW 225 0 min 0,000 mm 0,0 UV-I 149 W/m 3,8 C 2,8 C 16,1 km/h (3 Bft) 100,00 %
01.01.2018 11:00 7,2 C 3,9 C 79 % 1012,6 hPa 0,0 l/m 9,7 km/h (2 Bft) SW 225 0 min 0,076 mm 0,0 UV-I 153 W/m 3,8 C 4,7 C 16,1 km/h (3 Bft) 95,65 %
01.01.2018 11:01 7,2 C 3,9 C 79 % 1012,6 hPa 0,0 l/m 12,9 km/h (3 Bft) SW 225 0 min 0,000 mm 0,0 UV-I 153 W/m 3,8 C 2,8 C 19,3 km/h (3 Bft) 100,00 %
01.01.2018 11:02 7,2 C 3,9 C 79 % 1012,6 hPa 0,0 l/m 11,3 km/h (2 Bft) SW 225 0 min 0,000 mm 0,0 UV-I 153 W/m 3,8 C 3,7 C 19,3 km/h (3 Bft) 95,65 %
01.01.2018 11:03 7,2 C 3,9 C 79 % 1012,6 hPa 0,0 l/m 11,3 km/h (2 Bft) W-SW 247 0 min 0,000 mm 0,0 UV-I 151 W/m 3,8 C 3,7 C 19,3 km/h (3 Bft) 91,30 %
01.01.2018 11:04 7,2 C 3,9 C 79 % 1012,6 hPa 0,0 l/m 11,3 km/h (2 Bft) W-SW 247 0 min 0,000 mm 0,0 UV-I 149 W/m 3,8 C 3,7 C 16,1 km/h (3 Bft) 100,00 %
01.01.2018 11:05 7,2 C 3,9 C 79 % 1012,6 hPa 0,0 l/m 9,7 km/h (2 Bft) W-SW 247 0 min 0,000 mm 0,0 UV-I 148 W/m 3,8 C 4,7 C 14,5 km/h (3 Bft) 95,65 %
01.01.2018 11:06 7,2 C 3,9 C 79 % 1012,6 hPa 0,0 l/m 11,3 km/h (2 Bft) W-SW 247 0 min 0,000 mm 0,0 UV-I 148 W/m 3,8 C 3,7 C 16,1 km/h (3 Bft) 100,00 %
01.01.2018 11:07 7,2 C 3,9 C 79 % 1012,5 hPa 0,0 l/m 12,9 km/h (3 Bft) SW 225 0 min 0,000 mm 0,0 UV-I 148 W/m 3,8 C 2,8 C 16,1 km/h (3 Bft) 100,00 %
01.01.2018 11:08 7,2 C 3,9 C 79 % 1012,5 hPa 0,0 l/m 11,3 km/h (2 Bft) W-SW 247 0 min 0,000 mm 0,0 UV-I 145 W/m 3,8 C 3,7 C 16,1 km/h (3 Bft) 100,00 %
01.01.2018 11:09 7,2 C 3,9 C 79 % 1012,5 hPa 0,0 l/m 11,3 km/h (2 Bft) SW 225 0 min 0,000 mm 0,0 UV-I 139 W/m 3,8 C 3,7 C 17,7 km/h (3 Bft) 100,00 %
01.01.2018 11:10 7,2 C 3,9 C 79 % 1012,4 hPa 0,0 l/m 11,3 km/h (2 Bft) SW 225 0 min 0,000 mm 0,0 UV-I 135 W/m 3,8 C 3,7 C 14,5 km/h (3 Bft) 100,00 %
01.01.2018 11:11 7,2 C 3,9 C 79 % 1012,4 hPa 0,0 l/m 9,7 km/h (2 Bft) SW 225 0 min 0,000 mm 0,0 UV-I 132 W/m 3,8 C 4,7 C 14,5 km/h (3 Bft) 100,00 %
01.01.2018 11:12 7,2 C 3,9 C 79 % 1012,4 hPa 0,0 l/m 8,0 km/h (2 Bft) SW 225 0 min 0,000 mm 0,0 UV-I 132 W/m 3,8 C 5,9 C 12,9 km/h (3 Bft) 95,65 %
01.01.2018 11:13 7,2 C 3,9 C 79 % 1012,4 hPa 0,0 l/m 8,0 km/h (2 Bft) SW 225 0 min 0,000 mm 0,0 UV-I 132 W/m 3,8 C 5,9 C 14,5 km/h (3 Bft) 100,00 %
01.01.2018 11:14 7,2 C 3,9 C 79 % 1012,4 hPa 0,0 l/m 8,0 km/h (2 Bft) SW 225 0 min 0,000 mm 0,0 UV-I 134 W/m 3,8 C 5,9 C 12,9 km/h (3 Bft) 100,00 %
01.01.2018 11:15 7,2 C 3,9 C 79 % 1012,4 hPa 0,0 l/m 9,7 km/h (2 Bft) SW 225 0 min 0,000 mm 0,0 UV-I 134 W/m 3,8 C 4,7 C 14,5 km/h (3 Bft) 100,00 %
01.01.2018 11:16 7,2 C 3,9 C 79 % 1012,4 hPa 0,0 l/m 11,3 km/h (2 Bft) SW 225 0 min 0,000 mm 0,0 UV-I 134 W/m 3,8 C 3,7 C 16,1 km/h (3 Bft) 95,65 %
01.01.2018 11:17 7,2 C 3,9 C 79 % 1012,5 hPa 0,0 l/m 8,0 km/h (2 Bft) SW 225 0 min 0,000 mm 0,0 UV-I 132 W/m 3,8 C 5,9 C 12,9 km/h (3 Bft) 100,00 %
01.01.2018 11:18 7,2 C 3,9 C 79 % 1012,4 hPa 0,0 l/m 8,0 km/h (2 Bft) S-SW 202 0 min 0,000 mm 0,0 UV-I 128 W/m 3,8 C 5,9 C 14,5 km/h (3 Bft) 100,00 %
01.01.2018 11:19 7,3 C 3,9 C 79 % 1012,4 hPa 0,0 l/m 8,0 km/h (2 Bft) S-SW 202 0 min 0,000 mm 0,0 UV-I 128 W/m 3,9 C 6,0 C 12,9 km/h (3 Bft) 95,65 %
01.01.2018 11:20 7,3 C 3,9 C 79 % 1012,4 hPa 0,0 l/m 8,0 km/h (2 Bft) SW 225 0 min 0,000 mm 0,0 UV-I 130 W/m 3,9 C 6,0 C 9,7 km/h (2 Bft) 95,65 %
01.01.2018 11:21 7,3 C 3,9 C 79 % 1012,4 hPa 0,0 l/m 9,7 km/h (2 Bft) SW 225 0 min 0,000 mm 0,0 UV-I 132 W/m 3,9 C 4,8 C 16,1 km/h (3 Bft) 95,65 %
01.01.2018 11:22 7,3 C 3,9 C 79 % 1012,4 hPa 0,0 l/m 8,0 km/h (2 Bft) W-SW 247 0 min 0,000 mm 0,0 UV-I 134 W/m 3,9 C 6,0 C 11,3 km/h (2 Bft) 95,65 %
01.01.2018 11:23 7,3 C 3,9 C 79 % 1012,4 hPa 0,0 l/m 12,9 km/h (3 Bft) SW 225 0 min 0,000 mm 0,0 UV-I 137 W/m 3,9 C 2,9 C 16,1 km/h (3 Bft) 100,00 %
01.01.2018 11:24 7,3 C 3,9 C 80 % 1012,4 hPa 0,0 l/m 8,0 km/h (2 Bft) SW 225 0 min 0,000 mm 0,0 UV-I 137 W/m 4,1 C 6,0 C 9,7 km/h (2 Bft) 95,65 %
01.01.2018 11:25 7,3 C 3,9 C 80 % 1012,4 hPa 0,0 l/m 8,0 km/h (2 Bft) SW 225 0 min 0,000 mm 0,0 UV-I 136 W/m 4,1 C 6,0 C 9,7 km/h (2 Bft) 95,65 %
01.01.2018 11:26 7,3 C 3,9 C 79 % 1012,4 hPa 0,0 l/m 11,3 km/h (2 Bft) W-SW 247 0 min 0,000 mm 0,0 UV-I 135 W/m 3,9 C 3,8 C 16,1 km/h (3 Bft) 91,30 %
01.01.2018 11:27 7,3 C 3,9 C 79 % 1012,4 hPa 0,0 l/m 9,7 km/h (2 Bft) S-SW 202 0 min 0,000 mm 0,0 UV-I 137 W/m 3,9 C 4,8 C 14,5 km/h (3 Bft) 100,00 %
01.01.2018 11:28 7,3 C 3,9 C 79 % 1012,3 hPa 0,0 l/m 8,0 km/h (2 Bft) S-SW 202 0 min 0,000 mm 0,0 UV-I 139 W/m 3,9 C 6,0 C 12,9 km/h (3 Bft) 95,65 %
01.01.2018 11:29 7,3 C 3,9 C 79 % 1012,3 hPa 0,0 l/m 9,7 km/h (2 Bft) S-SW 202 0 min 0,000 mm 0,0 UV-I 141 W/m 3,9 C 4,8 C 12,9 km/h (3 Bft) 95,65 %
01.01.2018 11:30 7,3 C 3,9 C 79 % 1012,2 hPa 0,0 l/m 8,0 km/h (2 Bft) SW 225 0 min 0,000 mm 0,0 UV-I 144 W/m 3,9 C 6,0 C 9,7 km/h (2 Bft) 91,30 %
01.01.2018 11:31 7,4 C 3,9 C 79 % 1012,2 hPa 0,0 l/m 11,3 km/h (2 Bft) SW 225 0 min 0,000 mm 0,0 UV-I 146 W/m 4,0 C 3,9 C 16,1 km/h (3 Bft) 91,30 %
01.01.2018 11:32 7,4 C 3,9 C 79 % 1012,2 hPa 0,0 l/m 9,7 km/h (2 Bft) W-SW 247 0 min 0,000 mm 0,0 UV-I 146 W/m 4,0 C 4,9 C 16,1 km/h (3 Bft) 100,00 %
01.01.2018 11:33 7,4 C 3,9 C 78 % 1012,3 hPa 0,0 l/m 9,7 km/h (2 Bft) S-SW 202 0 min 0,000 mm 0,0 UV-I 144 W/m 3,8 C 4,9 C 12,9 km/h (3 Bft) 91,30 %
01.01.2018 11:34 7,4 C 3,9 C 79 % 1012,3 hPa 0,0 l/m 8,0 km/h (2 Bft) SW 225 0 min 0,000 mm 0,0 UV-I 142 W/m 4,0 C 6,1 C 14,5 km/h (3 Bft) 100,00 %
01.01.2018 11:35 7,4 C 3,9 C 78 % 1012,3 hPa 0,0 l/m 6,4 km/h (2 Bft) SW 225 0 min 0,000 mm 0,0 UV-I 144 W/m 3,8 C 7,4 C 9,7 km/h (2 Bft) 95,65 %
01.01.2018 11:36 7,5 C 3,9 C 78 % 1012,2 hPa 0,0 l/m 8,0 km/h (2 Bft) SW 225 0 min 0,000 mm 0,0 UV-I 146 W/m 3,9 C 6,2 C 17,7 km/h (3 Bft) 100,00 %
01.01.2018 11:37 7,5 C 3,9 C 78 % 1012,2 hPa 0,0 l/m 11,3 km/h (2 Bft) SW 225 0 min 0,000 mm 0,0 UV-I 150 W/m 3,9 C 4,0 C 17,7 km/h (3 Bft) 95,65 %
01.01.2018 11:38 7,5 C 3,9 C 78 % 1012,2 hPa 0,0 l/m 12,9 km/h (3 Bft) SW 225 0 min 0,000 mm 0,0 UV-I 155 W/m 3,9 C 3,1 C 19,3 km/h (3 Bft) 100,00 %
01.01.2018 11:39 7,6 C 3,9 C 78 % 1012,1 hPa 0,0 l/m 16,1 km/h (3 Bft) SW 225 0 min 0,000 mm 0,0 UV-I 156 W/m 4,0 C 1,7 C 22,5 km/h (4 Bft) 95,65 %
01.01.2018 11:40 7,6 C 3,9 C 77 % 1012,2 hPa 0,0 l/m 12,9 km/h (3 Bft) W-SW 247 0 min 0,000 mm 0,0 UV-I 156 W/m 3,8 C 3,3 C 20,9 km/h (4 Bft) 95,65 %
01.01.2018 11:41 7,6 C 3,9 C 77 % 1012,2 hPa 0,0 l/m 9,7 km/h (2 Bft) SW 225 0 min 0,000 mm 0,0 UV-I 158 W/m 3,8 C 5,1 C 12,9 km/h (3 Bft) 86,96 %
01.01.2018 11:42 7,6 C 3,9 C 76 % 1012,1 hPa 0,0 l/m 12,9 km/h (3 Bft) SW 225 0 min 0,000 mm 0,0 UV-I 158 W/m 3,6 C 3,3 C 19,3 km/h (3 Bft) 100,00 %
01.01.2018 11:43 7,7 C 3,9 C 76 % 1012,1 hPa 0,0 l/m 8,0 km/h (2 Bft) W-SW 247 0 min 0,000 mm 0,0 UV-I 159 W/m 3,7 C 6,4 C 12,9 km/h (3 Bft) 100,00 %
01.01.2018 11:44 7,7 C 3,9 C 76 % 1012,1 hPa 0,0 l/m 11,3 km/h (2 Bft) W-SW 247 0 min 0,000 mm 0,0 UV-I 158 W/m 3,7 C 4,3 C 17,7 km/h (3 Bft) 95,65 %
01.01.2018 11:45 7,7 C 3,9 C 76 % 1012,1 hPa 0,0 l/m 9,7 km/h (2 Bft) SW 225 0 min 0,000 mm 0,0 UV-I 155 W/m 3,7 C 5,2 C 14,5 km/h (3 Bft) 100,00 %
01.01.2018 11:46 7,8 C 3,9 C 76 % 1012,1 hPa 0,0 l/m 9,7 km/h (2 Bft) W 270 0 min 0,000 mm 0,0 UV-I 153 W/m 3,8 C 5,4 C 12,9 km/h (3 Bft) 95,65 %
01.01.2018 11:47 7,8 C 3,9 C 76 % 1012,1 hPa 0,0 l/m 12,9 km/h (3 Bft) W-SW 247 0 min 0,000 mm 0,0 UV-I 151 W/m 3,8 C 3,5 C 14,5 km/h (3 Bft) 95,65 %
01.01.2018 11:48 7,8 C 3,9 C 76 % 1012,0 hPa 0,0 l/m 11,3 km/h (2 Bft) W-SW 247 0 min 0,000 mm 0,0 UV-I 151 W/m 3,8 C 4,4 C 24,1 km/h (4 Bft) 100,00 %
01.01.2018 11:49 7,8 C 3,9 C 75 % 1012,1 hPa 0,0 l/m 14,5 km/h (3 Bft) W-SW 247 0 min 0,000 mm 0,0 UV-I 150 W/m 3,7 C 2,7 C 22,5 km/h (4 Bft) 100,00 %
01.01.2018 11:50 7,8 C 3,9 C 75 % 1012,0 hPa 0,0 l/m 14,5 km/h (3 Bft) W-SW 247 0 min 0,000 mm 0,0 UV-I 149 W/m 3,7 C 2,7 C 19,3 km/h (3 Bft) 100,00 %
01.01.2018 11:51 7,8 C 3,9 C 74 % 1012,0 hPa 0,0 l/m 16,1 km/h (3 Bft) W-SW 247 0 min 0,000 mm 0,0 UV-I 149 W/m 3,5 C 2,0 C 25,7 km/h (4 Bft) 95,65 %
01.01.2018 11:52 7,8 C 3,9 C 74 % 1012,0 hPa 0,0 l/m 14,5 km/h (3 Bft) W-SW 247 0 min 0,000 mm 0,0 UV-I 148 W/m 3,5 C 2,7 C 19,3 km/h (3 Bft) 91,30 %
01.01.2018 11:53 7,9 C 3,9 C 74 % 1012,1 hPa 0,0 l/m 11,3 km/h (2 Bft) SW 225 0 min 0,000 mm 0,0 UV-I 148 W/m 3,6 C 4,5 C 16,1 km/h (3 Bft) 100,00 %
01.01.2018 11:54 7,9 C 3,9 C 74 % 1012,1 hPa 0,0 l/m 16,1 km/h (3 Bft) W-SW 247 0 min 0,000 mm 0,0 UV-I 148 W/m 3,6 C 2,1 C 22,5 km/h (4 Bft) 91,30 %
01.01.2018 11:55 7,9 C 3,9 C 73 % 1012,0 hPa 0,0 l/m 16,1 km/h (3 Bft) W-SW 247 0 min 0,000 mm 0,0 UV-I 146 W/m 3,4 C 2,1 C 19,3 km/h (3 Bft) 100,00 %
01.01.2018 11:56 7,9 C 3,9 C 73 % 1012,0 hPa 0,0 l/m 14,5 km/h (3 Bft) W-SW 247 0 min 0,000 mm 0,0 UV-I 144 W/m 3,4 C 2,8 C 16,1 km/h (3 Bft) 100,00 %
01.01.2018 11:57 7,9 C 3,9 C 73 % 1012,0 hPa 0,0 l/m 14,5 km/h (3 Bft) W-SW 247 0 min 0,000 mm 0,0 UV-I 142 W/m 3,4 C 2,8 C 19,3 km/h (3 Bft) 100,00 %
01.01.2018 11:58 7,9 C 3,9 C 73 % 1012,0 hPa 0,0 l/m 14,5 km/h (3 Bft) W-SW 247 0 min 0,000 mm 0,0 UV-I 141 W/m 3,4 C 2,8 C 20,9 km/h (4 Bft) 95,65 %
01.01.2018 11:59 7,9 C 3,9 C 74 % 1012,0 hPa 0,0 l/m 12,9 km/h (3 Bft) W-SW 247 0 min 0,000 mm 0,0 UV-I 141 W/m 3,6 C 3,6 C 19,3 km/h (3 Bft) 100,00 %
01.01.2018 12:00 7,9 C 3,9 C 73 % 1012,0 hPa 0,0 l/m 14,5 km/h (3 Bft) W-SW 247 0 min 0,076 mm 0,0 UV-I 140 W/m 3,4 C 2,8 C 19,3 km/h (3 Bft) 95,65 %
01.01.2018 12:01 7,9 C 3,9 C 73 % 1012,0 hPa 0,0 l/m 14,5 km/h (3 Bft) W 270 0 min 0,000 mm 0,0 UV-I 137 W/m 3,4 C 2,8 C 19,3 km/h (3 Bft) 95,65 %
01.01.2018 12:02 7,9 C 3,9 C 73 % 1011,9 hPa 0,0 l/m 12,9 km/h (3 Bft) W-SW 247 0 min 0,000 mm 0,0 UV-I 139 W/m 3,4 C 3,6 C 17,7 km/h (3 Bft) 100,00 %
01.01.2018 12:03 7,9 C 3,9 C 72 % 1011,9 hPa 0,0 l/m 12,9 km/h (3 Bft) W-SW 247 0 min 0,000 mm 0,0 UV-I 139 W/m 3,2 C 3,6 C 17,7 km/h (3 Bft) 100,00 %
01.01.2018 12:04 7,9 C 3,9 C 72 % 1011,8 hPa 0,0 l/m 14,5 km/h (3 Bft) W-SW 247 0 min 0,000 mm 0,0 UV-I 137 W/m 3,2 C 2,8 C 19,3 km/h (3 Bft) 100,00 %
01.01.2018 12:05 8,0 C 3,9 C 72 % 1011,9 hPa 0,0 l/m 14,5 km/h (3 Bft) W-SW 247 0 min 0,000 mm 0,0 UV-I 137 W/m 3,3 C 2,9 C 19,3 km/h (3 Bft) 100,00 %
01.01.2018 12:06 8,0 C 3,9 C 71 % 1011,9 hPa 0,0 l/m 17,7 km/h (3 Bft) W-SW 247 0 min 0,000 mm 0,0 UV-I 137 W/m 3,1 C 1,6 C 24,1 km/h (4 Bft) 100,00 %
01.01.2018 12:07 8,0 C 3,9 C 71 % 1011,8 hPa 0,0 l/m 11,3 km/h (2 Bft) W-SW 247 0 min 0,000 mm 0,0 UV-I 135 W/m 3,1 C 4,6 C 16,1 km/h (3 Bft) 100,00 %
01.01.2018 12:08 8,0 C 3,9 C 71 % 1011,8 hPa 0,0 l/m 14,5 km/h (3 Bft) SW 225 0 min 0,000 mm 0,0 UV-I 134 W/m 3,1 C 2,9 C 22,5 km/h (4 Bft) 95,65 %
01.01.2018 12:09 8,0 C 3,9 C 71 % 1011,8 hPa 0,0 l/m 12,9 km/h (3 Bft) W-SW 247 0 min 0,000 mm 0,0 UV-I 134 W/m 3,1 C 3,7 C 17,7 km/h (3 Bft) 100,00 %
01.01.2018 12:10 8,0 C 3,9 C 72 % 1011,7 hPa 0,0 l/m 12,9 km/h (3 Bft) W-SW 247 0 min 0,000 mm 0,0 UV-I 139 W/m 3,3 C 3,7 C 17,7 km/h (3 Bft) 100,00 %
01.01.2018 12:11 8,0 C 3,9 C 72 % 1011,7 hPa 0,0 l/m 12,9 km/h (3 Bft) W-SW 247 0 min 0,000 mm 0,0 UV-I 135 W/m 3,3 C 3,7 C 17,7 km/h (3 Bft) 100,00 %
01.01.2018 12:12 8,0 C 3,9 C 72 % 1011,6 hPa 0,0 l/m 14,5 km/h (3 Bft) W-SW 247 0 min 0,000 mm 0,0 UV-I 134 W/m 3,3 C 2,9 C 20,9 km/h (4 Bft) 100,00 %
01.01.2018 12:13 7,9 C 3,9 C 72 % 1011,6 hPa 0,0 l/m 9,7 km/h (2 Bft) SW 225 0 min 0,000 mm 0,0 UV-I 134 W/m 3,2 C 5,5 C 14,5 km/h (3 Bft) 100,00 %
01.01.2018 12:14 8,0 C 3,9 C 72 % 1011,6 hPa 0,0 l/m 9,7 km/h (2 Bft) W-SW 247 0 min 0,000 mm 0,0 UV-I 132 W/m 3,3 C 5,6 C 12,9 km/h (3 Bft) 100,00 %
01.01.2018 12:15 7,9 C 3,9 C 73 % 1011,6 hPa 0,0 l/m 9,7 km/h (2 Bft) W-SW 247 0 min 0,000 mm 0,0 UV-I 128 W/m 3,4 C 5,5 C 16,1 km/h (3 Bft) 95,65 %
01.01.2018 12:16 7,9 C 3,9 C 72 % 1011,7 hPa 0,0 l/m 14,5 km/h (3 Bft) SW 225 0 min 0,000 mm 0,0 UV-I 127 W/m 3,2 C 2,8 C 19,3 km/h (3 Bft) 100,00 %
01.01.2018 12:17 7,9 C 3,9 C 72 % 1011,6 hPa 0,0 l/m 12,9 km/h (3 Bft) SW 225 0 min 0,000 mm 0,0 UV-I 127 W/m 3,2 C 3,6 C 19,3 km/h (3 Bft) 100,00 %
01.01.2018 12:18 7,9 C 3,9 C 72 % 1011,6 hPa 0,0 l/m 16,1 km/h (3 Bft) SW 225 0 min 0,000 mm 0,0 UV-I 132 W/m 3,2 C 2,1 C 22,5 km/h (4 Bft) 100,00 %
01.01.2018 12:19 7,9 C 3,9 C 72 % 1011,6 hPa 0,0 l/m 12,9 km/h (3 Bft) W-SW 247 0 min 0,000 mm 0,0 UV-I 141 W/m 3,2 C 3,6 C 17,7 km/h (3 Bft) 100,00 %
01.01.2018 12:20 8,0 C 3,9 C 72 % 1011,7 hPa 0,0 l/m 12,9 km/h (3 Bft) W-SW 247 0 min 0,000 mm 0,0 UV-I 149 W/m 3,3 C 3,7 C 20,9 km/h (4 Bft) 100,00 %
01.01.2018 12:21 8,0 C 3,9 C 71 % 1011,6 hPa 0,0 l/m 16,1 km/h (3 Bft) W-SW 247 0 min 0,000 mm 0,0 UV-I 156 W/m 3,1 C 2,2 C 22,5 km/h (4 Bft) 95,65 %
01.01.2018 12:22 8,0 C 3,9 C 71 % 1011,6 hPa 0,0 l/m 14,5 km/h (3 Bft) W-SW 247 0 min 0,000 mm 0,0 UV-I 160 W/m 3,1 C 2,9 C 19,3 km/h (3 Bft) 95,65 %
01.01.2018 12:23 8,0 C 3,9 C 71 % 1011,6 hPa 0,0 l/m 14,5 km/h (3 Bft) SW 225 0 min 0,000 mm 0,0 UV-I 162 W/m 3,1 C 2,9 C 19,3 km/h (3 Bft) 100,00 %
01.01.2018 12:24 8,0 C 3,9 C 71 % 1011,6 hPa 0,0 l/m 17,7 km/h (3 Bft) W-SW 247 0 min 0,000 mm 0,0 UV-I 159 W/m 3,1 C 1,6 C 24,1 km/h (4 Bft) 100,00 %
01.01.2018 12:25 8,1 C 3,9 C 71 % 1011,6 hPa 0,0 l/m 14,5 km/h (3 Bft) SW 225 0 min 0,000 mm 0,0 UV-I 146 W/m 3,2 C 3,1 C 20,9 km/h (4 Bft) 95,65 %
01.01.2018 12:26 8,1 C 3,9 C 71 % 1011,5 hPa 0,0 l/m 20,9 km/h (4 Bft) W-SW 247 0 min 0,000 mm 0,0 UV-I 141 W/m 3,2 C 0,5 C 30,6 km/h (5 Bft) 100,00 %
01.01.2018 12:27 8,1 C 3,9 C 70 % 1011,4 hPa 0,0 l/m 19,3 km/h (3 Bft) W-SW 247 0 min 0,000 mm 0,0 UV-I 139 W/m 3,0 C 1,1 C 27,4 km/h (4 Bft) 100,00 %
01.01.2018 12:28 8,1 C 3,9 C 70 % 1011,4 hPa 0,0 l/m 14,5 km/h (3 Bft) W-SW 247 0 min 0,000 mm 0,0 UV-I 135 W/m 3,0 C 3,1 C 17,7 km/h (3 Bft) 100,00 %
01.01.2018 12:29 8,1 C 3,9 C 69 % 1011,4 hPa 0,0 l/m 16,1 km/h (3 Bft) W-SW 247 0 min 0,000 mm 0,0 UV-I 135 W/m 2,8 C 2,3 C 20,9 km/h (4 Bft) 95,65 %
01.01.2018 12:30 8,1 C 3,9 C 70 % 1011,4 hPa 0,0 l/m 17,7 km/h (3 Bft) W-SW 247 0 min 0,000 mm 0,0 UV-I 135 W/m 3,0 C 1,7 C 24,1 km/h (4 Bft) 95,65 %
01.01.2018 12:31 8,1 C 3,9 C 70 % 1011,5 hPa 0,0 l/m 12,9 km/h (3 Bft) W-SW 247 0 min 0,000 mm 0,0 UV-I 135 W/m 3,0 C 3,8 C 24,1 km/h (4 Bft) 95,65 %
01.01.2018 12:32 8,1 C 3,9 C 69 % 1011,4 hPa 0,0 l/m 19,3 km/h (3 Bft) SW 225 0 min 0,000 mm 0,0 UV-I 134 W/m 2,8 C 1,1 C 27,4 km/h (4 Bft) 100,00 %
01.01.2018 12:33 8,1 C 3,9 C 70 % 1011,4 hPa 0,0 l/m 17,7 km/h (3 Bft) W-SW 247 0 min 0,000 mm 0,0 UV-I 135 W/m 3,0 C 1,7 C 22,5 km/h (4 Bft) 95,65 %
01.01.2018 12:34 8,1 C 3,9 C 70 % 1011,4 hPa 0,0 l/m 14,5 km/h (3 Bft) W-SW 247 0 min 0,000 mm 0,0 UV-I 135 W/m 3,0 C 3,1 C 19,3 km/h (3 Bft) 100,00 %
01.01.2018 12:35 8,1 C 3,9 C 70 % 1011,4 hPa 0,0 l/m 14,5 km/h (3 Bft) W-SW 247 0 min 0,000 mm 0,0 UV-I 136 W/m 3,0 C 3,1 C 17,7 km/h (3 Bft) 95,65 %
01.01.2018 12:36 8,1 C 3,9 C 70 % 1011,3 hPa 0,0 l/m 12,9 km/h (3 Bft) W-SW 247 0 min 0,000 mm 0,0 UV-I 141 W/m 3,0 C 3,8 C 17,7 km/h (3 Bft) 95,65 %
01.01.2018 12:37 8,1 C 3,9 C 70 % 1011,4 hPa 0,0 l/m 14,5 km/h (3 Bft) W-SW 247 0 min 0,000 mm 0,0 UV-I 144 W/m 3,0 C 3,1 C 19,3 km/h (3 Bft) 95,65 %
01.01.2018 12:38 8,1 C 3,9 C 70 % 1011,4 hPa 0,0 l/m 19,3 km/h (3 Bft) W 270 0 min 0,000 mm 0,0 UV-I 146 W/m 3,0 C 1,1 C 25,7 km/h (4 Bft) 95,65 %
01.01.2018 12:39 8,1 C 3,9 C 69 % 1011,3 hPa 0,0 l/m 17,7 km/h (3 Bft) W-SW 247 0 min 0,000 mm 0,0 UV-I 146 W/m 2,8 C 1,7 C 29,0 km/h (5 Bft) 100,00 %
01.01.2018 12:40 8,1 C 3,9 C 69 % 1011,3 hPa 0,0 l/m 20,9 km/h (4 Bft) W-SW 247 0 min 0,000 mm 0,0 UV-I 146 W/m 2,8 C 0,5 C 27,4 km/h (4 Bft) 95,65 %
01.01.2018 12:41 8,1 C 3,9 C 69 % 1011,4 hPa 0,0 l/m 19,3 km/h (3 Bft) W-SW 247 0 min 0,000 mm 0,0 UV-I 144 W/m 2,8 C 1,1 C 25,7 km/h (4 Bft) 100,00 %
01.01.2018 12:42 8,1 C 3,9 C 69 % 1011,4 hPa 0,0 l/m 20,9 km/h (4 Bft) W-SW 247 0 min 0,000 mm 0,0 UV-I 139 W/m 2,8 C 0,5 C 30,6 km/h (5 Bft) 95,65 %
01.01.2018 12:43 8,1 C 3,9 C 69 % 1011,3 hPa 0,0 l/m 16,1 km/h (3 Bft) W-SW 247 0 min 0,000 mm 0,0 UV-I 135 W/m 2,8 C 2,3 C 22,5 km/h (4 Bft) 91,30 %
01.01.2018 12:44 8,1 C 3,9 C 69 % 1011,4 hPa 0,0 l/m 17,7 km/h (3 Bft) W-SW 247 0 min 0,000 mm 0,0 UV-I 134 W/m 2,8 C 1,7 C 22,5 km/h (4 Bft) 95,65 %
01.01.2018 12:45 8,1 C 3,9 C 70 % 1011,3 hPa 0,0 l/m 12,9 km/h (3 Bft) SW 225 0 min 0,000 mm 0,0 UV-I 135 W/m 3,0 C 3,8 C 20,9 km/h (4 Bft) 95,65 %
01.01.2018 12:46 8,1 C 3,9 C 69 % 1011,3 hPa 0,0 l/m 16,1 km/h (3 Bft) W-SW 247 0 min 0,000 mm 0,0 UV-I 137 W/m 2,8 C 2,3 C 27,4 km/h (4 Bft) 95,65 %
01.01.2018 12:47 8,1 C 3,9 C 70 % 1011,4 hPa 0,0 l/m 12,9 km/h (3 Bft) SW 225 0 min 0,000 mm 0,0 UV-I 138 W/m 3,0 C 3,8 C 17,7 km/h (3 Bft) 91,30 %
01.01.2018 12:48 8,1 C 3,9 C 70 % 1011,3 hPa 0,0 l/m 16,1 km/h (3 Bft) W-SW 247 0 min 0,000 mm 0,0 UV-I 134 W/m 3,0 C 2,3 C 25,7 km/h (4 Bft) 100,00 %
01.01.2018 12:49 8,1 C 3,9 C 69 % 1011,3 hPa 0,0 l/m 19,3 km/h (3 Bft) W-SW 247 0 min 0,000 mm 0,0 UV-I 130 W/m 2,8 C 1,1 C 24,1 km/h (4 Bft) 91,30 %
01.01.2018 12:50 8,1 C 3,9 C 69 % 1011,3 hPa 0,0 l/m 12,9 km/h (3 Bft) W-SW 247 0 min 0,000 mm 0,0 UV-I 127 W/m 2,8 C 3,8 C 17,7 km/h (3 Bft) 91,30 %
01.01.2018 12:51 8,1 C 3,9 C 70 % 1011,3 hPa 0,0 l/m 12,9 km/h (3 Bft) SW 225 0 min 0,000 mm 0,0 UV-I 121 W/m 3,0 C 3,8 C 20,9 km/h (4 Bft) 95,65 %
01.01.2018 12:52 8,1 C 3,9 C 70 % 1011,3 hPa 0,0 l/m 17,7 km/h (3 Bft) SW 225 0 min 0,000 mm 0,0 UV-I 118 W/m 3,0 C 1,7 C 22,5 km/h (4 Bft) 95,65 %
01.01.2018 12:53 8,1 C 3,9 C 69 % 1011,2 hPa 0,0 l/m 14,5 km/h (3 Bft) W-SW 247 0 min 0,000 mm 0,0 UV-I 114 W/m 2,8 C 3,1 C 19,3 km/h (3 Bft) 95,65 %
01.01.2018 12:54 8,1 C 3,9 C 70 % 1011,3 hPa 0,0 l/m 14,5 km/h (3 Bft) SW 225 0 min 0,000 mm 0,0 UV-I 111 W/m 3,0 C 3,1 C 17,7 km/h (3 Bft) 95,65 %
01.01.2018 12:55 8,1 C 3,9 C 69 % 1011,2 hPa 0,0 l/m 16,1 km/h (3 Bft) SW 225 0 min 0,000 mm 0,0 UV-I 111 W/m 2,8 C 2,3 C 20,9 km/h (4 Bft) 91,30 %
01.01.2018 12:56 8,1 C 3,9 C 69 % 1011,2 hPa 0,0 l/m 12,9 km/h (3 Bft) SW 225 0 min 0,000 mm 0,0 UV-I 113 W/m 2,8 C 3,8 C 20,9 km/h (4 Bft) 91,30 %
01.01.2018 12:57 8,1 C 3,9 C 69 % 1011,2 hPa 0,0 l/m 14,5 km/h (3 Bft) W-SW 247 0 min 0,000 mm 0,0 UV-I 114 W/m 2,8 C 3,1 C 20,9 km/h (4 Bft) 95,65 %
01.01.2018 12:58 8,1 C 3,9 C 69 % 1011,1 hPa 0,0 l/m 11,3 km/h (2 Bft) W-SW 247 0 min 0,000 mm 0,0 UV-I 118 W/m 2,8 C 4,7 C 16,1 km/h (3 Bft) 91,30 %
01.01.2018 12:59 8,1 C 3,9 C 69 % 1011,1 hPa 0,0 l/m 11,3 km/h (2 Bft) SW 225 0 min 0,000 mm 0,0 UV-I 122 W/m 2,8 C 4,7 C 16,1 km/h (3 Bft) 100,00 %
01.01.2018 13:00 8,1 C 3,9 C 70 % 1011,1 hPa 0,0 l/m 6,4 km/h (2 Bft) W-SW 247 0 min 0,102 mm 0,0 UV-I 127 W/m 3,0 C 8,1 C 9,7 km/h (2 Bft) 91,30 %
01.01.2018 13:01 8,1 C 3,9 C 69 % 1011,1 hPa 0,0 l/m 9,7 km/h (2 Bft) SW 225 0 min 0,000 mm 0,0 UV-I 127 W/m 2,8 C 5,7 C 14,5 km/h (3 Bft) 100,00 %
01.01.2018 13:02 8,1 C 3,9 C 70 % 1011,1 hPa 0,0 l/m 11,3 km/h (2 Bft) W-SW 247 0 min 0,000 mm 0,0 UV-I 127 W/m 3,0 C 4,7 C 12,9 km/h (3 Bft) 86,96 %
01.01.2018 13:03 8,1 C 3,9 C 69 % 1011,1 hPa 0,0 l/m 17,7 km/h (3 Bft) SW 225 0 min 0,000 mm 0,0 UV-I 125 W/m 2,8 C 1,7 C 27,4 km/h (4 Bft) 100,00 %
01.01.2018 13:04 8,1 C 3,9 C 69 % 1011,1 hPa 0,0 l/m 20,9 km/h (4 Bft) SW 225 0 min 0,000 mm 0,0 UV-I 123 W/m 2,8 C 0,5 C 27,4 km/h (4 Bft) 95,65 %
01.01.2018 13:05 8,1 C 3,9 C 69 % 1011,1 hPa 0,0 l/m 16,1 km/h (3 Bft) W-SW 247 0 min 0,000 mm 0,0 UV-I 121 W/m 2,8 C 2,3 C 22,5 km/h (4 Bft) 95,65 %
01.01.2018 13:06 8,1 C 3,9 C 69 % 1011,1 hPa 0,0 l/m 17,7 km/h (3 Bft) W-SW 247 0 min 0,000 mm 0,0 UV-I 118 W/m 2,8 C 1,7 C 24,1 km/h (4 Bft) 100,00 %
01.01.2018 13:07 8,1 C 3,9 C 69 % 1011,0 hPa 0,0 l/m 12,9 km/h (3 Bft) W-SW 247 0 min 0,000 mm 0,0 UV-I 118 W/m 2,8 C 3,8 C 19,3 km/h (3 Bft) 95,65 %
01.01.2018 13:08 8,1 C 3,9 C 69 % 1011,0 hPa 0,0 l/m 12,9 km/h (3 Bft) SW 225 0 min 0,000 mm 0,0 UV-I 120 W/m 2,8 C 3,8 C 20,9 km/h (4 Bft) 100,00 %
01.01.2018 13:09 8,1 C 3,9 C 69 % 1011,0 hPa 0,0 l/m 11,3 km/h (2 Bft) W-SW 247 0 min 0,000 mm 0,0 UV-I 121 W/m 2,8 C 4,7 C 19,3 km/h (3 Bft) 95,65 %
01.01.2018 13:10 8,1 C 3,9 C 69 % 1011,0 hPa 0,0 l/m 12,9 km/h (3 Bft) SW 225 0 min 0,000 mm 0,0 UV-I 121 W/m 2,8 C 3,8 C 17,7 km/h (3 Bft) 100,00 %
01.01.2018 13:11 8,1 C 3,9 C 69 % 1011,0 hPa 0,0 l/m 16,1 km/h (3 Bft) W-SW 247 0 min 0,000 mm 0,0 UV-I 120 W/m 2,8 C 2,3 C 19,3 km/h (3 Bft) 95,65 %
01.01.2018 13:12 8,1 C 3,9 C 69 % 1011,0 hPa 0,0 l/m 12,9 km/h (3 Bft) W-SW 247 0 min 0,000 mm 0,0 UV-I 118 W/m 2,8 C 3,8 C 17,7 km/h (3 Bft) 100,00 %
01.01.2018 13:13 8,0 C 3,9 C 69 % 1011,0 hPa 0,0 l/m 16,1 km/h (3 Bft) W-SW 247 0 min 0,000 mm 0,0 UV-I 114 W/m 2,7 C 2,2 C 22,5 km/h (4 Bft) 100,00 %
01.01.2018 13:14 8,0 C 3,9 C 69 % 1011,0 hPa 0,0 l/m 11,3 km/h (2 Bft) SW 225 0 min 0,000 mm 0,0 UV-I 114 W/m 2,7 C 4,6 C 16,1 km/h (3 Bft) 100,00 %
01.01.2018 13:15 8,0 C 3,9 C 69 % 1011,0 hPa 0,0 l/m 14,5 km/h (3 Bft) SW 225 0 min 0,000 mm 0,0 UV-I 113 W/m 2,7 C 2,9 C 22,5 km/h (4 Bft) 100,00 %
01.01.2018 13:16 8,0 C 3,9 C 69 % 1010,9 hPa 0,0 l/m 14,5 km/h (3 Bft) W 270 0 min 0,000 mm 0,0 UV-I 112 W/m 2,7 C 2,9 C 17,7 km/h (3 Bft) 100,00 %
01.01.2018 13:17 8,0 C 3,9 C 69 % 1010,9 hPa 0,0 l/m 16,1 km/h (3 Bft) W-SW 247 0 min 0,000 mm 0,0 UV-I 111 W/m 2,7 C 2,2 C 24,1 km/h (4 Bft) 100,00 %
01.01.2018 13:18 8,0 C 3,9 C 69 % 1010,9 hPa 0,0 l/m 17,7 km/h (3 Bft) SW 225 0 min 0,000 mm 0,0 UV-I 111 W/m 2,7 C 1,6 C 24,1 km/h (4 Bft) 95,65 %
01.01.2018 13:19 8,0 C 3,9 C 69 % 1010,9 hPa 0,0 l/m 12,9 km/h (3 Bft) W-SW 247 0 min 0,000 mm 0,0 UV-I 111 W/m 2,7 C 3,7 C 19,3 km/h (3 Bft) 100,00 %
01.01.2018 13:20 8,0 C 3,9 C 69 % 1010,9 hPa 0,0 l/m 9,7 km/h (2 Bft) W-SW 247 0 min 0,000 mm 0,0 UV-I 111 W/m 2,7 C 5,6 C 14,5 km/h (3 Bft) 100,00 %
01.01.2018 13:21 8,0 C 3,9 C 70 % 1011,0 hPa 0,0 l/m 9,7 km/h (2 Bft) W-SW 247 0 min 0,000 mm 0,0 UV-I 113 W/m 2,9 C 5,6 C 12,9 km/h (3 Bft) 100,00 %
01.01.2018 13:22 8,0 C 3,9 C 70 % 1011,0 hPa 0,0 l/m 11,3 km/h (2 Bft) SW 225 0 min 0,000 mm 0,0 UV-I 115 W/m 2,9 C 4,6 C 19,3 km/h (3 Bft) 100,00 %
01.01.2018 13:23 7,9 C 3,9 C 70 % 1011,0 hPa 0,0 l/m 12,9 km/h (3 Bft) SW 225 0 min 0,000 mm 0,0 UV-I 120 W/m 2,8 C 3,6 C 22,5 km/h (4 Bft) 100,00 %
01.01.2018 13:24 7,9 C 3,9 C 70 % 1011,0 hPa 0,0 l/m 14,5 km/h (3 Bft) W-SW 247 0 min 0,000 mm 0,0 UV-I 121 W/m 2,8 C 2,8 C 19,3 km/h (3 Bft) 100,00 %
01.01.2018 13:25 7,9 C 3,9 C 69 % 1011,0 hPa 0,0 l/m 19,3 km/h (3 Bft) SW 225 0 min 0,000 mm 0,0 UV-I 123 W/m 2,6 C 0,8 C 25,7 km/h (4 Bft) 95,65 %
01.01.2018 13:26 8,0 C 3,9 C 69 % 1010,9 hPa 0,0 l/m 14,5 km/h (3 Bft) SW 225 0 min 0,000 mm 0,0 UV-I 123 W/m 2,7 C 2,9 C 20,9 km/h (4 Bft) 95,65 %
01.01.2018 13:27 8,0 C 3,9 C 70 % 1011,0 hPa 0,0 l/m 14,5 km/h (3 Bft) SW 225 0 min 0,000 mm 0,0 UV-I 123 W/m 2,9 C 2,9 C 19,3 km/h (3 Bft) 100,00 %
01.01.2018 13:28 8,0 C 3,9 C 70 % 1011,0 hPa 0,0 l/m 14,5 km/h (3 Bft) W-SW 247 0 min 0,000 mm 0,0 UV-I 123 W/m 2,9 C 2,9 C 19,3 km/h (3 Bft) 100,00 %
01.01.2018 13:29 7,9 C 3,9 C 70 % 1011,0 hPa 0,0 l/m 14,5 km/h (3 Bft) SW 225 0 min 0,000 mm 0,0 UV-I 123 W/m 2,8 C 2,8 C 19,3 km/h (3 Bft) 100,00 %
01.01.2018 13:30 7,9 C 3,9 C 69 % 1011,0 hPa 0,0 l/m 12,9 km/h (3 Bft) SW 225 0 min 0,000 mm 0,0 UV-I 121 W/m 2,6 C 3,6 C 17,7 km/h (3 Bft) 100,00 %
01.01.2018 13:31 7,9 C 3,9 C 69 % 1011,0 hPa 0,0 l/m 12,9 km/h (3 Bft) SW 225 0 min 0,000 mm 0,0 UV-I 121 W/m 2,6 C 3,6 C 19,3 km/h (3 Bft) 100,00 %
01.01.2018 13:32 7,9 C 3,9 C 70 % 1010,9 hPa 0,0 l/m 14,5 km/h (3 Bft) SW 225 0 min 0,000 mm 0,0 UV-I 120 W/m 2,8 C 2,8 C 19,3 km/h (3 Bft) 95,65 %
01.01.2018 13:33 7,9 C 3,9 C 69 % 1010,9 hPa 0,0 l/m 16,1 km/h (3 Bft) SW 225 0 min 0,000 mm 0,0 UV-I 118 W/m 2,6 C 2,1 C 20,9 km/h (4 Bft) 100,00 %
01.01.2018 13:34 7,9 C 3,9 C 69 % 1010,9 hPa 0,0 l/m 19,3 km/h (3 Bft) SW 225 0 min 0,000 mm 0,0 UV-I 115 W/m 2,6 C 0,8 C 25,7 km/h (4 Bft) 100,00 %
01.01.2018 13:35 8,0 C 3,9 C 69 % 1010,9 hPa 0,0 l/m 12,9 km/h (3 Bft) SW 225 0 min 0,000 mm 0,0 UV-I 111 W/m 2,7 C 3,7 C 19,3 km/h (3 Bft) 100,00 %
01.01.2018 13:36 8,0 C 3,9 C 69 % 1010,9 hPa 0,0 l/m 9,7 km/h (2 Bft) W-SW 247 0 min 0,000 mm 0,0 UV-I 109 W/m 2,7 C 5,6 C 12,9 km/h (3 Bft) 100,00 %
01.01.2018 13:37 8,0 C 3,9 C 70 % 1010,9 hPa 0,0 l/m 16,1 km/h (3 Bft) SW 225 0 min 0,000 mm 0,0 UV-I 107 W/m 2,9 C 2,2 C 20,9 km/h (4 Bft) 100,00 %
01.01.2018 13:38 7,9 C 3,9 C 69 % 1010,9 hPa 0,0 l/m 17,7 km/h (3 Bft) W-SW 247 0 min 0,000 mm 0,0 UV-I 107 W/m 2,6 C 1,4 C 25,7 km/h (4 Bft) 100,00 %
01.01.2018 13:39 7,9 C 3,9 C 69 % 1010,8 hPa 0,0 l/m 14,5 km/h (3 Bft) W-SW 247 0 min 0,000 mm 0,0 UV-I 105 W/m 2,6 C 2,8 C 19,3 km/h (3 Bft) 100,00 %
01.01.2018 13:40 7,9 C 3,9 C 68 % 1010,9 hPa 0,0 l/m 14,5 km/h (3 Bft) W-SW 247 0 min 0,000 mm 0,0 UV-I 105 W/m 2,4 C 2,8 C 19,3 km/h (3 Bft) 95,65 %
01.01.2018 13:41 8,0 C 3,9 C 68 % 1010,8 hPa 0,0 l/m 16,1 km/h (3 Bft) SW 225 0 min 0,000 mm 0,0 UV-I 100 W/m 2,5 C 2,2 C 27,4 km/h (4 Bft) 100,00 %
01.01.2018 13:42 8,0 C 3,9 C 68 % 1010,9 hPa 0,0 l/m 17,7 km/h (3 Bft) W-SW 247 0 min 0,000 mm 0,0 UV-I 100 W/m 2,5 C 1,6 C 22,5 km/h (4 Bft) 95,65 %
01.01.2018 13:43 8,0 C 3,9 C 68 % 1010,9 hPa 0,0 l/m 19,3 km/h (3 Bft) W-SW 247 0 min 0,000 mm 0,0 UV-I 100 W/m 2,5 C 1,0 C 25,7 km/h (4 Bft) 100,00 %
01.01.2018 13:44 8,0 C 3,9 C 68 % 1010,9 hPa 0,0 l/m 17,7 km/h (3 Bft) SW 225 0 min 0,000 mm 0,0 UV-I 104 W/m 2,5 C 1,6 C 29,0 km/h (5 Bft) 100,00 %
01.01.2018 13:45 8,0 C 3,9 C 68 % 1010,9 hPa 0,0 l/m 19,3 km/h (3 Bft) SW 225 0 min 0,000 mm 0,0 UV-I 107 W/m 2,5 C 1,0 C 27,4 km/h (4 Bft) 95,65 %
01.01.2018 13:46 8,0 C 3,9 C 67 % 1010,9 hPa 0,0 l/m 14,5 km/h (3 Bft) W-SW 247 0 min 0,000 mm 0,0 UV-I 117 W/m 2,3 C 2,9 C 17,7 km/h (3 Bft) 95,65 %
01.01.2018 13:47 8,0 C 3,9 C 68 % 1010,9 hPa 0,0 l/m 14,5 km/h (3 Bft) SW 225 0 min 0,000 mm 0,0 UV-I 127 W/m 2,5 C 2,9 C 20,9 km/h (4 Bft) 95,65 %
01.01.2018 13:48 8,0 C 3,9 C 69 % 1010,8 hPa 0,0 l/m 19,3 km/h (3 Bft) SW 225 0 min 0,000 mm 0,0 UV-I 137 W/m 2,7 C 1,0 C 27,4 km/h (4 Bft) 95,65 %
01.01.2018 13:49 8,0 C 3,9 C 67 % 1010,9 hPa 0,0 l/m 24,1 km/h (4 Bft) W-SW 247 0 min 0,000 mm 0,0 UV-I 148 W/m 2,3 C -0,6 C 30,6 km/h (5 Bft) 100,00 %
01.01.2018 13:50 8,0 C 3,9 C 67 % 1011,0 hPa 0,0 l/m 20,9 km/h (4 Bft) SW 225 1 min 0,000 mm 0,0 UV-I 155 W/m 2,3 C 0,4 C 29,0 km/h (5 Bft) 100,00 %
01.01.2018 13:51 8,1 C 3,9 C 67 % 1010,8 hPa 0,0 l/m 24,1 km/h (4 Bft) SW 225 1 min 0,000 mm 0,0 UV-I 162 W/m 2,3 C -0,5 C 33,8 km/h (5 Bft) 100,00 %
01.01.2018 13:52 8,1 C 3,9 C 67 % 1010,9 hPa 0,0 l/m 22,5 km/h (4 Bft) W 270 1 min 0,000 mm 0,0 UV-I 162 W/m 2,3 C 0,0 C 30,6 km/h (5 Bft) 100,00 %
01.01.2018 13:53 8,1 C 3,9 C 67 % 1010,8 hPa 0,0 l/m 12,9 km/h (3 Bft) W-SW 247 1 min 0,000 mm 0,0 UV-I 155 W/m 2,3 C 3,8 C 20,9 km/h (4 Bft) 100,00 %
01.01.2018 13:54 8,1 C 3,9 C 66 % 1010,7 hPa 0,0 l/m 16,1 km/h (3 Bft) W-SW 247 1 min 0,000 mm 0,0 UV-I 148 W/m 2,1 C 2,3 C 24,1 km/h (4 Bft) 95,65 %
01.01.2018 13:55 8,1 C 3,9 C 67 % 1010,7 hPa 0,0 l/m 14,5 km/h (3 Bft) SW 225 0 min 0,000 mm 0,0 UV-I 141 W/m 2,3 C 3,1 C 19,3 km/h (3 Bft) 100,00 %
01.01.2018 13:56 8,1 C 3,9 C 67 % 1010,7 hPa 0,0 l/m 14,5 km/h (3 Bft) SW 225 0 min 0,000 mm 0,0 UV-I 132 W/m 2,3 C 3,1 C 20,9 km/h (4 Bft) 100,00 %
01.01.2018 13:57 8,1 C 3,9 C 67 % 1010,7 hPa 0,0 l/m 17,7 km/h (3 Bft) W-SW 247 0 min 0,000 mm 0,0 UV-I 120 W/m 2,3 C 1,7 C 24,1 km/h (4 Bft) 100,00 %
01.01.2018 13:58 8,1 C 3,9 C 67 % 1010,6 hPa 0,0 l/m 14,5 km/h (3 Bft) W-SW 247 0 min 0,000 mm 0,0 UV-I 109 W/m 2,3 C 3,1 C 20,9 km/h (4 Bft) 100,00 %
01.01.2018 13:59 8,1 C 3,9 C 67 % 1010,6 hPa 0,0 l/m 17,7 km/h (3 Bft) W-SW 247 0 min 0,000 mm 0,0 UV-I 109 W/m 2,3 C 1,7 C 25,7 km/h (4 Bft) 100,00 %
01.01.2018 14:00 8,1 C 3,9 C 67 % 1010,6 hPa 0,0 l/m 20,9 km/h (4 Bft) W-SW 247 0 min 0,102 mm 0,0 UV-I 98 W/m 2,3 C 0,5 C 27,4 km/h (4 Bft) 100,00 %
01.01.2018 14:01 8,1 C 3,9 C 67 % 1010,6 hPa 0,0 l/m 14,5 km/h (3 Bft) W-SW 247 0 min 0,000 mm 0,0 UV-I 95 W/m 2,3 C 3,1 C 20,9 km/h (4 Bft) 95,65 %
01.01.2018 14:02 8,0 C 3,9 C 67 % 1010,6 hPa 0,0 l/m 12,9 km/h (3 Bft) SW 225 0 min 0,000 mm 0,0 UV-I 90 W/m 2,3 C 3,7 C 22,5 km/h (4 Bft) 100,00 %
01.01.2018 14:03 8,0 C 3,9 C 67 % 1010,6 hPa 0,0 l/m 16,1 km/h (3 Bft) W-SW 247 0 min 0,000 mm 0,0 UV-I 86 W/m 2,3 C 2,2 C 22,5 km/h (4 Bft) 100,00 %
01.01.2018 14:04 7,9 C 3,9 C 67 % 1010,6 hPa 0,0 l/m 12,9 km/h (3 Bft) W-SW 247 0 min 0,000 mm 0,0 UV-I 83 W/m 2,2 C 3,6 C 22,5 km/h (4 Bft) 100,00 %
01.01.2018 14:05 7,9 C 3,9 C 67 % 1010,5 hPa 0,0 l/m 12,9 km/h (3 Bft) W-SW 247 0 min 0,000 mm 0,0 UV-I 81 W/m 2,2 C 3,6 C 16,1 km/h (3 Bft) 100,00 %
01.01.2018 14:06 7,9 C 3,9 C 68 % 1010,5 hPa 0,0 l/m 11,3 km/h (2 Bft) W-SW 247 0 min 0,000 mm 0,0 UV-I 81 W/m 2,4 C 4,5 C 17,7 km/h (3 Bft) 100,00 %
01.01.2018 14:07 7,9 C 3,9 C 67 % 1010,5 hPa 0,0 l/m 16,1 km/h (3 Bft) W-SW 247 0 min 0,000 mm 0,0 UV-I 81 W/m 2,2 C 2,1 C 19,3 km/h (3 Bft) 100,00 %
01.01.2018 14:08 7,9 C 3,9 C 67 % 1010,5 hPa 0,0 l/m 11,3 km/h (2 Bft) W-SW 247 0 min 0,000 mm 0,0 UV-I 83 W/m 2,2 C 4,5 C 19,3 km/h (3 Bft) 91,30 %
01.01.2018 14:09 7,8 C 3,9 C 68 % 1010,4 hPa 0,0 l/m 12,9 km/h (3 Bft) W-SW 247 0 min 0,000 mm 0,0 UV-I 86 W/m 2,3 C 3,5 C 17,7 km/h (3 Bft) 95,65 %
01.01.2018 14:10 7,8 C 3,9 C 68 % 1010,4 hPa 0,0 l/m 11,3 km/h (2 Bft) W-SW 247 0 min 0,000 mm 0,0 UV-I 93 W/m 2,3 C 4,4 C 14,5 km/h (3 Bft) 100,00 %
01.01.2018 14:11 7,8 C 3,9 C 68 % 1010,4 hPa 0,0 l/m 12,9 km/h (3 Bft) W-SW 247 0 min 0,000 mm 0,0 UV-I 98 W/m 2,3 C 3,5 C 20,9 km/h (4 Bft) 91,30 %
01.01.2018 14:12 7,8 C 3,9 C 67 % 1010,3 hPa 0,0 l/m 12,9 km/h (3 Bft) SW 225 0 min 0,000 mm 0,0 UV-I 104 W/m 2,1 C 3,5 C 17,7 km/h (3 Bft) 100,00 %
01.01.2018 14:13 7,8 C 3,9 C 67 % 1010,4 hPa 0,0 l/m 12,9 km/h (3 Bft) W-SW 247 0 min 0,000 mm 0,0 UV-I 107 W/m 2,1 C 3,5 C 17,7 km/h (3 Bft) 86,96 %
01.01.2018 14:14 7,8 C 3,9 C 68 % 1010,3 hPa 0,0 l/m 14,5 km/h (3 Bft) W 270 0 min 0,000 mm 0,0 UV-I 113 W/m 2,3 C 2,7 C 19,3 km/h (3 Bft) 100,00 %
01.01.2018 14:15 7,8 C 3,9 C 68 % 1010,3 hPa 0,0 l/m 9,7 km/h (2 Bft) W-SW 247 0 min 0,000 mm 0,0 UV-I 118 W/m 2,3 C 5,4 C 12,9 km/h (3 Bft) 91,30 %
01.01.2018 14:16 7,8 C 3,9 C 68 % 1010,3 hPa 0,0 l/m 11,3 km/h (2 Bft) W-SW 247 0 min 0,000 mm 0,0 UV-I 128 W/m 2,3 C 4,4 C 16,1 km/h (3 Bft) 95,65 %
01.01.2018 14:17 7,8 C 3,9 C 68 % 1010,3 hPa 0,0 l/m 11,3 km/h (2 Bft) W-SW 247 1 min 0,000 mm 0,0 UV-I 141 W/m 2,3 C 4,4 C 12,9 km/h (3 Bft) 91,30 %
01.01.2018 14:18 7,8 C 3,9 C 68 % 1010,3 hPa 0,0 l/m 9,7 km/h (2 Bft) W-SW 247 1 min 0,000 mm 0,0 UV-I 149 W/m 2,3 C 5,4 C 16,1 km/h (3 Bft) 95,65 %
01.01.2018 14:19 7,8 C 3,9 C 68 % 1010,3 hPa 0,0 l/m 9,7 km/h (2 Bft) W-SW 247 1 min 0,000 mm 0,0 UV-I 151 W/m 2,3 C 5,4 C 12,9 km/h (3 Bft) 91,30 %
01.01.2018 14:20 7,8 C 3,9 C 68 % 1010,3 hPa 0,0 l/m 14,5 km/h (3 Bft) W 270 1 min 0,000 mm 0,0 UV-I 153 W/m 2,3 C 2,7 C 22,5 km/h (4 Bft) 95,65 %
01.01.2018 14:21 7,8 C 3,9 C 68 % 1010,3 hPa 0,0 l/m 11,3 km/h (2 Bft) W-SW 247 1 min 0,000 mm 0,0 UV-I 145 W/m 2,3 C 4,4 C 16,1 km/h (3 Bft) 91,30 %
01.01.2018 14:22 7,9 C 3,9 C 68 % 1010,3 hPa 0,0 l/m 9,7 km/h (2 Bft) W-SW 247 1 min 0,000 mm 0,0 UV-I 134 W/m 2,4 C 5,5 C 12,9 km/h (3 Bft) 95,65 %
01.01.2018 14:23 7,9 C 3,9 C 68 % 1010,3 hPa 0,0 l/m 9,7 km/h (2 Bft) W-SW 247 0 min 0,000 mm 0,0 UV-I 123 W/m 2,4 C 5,5 C 14,5 km/h (3 Bft) 95,65 %
01.01.2018 14:24 7,9 C 3,9 C 68 % 1010,2 hPa 0,0 l/m 12,9 km/h (3 Bft) W 270 0 min 0,000 mm 0,0 UV-I 116 W/m 2,4 C 3,6 C 17,7 km/h (3 Bft) 95,65 %
01.01.2018 14:25 7,9 C 3,9 C 67 % 1010,2 hPa 0,0 l/m 8,0 km/h (2 Bft) W-SW 247 0 min 0,000 mm 0,0 UV-I 114 W/m 2,2 C 6,6 C 16,1 km/h (3 Bft) 95,65 %
01.01.2018 14:26 7,9 C 3,9 C 67 % 1010,2 hPa 0,0 l/m 12,9 km/h (3 Bft) W-SW 247 0 min 0,000 mm 0,0 UV-I 113 W/m 2,2 C 3,6 C 20,9 km/h (4 Bft) 91,30 %
01.01.2018 14:27 7,9 C 3,9 C 67 % 1010,2 hPa 0,0 l/m 11,3 km/h (2 Bft) W-SW 247 0 min 0,000 mm 0,0 UV-I 112 W/m 2,2 C 4,5 C 16,1 km/h (3 Bft) 100,00 %
01.01.2018 14:28 7,9 C 3,9 C 67 % 1010,1 hPa 0,0 l/m 14,5 km/h (3 Bft) W 270 0 min 0,000 mm 0,0 UV-I 105 W/m 2,2 C 2,8 C 19,3 km/h (3 Bft) 95,65 %
01.01.2018 14:29 7,9 C 3,9 C 67 % 1010,0 hPa 0,0 l/m 6,4 km/h (2 Bft) W 270 0 min 0,000 mm 0,0 UV-I 102 W/m 2,2 C 7,9 C 9,7 km/h (2 Bft) 91,30 %
01.01.2018 14:30 7,9 C 3,9 C 67 % 1010,1 hPa 0,0 l/m 8,0 km/h (2 Bft) W 270 0 min 0,000 mm 0,0 UV-I 95 W/m 2,2 C 6,6 C 11,3 km/h (2 Bft) 95,65 %
01.01.2018 14:31 7,9 C 3,9 C 68 % 1010,1 hPa 0,0 l/m 8,0 km/h (2 Bft) W-SW 247 0 min 0,000 mm 0,0 UV-I 90 W/m 2,4 C 6,6 C 11,3 km/h (2 Bft) 95,65 %
01.01.2018 14:32 7,9 C 3,9 C 67 % 1010,1 hPa 0,0 l/m 11,3 km/h (2 Bft) W-SW 247 0 min 0,000 mm 0,0 UV-I 82 W/m 2,2 C 4,5 C 14,5 km/h (3 Bft) 100,00 %
01.01.2018 14:33 7,9 C 3,9 C 66 % 1010,0 hPa 0,0 l/m 9,7 km/h (2 Bft) SW 225 0 min 0,000 mm 0,0 UV-I 74 W/m 1,9 C 5,5 C 14,5 km/h (3 Bft) 95,65 %
01.01.2018 14:34 7,8 C 3,9 C 67 % 1010,0 hPa 0,0 l/m 14,5 km/h (3 Bft) W 270 0 min 0,000 mm 0,0 UV-I 69 W/m 2,1 C 2,7 C 24,1 km/h (4 Bft) 91,30 %
01.01.2018 14:35 7,8 C 3,9 C 66 % 1010,0 hPa 0,0 l/m 14,5 km/h (3 Bft) W-SW 247 0 min 0,000 mm 0,0 UV-I 65 W/m 1,9 C 2,7 C 20,9 km/h (4 Bft) 95,65 %
01.01.2018 14:36 7,8 C 3,9 C 67 % 1010,0 hPa 0,0 l/m 9,7 km/h (2 Bft) SW 225 0 min 0,000 mm 0,0 UV-I 62 W/m 2,1 C 5,4 C 17,7 km/h (3 Bft) 95,65 %
01.01.2018 14:37 7,8 C 3,9 C 67 % 1010,0 hPa 0,0 l/m 14,5 km/h (3 Bft) W-SW 247 0 min 0,000 mm 0,0 UV-I 60 W/m 2,1 C 2,7 C 17,7 km/h (3 Bft) 91,30 %
01.01.2018 14:38 7,8 C 3,9 C 67 % 1009,9 hPa 0,0 l/m 14,5 km/h (3 Bft) W 270 0 min 0,000 mm 0,0 UV-I 57 W/m 2,1 C 2,7 C 19,3 km/h (3 Bft) 100,00 %
01.01.2018 14:39 7,8 C 3,9 C 67 % 1010,0 hPa 0,0 l/m 8,0 km/h (2 Bft) W-SW 247 0 min 0,000 mm 0,0 UV-I 53 W/m 2,1 C 6,5 C 16,1 km/h (3 Bft) 91,30 %
01.01.2018 14:40 7,8 C 3,9 C 67 % 1010,0 hPa 0,0 l/m 12,9 km/h (3 Bft) W-SW 247 0 min 0,000 mm 0,0 UV-I 51 W/m 2,1 C 3,5 C 19,3 km/h (3 Bft) 95,65 %
01.01.2018 14:41 7,8 C 3,9 C 67 % 1010,0 hPa 0,0 l/m 11,3 km/h (2 Bft) W-SW 247 0 min 0,000 mm 0,0 UV-I 49 W/m 2,1 C 4,4 C 19,3 km/h (3 Bft) 95,65 %
01.01.2018 14:42 7,8 C 3,9 C 67 % 1009,9 hPa 0,0 l/m 9,7 km/h (2 Bft) W-SW 247 0 min 0,000 mm 0,0 UV-I 47 W/m 2,1 C 5,4 C 12,9 km/h (3 Bft) 95,65 %
01.01.2018 14:43 7,7 C 3,9 C 67 % 1009,9 hPa 0,0 l/m 8,0 km/h (2 Bft) SW 225 0 min 0,000 mm 0,0 UV-I 47 W/m 2,0 C 6,4 C 12,9 km/h (3 Bft) 91,30 %
01.01.2018 14:44 7,7 C 3,9 C 67 % 1009,9 hPa 0,0 l/m 9,7 km/h (2 Bft) SW 225 0 min 0,000 mm 0,0 UV-I 47 W/m 2,0 C 5,2 C 14,5 km/h (3 Bft) 95,65 %
01.01.2018 14:45 7,7 C 3,9 C 68 % 1009,9 hPa 0,0 l/m 9,7 km/h (2 Bft) W-SW 247 0 min 0,000 mm 0,0 UV-I 49 W/m 2,2 C 5,2 C 14,5 km/h (3 Bft) 100,00 %
01.01.2018 14:46 7,7 C 3,9 C 68 % 1009,9 hPa 0,0 l/m 9,7 km/h (2 Bft) W 270 0 min 0,000 mm 0,0 UV-I 51 W/m 2,2 C 5,2 C 16,1 km/h (3 Bft) 95,65 %
01.01.2018 14:47 7,6 C 3,9 C 67 % 1009,9 hPa 0,0 l/m 6,4 km/h (2 Bft) W-SW 247 0 min 0,000 mm 0,0 UV-I 53 W/m 1,9 C 7,6 C 8,0 km/h (2 Bft) 100,00 %
01.01.2018 14:48 7,6 C 3,9 C 68 % 1009,9 hPa 0,0 l/m 9,7 km/h (2 Bft) SW 225 0 min 0,000 mm 0,0 UV-I 54 W/m 2,1 C 5,1 C 12,9 km/h (3 Bft) 95,65 %
01.01.2018 14:49 7,6 C 3,9 C 68 % 1009,9 hPa 0,0 l/m 11,3 km/h (2 Bft) SW 225 0 min 0,000 mm 0,0 UV-I 54 W/m 2,1 C 4,1 C 20,9 km/h (4 Bft) 95,65 %
01.01.2018 14:50 7,6 C 3,9 C 67 % 1009,7 hPa 0,0 l/m 14,5 km/h (3 Bft) W-SW 247 0 min 0,000 mm 0,0 UV-I 51 W/m 1,9 C 2,5 C 17,7 km/h (3 Bft) 95,65 %
01.01.2018 14:51 7,6 C 3,9 C 68 % 1009,7 hPa 0,0 l/m 9,7 km/h (2 Bft) SW 225 0 min 0,000 mm 0,0 UV-I 46 W/m 2,1 C 5,1 C 14,5 km/h (3 Bft) 95,65 %
01.01.2018 14:52 7,6 C 3,9 C 68 % 1009,7 hPa 0,0 l/m 11,3 km/h (2 Bft) SW 225 0 min 0,000 mm 0,0 UV-I 40 W/m 2,1 C 4,1 C 14,5 km/h (3 Bft) 100,00 %
01.01.2018 14:53 7,6 C 3,9 C 68 % 1009,7 hPa 0,0 l/m 8,0 km/h (2 Bft) SW 225 0 min 0,000 mm 0,0 UV-I 37 W/m 2,1 C 6,3 C 12,9 km/h (3 Bft) 95,65 %
01.01.2018 14:54 7,6 C 3,9 C 68 % 1009,7 hPa 0,0 l/m 8,0 km/h (2 Bft) SW 225 0 min 0,000 mm 0,0 UV-I 33 W/m 2,1 C 6,3 C 11,3 km/h (2 Bft) 91,30 %
01.01.2018 14:55 7,5 C 3,9 C 69 % 1009,7 hPa 0,0 l/m 9,7 km/h (2 Bft) W-SW 247 0 min 0,000 mm 0,0 UV-I 30 W/m 2,2 C 5,0 C 12,9 km/h (3 Bft) 95,65 %
01.01.2018 14:56 7,4 C 3,9 C 69 % 1009,7 hPa 0,0 l/m 8,0 km/h (2 Bft) SW 225 0 min 0,000 mm 0,0 UV-I 28 W/m 2,1 C 6,1 C 11,3 km/h (2 Bft) 100,00 %
01.01.2018 14:57 7,4 C 3,9 C 69 % 1009,7 hPa 0,0 l/m 12,9 km/h (3 Bft) SW 225 0 min 0,000 mm 0,0 UV-I 26 W/m 2,1 C 3,0 C 16,1 km/h (3 Bft) 91,30 %
01.01.2018 14:58 7,4 C 3,9 C 69 % 1009,7 hPa 0,0 l/m 9,7 km/h (2 Bft) S-SW 202 0 min 0,000 mm 0,0 UV-I 26 W/m 2,1 C 4,9 C 14,5 km/h (3 Bft) 91,30 %
01.01.2018 14:59 7,4 C 3,9 C 69 % 1009,7 hPa 0,0 l/m 9,7 km/h (2 Bft) SW 225 0 min 0,000 mm 0,0 UV-I 26 W/m 2,1 C 4,9 C 16,1 km/h (3 Bft) 100,00 %
01.01.2018 15:00 7,4 C 3,9 C 70 % 1009,7 hPa 0,0 l/m 8,0 km/h (2 Bft) SW 225 0 min 0,076 mm 0,0 UV-I 25 W/m 2,3 C 6,1 C 11,3 km/h (2 Bft) 95,65 %
01.01.2018 15:01 7,3 C 3,9 C 70 % 1009,7 hPa 0,0 l/m 8,0 km/h (2 Bft) SW 225 0 min 0,000 mm 0,0 UV-I 25 W/m 2,2 C 6,0 C 9,7 km/h (2 Bft) 100,00 %
01.01.2018 15:02 7,3 C 3,9 C 71 % 1009,6 hPa 0,0 l/m 8,0 km/h (2 Bft) SW 225 0 min 0,000 mm 0,0 UV-I 24 W/m 2,4 C 6,0 C 11,3 km/h (2 Bft) 95,65 %
01.01.2018 15:03 7,3 C 3,9 C 71 % 1009,7 hPa 0,0 l/m 8,0 km/h (2 Bft) SW 225 0 min 0,000 mm 0,0 UV-I 23 W/m 2,4 C 6,0 C 11,3 km/h (2 Bft) 91,30 %
01.01.2018 15:04 7,2 C 3,9 C 71 % 1009,6 hPa 0,0 l/m 6,4 km/h (2 Bft) SW 225 0 min 0,000 mm 0,0 UV-I 23 W/m 2,3 C 7,2 C 9,7 km/h (2 Bft) 86,96 %
01.01.2018 15:05 7,2 C 3,9 C 71 % 1009,5 hPa 0,0 l/m 6,4 km/h (2 Bft) W-SW 247 0 min 0,000 mm 0,0 UV-I 25 W/m 2,3 C 7,2 C 8,0 km/h (2 Bft) 100,00 %
01.01.2018 15:06 7,2 C 3,9 C 72 % 1009,6 hPa 0,0 l/m 6,4 km/h (2 Bft) W-SW 247 0 min 0,000 mm 0,0 UV-I 25 W/m 2,5 C 7,2 C 8,0 km/h (2 Bft) 95,65 %
01.01.2018 15:07 7,2 C 3,9 C 72 % 1009,5 hPa 0,0 l/m 6,4 km/h (2 Bft) W-SW 247 0 min 0,000 mm 0,0 UV-I 25 W/m 2,5 C 7,2 C 8,0 km/h (2 Bft) 100,00 %
01.01.2018 15:08 7,1 C 3,9 C 72 % 1009,5 hPa 0,0 l/m 6,4 km/h (2 Bft) W-SW 247 0 min 0,000 mm 0,0 UV-I 25 W/m 2,4 C 7,1 C 8,0 km/h (2 Bft) 100,00 %
01.01.2018 15:09 7,1 C 3,9 C 72 % 1009,5 hPa 0,0 l/m 6,4 km/h (2 Bft) SW 225 0 min 0,000 mm 0,0 UV-I 25 W/m 2,4 C 7,1 C 9,7 km/h (2 Bft) 100,00 %
01.01.2018 15:10 7,1 C 3,9 C 72 % 1009,5 hPa 0,0 l/m 8,0 km/h (2 Bft) SW 225 0 min 0,000 mm 0,0 UV-I 26 W/m 2,4 C 5,8 C 9,7 km/h (2 Bft) 100,00 %
01.01.2018 15:11 7,0 C 3,9 C 73 % 1009,4 hPa 0,0 l/m 8,0 km/h (2 Bft) SW 225 0 min 0,000 mm 0,0 UV-I 26 W/m 2,5 C 5,7 C 9,7 km/h (2 Bft) 95,65 %
01.01.2018 15:12 7,0 C 3,9 C 73 % 1009,4 hPa 0,0 l/m 6,4 km/h (2 Bft) SW 225 0 min 0,000 mm 0,0 UV-I 26 W/m 2,5 C 7,0 C 9,7 km/h (2 Bft) 100,00 %
01.01.2018 15:13 6,9 C 3,9 C 73 % 1009,4 hPa 0,0 l/m 4,8 km/h (1 Bft) W-SW 247 0 min 0,000 mm 0,0 UV-I 26 W/m 2,4 C 6,9 C 4,8 km/h (1 Bft) 100,00 %
01.01.2018 15:14 6,9 C 3,9 C 73 % 1009,3 hPa 0,0 l/m 4,8 km/h (1 Bft) W 270 0 min 0,000 mm 0,0 UV-I 23 W/m 2,4 C 6,9 C 6,4 km/h (2 Bft) 100,00 %
01.01.2018 15:15 6,9 C 3,9 C 73 % 1009,3 hPa 0,0 l/m 4,8 km/h (1 Bft) SW 225 0 min 0,000 mm 0,0 UV-I 23 W/m 2,4 C 6,9 C 6,4 km/h (2 Bft) 100,00 %
01.01.2018 15:16 6,9 C 3,9 C 73 % 1009,4 hPa 0,0 l/m 6,4 km/h (2 Bft) W-SW 247 0 min 0,000 mm 0,0 UV-I 23 W/m 2,4 C 6,9 C 8,0 km/h (2 Bft) 95,65 %
01.01.2018 15:17 6,9 C 3,9 C 73 % 1009,3 hPa 0,0 l/m 8,0 km/h (2 Bft) SW 225 0 min 0,000 mm 0,0 UV-I 23 W/m 2,4 C 5,6 C 12,9 km/h (3 Bft) 100,00 %
01.01.2018 15:18 6,9 C 3,9 C 73 % 1009,3 hPa 0,0 l/m 6,4 km/h (2 Bft) SW 225 0 min 0,000 mm 0,0 UV-I 25 W/m 2,4 C 6,9 C 9,7 km/h (2 Bft) 91,30 %
01.01.2018 15:19 6,9 C 3,9 C 73 % 1009,2 hPa 0,0 l/m 6,4 km/h (2 Bft) SW 225 0 min 0,000 mm 0,0 UV-I 27 W/m 2,4 C 6,9 C 8,0 km/h (2 Bft) 100,00 %
01.01.2018 15:20 6,9 C 3,9 C 73 % 1009,2 hPa 0,0 l/m 4,8 km/h (1 Bft) SW 225 0 min 0,000 mm 0,0 UV-I 30 W/m 2,4 C 6,9 C 8,0 km/h (2 Bft) 100,00 %
01.01.2018 15:21 6,8 C 3,9 C 74 % 1009,2 hPa 0,0 l/m 8,0 km/h (2 Bft) SW 225 0 min 0,000 mm 0,0 UV-I 32 W/m 2,5 C 5,5 C 11,3 km/h (2 Bft) 100,00 %
01.01.2018 15:22 6,8 C 3,9 C 74 % 1009,2 hPa 0,0 l/m 8,0 km/h (2 Bft) S-SW 202 0 min 0,000 mm 0,0 UV-I 32 W/m 2,5 C 5,5 C 11,3 km/h (2 Bft) 100,00 %
01.01.2018 15:23 6,8 C 3,9 C 73 % 1009,2 hPa 0,0 l/m 9,7 km/h (2 Bft) S-SW 202 0 min 0,000 mm 0,0 UV-I 30 W/m 2,3 C 4,3 C 11,3 km/h (2 Bft) 100,00 %
01.01.2018 15:24 6,8 C 3,9 C 74 % 1009,2 hPa 0,0 l/m 8,0 km/h (2 Bft) SW 225 0 min 0,000 mm 0,0 UV-I 28 W/m 2,5 C 5,5 C 9,7 km/h (2 Bft) 100,00 %
01.01.2018 15:25 6,8 C 3,9 C 73 % 1009,2 hPa 0,0 l/m 8,0 km/h (2 Bft) SW 225 0 min 0,000 mm 0,0 UV-I 26 W/m 2,3 C 5,5 C 14,5 km/h (3 Bft) 91,30 %
01.01.2018 15:26 6,8 C 3,9 C 73 % 1009,1 hPa 0,0 l/m 8,0 km/h (2 Bft) S-SW 202 0 min 0,000 mm 0,0 UV-I 23 W/m 2,3 C 5,5 C 12,9 km/h (3 Bft) 100,00 %
01.01.2018 15:27 6,8 C 3,9 C 73 % 1009,1 hPa 0,0 l/m 8,0 km/h (2 Bft) S-SW 202 0 min 0,000 mm 0,0 UV-I 23 W/m 2,3 C 5,5 C 12,9 km/h (3 Bft) 100,00 %
01.01.2018 15:28 6,8 C 3,9 C 73 % 1009,1 hPa 0,0 l/m 9,7 km/h (2 Bft) S-SW 202 0 min 0,000 mm 0,0 UV-I 23 W/m 2,3 C 4,3 C 16,1 km/h (3 Bft) 100,00 %
01.01.2018 15:29 6,8 C 3,9 C 73 % 1009,0 hPa 0,0 l/m 8,0 km/h (2 Bft) S-SW 202 0 min 0,000 mm 0,0 UV-I 23 W/m 2,3 C 5,5 C 16,1 km/h (3 Bft) 95,65 %
01.01.2018 15:30 6,8 C 3,9 C 73 % 1009,0 hPa 0,0 l/m 9,7 km/h (2 Bft) S-SW 202 0 min 0,000 mm 0,0 UV-I 25 W/m 2,3 C 4,3 C 14,5 km/h (3 Bft) 95,65 %
01.01.2018 15:31 6,8 C 3,9 C 73 % 1008,9 hPa 0,0 l/m 11,3 km/h (2 Bft) S-SW 202 0 min 0,000 mm 0,0 UV-I 25 W/m 2,3 C 3,2 C 14,5 km/h (3 Bft) 100,00 %
01.01.2018 15:32 6,8 C 3,9 C 73 % 1008,9 hPa 0,0 l/m 9,7 km/h (2 Bft) SW 225 0 min 0,000 mm 0,0 UV-I 25 W/m 2,3 C 4,3 C 14,5 km/h (3 Bft) 91,30 %
01.01.2018 15:33 6,8 C 3,9 C 73 % 1008,9 hPa 0,0 l/m 9,7 km/h (2 Bft) S-SW 202 0 min 0,000 mm 0,0 UV-I 25 W/m 2,3 C 4,3 C 14,5 km/h (3 Bft) 100,00 %
01.01.2018 15:34 6,8 C 3,9 C 73 % 1008,9 hPa 0,0 l/m 9,7 km/h (2 Bft) S-SW 202 0 min 0,000 mm 0,0 UV-I 25 W/m 2,3 C 4,3 C 12,9 km/h (3 Bft) 95,65 %
01.01.2018 15:35 6,8 C 3,9 C 73 % 1008,9 hPa 0,0 l/m 9,7 km/h (2 Bft) S-SW 202 0 min 0,000 mm 0,0 UV-I 25 W/m 2,3 C 4,3 C 17,7 km/h (3 Bft) 100,00 %
01.01.2018 15:36 6,8 C 3,9 C 73 % 1008,9 hPa 0,0 l/m 12,9 km/h (3 Bft) SW 225 0 min 0,000 mm 0,0 UV-I 25 W/m 2,3 C 2,3 C 19,3 km/h (3 Bft) 95,65 %
01.01.2018 15:37 6,8 C 3,9 C 73 % 1008,9 hPa 0,0 l/m 9,7 km/h (2 Bft) SW 225 0 min 0,000 mm 0,0 UV-I 25 W/m 2,3 C 4,3 C 14,5 km/h (3 Bft) 100,00 %
01.01.2018 15:38 6,8 C 3,9 C 72 % 1008,9 hPa 0,0 l/m 9,7 km/h (2 Bft) SW 225 0 min 0,000 mm 0,0 UV-I 25 W/m 2,1 C 4,3 C 14,5 km/h (3 Bft) 95,65 %
01.01.2018 15:39 6,8 C 3,9 C 72 % 1008,9 hPa 0,0 l/m 8,0 km/h (2 Bft) S-SW 202 0 min 0,000 mm 0,0 UV-I 25 W/m 2,1 C 5,5 C 11,3 km/h (2 Bft) 95,65 %
01.01.2018 15:40 6,8 C 3,9 C 72 % 1008,9 hPa 0,0 l/m 9,7 km/h (2 Bft) SW 225 0 min 0,000 mm 0,0 UV-I 26 W/m 2,1 C 4,3 C 12,9 km/h (3 Bft) 95,65 %
01.01.2018 15:41 6,8 C 3,9 C 72 % 1008,9 hPa 0,0 l/m 9,7 km/h (2 Bft) S-SW 202 0 min 0,000 mm 0,0 UV-I 26 W/m 2,1 C 4,3 C 19,3 km/h (3 Bft) 91,30 %
01.01.2018 15:42 6,8 C 3,9 C 72 % 1008,9 hPa 0,0 l/m 9,7 km/h (2 Bft) S-SW 202 0 min 0,000 mm 0,0 UV-I 26 W/m 2,1 C 4,3 C 12,9 km/h (3 Bft) 95,65 %
01.01.2018 15:43 6,9 C 3,9 C 72 % 1009,0 hPa 0,0 l/m 8,0 km/h (2 Bft) SW 225 0 min 0,000 mm 0,0 UV-I 26 W/m 2,2 C 5,6 C 12,9 km/h (3 Bft) 95,65 %
01.01.2018 15:44 6,9 C 3,9 C 72 % 1008,9 hPa 0,0 l/m 12,9 km/h (3 Bft) SW 225 0 min 0,000 mm 0,0 UV-I 25 W/m 2,2 C 2,4 C 19,3 km/h (3 Bft) 95,65 %
01.01.2018 15:45 6,9 C 3,9 C 72 % 1008,9 hPa 0,0 l/m 8,0 km/h (2 Bft) SW 225 0 min 0,000 mm 0,0 UV-I 25 W/m 2,2 C 5,6 C 11,3 km/h (2 Bft) 95,65 %
01.01.2018 15:46 6,9 C 3,9 C 72 % 1008,8 hPa 0,0 l/m 11,3 km/h (2 Bft) S-SW 202 0 min 0,000 mm 0,0 UV-I 25 W/m 2,2 C 3,4 C 14,5 km/h (3 Bft) 91,30 %
01.01.2018 15:47 6,9 C 3,9 C 72 % 1008,8 hPa 0,0 l/m 8,0 km/h (2 Bft) SW 225 0 min 0,000 mm 0,0 UV-I 25 W/m 2,2 C 5,6 C 11,3 km/h (2 Bft) 95,65 %
01.01.2018 15:48 6,8 C 3,9 C 72 % 1008,9 hPa 0,0 l/m 9,7 km/h (2 Bft) S-SW 202 0 min 0,000 mm 0,0 UV-I 23 W/m 2,1 C 4,3 C 14,5 km/h (3 Bft) 100,00 %
01.01.2018 15:49 6,8 C 3,9 C 72 % 1008,9 hPa 0,0 l/m 8,0 km/h (2 Bft) S-SW 202 0 min 0,000 mm 0,0 UV-I 23 W/m 2,1 C 5,5 C 9,7 km/h (2 Bft) 95,65 %
01.01.2018 15:50 6,7 C 3,9 C 72 % 1008,8 hPa 0,0 l/m 6,4 km/h (2 Bft) S-SW 202 0 min 0,000 mm 0,0 UV-I 23 W/m 2,0 C 6,7 C 9,7 km/h (2 Bft) 100,00 %
01.01.2018 15:51 6,7 C 3,9 C 73 % 1008,9 hPa 0,0 l/m 8,0 km/h (2 Bft) W-SW 247 0 min 0,000 mm 0,0 UV-I 23 W/m 2,2 C 5,4 C 11,3 km/h (2 Bft) 95,65 %
01.01.2018 15:52 6,7 C 3,9 C 73 % 1008,9 hPa 0,0 l/m 9,7 km/h (2 Bft) W-SW 247 0 min 0,000 mm 0,0 UV-I 23 W/m 2,2 C 4,2 C 12,9 km/h (3 Bft) 95,65 %
01.01.2018 15:53 6,7 C 3,9 C 73 % 1008,9 hPa 0,0 l/m 8,0 km/h (2 Bft) SW 225 0 min 0,000 mm 0,0 UV-I 21 W/m 2,2 C 5,4 C 11,3 km/h (2 Bft) 95,65 %
01.01.2018 15:54 6,7 C 3,9 C 73 % 1008,9 hPa 0,0 l/m 4,8 km/h (1 Bft) W-SW 247 0 min 0,000 mm 0,0 UV-I 20 W/m 2,2 C 6,7 C 8,0 km/h (2 Bft) 95,65 %
01.01.2018 15:55 6,6 C 3,9 C 73 % 1008,9 hPa 0,0 l/m 6,4 km/h (2 Bft) W-SW 247 0 min 0,000 mm 0,0 UV-I 18 W/m 2,1 C 6,6 C 9,7 km/h (2 Bft) 100,00 %
01.01.2018 15:56 6,6 C 3,9 C 73 % 1008,9 hPa 0,0 l/m 6,4 km/h (2 Bft) W-SW 247 0 min 0,000 mm 0,0 UV-I 16 W/m 2,1 C 6,6 C 8,0 km/h (2 Bft) 100,00 %
01.01.2018 15:57 6,6 C 3,9 C 73 % 1009,0 hPa 0,0 l/m 6,4 km/h (2 Bft) W-SW 247 0 min 0,000 mm 0,0 UV-I 14 W/m 2,1 C 6,6 C 8,0 km/h (2 Bft) 100,00 %
01.01.2018 15:58 6,6 C 3,9 C 74 % 1009,0 hPa 0,0 l/m 8,0 km/h (2 Bft) SW 225 0 min 0,000 mm 0,0 UV-I 14 W/m 2,3 C 5,3 C 9,7 km/h (2 Bft) 100,00 %
01.01.2018 15:59 6,5 C 3,9 C 74 % 1008,9 hPa 0,0 l/m 6,4 km/h (2 Bft) SW 225 0 min 0,000 mm 0,0 UV-I 12 W/m 2,2 C 6,5 C 9,7 km/h (2 Bft) 100,00 %
01.01.2018 16:00 6,4 C 3,9 C 74 % 1008,9 hPa 0,0 l/m 6,4 km/h (2 Bft) SW 225 0 min 0,025 mm 0,0 UV-I 12 W/m 2,1 C 6,4 C 9,7 km/h (2 Bft) 91,30 %
01.01.2018 16:01 6,4 C 3,9 C 74 % 1009,0 hPa 0,0 l/m 6,4 km/h (2 Bft) SW 225 0 min 0,000 mm 0,0 UV-I 12 W/m 2,1 C 6,4 C 8,0 km/h (2 Bft) 95,65 %
01.01.2018 16:02 6,4 C 3,9 C 74 % 1008,9 hPa 0,0 l/m 8,0 km/h (2 Bft) SW 225 0 min 0,000 mm 0,0 UV-I 12 W/m 2,1 C 5,1 C 9,7 km/h (2 Bft) 100,00 %
01.01.2018 16:03 6,3 C 3,9 C 74 % 1009,0 hPa 0,0 l/m 6,4 km/h (2 Bft) W-SW 247 0 min 0,000 mm 0,0 UV-I 11 W/m 2,0 C 6,3 C 11,3 km/h (2 Bft) 100,00 %
01.01.2018 16:04 6,3 C 3,9 C 75 % 1008,9 hPa 0,0 l/m 8,0 km/h (2 Bft) SW 225 0 min 0,000 mm 0,0 UV-I 11 W/m 2,2 C 5,0 C 11,3 km/h (2 Bft) 100,00 %
01.01.2018 16:05 6,3 C 3,9 C 75 % 1008,9 hPa 0,0 l/m 6,4 km/h (2 Bft) W-SW 247 0 min 0,000 mm 0,0 UV-I 11 W/m 2,2 C 6,3 C 9,7 km/h (2 Bft) 100,00 %
01.01.2018 16:06 6,3 C 3,9 C 75 % 1008,9 hPa 0,0 l/m 6,4 km/h (2 Bft) SW 225 0 min 0,000 mm 0,0 UV-I 11 W/m 2,2 C 6,3 C 8,0 km/h (2 Bft) 100,00 %
01.01.2018 16:07 6,2 C 3,9 C 75 % 1009,0 hPa 0,0 l/m 6,4 km/h (2 Bft) W-SW 247 0 min 0,000 mm 0,0 UV-I 9 W/m 2,1 C 6,2 C 9,7 km/h (2 Bft) 91,30 %
01.01.2018 16:08 6,2 C 3,9 C 75 % 1008,9 hPa 0,0 l/m 6,4 km/h (2 Bft) SW 225 1 min 0,000 mm 0,0 UV-I 9 W/m 2,1 C 6,2 C 8,0 km/h (2 Bft) 100,00 %
01.01.2018 16:09 6,2 C 3,9 C 75 % 1008,9 hPa 0,0 l/m 6,4 km/h (2 Bft) SW 225 0 min 0,000 mm 0,0 UV-I 9 W/m 2,1 C 6,2 C 8,0 km/h (2 Bft) 100,00 %
01.01.2018 16:10 6,2 C 3,9 C 75 % 1008,8 hPa 0,0 l/m 4,8 km/h (1 Bft) W 270 0 min 0,000 mm 0,0 UV-I 9 W/m 2,1 C 6,2 C 6,4 km/h (2 Bft) 100,00 %
01.01.2018 16:11 6,2 C 3,9 C 75 % 1008,8 hPa 0,0 l/m 4,8 km/h (1 Bft) W-SW 247 0 min 0,000 mm 0,0 UV-I 9 W/m 2,1 C 6,2 C 8,0 km/h (2 Bft) 100,00 %
01.01.2018 16:12 6,1 C 3,9 C 75 % 1008,8 hPa 0,0 l/m 6,4 km/h (2 Bft) W-SW 247 0 min 0,000 mm 0,0 UV-I 7 W/m 2,0 C 6,1 C 8,0 km/h (2 Bft) 100,00 %
01.01.2018 16:13 6,1 C 3,9 C 75 % 1008,8 hPa 0,0 l/m 4,8 km/h (1 Bft) SW 225 0 min 0,000 mm 0,0 UV-I 7 W/m 2,0 C 6,1 C 6,4 km/h (2 Bft) 100,00 %
01.01.2018 16:14 6,1 C 3,9 C 75 % 1008,8 hPa 0,0 l/m 4,8 km/h (1 Bft) SW 225 0 min 0,000 mm 0,0 UV-I 7 W/m 2,0 C 6,1 C 8,0 km/h (2 Bft) 95,65 %
01.01.2018 16:15 6,1 C 3,9 C 75 % 1008,7 hPa 0,0 l/m 4,8 km/h (1 Bft) SW 225 0 min 0,000 mm 0,0 UV-I 7 W/m 2,0 C 6,1 C 6,4 km/h (2 Bft) 100,00 %
01.01.2018 16:16 6,1 C 3,9 C 76 % 1008,7 hPa 0,0 l/m 4,8 km/h (1 Bft) SW 225 0 min 0,000 mm 0,0 UV-I 7 W/m 2,2 C 6,1 C 6,4 km/h (2 Bft) 100,00 %
01.01.2018 16:17 6,0 C 3,9 C 76 % 1008,7 hPa 0,0 l/m 4,8 km/h (1 Bft) SW 225 0 min 0,000 mm 0,0 UV-I 7 W/m 2,1 C 6,0 C 6,4 km/h (2 Bft) 100,00 %
01.01.2018 16:18 6,0 C 3,9 C 76 % 1008,8 hPa 0,0 l/m 3,2 km/h (1 Bft) SW 225 0 min 0,000 mm 0,0 UV-I 7 W/m 2,1 C 6,0 C 4,8 km/h (1 Bft) 100,00 %
01.01.2018 16:19 6,0 C 3,9 C 76 % 1008,8 hPa 0,0 l/m 3,2 km/h (1 Bft) SW 225 0 min 0,000 mm 0,0 UV-I 7 W/m 2,1 C 6,0 C 4,8 km/h (1 Bft) 95,65 %
01.01.2018 16:20 5,9 C 3,9 C 76 % 1008,8 hPa 0,0 l/m 4,8 km/h (1 Bft) SW 225 0 min 0,000 mm 0,0 UV-I 7 W/m 2,0 C 5,9 C 6,4 km/h (2 Bft) 95,65 %
01.01.2018 16:21 5,9 C 3,9 C 76 % 1008,8 hPa 0,0 l/m 4,8 km/h (1 Bft) W-SW 247 0 min 0,000 mm 0,0 UV-I 7 W/m 2,0 C 5,9 C 4,8 km/h (1 Bft) 91,30 %
01.01.2018 16:22 5,8 C 3,9 C 76 % 1008,8 hPa 0,0 l/m 3,2 km/h (1 Bft) W-SW 247 0 min 0,000 mm 0,0 UV-I 7 W/m 1,9 C 5,8 C 4,8 km/h (1 Bft) 100,00 %
01.01.2018 16:23 5,8 C 3,9 C 77 % 1008,8 hPa 0,0 l/m 3,2 km/h (1 Bft) W-SW 247 0 min 0,000 mm 0,0 UV-I 7 W/m 2,1 C 5,8 C 4,8 km/h (1 Bft) 95,65 %
01.01.2018 16:24 5,8 C 3,9 C 77 % 1008,9 hPa 0,0 l/m 3,2 km/h (1 Bft) W-SW 247 0 min 0,000 mm 0,0 UV-I 7 W/m 2,1 C 5,8 C 3,2 km/h (1 Bft) 100,00 %
01.01.2018 16:25 5,8 C 3,9 C 77 % 1008,9 hPa 0,0 l/m 0,0 km/h (0 Bft) W-SW 247 0 min 0,000 mm 0,0 UV-I 5 W/m 2,1 C 5,8 C 1,6 km/h (1 Bft) 100,00 %
01.01.2018 16:26 5,8 C 3,9 C 77 % 1008,8 hPa 0,0 l/m 0,0 km/h (0 Bft) N 0 0 min 0,000 mm 0,0 UV-I 5 W/m 2,1 C 5,8 C 0,0 km/h (0 Bft) 95,65 %
01.01.2018 16:27 5,8 C 3,9 C 76 % 1008,8 hPa 0,0 l/m 0,0 km/h (0 Bft) W-SW 247 0 min 0,000 mm 0,0 UV-I 5 W/m 1,9 C 5,8 C 1,6 km/h (1 Bft) 100,00 %
01.01.2018 16:28 5,8 C 3,9 C 76 % 1008,8 hPa 0,0 l/m 0,0 km/h (0 Bft) W-SW 247 0 min 0,000 mm 0,0 UV-I 5 W/m 1,9 C 5,8 C 1,6 km/h (1 Bft) 95,65 %
01.01.2018 16:29 5,8 C 3,9 C 76 % 1008,8 hPa 0,0 l/m 1,6 km/h (1 Bft) W-SW 247 0 min 0,000 mm 0,0 UV-I 5 W/m 1,9 C 5,8 C 3,2 km/h (1 Bft) 100,00 %
01.01.2018 16:30 5,8 C 3,9 C 76 % 1008,8 hPa 0,0 l/m 1,6 km/h (1 Bft) W-SW 247 0 min 0,000 mm 0,0 UV-I 5 W/m 1,9 C 5,8 C 3,2 km/h (1 Bft) 100,00 %
01.01.2018 16:31 5,8 C 3,9 C 76 % 1008,7 hPa 0,0 l/m 1,6 km/h (1 Bft) W-SW 247 0 min 0,000 mm 0,0 UV-I 5 W/m 1,9 C 5,8 C 3,2 km/h (1 Bft) 100,00 %
01.01.2018 16:32 5,8 C 3,9 C 76 % 1008,7 hPa 0,0 l/m 1,6 km/h (1 Bft) W-SW 247 0 min 0,000 mm 0,0 UV-I 5 W/m 1,9 C 5,8 C 3,2 km/h (1 Bft) 95,65 %
01.01.2018 16:33 5,7 C 3,9 C 77 % 1008,7 hPa 0,0 l/m 1,6 km/h (1 Bft) W-SW 247 0 min 0,000 mm 0,0 UV-I 5 W/m 2,0 C 5,7 C 3,2 km/h (1 Bft) 100,00 %
01.01.2018 16:34 5,7 C 3,9 C 76 % 1008,6 hPa 0,0 l/m 3,2 km/h (1 Bft) W-SW 247 0 min 0,000 mm 0,0 UV-I 5 W/m 1,8 C 5,7 C 3,2 km/h (1 Bft) 100,00 %
01.01.2018 16:35 5,6 C 3,9 C 76 % 1008,6 hPa 0,0 l/m 3,2 km/h (1 Bft) W-SW 247 0 min 0,000 mm 0,0 UV-I 0 W/m 1,7 C 5,6 C 3,2 km/h (1 Bft) 95,65 %
01.01.2018 16:36 5,4 C 3,9 C 77 % 1008,6 hPa 0,0 l/m 3,2 km/h (1 Bft) W-SW 247 0 min 0,000 mm 0,0 UV-I 0 W/m 1,7 C 5,4 C 3,2 km/h (1 Bft) 95,65 %
01.01.2018 16:37 5,3 C 3,9 C 78 % 1008,6 hPa 0,0 l/m 1,6 km/h (1 Bft) W-SW 247 0 min 0,000 mm 0,0 UV-I 0 W/m 1,8 C 5,3 C 3,2 km/h (1 Bft) 95,65 %
01.01.2018 16:38 5,2 C 3,9 C 78 % 1008,5 hPa 0,0 l/m 3,2 km/h (1 Bft) W-SW 247 0 min 0,000 mm 0,0 UV-I 0 W/m 1,7 C 5,2 C 3,2 km/h (1 Bft) 100,00 %
01.01.2018 16:39 5,2 C 3,9 C 79 % 1008,5 hPa 0,0 l/m 1,6 km/h (1 Bft) W-SW 247 0 min 0,000 mm 0,0 UV-I 0 W/m 1,9 C 5,2 C 3,2 km/h (1 Bft) 95,65 %
01.01.2018 16:40 5,1 C 3,9 C 79 % 1008,5 hPa 0,0 l/m 3,2 km/h (1 Bft) W-SW 247 0 min 0,000 mm 0,0 UV-I 0 W/m 1,8 C 5,1 C 4,8 km/h (1 Bft) 100,00 %
01.01.2018 16:41 4,9 C 3,9 C 80 % 1008,4 hPa 0,0 l/m 1,6 km/h (1 Bft) W-SW 247 0 min 0,000 mm 0,0 UV-I 0 W/m 1,7 C 4,9 C 3,2 km/h (1 Bft) 91,30 %
01.01.2018 16:42 4,7 C 3,9 C 81 % 1008,3 hPa 0,0 l/m 1,6 km/h (1 Bft) W-SW 247 0 min 0,000 mm 0,0 UV-I 0 W/m 1,7 C 4,7 C 3,2 km/h (1 Bft) 91,30 %
01.01.2018 16:43 4,6 C 3,9 C 81 % 1008,3 hPa 0,0 l/m 1,6 km/h (1 Bft) W-SW 247 0 min 0,000 mm 0,0 UV-I 0 W/m 1,6 C 4,6 C 3,2 km/h (1 Bft) 95,65 %
01.01.2018 16:44 4,4 C 3,9 C 82 % 1008,4 hPa 0,0 l/m 1,6 km/h (1 Bft) W-SW 247 0 min 0,000 mm 0,0 UV-I 0 W/m 1,6 C 4,4 C 3,2 km/h (1 Bft) 91,30 %
01.01.2018 16:45 4,4 C 3,9 C 83 % 1008,4 hPa 0,0 l/m 1,6 km/h (1 Bft) W-SW 247 0 min 0,000 mm 0,0 UV-I 0 W/m 1,8 C 4,4 C 3,2 km/h (1 Bft) 100,00 %
01.01.2018 16:46 4,4 C 3,9 C 83 % 1008,5 hPa 0,0 l/m 1,6 km/h (1 Bft) W-SW 247 0 min 0,000 mm 0,0 UV-I 0 W/m 1,8 C 4,4 C 3,2 km/h (1 Bft) 95,65 %
01.01.2018 16:47 4,4 C 3,9 C 82 % 1008,4 hPa 0,0 l/m 0,0 km/h (0 Bft) W-SW 247 0 min 0,000 mm 0,0 UV-I 0 W/m 1,6 C 4,4 C 1,6 km/h (1 Bft) 100,00 %
01.01.2018 16:48 4,4 C 3,9 C 82 % 1008,4 hPa 0,0 l/m 0,0 km/h (0 Bft) W-SW 247 0 min 0,000 mm 0,0 UV-I 0 W/m 1,6 C 4,4 C 1,6 km/h (1 Bft) 95,65 %
01.01.2018 16:49 4,4 C 3,9 C 82 % 1008,4 hPa 0,0 l/m 1,6 km/h (1 Bft) W-SW 247 0 min 0,000 mm 0,0 UV-I 0 W/m 1,6 C 4,4 C 1,6 km/h (1 Bft) 95,65 %
01.01.2018 16:50 4,6 C 3,9 C 82 % 1008,4 hPa 0,0 l/m 1,6 km/h (1 Bft) W-SW 247 0 min 0,000 mm 0,0 UV-I 0 W/m 1,8 C 4,6 C 1,6 km/h (1 Bft) 95,65 %
01.01.2018 16:51 4,7 C 3,9 C 81 % 1008,4 hPa 0,0 l/m 1,6 km/h (1 Bft) W-SW 247 0 min 0,000 mm 0,0 UV-I 0 W/m 1,7 C 4,7 C 1,6 km/h (1 Bft) 95,65 %
01.01.2018 16:52 4,8 C 3,9 C 81 % 1008,4 hPa 0,0 l/m 1,6 km/h (1 Bft) W-SW 247 0 min 0,000 mm 0,0 UV-I 0 W/m 1,8 C 4,8 C 3,2 km/h (1 Bft) 100,00 %
01.01.2018 16:53 4,8 C 3,9 C 80 % 1008,4 hPa 0,0 l/m 1,6 km/h (1 Bft) W-SW 247 0 min 0,000 mm 0,0 UV-I 0 W/m 1,6 C 4,8 C 3,2 km/h (1 Bft) 95,65 %
01.01.2018 16:54 4,8 C 3,9 C 80 % 1008,4 hPa 0,0 l/m 1,6 km/h (1 Bft) W-SW 247 0 min 0,000 mm 0,0 UV-I 0 W/m 1,6 C 4,8 C 3,2 km/h (1 Bft) 100,00 %
01.01.2018 16:55 4,8 C 3,9 C 80 % 1008,4 hPa 0,0 l/m 1,6 km/h (1 Bft) W-SW 247 0 min 0,000 mm 0,0 UV-I 0 W/m 1,6 C 4,8 C 3,2 km/h (1 Bft) 86,96 %
01.01.2018 16:56 4,6 C 3,9 C 80 % 1008,4 hPa 0,0 l/m 0,0 km/h (0 Bft) W-SW 247 0 min 0,000 mm 0,0 UV-I 0 W/m 1,5 C 4,6 C 1,6 km/h (1 Bft) 86,96 %
01.01.2018 16:57 4,4 C 3,9 C 82 % 1008,4 hPa 0,0 l/m 1,6 km/h (1 Bft) W-SW 247 0 min 0,000 mm 0,0 UV-I 0 W/m 1,6 C 4,4 C 1,6 km/h (1 Bft) 86,96 %
01.01.2018 16:58 4,3 C 3,9 C 82 % 1008,3 hPa 0,0 l/m 1,6 km/h (1 Bft) W-SW 247 0 min 0,000 mm 0,0 UV-I 0 W/m 1,5 C 4,3 C 3,2 km/h (1 Bft) 95,65 %
01.01.2018 16:59 4,2 C 3,9 C 83 % 1008,3 hPa 0,0 l/m 1,6 km/h (1 Bft) W-SW 247 0 min 0,000 mm 0,0 UV-I 0 W/m 1,6 C 4,2 C 1,6 km/h (1 Bft) 95,65 %
01.01.2018 17:00 4,1 C 3,9 C 84 % 1008,3 hPa 0,0 l/m 1,6 km/h (1 Bft) W-SW 247 0 min 0,000 mm 0,0 UV-I 0 W/m 1,6 C 4,1 C 1,6 km/h (1 Bft) 91,30 %
01.01.2018 17:01 3,9 C 3,9 C 84 % 1008,3 hPa 0,0 l/m 0,0 km/h (0 Bft) W-SW 247 0 min 0,000 mm 0,0 UV-I 0 W/m 1,4 C 3,9 C 1,6 km/h (1 Bft) 95,65 %
01.01.2018 17:02 3,8 C 3,9 C 85 % 1008,3 hPa 0,0 l/m 1,6 km/h (1 Bft) W-SW 247 0 min 0,000 mm 0,0 UV-I 0 W/m 1,5 C 3,8 C 1,6 km/h (1 Bft) 95,65 %
01.01.2018 17:03 3,8 C 3,9 C 85 % 1008,2 hPa 0,0 l/m 1,6 km/h (1 Bft) W-SW 247 0 min 0,000 mm 0,0 UV-I 0 W/m 1,5 C 3,8 C 1,6 km/h (1 Bft) 91,30 %
01.01.2018 17:04 3,7 C 3,9 C 85 % 1008,2 hPa 0,0 l/m 1,6 km/h (1 Bft) W-SW 247 0 min 0,000 mm 0,0 UV-I 0 W/m 1,4 C 3,7 C 1,6 km/h (1 Bft) 95,65 %
01.01.2018 17:05 3,8 C 3,9 C 85 % 1008,2 hPa 0,0 l/m 1,6 km/h (1 Bft) W-SW 247 0 min 0,000 mm 0,0 UV-I 0 W/m 1,5 C 3,8 C 1,6 km/h (1 Bft) 91,30 %
01.01.2018 17:06 3,7 C 3,9 C 85 % 1008,2 hPa 0,0 l/m 0,0 km/h (0 Bft) W-SW 247 0 min 0,000 mm 0,0 UV-I 0 W/m 1,4 C 3,7 C 1,6 km/h (1 Bft) 91,30 %
01.01.2018 17:07 3,7 C 3,9 C 85 % 1008,2 hPa 0,0 l/m 0,0 km/h (0 Bft) W-SW 247 0 min 0,000 mm 0,0 UV-I 0 W/m 1,4 C 3,7 C 1,6 km/h (1 Bft) 95,65 %
01.01.2018 17:08 3,7 C 3,9 C 86 % 1008,2 hPa 0,0 l/m 1,6 km/h (1 Bft) W-SW 247 0 min 0,000 mm 0,0 UV-I 0 W/m 1,6 C 3,7 C 1,6 km/h (1 Bft) 95,65 %
01.01.2018 17:09 3,7 C 3,9 C 86 % 1008,2 hPa 0,0 l/m 1,6 km/h (1 Bft) W-SW 247 0 min 0,000 mm 0,0 UV-I 0 W/m 1,6 C 3,7 C 3,2 km/h (1 Bft) 95,65 %
01.01.2018 17:10 3,7 C 3,9 C 86 % 1008,2 hPa 0,0 l/m 1,6 km/h (1 Bft) W-SW 247 0 min 0,000 mm 0,0 UV-I 0 W/m 1,6 C 3,7 C 1,6 km/h (1 Bft) 91,30 %
01.01.2018 17:11 3,8 C 3,9 C 85 % 1008,2 hPa 0,0 l/m 1,6 km/h (1 Bft) W-SW 247 0 min 0,000 mm 0,0 UV-I 0 W/m 1,5 C 3,8 C 3,2 km/h (1 Bft) 95,65 %
01.01.2018 17:12 3,9 C 3,9 C 85 % 1008,1 hPa 0,0 l/m 1,6 km/h (1 Bft) W-SW 247 0 min 0,000 mm 0,0 UV-I 0 W/m 1,6 C 3,9 C 3,2 km/h (1 Bft) 95,65 %
01.01.2018 17:13 3,9 C 3,9 C 85 % 1008,1 hPa 0,0 l/m 0,0 km/h (0 Bft) W-SW 247 0 min 0,000 mm 0,0 UV-I 0 W/m 1,6 C 3,9 C 1,6 km/h (1 Bft) 91,30 %
01.01.2018 17:14 3,9 C 3,9 C 85 % 1008,1 hPa 0,0 l/m 0,0 km/h (0 Bft) W-SW 247 0 min 0,000 mm 0,0 UV-I 0 W/m 1,6 C 3,9 C 1,6 km/h (1 Bft) 86,96 %
01.01.2018 17:15 3,9 C 3,9 C 84 % 1008,1 hPa 0,0 l/m 1,6 km/h (1 Bft) W-SW 247 0 min 0,000 mm 0,0 UV-I 0 W/m 1,4 C 3,9 C 3,2 km/h (1 Bft) 95,65 %
01.01.2018 17:16 3,9 C 3,9 C 85 % 1008,1 hPa 0,0 l/m 1,6 km/h (1 Bft) W-SW 247 0 min 0,000 mm 0,0 UV-I 0 W/m 1,6 C 3,9 C 3,2 km/h (1 Bft) 91,30 %
01.01.2018 17:17 4,0 C 3,9 C 84 % 1008,1 hPa 0,0 l/m 1,6 km/h (1 Bft) W-SW 247 0 min 0,000 mm 0,0 UV-I 0 W/m 1,5 C 4,0 C 3,2 km/h (1 Bft) 95,65 %
01.01.2018 17:18 4,1 C 3,9 C 84 % 1008,1 hPa 0,0 l/m 1,6 km/h (1 Bft) W-SW 247 0 min 0,000 mm 0,0 UV-I 0 W/m 1,6 C 4,1 C 1,6 km/h (1 Bft) 91,30 %
01.01.2018 17:19 4,1 C 3,9 C 84 % 1008,1 hPa 0,0 l/m 0,0 km/h (0 Bft) W-SW 247 0 min 0,000 mm 0,0 UV-I 0 W/m 1,6 C 4,1 C 1,6 km/h (1 Bft) 100,00 %
01.01.2018 17:20 4,1 C 3,9 C 84 % 1008,0 hPa 0,0 l/m 0,0 km/h (0 Bft) N 0 0 min 0,000 mm 0,0 UV-I 0 W/m 1,6 C 4,1 C 0,0 km/h (0 Bft) 95,65 %
01.01.2018 17:21 3,9 C 3,9 C 84 % 1008,0 hPa 0,0 l/m 0,0 km/h (0 Bft) W-SW 247 0 min 0,000 mm 0,0 UV-I 0 W/m 1,4 C 3,9 C 1,6 km/h (1 Bft) 100,00 %
01.01.2018 17:22 3,9 C 3,9 C 84 % 1008,0 hPa 0,0 l/m 0,0 km/h (0 Bft) W-SW 247 0 min 0,000 mm 0,0 UV-I 0 W/m 1,4 C 3,9 C 1,6 km/h (1 Bft) 100,00 %
01.01.2018 17:23 3,7 C 3,9 C 84 % 1008,0 hPa 0,0 l/m 0,0 km/h (0 Bft) W-SW 247 0 min 0,000 mm 0,0 UV-I 0 W/m 1,3 C 3,7 C 1,6 km/h (1 Bft) 100,00 %
01.01.2018 17:24 3,6 C 3,9 C 85 % 1008,0 hPa 0,0 l/m 0,0 km/h (0 Bft) N 0 0 min 0,000 mm 0,0 UV-I 0 W/m 1,3 C 3,6 C 0,0 km/h (0 Bft) 95,65 %
01.01.2018 17:25 3,4 C 3,9 C 85 % 1008,0 hPa 0,0 l/m 0,0 km/h (0 Bft) N 0 0 min 0,000 mm 0,0 UV-I 0 W/m 1,1 C 3,4 C 0,0 km/h (0 Bft) 100,00 %
01.01.2018 17:26 3,4 C 3,9 C 87 % 1008,1 hPa 0,0 l/m 0,0 km/h (0 Bft) N 0 0 min 0,000 mm 0,0 UV-I 0 W/m 1,4 C 3,4 C 0,0 km/h (0 Bft) 95,65 %
01.01.2018 17:27 3,5 C 3,9 C 86 % 1008,1 hPa 0,0 l/m 0,0 km/h (0 Bft) N 0 0 min 0,000 mm 0,0 UV-I 0 W/m 1,4 C 3,5 C 0,0 km/h (0 Bft) 100,00 %
01.01.2018 17:28 3,7 C 3,9 C 86 % 1008,0 hPa 0,0 l/m 0,0 km/h (0 Bft) N 0 0 min 0,000 mm 0,0 UV-I 0 W/m 1,6 C 3,7 C 0,0 km/h (0 Bft) 100,00 %
01.01.2018 17:29 3,7 C 3,9 C 85 % 1008,0 hPa 0,0 l/m 0,0 km/h (0 Bft) N 0 0 min 0,000 mm 0,0 UV-I 0 W/m 1,4 C 3,7 C 0,0 km/h (0 Bft) 91,30 %
01.01.2018 17:30 3,8 C 3,9 C 85 % 1007,9 hPa 0,0 l/m 0,0 km/h (0 Bft) N 0 0 min 0,000 mm 0,0 UV-I 0 W/m 1,5 C 3,8 C 0,0 km/h (0 Bft) 100,00 %
01.01.2018 17:31 3,9 C 3,9 C 85 % 1007,9 hPa 0,0 l/m 0,0 km/h (0 Bft) N 0 0 min 0,000 mm 0,0 UV-I 0 W/m 1,6 C 3,9 C 0,0 km/h (0 Bft) 95,65 %
01.01.2018 17:32 4,0 C 3,9 C 84 % 1007,9 hPa 0,0 l/m 0,0 km/h (0 Bft) N 0 0 min 0,000 mm 0,0 UV-I 0 W/m 1,5 C 4,0 C 0,0 km/h (0 Bft) 100,00 %
01.01.2018 17:33 4,1 C 3,9 C 83 % 1007,9 hPa 0,0 l/m 0,0 km/h (0 Bft) N 0 0 min 0,000 mm 0,0 UV-I 0 W/m 1,5 C 4,1 C 0,0 km/h (0 Bft) 100,00 %
01.01.2018 17:34 4,2 C 3,9 C 83 % 1007,9 hPa 0,0 l/m 0,0 km/h (0 Bft) N 0 0 min 0,000 mm 0,0 UV-I 0 W/m 1,6 C 4,2 C 0,0 km/h (0 Bft) 100,00 %
01.01.2018 17:35 4,2 C 3,9 C 82 % 1007,9 hPa 0,0 l/m 0,0 km/h (0 Bft) N 0 0 min 0,000 mm 0,0 UV-I 0 W/m 1,4 C 4,2 C 0,0 km/h (0 Bft) 100,00 %
01.01.2018 17:36 4,2 C 3,9 C 82 % 1007,9 hPa 0,0 l/m 0,0 km/h (0 Bft) N 0 0 min 0,000 mm 0,0 UV-I 0 W/m 1,4 C 4,2 C 0,0 km/h (0 Bft) 95,65 %
01.01.2018 17:37 4,1 C 3,9 C 82 % 1007,8 hPa 0,0 l/m 0,0 km/h (0 Bft) W-SW 247 0 min 0,000 mm 0,0 UV-I 0 W/m 1,3 C 4,1 C 1,6 km/h (1 Bft) 100,00 %
01.01.2018 17:38 4,1 C 3,9 C 83 % 1007,8 hPa 0,0 l/m 1,6 km/h (1 Bft) W-SW 247 0 min 0,000 mm 0,0 UV-I 0 W/m 1,5 C 4,1 C 3,2 km/h (1 Bft) 95,65 %
01.01.2018 17:39 3,9 C 3,9 C 83 % 1007,9 hPa 0,0 l/m 0,0 km/h (0 Bft) W-SW 247 0 min 0,000 mm 0,0 UV-I 0 W/m 1,3 C 3,9 C 1,6 km/h (1 Bft) 100,00 %
01.01.2018 17:40 3,9 C 3,9 C 83 % 1007,9 hPa 0,0 l/m 0,0 km/h (0 Bft) N 0 0 min 0,000 mm 0,0 UV-I 0 W/m 1,3 C 3,9 C 0,0 km/h (0 Bft) 100,00 %
01.01.2018 17:41 3,9 C 3,9 C 83 % 1007,9 hPa 0,0 l/m 1,6 km/h (1 Bft) W-SW 247 0 min 0,000 mm 0,0 UV-I 0 W/m 1,3 C 3,9 C 1,6 km/h (1 Bft) 100,00 %
01.01.2018 17:42 3,9 C 3,9 C 83 % 1007,9 hPa 0,0 l/m 1,6 km/h (1 Bft) W-SW 247 0 min 0,000 mm 0,0 UV-I 0 W/m 1,3 C 3,9 C 1,6 km/h (1 Bft) 100,00 %
01.01.2018 17:43 3,9 C 3,9 C 83 % 1007,9 hPa 0,0 l/m 1,6 km/h (1 Bft) W-SW 247 0 min 0,000 mm 0,0 UV-I 0 W/m 1,3 C 3,9 C 1,6 km/h (1 Bft) 95,65 %
01.01.2018 17:44 3,9 C 3,9 C 83 % 1007,9 hPa 0,0 l/m 1,6 km/h (1 Bft) W-SW 247 0 min 0,000 mm 0,0 UV-I 0 W/m 1,3 C 3,9 C 3,2 km/h (1 Bft) 100,00 %
01.01.2018 17:45 3,9 C 3,9 C 83 % 1007,9 hPa 0,0 l/m 1,6 km/h (1 Bft) W-SW 247 0 min 0,000 mm 0,0 UV-I 0 W/m 1,3 C 3,9 C 3,2 km/h (1 Bft) 95,65 %
01.01.2018 17:46 4,0 C 3,9 C 83 % 1007,9 hPa 0,0 l/m 3,2 km/h (1 Bft) W-SW 247 0 min 0,000 mm 0,0 UV-I 0 W/m 1,4 C 4,0 C 3,2 km/h (1 Bft) 100,00 %
01.01.2018 17:47 4,0 C 3,9 C 83 % 1007,9 hPa 0,0 l/m 4,8 km/h (1 Bft) N-NO 22 0 min 0,000 mm 0,0 UV-I 0 W/m 1,4 C 4,0 C 4,8 km/h (1 Bft) 100,00 %
01.01.2018 17:48 4,2 C 3,9 C 83 % 1007,8 hPa 0,0 l/m 4,8 km/h (1 Bft) N-NO 22 0 min 0,000 mm 0,0 UV-I 0 W/m 1,6 C 4,2 C 6,4 km/h (2 Bft) 100,00 %
01.01.2018 17:49 4,2 C 3,9 C 82 % 1007,9 hPa 0,0 l/m 4,8 km/h (1 Bft) NO 45 0 min 0,000 mm 0,0 UV-I 0 W/m 1,4 C 4,2 C 6,4 km/h (2 Bft) 100,00 %
01.01.2018 17:50 4,3 C 3,9 C 82 % 1007,9 hPa 0,0 l/m 4,8 km/h (1 Bft) O-NO 67 0 min 0,000 mm 0,0 UV-I 0 W/m 1,5 C 4,3 C 6,4 km/h (2 Bft) 95,65 %
01.01.2018 17:51 4,2 C 3,9 C 81 % 1007,9 hPa 0,0 l/m 4,8 km/h (1 Bft) O-NO 67 0 min 0,000 mm 0,0 UV-I 0 W/m 1,2 C 4,2 C 6,4 km/h (2 Bft) 100,00 %
01.01.2018 17:52 3,9 C 3,9 C 81 % 1007,9 hPa 0,0 l/m 4,8 km/h (1 Bft) O-NO 67 0 min 0,000 mm 0,0 UV-I 0 W/m 0,9 C 3,9 C 6,4 km/h (2 Bft) 95,65 %
01.01.2018 17:53 3,6 C 3,9 C 83 % 1007,9 hPa 0,0 l/m 4,8 km/h (1 Bft) O-NO 67 0 min 0,000 mm 0,0 UV-I 0 W/m 1,0 C 3,6 C 6,4 km/h (2 Bft) 100,00 %
01.01.2018 17:54 3,3 C 3,9 C 84 % 1007,9 hPa 0,0 l/m 4,8 km/h (1 Bft) O-NO 67 0 min 0,000 mm 0,0 UV-I 0 W/m 0,9 C 3,3 C 6,4 km/h (2 Bft) 100,00 %
01.01.2018 17:55 3,2 C 3,9 C 86 % 1007,8 hPa 0,0 l/m 4,8 km/h (1 Bft) O-NO 67 0 min 0,000 mm 0,0 UV-I 0 W/m 1,1 C 3,2 C 6,4 km/h (2 Bft) 100,00 %
01.01.2018 17:56 3,4 C 3,9 C 86 % 1007,8 hPa 0,0 l/m 4,8 km/h (1 Bft) O-NO 67 0 min 0,000 mm 0,0 UV-I 0 W/m 1,3 C 3,4 C 6,4 km/h (2 Bft) 100,00 %
01.01.2018 17:57 3,8 C 3,9 C 85 % 1007,8 hPa 0,0 l/m 4,8 km/h (1 Bft) O-NO 67 0 min 0,000 mm 0,0 UV-I 0 W/m 1,5 C 3,8 C 6,4 km/h (2 Bft) 100,00 %
01.01.2018 17:58 4,1 C 3,9 C 84 % 1007,8 hPa 0,0 l/m 6,4 km/h (2 Bft) O-NO 67 0 min 0,000 mm 0,0 UV-I 0 W/m 1,6 C 4,1 C 8,0 km/h (2 Bft) 100,00 %
01.01.2018 17:59 4,2 C 3,9 C 82 % 1007,8 hPa 0,0 l/m 4,8 km/h (1 Bft) O-NO 67 0 min 0,000 mm 0,0 UV-I 0 W/m 1,4 C 4,2 C 8,0 km/h (2 Bft) 95,65 %
01.01.2018 18:00 4,1 C 3,9 C 82 % 1007,8 hPa 0,0 l/m 4,8 km/h (1 Bft) O-SO 112 0 min 0,000 mm 0,0 UV-I 0 W/m 1,3 C 4,1 C 6,4 km/h (2 Bft) 100,00 %
01.01.2018 18:01 3,9 C 3,9 C 83 % 1007,8 hPa 0,0 l/m 4,8 km/h (1 Bft) O-SO 112 0 min 0,000 mm 0,0 UV-I 0 W/m 1,3 C 3,9 C 6,4 km/h (2 Bft) 100,00 %
01.01.2018 18:02 3,8 C 3,9 C 83 % 1007,8 hPa 0,0 l/m 4,8 km/h (1 Bft) O-SO 112 0 min 0,000 mm 0,0 UV-I 0 W/m 1,2 C 3,8 C 6,4 km/h (2 Bft) 100,00 %
01.01.2018 18:03 3,6 C 3,9 C 84 % 1007,8 hPa 0,0 l/m 4,8 km/h (1 Bft) O-SO 112 0 min 0,000 mm 0,0 UV-I 0 W/m 1,2 C 3,6 C 4,8 km/h (1 Bft) 100,00 %
01.01.2018 18:04 3,4 C 3,9 C 84 % 1007,7 hPa 0,0 l/m 4,8 km/h (1 Bft) O-SO 112 0 min 0,000 mm 0,0 UV-I 0 W/m 1,0 C 3,4 C 6,4 km/h (2 Bft) 95,65 %
01.01.2018 18:05 3,2 C 3,9 C 85 % 1007,6 hPa 0,0 l/m 4,8 km/h (1 Bft) O-SO 112 0 min 0,000 mm 0,0 UV-I 0 W/m 0,9 C 3,2 C 4,8 km/h (1 Bft) 95,65 %
01.01.2018 18:06 3,1 C 3,9 C 85 % 1007,6 hPa 0,0 l/m 3,2 km/h (1 Bft) O-SO 112 0 min 0,000 mm 0,0 UV-I 0 W/m 0,8 C 3,1 C 4,8 km/h (1 Bft) 95,65 %
01.01.2018 18:07 3,1 C 3,9 C 87 % 1007,6 hPa 0,0 l/m 3,2 km/h (1 Bft) O-SO 112 0 min 0,000 mm 0,0 UV-I 0 W/m 1,2 C 3,1 C 3,2 km/h (1 Bft) 100,00 %
01.01.2018 18:08 3,2 C 3,9 C 87 % 1007,6 hPa 0,0 l/m 3,2 km/h (1 Bft) O-SO 112 0 min 0,000 mm 0,0 UV-I 0 W/m 1,2 C 3,2 C 3,2 km/h (1 Bft) 100,00 %
01.01.2018 18:09 3,3 C 3,9 C 86 % 1007,6 hPa 0,0 l/m 1,6 km/h (1 Bft) O-SO 112 0 min 0,000 mm 0,0 UV-I 0 W/m 1,2 C 3,3 C 3,2 km/h (1 Bft) 100,00 %
01.01.2018 18:10 3,3 C 3,9 C 86 % 1007,7 hPa 0,0 l/m 0,0 km/h (0 Bft) O-SO 112 0 min 0,000 mm 0,0 UV-I 0 W/m 1,2 C 3,3 C 1,6 km/h (1 Bft) 100,00 %
01.01.2018 18:11 3,3 C 3,9 C 85 % 1007,6 hPa 0,0 l/m 0,0 km/h (0 Bft) N 0 0 min 0,000 mm 0,0 UV-I 0 W/m 1,0 C 3,3 C 0,0 km/h (0 Bft) 100,00 %
01.01.2018 18:12 3,2 C 3,9 C 85 % 1007,7 hPa 0,0 l/m 0,0 km/h (0 Bft) N 0 0 min 0,000 mm 0,0 UV-I 0 W/m 0,9 C 3,2 C 0,0 km/h (0 Bft) 100,00 %
01.01.2018 18:13 3,2 C 3,9 C 86 % 1007,7 hPa 0,0 l/m 0,0 km/h (0 Bft) N 0 0 min 0,000 mm 0,0 UV-I 0 W/m 1,1 C 3,2 C 0,0 km/h (0 Bft) 95,65 %
01.01.2018 18:14 3,2 C 3,9 C 86 % 1007,7 hPa 0,0 l/m 0,0 km/h (0 Bft) N 0 0 min 0,000 mm 0,0 UV-I 0 W/m 1,1 C 3,2 C 0,0 km/h (0 Bft) 100,00 %
01.01.2018 18:15 3,1 C 3,9 C 86 % 1007,7 hPa 0,0 l/m 0,0 km/h (0 Bft) N 0 0 min 0,000 mm 0,0 UV-I 0 W/m 1,0 C 3,1 C 0,0 km/h (0 Bft) 100,00 %
01.01.2018 18:16 3,0 C 3,9 C 86 % 1007,6 hPa 0,0 l/m 0,0 km/h (0 Bft) N 0 0 min 0,000 mm 0,0 UV-I 0 W/m 0,9 C 3,0 C 0,0 km/h (0 Bft) 100,00 %
01.01.2018 18:17 2,9 C 3,9 C 86 % 1007,7 hPa 0,0 l/m 0,0 km/h (0 Bft) N 0 0 min 0,000 mm 0,0 UV-I 0 W/m 0,8 C 2,9 C 0,0 km/h (0 Bft) 100,00 %
01.01.2018 18:18 2,9 C 3,9 C 87 % 1007,7 hPa 0,0 l/m 0,0 km/h (0 Bft) N 0 0 min 0,000 mm 0,0 UV-I 0 W/m 1,0 C 2,9 C 0,0 km/h (0 Bft) 100,00 %
01.01.2018 18:19 2,9 C 3,9 C 87 % 1007,7 hPa 0,0 l/m 0,0 km/h (0 Bft) N 0 0 min 0,000 mm 0,0 UV-I 0 W/m 1,0 C 2,9 C 0,0 km/h (0 Bft) 100,00 %
01.01.2018 18:20 2,8 C 3,9 C 87 % 1007,7 hPa 0,0 l/m 0,0 km/h (0 Bft) N 0 0 min 0,000 mm 0,0 UV-I 0 W/m 0,9 C 2,8 C 0,0 km/h (0 Bft) 91,30 %
01.01.2018 18:21 2,7 C 3,9 C 87 % 1007,7 hPa 0,0 l/m 0,0 km/h (0 Bft) O-SO 112 0 min 0,000 mm 0,0 UV-I 0 W/m 0,8 C 2,7 C 1,6 km/h (1 Bft) 95,65 %
01.01.2018 18:22 2,5 C 3,9 C 87 % 1007,7 hPa 0,0 l/m 3,2 km/h (1 Bft) O-SO 112 0 min 0,000 mm 0,0 UV-I 0 W/m 0,6 C 2,5 C 3,2 km/h (1 Bft) 100,00 %
01.01.2018 18:23 2,4 C 3,9 C 87 % 1007,6 hPa 0,0 l/m 3,2 km/h (1 Bft) O-SO 112 0 min 0,000 mm 0,0 UV-I 0 W/m 0,5 C 2,4 C 4,8 km/h (1 Bft) 100,00 %
01.01.2018 18:24 2,3 C 3,9 C 88 % 1007,6 hPa 0,0 l/m 3,2 km/h (1 Bft) O-SO 112 0 min 0,000 mm 0,0 UV-I 0 W/m 0,5 C 2,3 C 4,8 km/h (1 Bft) 100,00 %
01.01.2018 18:25 2,3 C 3,9 C 89 % 1007,6 hPa 0,0 l/m 3,2 km/h (1 Bft) O-SO 112 0 min 0,000 mm 0,0 UV-I 0 W/m 0,7 C 2,3 C 4,8 km/h (1 Bft) 95,65 %
01.01.2018 18:26 2,3 C 3,9 C 89 % 1007,6 hPa 0,0 l/m 3,2 km/h (1 Bft) O-SO 112 0 min 0,000 mm 0,0 UV-I 0 W/m 0,7 C 2,3 C 4,8 km/h (1 Bft) 100,00 %
01.01.2018 18:27 2,3 C 3,9 C 89 % 1007,5 hPa 0,0 l/m 3,2 km/h (1 Bft) O-SO 112 0 min 0,000 mm 0,0 UV-I 0 W/m 0,7 C 2,3 C 4,8 km/h (1 Bft) 91,30 %
01.01.2018 18:28 2,3 C 3,9 C 89 % 1007,5 hPa 0,0 l/m 3,2 km/h (1 Bft) O-SO 112 0 min 0,000 mm 0,0 UV-I 0 W/m 0,7 C 2,3 C 3,2 km/h (1 Bft) 100,00 %
01.01.2018 18:29 2,3 C 3,9 C 89 % 1007,5 hPa 0,0 l/m 3,2 km/h (1 Bft) O-SO 112 0 min 0,000 mm 0,0 UV-I 0 W/m 0,7 C 2,3 C 3,2 km/h (1 Bft) 95,65 %
01.01.2018 18:30 2,3 C 3,9 C 89 % 1007,5 hPa 0,0 l/m 1,6 km/h (1 Bft) O-SO 112 0 min 0,000 mm 0,0 UV-I 0 W/m 0,7 C 2,3 C 3,2 km/h (1 Bft) 100,00 %
01.01.2018 18:31 2,3 C 3,9 C 89 % 1007,4 hPa 0,0 l/m 3,2 km/h (1 Bft) O-SO 112 0 min 0,000 mm 0,0 UV-I 0 W/m 0,7 C 2,3 C 4,8 km/h (1 Bft) 95,65 %
01.01.2018 18:32 2,4 C 3,9 C 89 % 1007,4 hPa 0,0 l/m 1,6 km/h (1 Bft) O-SO 112 0 min 0,000 mm 0,0 UV-I 0 W/m 0,8 C 2,4 C 3,2 km/h (1 Bft) 100,00 %
01.01.2018 18:33 2,6 C 3,9 C 89 % 1007,4 hPa 0,0 l/m 3,2 km/h (1 Bft) O-SO 112 0 min 0,000 mm 0,0 UV-I 0 W/m 1,0 C 2,6 C 3,2 km/h (1 Bft) 91,30 %
01.01.2018 18:34 2,8 C 3,9 C 89 % 1007,4 hPa 0,0 l/m 1,6 km/h (1 Bft) O-SO 112 0 min 0,000 mm 0,0 UV-I 0 W/m 1,2 C 2,8 C 3,2 km/h (1 Bft) 95,65 %
01.01.2018 18:35 2,8 C 3,9 C 89 % 1007,5 hPa 0,0 l/m 1,6 km/h (1 Bft) O-SO 112 0 min 0,000 mm 0,0 UV-I 0 W/m 1,2 C 2,8 C 3,2 km/h (1 Bft) 95,65 %
01.01.2018 18:36 2,8 C 3,9 C 88 % 1007,4 hPa 0,0 l/m 3,2 km/h (1 Bft) O-SO 112 0 min 0,000 mm 0,0 UV-I 0 W/m 1,0 C 2,8 C 3,2 km/h (1 Bft) 100,00 %
01.01.2018 18:37 2,7 C 3,9 C 88 % 1007,4 hPa 0,0 l/m 3,2 km/h (1 Bft) O-SO 112 0 min 0,000 mm 0,0 UV-I 0 W/m 0,9 C 2,7 C 3,2 km/h (1 Bft) 95,65 %
01.01.2018 18:38 2,8 C 3,9 C 88 % 1007,4 hPa 0,0 l/m 1,6 km/h (1 Bft) O-SO 112 0 min 0,000 mm 0,0 UV-I 0 W/m 1,0 C 2,8 C 3,2 km/h (1 Bft) 100,00 %
01.01.2018 18:39 2,8 C 3,9 C 88 % 1007,5 hPa 0,0 l/m 3,2 km/h (1 Bft) O-SO 112 0 min 0,000 mm 0,0 UV-I 0 W/m 1,0 C 2,8 C 4,8 km/h (1 Bft) 95,65 %
01.01.2018 18:40 2,7 C 3,9 C 88 % 1007,5 hPa 0,0 l/m 3,2 km/h (1 Bft) O-SO 112 0 min 0,000 mm 0,0 UV-I 0 W/m 0,9 C 2,7 C 4,8 km/h (1 Bft) 95,65 %
01.01.2018 18:41 2,7 C 3,9 C 88 % 1007,5 hPa 0,0 l/m 3,2 km/h (1 Bft) O-SO 112 0 min 0,000 mm 0,0 UV-I 0 W/m 0,9 C 2,7 C 4,8 km/h (1 Bft) 95,65 %
01.01.2018 18:42 2,6 C 3,9 C 88 % 1007,5 hPa 0,0 l/m 4,8 km/h (1 Bft) O-SO 112 0 min 0,000 mm 0,0 UV-I 0 W/m 0,8 C 2,6 C 4,8 km/h (1 Bft) 95,65 %
01.01.2018 18:43 2,6 C 3,9 C 88 % 1007,4 hPa 0,0 l/m 4,8 km/h (1 Bft) O-SO 112 0 min 0,000 mm 0,0 UV-I 0 W/m 0,8 C 2,6 C 4,8 km/h (1 Bft) 100,00 %
01.01.2018 18:44 2,6 C 3,9 C 88 % 1007,4 hPa 0,0 l/m 3,2 km/h (1 Bft) O-SO 112 0 min 0,000 mm 0,0 UV-I 0 W/m 0,8 C 2,6 C 4,8 km/h (1 Bft) 91,30 %
01.01.2018 18:45 2,6 C 3,9 C 88 % 1007,5 hPa 0,0 l/m 3,2 km/h (1 Bft) O-SO 112 0 min 0,000 mm 0,0 UV-I 0 W/m 0,8 C 2,6 C 4,8 km/h (1 Bft) 100,00 %
01.01.2018 18:46 2,7 C 3,9 C 88 % 1007,5 hPa 0,0 l/m 1,6 km/h (1 Bft) O-SO 112 0 min 0,000 mm 0,0 UV-I 0 W/m 0,9 C 2,7 C 3,2 km/h (1 Bft) 91,30 %
01.01.2018 18:47 2,7 C 3,9 C 88 % 1007,5 hPa 0,0 l/m 1,6 km/h (1 Bft) O-SO 112 0 min 0,000 mm 0,0 UV-I 0 W/m 0,9 C 2,7 C 3,2 km/h (1 Bft) 100,00 %
01.01.2018 18:48 2,7 C 3,9 C 87 % 1007,5 hPa 0,0 l/m 0,0 km/h (0 Bft) O-SO 112 0 min 0,000 mm 0,0 UV-I 0 W/m 0,8 C 2,7 C 1,6 km/h (1 Bft) 91,30 %
01.01.2018 18:49 2,8 C 3,9 C 87 % 1007,5 hPa 0,0 l/m 0,0 km/h (0 Bft) N 0 0 min 0,000 mm 0,0 UV-I 0 W/m 0,9 C 2,8 C 0,0 km/h (0 Bft) 100,00 %
01.01.2018 18:50 2,8 C 3,9 C 87 % 1007,5 hPa 0,0 l/m 0,0 km/h (0 Bft) O-SO 112 0 min 0,000 mm 0,0 UV-I 0 W/m 0,9 C 2,8 C 1,6 km/h (1 Bft) 95,65 %
01.01.2018 18:51 2,8 C 3,9 C 87 % 1007,4 hPa 0,0 l/m 0,0 km/h (0 Bft) N 0 0 min 0,000 mm 0,0 UV-I 0 W/m 0,9 C 2,8 C 0,0 km/h (0 Bft) 100,00 %
01.01.2018 18:52 2,9 C 3,9 C 87 % 1007,3 hPa 0,0 l/m 1,6 km/h (1 Bft) O-SO 112 0 min 0,000 mm 0,0 UV-I 0 W/m 1,0 C 2,9 C 3,2 km/h (1 Bft) 100,00 %
01.01.2018 18:53 2,8 C 3,9 C 87 % 1007,3 hPa 0,0 l/m 1,6 km/h (1 Bft) O-SO 112 0 min 0,000 mm 0,0 UV-I 0 W/m 0,9 C 2,8 C 3,2 km/h (1 Bft) 100,00 %
01.01.2018 18:54 2,8 C 3,9 C 87 % 1007,2 hPa 0,0 l/m 3,2 km/h (1 Bft) O-SO 112 0 min 0,000 mm 0,0 UV-I 0 W/m 0,9 C 2,8 C 3,2 km/h (1 Bft) 100,00 %
01.01.2018 18:55 2,8 C 3,9 C 87 % 1007,2 hPa 0,0 l/m 3,2 km/h (1 Bft) O-SO 112 0 min 0,000 mm 0,0 UV-I 0 W/m 0,9 C 2,8 C 6,4 km/h (2 Bft) 91,30 %
01.01.2018 18:56 2,7 C 3,9 C 87 % 1007,1 hPa 0,0 l/m 3,2 km/h (1 Bft) O-SO 112 0 min 0,000 mm 0,0 UV-I 0 W/m 0,8 C 2,7 C 4,8 km/h (1 Bft) 100,00 %
01.01.2018 18:57 2,7 C 3,9 C 87 % 1007,2 hPa 0,0 l/m 4,8 km/h (1 Bft) O-SO 112 0 min 0,000 mm 0,0 UV-I 0 W/m 0,8 C 2,7 C 8,0 km/h (2 Bft) 100,00 %
01.01.2018 18:58 2,7 C 3,9 C 87 % 1007,2 hPa 0,0 l/m 4,8 km/h (1 Bft) SO 135 0 min 0,000 mm 0,0 UV-I 0 W/m 0,8 C 2,7 C 8,0 km/h (2 Bft) 100,00 %
01.01.2018 18:59 2,6 C 3,9 C 87 % 1007,1 hPa 0,0 l/m 3,2 km/h (1 Bft) SO 135 0 min 0,000 mm 0,0 UV-I 0 W/m 0,7 C 2,6 C 4,8 km/h (1 Bft) 95,65 %
01.01.2018 19:00 2,6 C 3,9 C 87 % 1007,1 hPa 0,0 l/m 4,8 km/h (1 Bft) SO 135 0 min 0,000 mm 0,0 UV-I 0 W/m 0,7 C 2,6 C 6,4 km/h (2 Bft) 95,65 %
01.01.2018 19:01 2,4 C 3,9 C 87 % 1007,1 hPa 0,0 l/m 8,0 km/h (2 Bft) O-NO 67 0 min 0,000 mm 0,0 UV-I 0 W/m 0,5 C 0,9 C 12,9 km/h (3 Bft) 100,00 %
01.01.2018 19:02 2,6 C 3,9 C 88 % 1007,1 hPa 0,0 l/m 9,7 km/h (2 Bft) O 90 0 min 0,000 mm 0,0 UV-I 0 W/m 0,8 C -0,3 C 14,5 km/h (3 Bft) 91,30 %
01.01.2018 19:03 2,9 C 3,9 C 88 % 1007,1 hPa 0,0 l/m 9,7 km/h (2 Bft) O 90 0 min 0,000 mm 0,0 UV-I 0 W/m 1,1 C -0,0 C 14,5 km/h (3 Bft) 100,00 %
01.01.2018 19:04 3,2 C 3,9 C 88 % 1007,0 hPa 0,0 l/m 8,0 km/h (2 Bft) O 90 0 min 0,000 mm 0,0 UV-I 0 W/m 1,4 C 1,7 C 12,9 km/h (3 Bft) 95,65 %
01.01.2018 19:05 3,4 C 3,9 C 85 % 1007,0 hPa 0,0 l/m 11,3 km/h (2 Bft) O-SO 112 0 min 0,000 mm 0,0 UV-I 0 W/m 1,1 C -0,6 C 14,5 km/h (3 Bft) 100,00 %
01.01.2018 19:06 3,6 C 3,9 C 85 % 1007,1 hPa 0,0 l/m 6,4 km/h (2 Bft) O-SO 112 0 min 0,000 mm 0,0 UV-I 0 W/m 1,3 C 3,6 C 12,9 km/h (3 Bft) 95,65 %
01.01.2018 19:07 3,6 C 3,9 C 84 % 1007,1 hPa 0,0 l/m 4,8 km/h (1 Bft) O-SO 112 0 min 0,000 mm 0,0 UV-I 0 W/m 1,2 C 3,6 C 11,3 km/h (2 Bft) 100,00 %
01.01.2018 19:08 3,5 C 3,9 C 84 % 1007,1 hPa 0,0 l/m 3,2 km/h (1 Bft) O-SO 112 0 min 0,000 mm 0,0 UV-I 0 W/m 1,1 C 3,5 C 4,8 km/h (1 Bft) 100,00 %
01.01.2018 19:09 3,4 C 3,9 C 84 % 1007,1 hPa 0,0 l/m 1,6 km/h (1 Bft) O-SO 112 0 min 0,000 mm 0,0 UV-I 0 W/m 1,0 C 3,4 C 4,8 km/h (1 Bft) 91,30 %
01.01.2018 19:10 3,3 C 3,9 C 84 % 1007,1 hPa 0,0 l/m 1,6 km/h (1 Bft) O-SO 112 0 min 0,000 mm 0,0 UV-I 0 W/m 0,9 C 3,3 C 4,8 km/h (1 Bft) 100,00 %
01.01.2018 19:11 3,2 C 3,9 C 85 % 1007,1 hPa 0,0 l/m 3,2 km/h (1 Bft) O-SO 112 0 min 0,000 mm 0,0 UV-I 0 W/m 0,9 C 3,2 C 3,2 km/h (1 Bft) 95,65 %
01.01.2018 19:12 3,1 C 3,9 C 85 % 1007,1 hPa 0,0 l/m 1,6 km/h (1 Bft) O-SO 112 0 min 0,000 mm 0,0 UV-I 0 W/m 0,8 C 3,1 C 3,2 km/h (1 Bft) 100,00 %
01.01.2018 19:13 3,0 C 3,9 C 85 % 1007,1 hPa 0,0 l/m 0,0 km/h (0 Bft) N 0 0 min 0,000 mm 0,0 UV-I 0 W/m 0,7 C 3,0 C 0,0 km/h (0 Bft) 95,65 %
01.01.2018 19:14 2,9 C 3,9 C 86 % 1007,1 hPa 0,0 l/m 0,0 km/h (0 Bft) O-SO 112 0 min 0,000 mm 0,0 UV-I 0 W/m 0,8 C 2,9 C 1,6 km/h (1 Bft) 100,00 %
01.01.2018 19:15 2,7 C 3,9 C 85 % 1007,1 hPa 0,0 l/m 0,0 km/h (0 Bft) O-SO 112 0 min 0,000 mm 0,0 UV-I 0 W/m 0,4 C 2,7 C 1,6 km/h (1 Bft) 91,30 %
01.01.2018 19:16 2,6 C 3,9 C 86 % 1007,2 hPa 0,0 l/m 1,6 km/h (1 Bft) O-SO 112 0 min 0,000 mm 0,0 UV-I 0 W/m 0,5 C 2,6 C 1,6 km/h (1 Bft) 91,30 %
01.01.2018 19:17 2,3 C 3,9 C 87 % 1007,2 hPa 0,0 l/m 0,0 km/h (0 Bft) O-SO 112 0 min 0,000 mm 0,0 UV-I 0 W/m 0,4 C 2,3 C 1,6 km/h (1 Bft) 95,65 %
01.01.2018 19:18 2,2 C 3,9 C 87 % 1007,2 hPa 0,0 l/m 1,6 km/h (1 Bft) O-SO 112 0 min 0,000 mm 0,0 UV-I 0 W/m 0,3 C 2,2 C 3,2 km/h (1 Bft) 95,65 %
01.01.2018 19:19 2,2 C 3,9 C 88 % 1007,2 hPa 0,0 l/m 0,0 km/h (0 Bft) O-SO 112 0 min 0,000 mm 0,0 UV-I 0 W/m 0,4 C 2,2 C 1,6 km/h (1 Bft) 100,00 %
01.01.2018 19:20 2,1 C 3,9 C 88 % 1007,2 hPa 0,0 l/m 0,0 km/h (0 Bft) O-SO 112 0 min 0,000 mm 0,0 UV-I 0 W/m 0,3 C 2,1 C 1,6 km/h (1 Bft) 95,65 %
01.01.2018 19:21 2,1 C 3,9 C 89 % 1007,1 hPa 0,0 l/m 0,0 km/h (0 Bft) O-SO 112 0 min 0,000 mm 0,0 UV-I 0 W/m 0,5 C 2,1 C 1,6 km/h (1 Bft) 100,00 %
01.01.2018 19:22 2,0 C 3,9 C 88 % 1007,2 hPa 0,0 l/m 0,0 km/h (0 Bft) O-SO 112 0 min 0,000 mm 0,0 UV-I 0 W/m 0,2 C 2,0 C 1,6 km/h (1 Bft) 95,65 %
01.01.2018 19:23 2,0 C 3,9 C 89 % 1007,2 hPa 0,0 l/m 0,0 km/h (0 Bft) N 0 0 min 0,000 mm 0,0 UV-I 0 W/m 0,4 C 2,0 C 0,0 km/h (0 Bft) 95,65 %
01.01.2018 19:24 2,0 C 3,9 C 89 % 1007,2 hPa 0,0 l/m 0,0 km/h (0 Bft) O-SO 112 0 min 0,000 mm 0,0 UV-I 0 W/m 0,4 C 2,0 C 3,2 km/h (1 Bft) 95,65 %
01.01.2018 19:25 2,1 C 3,9 C 90 % 1007,2 hPa 0,0 l/m 3,2 km/h (1 Bft) O-SO 112 0 min 0,000 mm 0,0 UV-I 0 W/m 0,6 C 2,1 C 4,8 km/h (1 Bft) 100,00 %
01.01.2018 19:26 2,3 C 3,9 C 89 % 1007,2 hPa 0,0 l/m 3,2 km/h (1 Bft) O-NO 67 0 min 0,000 mm 0,0 UV-I 0 W/m 0,7 C 2,3 C 6,4 km/h (2 Bft) 95,65 %
01.01.2018 19:27 2,4 C 3,9 C 89 % 1007,2 hPa 0,0 l/m 1,6 km/h (1 Bft) O-NO 67 0 min 0,000 mm 0,0 UV-I 0 W/m 0,8 C 2,4 C 4,8 km/h (1 Bft) 91,30 %
01.01.2018 19:28 2,4 C 3,9 C 88 % 1007,2 hPa 0,0 l/m 3,2 km/h (1 Bft) O-SO 112 0 min 0,000 mm 0,0 UV-I 0 W/m 0,6 C 2,4 C 4,8 km/h (1 Bft) 100,00 %
01.01.2018 19:29 2,5 C 3,9 C 88 % 1007,2 hPa 0,0 l/m 3,2 km/h (1 Bft) O-SO 112 0 min 0,000 mm 0,0 UV-I 0 W/m 0,7 C 2,5 C 4,8 km/h (1 Bft) 95,65 %
01.01.2018 19:30 2,5 C 3,9 C 88 % 1007,2 hPa 0,0 l/m 3,2 km/h (1 Bft) O-SO 112 0 min 0,000 mm 0,0 UV-I 0 W/m 0,7 C 2,5 C 6,4 km/h (2 Bft) 95,65 %
01.01.2018 19:31 2,4 C 3,9 C 87 % 1007,2 hPa 0,0 l/m 3,2 km/h (1 Bft) O-SO 112 0 min 0,000 mm 0,0 UV-I 0 W/m 0,5 C 2,4 C 4,8 km/h (1 Bft) 91,30 %
01.01.2018 19:32 2,3 C 3,9 C 87 % 1007,1 hPa 0,0 l/m 4,8 km/h (1 Bft) O-SO 112 0 min 0,000 mm 0,0 UV-I 0 W/m 0,4 C 2,3 C 4,8 km/h (1 Bft) 100,00 %
01.01.2018 19:33 2,3 C 3,9 C 87 % 1007,1 hPa 0,0 l/m 4,8 km/h (1 Bft) O-SO 112 0 min 0,000 mm 0,0 UV-I 0 W/m 0,4 C 2,3 C 6,4 km/h (2 Bft) 95,65 %
01.01.2018 19:34 2,2 C 3,9 C 88 % 1007,1 hPa 0,0 l/m 3,2 km/h (1 Bft) O-SO 112 0 min 0,000 mm 0,0 UV-I 0 W/m 0,4 C 2,2 C 6,4 km/h (2 Bft) 95,65 %
01.01.2018 19:35 2,3 C 3,9 C 88 % 1007,1 hPa 0,0 l/m 3,2 km/h (1 Bft) O-SO 112 0 min 0,000 mm 0,0 UV-I 0 W/m 0,5 C 2,3 C 4,8 km/h (1 Bft) 100,00 %
01.01.2018 19:36 2,3 C 3,9 C 88 % 1007,1 hPa 0,0 l/m 4,8 km/h (1 Bft) O-SO 112 0 min 0,000 mm 0,0 UV-I 0 W/m 0,5 C 2,3 C 8,0 km/h (2 Bft) 95,65 %
01.01.2018 19:37 2,3 C 3,9 C 88 % 1007,0 hPa 0,0 l/m 6,4 km/h (2 Bft) O-SO 112 0 min 0,000 mm 0,0 UV-I 0 W/m 0,5 C 2,3 C 9,7 km/h (2 Bft) 100,00 %
01.01.2018 19:38 2,3 C 3,9 C 88 % 1007,0 hPa 0,0 l/m 6,4 km/h (2 Bft) SO 135 0 min 0,000 mm 0,0 UV-I 0 W/m 0,5 C 2,3 C 12,9 km/h (3 Bft) 86,96 %
01.01.2018 19:39 2,3 C 3,9 C 88 % 1007,0 hPa 0,0 l/m 6,4 km/h (2 Bft) O-SO 112 0 min 0,000 mm 0,0 UV-I 0 W/m 0,5 C 2,3 C 11,3 km/h (2 Bft) 100,00 %
01.01.2018 19:40 2,3 C 3,9 C 88 % 1007,0 hPa 0,0 l/m 8,0 km/h (2 Bft) O-SO 112 0 min 0,000 mm 0,0 UV-I 0 W/m 0,5 C 0,8 C 11,3 km/h (2 Bft) 95,65 %
01.01.2018 19:41 2,4 C 3,9 C 88 % 1007,0 hPa 0,0 l/m 6,4 km/h (2 Bft) O-SO 112 0 min 0,000 mm 0,0 UV-I 0 W/m 0,6 C 2,4 C 11,3 km/h (2 Bft) 95,65 %
01.01.2018 19:42 2,6 C 3,9 C 88 % 1007,0 hPa 0,0 l/m 6,4 km/h (2 Bft) O-SO 112 0 min 0,000 mm 0,0 UV-I 0 W/m 0,8 C 2,6 C 9,7 km/h (2 Bft) 95,65 %
01.01.2018 19:43 2,7 C 3,9 C 87 % 1007,0 hPa 0,0 l/m 6,4 km/h (2 Bft) O-SO 112 0 min 0,000 mm 0,0 UV-I 0 W/m 0,8 C 2,7 C 11,3 km/h (2 Bft) 100,00 %
01.01.2018 19:44 2,7 C 3,9 C 87 % 1007,0 hPa 0,0 l/m 6,4 km/h (2 Bft) O-SO 112 0 min 0,000 mm 0,0 UV-I 0 W/m 0,8 C 2,7 C 9,7 km/h (2 Bft) 100,00 %
01.01.2018 19:45 2,7 C 3,9 C 87 % 1007,0 hPa 0,0 l/m 8,0 km/h (2 Bft) O-SO 112 0 min 0,000 mm 0,0 UV-I 0 W/m 0,8 C 1,2 C 11,3 km/h (2 Bft) 95,65 %
01.01.2018 19:46 2,7 C 3,9 C 86 % 1006,9 hPa 0,0 l/m 8,0 km/h (2 Bft) O-SO 112 0 min 0,000 mm 0,0 UV-I 0 W/m 0,6 C 1,2 C 11,3 km/h (2 Bft) 95,65 %
01.01.2018 19:47 2,7 C 3,9 C 86 % 1006,9 hPa 0,0 l/m 8,0 km/h (2 Bft) O-SO 112 0 min 0,000 mm 0,0 UV-I 0 W/m 0,6 C 1,2 C 9,7 km/h (2 Bft) 100,00 %
01.01.2018 19:48 2,7 C 3,9 C 86 % 1006,9 hPa 0,0 l/m 8,0 km/h (2 Bft) O-SO 112 0 min 0,000 mm 0,0 UV-I 0 W/m 0,6 C 1,2 C 11,3 km/h (2 Bft) 100,00 %
01.01.2018 19:49 2,7 C 3,9 C 86 % 1006,9 hPa 0,0 l/m 9,7 km/h (2 Bft) O-SO 112 0 min 0,000 mm 0,0 UV-I 0 W/m 0,6 C -0,2 C 14,5 km/h (3 Bft) 100,00 %
01.01.2018 19:50 2,7 C 3,9 C 86 % 1006,8 hPa 0,0 l/m 11,3 km/h (2 Bft) O-SO 112 0 min 0,000 mm 0,0 UV-I 0 W/m 0,6 C -1,4 C 16,1 km/h (3 Bft) 100,00 %
01.01.2018 19:51 2,8 C 3,9 C 87 % 1006,8 hPa 0,0 l/m 9,7 km/h (2 Bft) O-SO 112 0 min 0,000 mm 0,0 UV-I 0 W/m 0,9 C -0,1 C 12,9 km/h (3 Bft) 100,00 %
01.01.2018 19:52 2,9 C 3,9 C 86 % 1006,8 hPa 0,0 l/m 9,7 km/h (2 Bft) O-SO 112 0 min 0,000 mm 0,0 UV-I 0 W/m 0,8 C -0,0 C 12,9 km/h (3 Bft) 95,65 %
01.01.2018 19:53 3,0 C 3,9 C 86 % 1006,8 hPa 0,0 l/m 8,0 km/h (2 Bft) O-SO 112 0 min 0,000 mm 0,0 UV-I 0 W/m 0,9 C 1,5 C 11,3 km/h (2 Bft) 30,43 %
01.01.2018 19:54 3,2 C 3,9 C 85 % 1006,7 hPa 0,0 l/m 9,7 km/h (2 Bft) O-SO 112 0 min 0,000 mm 0,0 UV-I 0 W/m 0,9 C 0,3 C 11,3 km/h (2 Bft) 43,48 %
01.01.2018 19:55 3,2 C 3,9 C 85 % 1006,7 hPa 0,0 l/m 8,0 km/h (2 Bft) SO 135 0 min 0,000 mm 0,0 UV-I 0 W/m 0,9 C 1,7 C 11,3 km/h (2 Bft) 91,30 %
01.01.2018 19:56 3,2 C 3,9 C 85 % 1006,7 hPa 0,0 l/m 4,8 km/h (1 Bft) O-SO 112 0 min 0,000 mm 0,0 UV-I 0 W/m 0,9 C 3,2 C 8,0 km/h (2 Bft) 100,00 %
01.01.2018 19:57 3,1 C 3,9 C 85 % 1006,7 hPa 0,0 l/m 6,4 km/h (2 Bft) O-SO 112 0 min 0,000 mm 0,0 UV-I 0 W/m 0,8 C 3,1 C 11,3 km/h (2 Bft) 95,65 %
01.01.2018 19:58 3,2 C 3,9 C 85 % 1006,7 hPa 0,0 l/m 6,4 km/h (2 Bft) O-SO 112 0 min 0,000 mm 0,0 UV-I 0 W/m 0,9 C 3,2 C 9,7 km/h (2 Bft) 95,65 %
01.01.2018 19:59 3,1 C 3,9 C 85 % 1006,6 hPa 0,0 l/m 8,0 km/h (2 Bft) O-SO 112 0 min 0,000 mm 0,0 UV-I 0 W/m 0,8 C 1,6 C 11,3 km/h (2 Bft) 91,30 %
01.01.2018 20:00 3,1 C 3,9 C 85 % 1006,6 hPa 0,0 l/m 4,8 km/h (1 Bft) SO 135 0 min 0,000 mm 0,0 UV-I 0 W/m 0,8 C 3,1 C 8,0 km/h (2 Bft) 95,65 %
01.01.2018 20:01 3,1 C 3,9 C 85 % 1006,6 hPa 0,0 l/m 4,8 km/h (1 Bft) SO 135 0 min 0,000 mm 0,0 UV-I 0 W/m 0,8 C 3,1 C 8,0 km/h (2 Bft) 91,30 %
01.01.2018 20:02 3,1 C 3,9 C 85 % 1006,6 hPa 0,0 l/m 4,8 km/h (1 Bft) SO 135 0 min 0,000 mm 0,0 UV-I 0 W/m 0,8 C 3,1 C 6,4 km/h (2 Bft) 100,00 %
01.01.2018 20:03 3,0 C 3,9 C 85 % 1006,6 hPa 0,0 l/m 6,4 km/h (2 Bft) SO 135 0 min 0,000 mm 0,0 UV-I 0 W/m 0,7 C 3,0 C 8,0 km/h (2 Bft) 91,30 %
01.01.2018 20:04 3,0 C 3,9 C 85 % 1006,6 hPa 0,0 l/m 8,0 km/h (2 Bft) O-SO 112 0 min 0,000 mm 0,0 UV-I 0 W/m 0,7 C 1,5 C 12,9 km/h (3 Bft) 100,00 %
01.01.2018 20:05 3,0 C 3,9 C 85 % 1006,5 hPa 0,0 l/m 8,0 km/h (2 Bft) O-SO 112 0 min 0,000 mm 0,0 UV-I 0 W/m 0,7 C 1,5 C 12,9 km/h (3 Bft) 95,65 %
01.01.2018 20:06 3,1 C 3,9 C 85 % 1006,5 hPa 0,0 l/m 9,7 km/h (2 Bft) O-SO 112 0 min 0,000 mm 0,0 UV-I 0 W/m 0,8 C 0,2 C 11,3 km/h (2 Bft) 95,65 %
01.01.2018 20:07 3,1 C 3,9 C 85 % 1006,5 hPa 0,0 l/m 9,7 km/h (2 Bft) O-SO 112 0 min 0,000 mm 0,0 UV-I 0 W/m 0,8 C 0,2 C 11,3 km/h (2 Bft) 95,65 %
01.01.2018 20:08 3,1 C 3,9 C 85 % 1006,5 hPa 0,0 l/m 11,3 km/h (2 Bft) O-SO 112 0 min 0,000 mm 0,0 UV-I 0 W/m 0,8 C -1,0 C 16,1 km/h (3 Bft) 100,00 %
01.01.2018 20:09 3,1 C 3,9 C 85 % 1006,5 hPa 0,0 l/m 8,0 km/h (2 Bft) O-SO 112 0 min 0,000 mm 0,0 UV-I 0 W/m 0,8 C 1,6 C 12,9 km/h (3 Bft) 95,65 %
01.01.2018 20:10 3,2 C 3,9 C 84 % 1006,5 hPa 0,0 l/m 8,0 km/h (2 Bft) O-SO 112 0 min 0,000 mm 0,0 UV-I 0 W/m 0,8 C 1,7 C 12,9 km/h (3 Bft) 100,00 %
01.01.2018 20:11 3,2 C 3,9 C 84 % 1006,5 hPa 0,0 l/m 8,0 km/h (2 Bft) O-SO 112 0 min 0,000 mm 0,0 UV-I 0 W/m 0,8 C 1,7 C 11,3 km/h (2 Bft) 95,65 %
01.01.2018 20:12 3,2 C 3,9 C 84 % 1006,5 hPa 0,0 l/m 8,0 km/h (2 Bft) O-SO 112 0 min 0,000 mm 0,0 UV-I 0 W/m 0,8 C 1,7 C 11,3 km/h (2 Bft) 95,65 %
01.01.2018 20:13 3,2 C 3,9 C 84 % 1006,5 hPa 0,0 l/m 6,4 km/h (2 Bft) SO 135 0 min 0,000 mm 0,0 UV-I 0 W/m 0,8 C 3,2 C 12,9 km/h (3 Bft) 91,30 %
01.01.2018 20:14 3,1 C 3,9 C 84 % 1006,4 hPa 0,0 l/m 6,4 km/h (2 Bft) O-SO 112 0 min 0,000 mm 0,0 UV-I 0 W/m 0,7 C 3,1 C 11,3 km/h (2 Bft) 100,00 %
01.01.2018 20:15 3,1 C 3,9 C 84 % 1006,4 hPa 0,0 l/m 6,4 km/h (2 Bft) SO 135 0 min 0,000 mm 0,0 UV-I 0 W/m 0,7 C 3,1 C 8,0 km/h (2 Bft) 95,65 %
01.01.2018 20:16 3,0 C 3,9 C 84 % 1006,4 hPa 0,0 l/m 6,4 km/h (2 Bft) O-SO 112 0 min 0,000 mm 0,0 UV-I 0 W/m 0,6 C 3,0 C 11,3 km/h (2 Bft) 95,65 %
01.01.2018 20:17 2,9 C 3,9 C 84 % 1006,4 hPa 0,0 l/m 4,8 km/h (1 Bft) SO 135 0 min 0,000 mm 0,0 UV-I 0 W/m 0,5 C 2,9 C 8,0 km/h (2 Bft) 100,00 %
01.01.2018 20:18 2,9 C 3,9 C 85 % 1006,4 hPa 0,0 l/m 3,2 km/h (1 Bft) SO 135 0 min 0,000 mm 0,0 UV-I 0 W/m 0,6 C 2,9 C 6,4 km/h (2 Bft) 95,65 %
01.01.2018 20:19 2,8 C 3,9 C 85 % 1006,4 hPa 0,0 l/m 4,8 km/h (1 Bft) SO 135 0 min 0,000 mm 0,0 UV-I 0 W/m 0,5 C 2,8 C 8,0 km/h (2 Bft) 100,00 %
01.01.2018 20:20 2,8 C 3,9 C 85 % 1006,4 hPa 0,0 l/m 4,8 km/h (1 Bft) SO 135 0 min 0,000 mm 0,0 UV-I 0 W/m 0,5 C 2,8 C 6,4 km/h (2 Bft) 91,30 %
01.01.2018 20:21 2,7 C 3,9 C 85 % 1006,3 hPa 0,0 l/m 4,8 km/h (1 Bft) SO 135 0 min 0,000 mm 0,0 UV-I 0 W/m 0,4 C 2,7 C 9,7 km/h (2 Bft) 100,00 %
01.01.2018 20:22 2,6 C 3,9 C 86 % 1006,3 hPa 0,0 l/m 4,8 km/h (1 Bft) O-SO 112 0 min 0,000 mm 0,0 UV-I 0 W/m 0,5 C 2,6 C 9,7 km/h (2 Bft) 95,65 %
01.01.2018 20:23 2,5 C 3,9 C 85 % 1006,3 hPa 0,0 l/m 4,8 km/h (1 Bft) O-SO 112 0 min 0,000 mm 0,0 UV-I 0 W/m 0,2 C 2,5 C 6,4 km/h (2 Bft) 100,00 %
01.01.2018 20:24 2,4 C 3,9 C 86 % 1006,3 hPa 0,0 l/m 4,8 km/h (1 Bft) SO 135 0 min 0,000 mm 0,0 UV-I 0 W/m 0,3 C 2,4 C 6,4 km/h (2 Bft) 100,00 %
01.01.2018 20:25 2,3 C 3,9 C 86 % 1006,3 hPa 0,0 l/m 6,4 km/h (2 Bft) O-SO 112 0 min 0,000 mm 0,0 UV-I 0 W/m 0,2 C 2,3 C 9,7 km/h (2 Bft) 95,65 %
01.01.2018 20:26 2,4 C 3,9 C 87 % 1006,3 hPa 0,0 l/m 6,4 km/h (2 Bft) O-SO 112 0 min 0,000 mm 0,0 UV-I 0 W/m 0,5 C 2,4 C 6,4 km/h (2 Bft) 95,65 %
01.01.2018 20:27 2,4 C 3,9 C 86 % 1006,3 hPa 0,0 l/m 6,4 km/h (2 Bft) O-SO 112 0 min 0,000 mm 0,0 UV-I 0 W/m 0,3 C 2,4 C 6,4 km/h (2 Bft) 95,65 %
01.01.2018 20:28 2,4 C 3,9 C 86 % 1006,3 hPa 0,0 l/m 6,4 km/h (2 Bft) O-SO 112 0 min 0,000 mm 0,0 UV-I 0 W/m 0,3 C 2,4 C 9,7 km/h (2 Bft) 100,00 %
01.01.2018 20:29 2,3 C 3,9 C 86 % 1006,2 hPa 0,0 l/m 4,8 km/h (1 Bft) O-SO 112 0 min 0,000 mm 0,0 UV-I 0 W/m 0,2 C 2,3 C 9,7 km/h (2 Bft) 100,00 %
01.01.2018 20:30 2,3 C 3,9 C 87 % 1006,2 hPa 0,0 l/m 6,4 km/h (2 Bft) O-SO 112 0 min 0,000 mm 0,0 UV-I 0 W/m 0,4 C 2,3 C 9,7 km/h (2 Bft) 100,00 %
01.01.2018 20:31 2,3 C 3,9 C 87 % 1006,2 hPa 0,0 l/m 4,8 km/h (1 Bft) SO 135 0 min 0,000 mm 0,0 UV-I 0 W/m 0,4 C 2,3 C 9,7 km/h (2 Bft) 100,00 %
01.01.2018 20:32 2,4 C 3,9 C 87 % 1006,2 hPa 0,0 l/m 4,8 km/h (1 Bft) O-SO 112 0 min 0,000 mm 0,0 UV-I 0 W/m 0,5 C 2,4 C 9,7 km/h (2 Bft) 100,00 %
01.01.2018 20:33 2,4 C 3,9 C 87 % 1006,2 hPa 0,0 l/m 3,2 km/h (1 Bft) O-SO 112 0 min 0,000 mm 0,0 UV-I 0 W/m 0,5 C 2,4 C 8,0 km/h (2 Bft) 100,00 %
01.01.2018 20:34 2,5 C 3,9 C 87 % 1006,2 hPa 0,0 l/m 1,6 km/h (1 Bft) O-SO 112 0 min 0,000 mm 0,0 UV-I 0 W/m 0,6 C 2,5 C 4,8 km/h (1 Bft) 95,65 %
01.01.2018 20:35 2,6 C 3,9 C 86 % 1006,2 hPa 0,0 l/m 3,2 km/h (1 Bft) SO 135 0 min 0,000 mm 0,0 UV-I 0 W/m 0,5 C 2,6 C 6,4 km/h (2 Bft) 100,00 %
01.01.2018 20:36 2,6 C 3,9 C 86 % 1006,3 hPa 0,0 l/m 3,2 km/h (1 Bft) SO 135 0 min 0,000 mm 0,0 UV-I 0 W/m 0,5 C 2,6 C 4,8 km/h (1 Bft) 100,00 %
01.01.2018 20:37 2,7 C 3,9 C 86 % 1006,2 hPa 0,0 l/m 3,2 km/h (1 Bft) SO 135 0 min 0,000 mm 0,0 UV-I 0 W/m 0,6 C 2,7 C 6,4 km/h (2 Bft) 100,00 %
01.01.2018 20:38 2,8 C 3,9 C 86 % 1006,2 hPa 0,0 l/m 4,8 km/h (1 Bft) SO 135 0 min 0,000 mm 0,0 UV-I 0 W/m 0,7 C 2,8 C 6,4 km/h (2 Bft) 95,65 %
01.01.2018 20:39 2,8 C 3,9 C 85 % 1006,2 hPa 0,0 l/m 3,2 km/h (1 Bft) SO 135 0 min 0,000 mm 0,0 UV-I 0 W/m 0,5 C 2,8 C 4,8 km/h (1 Bft) 100,00 %
01.01.2018 20:40 2,9 C 3,9 C 85 % 1006,2 hPa 0,0 l/m 1,6 km/h (1 Bft) SO 135 0 min 0,000 mm 0,0 UV-I 0 W/m 0,6 C 2,9 C 3,2 km/h (1 Bft) 100,00 %
01.01.2018 20:41 2,8 C 3,9 C 85 % 1006,3 hPa 0,0 l/m 0,0 km/h (0 Bft) N 0 0 min 0,000 mm 0,0 UV-I 0 W/m 0,5 C 2,8 C 0,0 km/h (0 Bft) 95,65 %
01.01.2018 20:42 2,7 C 3,9 C 85 % 1006,3 hPa 0,0 l/m 0,0 km/h (0 Bft) SO 135 0 min 0,000 mm 0,0 UV-I 0 W/m 0,4 C 2,7 C 1,6 km/h (1 Bft) 100,00 %
01.01.2018 20:43 2,5 C 3,9 C 85 % 1006,3 hPa 0,0 l/m 0,0 km/h (0 Bft) SO 135 0 min 0,000 mm 0,0 UV-I 0 W/m 0,2 C 2,5 C 1,6 km/h (1 Bft) 100,00 %
01.01.2018 20:44 2,3 C 3,9 C 85 % 1006,3 hPa 0,0 l/m 0,0 km/h (0 Bft) N 0 0 min 0,000 mm 0,0 UV-I 0 W/m 0,0 C 2,3 C 0,0 km/h (0 Bft) 95,65 %
01.01.2018 20:45 2,1 C 3,9 C 86 % 1006,3 hPa 0,0 l/m 0,0 km/h (0 Bft) N 0 0 min 0,000 mm 0,0 UV-I 0 W/m 0,0 C 2,1 C 0,0 km/h (0 Bft) 95,65 %
01.01.2018 20:46 2,0 C 3,9 C 87 % 1006,3 hPa 0,0 l/m 0,0 km/h (0 Bft) N 0 0 min 0,000 mm 0,0 UV-I 0 W/m 0,1 C 2,0 C 0,0 km/h (0 Bft) 100,00 %
01.01.2018 20:47 1,9 C 3,9 C 87 % 1006,4 hPa 0,0 l/m 0,0 km/h (0 Bft) N 0 0 min 0,000 mm 0,0 UV-I 0 W/m -0,0 C 1,9 C 0,0 km/h (0 Bft) 100,00 %
01.01.2018 20:48 1,8 C 3,9 C 88 % 1006,4 hPa 0,0 l/m 0,0 km/h (0 Bft) N 0 0 min 0,000 mm 0,0 UV-I 0 W/m 0,0 C 1,8 C 0,0 km/h (0 Bft) 95,65 %
01.01.2018 20:49 1,7 C 3,9 C 88 % 1006,3 hPa 0,0 l/m 0,0 km/h (0 Bft) SO 135 0 min 0,000 mm 0,0 UV-I 0 W/m -0,1 C 1,7 C 1,6 km/h (1 Bft) 100,00 %
01.01.2018 20:50 1,7 C 3,9 C 88 % 1006,4 hPa 0,0 l/m 1,6 km/h (1 Bft) SO 135 0 min 0,000 mm 0,0 UV-I 0 W/m -0,1 C 1,7 C 3,2 km/h (1 Bft) 100,00 %
01.01.2018 20:51 1,7 C 3,9 C 89 % 1006,4 hPa 0,0 l/m 1,6 km/h (1 Bft) SO 135 0 min 0,000 mm 0,0 UV-I 0 W/m 0,1 C 1,7 C 3,2 km/h (1 Bft) 100,00 %
01.01.2018 20:52 1,7 C 3,9 C 89 % 1006,4 hPa 0,0 l/m 1,6 km/h (1 Bft) SO 135 0 min 0,000 mm 0,0 UV-I 0 W/m 0,1 C 1,7 C 3,2 km/h (1 Bft) 100,00 %
01.01.2018 20:53 1,8 C 3,9 C 89 % 1006,4 hPa 0,0 l/m 1,6 km/h (1 Bft) SO 135 0 min 0,000 mm 0,0 UV-I 0 W/m 0,2 C 1,8 C 3,2 km/h (1 Bft) 100,00 %
01.01.2018 20:54 1,8 C 3,9 C 89 % 1006,5 hPa 0,0 l/m 1,6 km/h (1 Bft) SO 135 0 min 0,000 mm 0,0 UV-I 0 W/m 0,2 C 1,8 C 3,2 km/h (1 Bft) 95,65 %
01.01.2018 20:55 1,7 C 3,9 C 88 % 1006,5 hPa 0,0 l/m 1,6 km/h (1 Bft) SO 135 0 min 0,000 mm 0,0 UV-I 0 W/m -0,1 C 1,7 C 3,2 km/h (1 Bft) 95,65 %
01.01.2018 20:56 1,7 C 3,9 C 88 % 1006,5 hPa 0,0 l/m 1,6 km/h (1 Bft) SO 135 0 min 0,000 mm 0,0 UV-I 0 W/m -0,1 C 1,7 C 3,2 km/h (1 Bft) 95,65 %
01.01.2018 20:57 1,8 C 3,9 C 89 % 1006,5 hPa 0,0 l/m 1,6 km/h (1 Bft) SO 135 0 min 0,000 mm 0,0 UV-I 0 W/m 0,2 C 1,8 C 3,2 km/h (1 Bft) 100,00 %
01.01.2018 20:58 1,9 C 3,9 C 89 % 1006,5 hPa 0,0 l/m 1,6 km/h (1 Bft) SO 135 0 min 0,000 mm 0,0 UV-I 0 W/m 0,3 C 1,9 C 3,2 km/h (1 Bft) 100,00 %
01.01.2018 20:59 2,0 C 3,9 C 89 % 1006,4 hPa 0,0 l/m 0,0 km/h (0 Bft) SO 135 0 min 0,000 mm 0,0 UV-I 0 W/m 0,4 C 2,0 C 1,6 km/h (1 Bft) 100,00 %
01.01.2018 21:00 2,1 C 3,9 C 88 % 1006,5 hPa 0,0 l/m 0,0 km/h (0 Bft) N 0 0 min 0,000 mm 0,0 UV-I 0 W/m 0,3 C 2,1 C 0,0 km/h (0 Bft) 100,00 %
01.01.2018 21:01 2,1 C 3,9 C 88 % 1006,5 hPa 0,0 l/m 0,0 km/h (0 Bft) N 0 0 min 0,000 mm 0,0 UV-I 0 W/m 0,3 C 2,1 C 0,0 km/h (0 Bft) 95,65 %
01.01.2018 21:02 2,1 C 3,9 C 88 % 1006,5 hPa 0,0 l/m 0,0 km/h (0 Bft) N 0 0 min 0,000 mm 0,0 UV-I 0 W/m 0,3 C 2,1 C 0,0 km/h (0 Bft) 95,65 %
01.01.2018 21:03 2,0 C 3,9 C 87 % 1006,4 hPa 0,0 l/m 0,0 km/h (0 Bft) SO 135 0 min 0,000 mm 0,0 UV-I 0 W/m 0,1 C 2,0 C 1,6 km/h (1 Bft) 95,65 %
01.01.2018 21:04 1,9 C 3,9 C 87 % 1006,4 hPa 0,0 l/m 0,0 km/h (0 Bft) N 0 0 min 0,000 mm 0,0 UV-I 0 W/m -0,0 C 1,9 C 0,0 km/h (0 Bft) 100,00 %
01.01.2018 21:05 1,6 C 3,9 C 86 % 1006,4 hPa 0,0 l/m 0,0 km/h (0 Bft) N 0 0 min 0,000 mm 0,0 UV-I 0 W/m -0,5 C 1,6 C 0,0 km/h (0 Bft) 100,00 %
01.01.2018 21:06 1,3 C 3,9 C 87 % 1006,3 hPa 0,0 l/m 1,6 km/h (1 Bft) SO 135 0 min 0,000 mm 0,0 UV-I 0 W/m -0,6 C 1,3 C 3,2 km/h (1 Bft) 100,00 %
01.01.2018 21:07 1,1 C 3,9 C 88 % 1006,2 hPa 0,0 l/m 3,2 km/h (1 Bft) SO 135 0 min 0,000 mm 0,0 UV-I 0 W/m -0,7 C 1,1 C 4,8 km/h (1 Bft) 100,00 %
01.01.2018 21:08 1,1 C 3,9 C 89 % 1006,2 hPa 0,0 l/m 4,8 km/h (1 Bft) SO 135 0 min 0,000 mm 0,0 UV-I 0 W/m -0,5 C 1,1 C 4,8 km/h (1 Bft) 100,00 %
01.01.2018 21:09 1,1 C 3,9 C 90 % 1006,2 hPa 0,0 l/m 4,8 km/h (1 Bft) SO 135 0 min 0,000 mm 0,0 UV-I 0 W/m -0,4 C 1,1 C 4,8 km/h (1 Bft) 95,65 %
01.01.2018 21:10 1,1 C 3,9 C 90 % 1006,2 hPa 0,0 l/m 3,2 km/h (1 Bft) SO 135 0 min 0,000 mm 0,0 UV-I 0 W/m -0,4 C 1,1 C 4,8 km/h (1 Bft) 95,65 %
01.01.2018 21:11 1,1 C 3,9 C 90 % 1006,2 hPa 0,0 l/m 3,2 km/h (1 Bft) SO 135 0 min 0,000 mm 0,0 UV-I 0 W/m -0,4 C 1,1 C 4,8 km/h (1 Bft) 100,00 %
01.01.2018 21:12 1,2 C 3,9 C 90 % 1006,2 hPa 0,0 l/m 3,2 km/h (1 Bft) SO 135 0 min 0,000 mm 0,0 UV-I 0 W/m -0,3 C 1,2 C 4,8 km/h (1 Bft) 100,00 %
01.01.2018 21:13 1,3 C 3,9 C 91 % 1006,2 hPa 0,0 l/m 3,2 km/h (1 Bft) SO 135 0 min 0,000 mm 0,0 UV-I 0 W/m -0,0 C 1,3 C 4,8 km/h (1 Bft) 95,65 %
01.01.2018 21:14 1,3 C 3,9 C 90 % 1006,2 hPa 0,0 l/m 3,2 km/h (1 Bft) SO 135 0 min 0,000 mm 0,0 UV-I 0 W/m -0,2 C 1,3 C 4,8 km/h (1 Bft) 100,00 %
01.01.2018 21:15 1,2 C 3,9 C 90 % 1006,1 hPa 0,0 l/m 3,2 km/h (1 Bft) SO 135 0 min 0,000 mm 0,0 UV-I 0 W/m -0,3 C 1,2 C 4,8 km/h (1 Bft) 100,00 %
01.01.2018 21:16 1,3 C 3,9 C 90 % 1006,1 hPa 0,0 l/m 3,2 km/h (1 Bft) SO 135 0 min 0,000 mm 0,0 UV-I 0 W/m -0,2 C 1,3 C 4,8 km/h (1 Bft) 95,65 %
01.01.2018 21:17 1,3 C 3,9 C 89 % 1006,1 hPa 0,0 l/m 3,2 km/h (1 Bft) SO 135 0 min 0,000 mm 0,0 UV-I 0 W/m -0,3 C 1,3 C 4,8 km/h (1 Bft) 100,00 %
01.01.2018 21:18 1,2 C 3,9 C 89 % 1006,0 hPa 0,0 l/m 4,8 km/h (1 Bft) O 90 0 min 0,000 mm 0,0 UV-I 0 W/m -0,4 C 1,2 C 8,0 km/h (2 Bft) 91,30 %
01.01.2018 21:19 1,0 C 3,9 C 89 % 1006,0 hPa 0,0 l/m 4,8 km/h (1 Bft) O 90 0 min 0,000 mm 0,0 UV-I 0 W/m -0,6 C 1,0 C 6,4 km/h (2 Bft) 100,00 %
01.01.2018 21:20 0,9 C 3,9 C 89 % 1005,9 hPa 0,0 l/m 4,8 km/h (1 Bft) O 90 0 min 0,000 mm 0,0 UV-I 0 W/m -0,7 C 0,9 C 6,4 km/h (2 Bft) 95,65 %
01.01.2018 21:21 0,8 C 3,9 C 90 % 1006,0 hPa 0,0 l/m 3,2 km/h (1 Bft) O 90 0 min 0,000 mm 0,0 UV-I 0 W/m -0,6 C 0,8 C 4,8 km/h (1 Bft) 95,65 %
01.01.2018 21:22 0,7 C 3,9 C 90 % 1006,0 hPa 0,0 l/m 3,2 km/h (1 Bft) O 90 0 min 0,000 mm 0,0 UV-I 0 W/m -0,7 C 0,7 C 4,8 km/h (1 Bft) 95,65 %
01.01.2018 21:23 0,7 C 3,9 C 90 % 1006,0 hPa 0,0 l/m 1,6 km/h (1 Bft) O 90 0 min 0,000 mm 0,0 UV-I 0 W/m -0,7 C 0,7 C 3,2 km/h (1 Bft) 86,96 %
01.01.2018 21:24 0,7 C 3,9 C 91 % 1006,0 hPa 0,0 l/m 1,6 km/h (1 Bft) O 90 0 min 0,000 mm 0,0 UV-I 0 W/m -0,6 C 0,7 C 3,2 km/h (1 Bft) 95,65 %
01.01.2018 21:25 0,7 C 3,9 C 91 % 1006,0 hPa 0,0 l/m 1,6 km/h (1 Bft) O 90 0 min 0,000 mm 0,0 UV-I 0 W/m -0,6 C 0,7 C 3,2 km/h (1 Bft) 95,65 %
01.01.2018 21:26 0,8 C 3,9 C 91 % 1006,0 hPa 0,0 l/m 1,6 km/h (1 Bft) O 90 0 min 0,000 mm 0,0 UV-I 0 W/m -0,5 C 0,8 C 3,2 km/h (1 Bft) 95,65 %
01.01.2018 21:27 0,8 C 3,9 C 91 % 1006,0 hPa 0,0 l/m 3,2 km/h (1 Bft) O 90 0 min 0,000 mm 0,0 UV-I 0 W/m -0,5 C 0,8 C 4,8 km/h (1 Bft) 95,65 %
01.01.2018 21:28 0,8 C 3,9 C 91 % 1006,0 hPa 0,0 l/m 1,6 km/h (1 Bft) O 90 0 min 0,000 mm 0,0 UV-I 0 W/m -0,5 C 0,8 C 3,2 km/h (1 Bft) 100,00 %
01.01.2018 21:29 0,8 C 3,9 C 91 % 1005,9 hPa 0,0 l/m 3,2 km/h (1 Bft) O 90 0 min 0,000 mm 0,0 UV-I 0 W/m -0,5 C 0,8 C 4,8 km/h (1 Bft) 95,65 %
01.01.2018 21:30 0,6 C 3,9 C 90 % 1005,9 hPa 0,0 l/m 4,8 km/h (1 Bft) O 90 0 min 0,000 mm 0,0 UV-I 0 W/m -0,8 C 0,6 C 4,8 km/h (1 Bft) 91,30 %
01.01.2018 21:31 0,3 C 3,9 C 90 % 1005,8 hPa 0,0 l/m 4,8 km/h (1 Bft) O 90 0 min 0,000 mm 0,0 UV-I 0 W/m -1,1 C 0,3 C 4,8 km/h (1 Bft) 95,65 %
01.01.2018 21:32 0,2 C 3,9 C 91 % 1005,8 hPa 0,0 l/m 4,8 km/h (1 Bft) O 90 0 min 0,000 mm 0,0 UV-I 0 W/m -1,1 C 0,2 C 6,4 km/h (2 Bft) 95,65 %
01.01.2018 21:33 0,1 C 3,9 C 91 % 1005,7 hPa 0,0 l/m 4,8 km/h (1 Bft) O 90 0 min 0,000 mm 0,0 UV-I 0 W/m -1,2 C 0,1 C 6,4 km/h (2 Bft) 95,65 %
01.01.2018 21:34 0,1 C 3,9 C 92 % 1005,6 hPa 0,0 l/m 8,0 km/h (2 Bft) O 90 0 min 0,000 mm 0,0 UV-I 0 W/m -1,0 C -1,5 C 12,9 km/h (3 Bft) 91,30 %
01.01.2018 21:35 0,4 C 3,9 C 93 % 1005,6 hPa 0,0 l/m 9,7 km/h (2 Bft) O 90 0 min 0,000 mm 0,0 UV-I 0 W/m -0,6 C -2,8 C 12,9 km/h (3 Bft) 95,65 %
01.01.2018 21:36 0,9 C 3,9 C 94 % 1005,6 hPa 0,0 l/m 11,3 km/h (2 Bft) O 90 0 min 0,000 mm 0,0 UV-I 0 W/m 0,0 C -3,5 C 16,1 km/h (3 Bft) 91,30 %
01.01.2018 21:37 1,3 C 3,9 C 94 % 1005,5 hPa 0,0 l/m 9,7 km/h (2 Bft) O 90 0 min 0,000 mm 0,0 UV-I 0 W/m 0,4 C -1,8 C 12,9 km/h (3 Bft) 91,30 %
01.01.2018 21:38 1,7 C 3,9 C 93 % 1005,5 hPa 0,0 l/m 11,3 km/h (2 Bft) O-SO 112 0 min 0,000 mm 0,0 UV-I 0 W/m 0,7 C -2,6 C 14,5 km/h (3 Bft) 95,65 %
01.01.2018 21:39 2,0 C 3,9 C 91 % 1005,4 hPa 0,0 l/m 12,9 km/h (3 Bft) O 90 0 min 0,000 mm 0,0 UV-I 0 W/m 0,7 C -3,3 C 16,1 km/h (3 Bft) 95,65 %
01.01.2018 21:40 2,2 C 3,9 C 90 % 1005,4 hPa 0,0 l/m 11,3 km/h (2 Bft) O-SO 112 0 min 0,000 mm 0,0 UV-I 0 W/m 0,7 C -2,0 C 14,5 km/h (3 Bft) 91,30 %
01.01.2018 21:41 2,3 C 3,9 C 90 % 1005,4 hPa 0,0 l/m 9,7 km/h (2 Bft) O-SO 112 0 min 0,000 mm 0,0 UV-I 0 W/m 0,8 C -0,7 C 14,5 km/h (3 Bft) 95,65 %
01.01.2018 21:42 2,4 C 3,9 C 89 % 1005,4 hPa 0,0 l/m 9,7 km/h (2 Bft) O-SO 112 0 min 0,000 mm 0,0 UV-I 0 W/m 0,8 C -0,6 C 14,5 km/h (3 Bft) 95,65 %
01.01.2018 21:43 2,4 C 3,9 C 88 % 1005,4 hPa 0,0 l/m 8,0 km/h (2 Bft) O-SO 112 0 min 0,000 mm 0,0 UV-I 0 W/m 0,6 C 0,9 C 12,9 km/h (3 Bft) 91,30 %
01.01.2018 21:44 2,5 C 3,9 C 88 % 1005,4 hPa 0,0 l/m 6,4 km/h (2 Bft) O-SO 112 0 min 0,000 mm 0,0 UV-I 0 W/m 0,7 C 2,5 C 11,3 km/h (2 Bft) 86,96 %
01.01.2018 21:45 2,5 C 3,9 C 87 % 1005,5 hPa 0,0 l/m 4,8 km/h (1 Bft) SO 135 0 min 0,000 mm 0,0 UV-I 0 W/m 0,6 C 2,5 C 6,4 km/h (2 Bft) 86,96 %
01.01.2018 21:46 2,4 C 3,9 C 87 % 1005,5 hPa 0,0 l/m 3,2 km/h (1 Bft) SO 135 0 min 0,000 mm 0,0 UV-I 0 W/m 0,5 C 2,4 C 6,4 km/h (2 Bft) 100,00 %
01.01.2018 21:47 2,4 C 3,9 C 87 % 1005,6 hPa 0,0 l/m 1,6 km/h (1 Bft) SO 135 0 min 0,000 mm 0,0 UV-I 0 W/m 0,5 C 2,4 C 4,8 km/h (1 Bft) 91,30 %
01.01.2018 21:48 2,3 C 3,9 C 87 % 1005,5 hPa 0,0 l/m 1,6 km/h (1 Bft) SO 135 0 min 0,000 mm 0,0 UV-I 0 W/m 0,4 C 2,3 C 1,6 km/h (1 Bft) 100,00 %
01.01.2018 21:49 2,2 C 3,9 C 86 % 1005,6 hPa 0,0 l/m 1,6 km/h (1 Bft) SO 135 0 min 0,000 mm 0,0 UV-I 0 W/m 0,1 C 2,2 C 3,2 km/h (1 Bft) 91,30 %
01.01.2018 21:50 1,9 C 3,9 C 86 % 1005,6 hPa 0,0 l/m 1,6 km/h (1 Bft) SO 135 0 min 0,000 mm 0,0 UV-I 0 W/m -0,2 C 1,9 C 3,2 km/h (1 Bft) 100,00 %
01.01.2018 21:51 1,6 C 3,9 C 86 % 1005,6 hPa 0,0 l/m 1,6 km/h (1 Bft) SO 135 0 min 0,000 mm 0,0 UV-I 0 W/m -0,5 C 1,6 C 3,2 km/h (1 Bft) 86,96 %
01.01.2018 21:52 1,2 C 3,9 C 87 % 1005,6 hPa 0,0 l/m 1,6 km/h (1 Bft) SO 135 0 min 0,000 mm 0,0 UV-I 0 W/m -0,7 C 1,2 C 3,2 km/h (1 Bft) 95,65 %
01.01.2018 21:53 0,9 C 3,9 C 87 % 1005,7 hPa 0,0 l/m 4,8 km/h (1 Bft) SO 135 0 min 0,000 mm 0,0 UV-I 0 W/m -1,0 C 0,9 C 6,4 km/h (2 Bft) 91,30 %
01.01.2018 21:54 0,8 C 3,9 C 88 % 1005,7 hPa 0,0 l/m 3,2 km/h (1 Bft) S-SO 157 0 min 0,000 mm 0,0 UV-I 0 W/m -1,0 C 0,8 C 6,4 km/h (2 Bft) 95,65 %
01.01.2018 21:55 0,7 C 3,9 C 90 % 1005,6 hPa 0,0 l/m 3,2 km/h (1 Bft) S-SO 157 0 min 0,000 mm 0,0 UV-I 0 W/m -0,7 C 0,7 C 3,2 km/h (1 Bft) 100,00 %
01.01.2018 21:56 0,6 C 3,9 C 90 % 1005,6 hPa 0,0 l/m 3,2 km/h (1 Bft) S-SO 157 0 min 0,000 mm 0,0 UV-I 0 W/m -0,8 C 0,6 C 3,2 km/h (1 Bft) 86,96 %
01.01.2018 21:57 0,5 C 3,9 C 90 % 1005,6 hPa 0,0 l/m 1,6 km/h (1 Bft) S-SO 157 0 min 0,000 mm 0,0 UV-I 0 W/m -0,9 C 0,5 C 1,6 km/h (1 Bft) 100,00 %
01.01.2018 21:58 0,4 C 3,9 C 90 % 1005,6 hPa 0,0 l/m 1,6 km/h (1 Bft) S-SO 157 0 min 0,000 mm 0,0 UV-I 0 W/m -1,0 C 0,4 C 3,2 km/h (1 Bft) 91,30 %
01.01.2018 21:59 0,4 C 3,9 C 91 % 1005,4 hPa 0,0 l/m 4,8 km/h (1 Bft) S-SO 157 0 min 0,000 mm 0,0 UV-I 0 W/m -0,9 C 0,4 C 6,4 km/h (2 Bft) 100,00 %
01.01.2018 22:00 0,5 C 3,9 C 91 % 1005,5 hPa 0,0 l/m 6,4 km/h (2 Bft) S-SO 157 0 min 0,000 mm 0,0 UV-I 0 W/m -0,8 C 0,5 C 8,0 km/h (2 Bft) 95,65 %
01.01.2018 22:01 0,6 C 3,9 C 91 % 1005,4 hPa 0,0 l/m 6,4 km/h (2 Bft) SO 135 0 min 0,000 mm 0,0 UV-I 0 W/m -0,7 C 0,6 C 6,4 km/h (2 Bft) 100,00 %
01.01.2018 22:02 0,6 C 3,9 C 92 % 1005,4 hPa 0,0 l/m 4,8 km/h (1 Bft) SO 135 0 min 0,000 mm 0,0 UV-I 0 W/m -0,5 C 0,6 C 6,4 km/h (2 Bft) 91,30 %
01.01.2018 22:03 0,6 C 3,9 C 92 % 1005,4 hPa 0,0 l/m 4,8 km/h (1 Bft) SO 135 0 min 0,000 mm 0,0 UV-I 0 W/m -0,5 C 0,6 C 8,0 km/h (2 Bft) 95,65 %
01.01.2018 22:04 0,7 C 3,9 C 92 % 1005,5 hPa 0,0 l/m 3,2 km/h (1 Bft) SO 135 0 min 0,000 mm 0,0 UV-I 0 W/m -0,4 C 0,7 C 4,8 km/h (1 Bft) 100,00 %
01.01.2018 22:05 0,8 C 3,9 C 92 % 1005,5 hPa 0,0 l/m 3,2 km/h (1 Bft) SO 135 0 min 0,000 mm 0,0 UV-I 0 W/m -0,3 C 0,8 C 4,8 km/h (1 Bft) 86,96 %
01.01.2018 22:06 1,0 C 3,9 C 92 % 1005,5 hPa 0,0 l/m 1,6 km/h (1 Bft) SO 135 0 min 0,000 mm 0,0 UV-I 0 W/m -0,2 C 1,0 C 3,2 km/h (1 Bft) 100,00 %
01.01.2018 22:07 1,1 C 3,9 C 92 % 1005,5 hPa 0,0 l/m 0,0 km/h (0 Bft) SO 135 0 min 0,000 mm 0,0 UV-I 0 W/m -0,1 C 1,1 C 1,6 km/h (1 Bft) 95,65 %
01.01.2018 22:08 1,1 C 3,9 C 91 % 1005,6 hPa 0,0 l/m 0,0 km/h (0 Bft) SO 135 0 min 0,000 mm 0,0 UV-I 0 W/m -0,2 C 1,1 C 1,6 km/h (1 Bft) 100,00 %
01.01.2018 22:09 1,1 C 3,9 C 91 % 1005,6 hPa 0,0 l/m 0,0 km/h (0 Bft) N 0 0 min 0,000 mm 0,0 UV-I 0 W/m -0,2 C 1,1 C 0,0 km/h (0 Bft) 95,65 %
01.01.2018 22:10 1,0 C 3,9 C 91 % 1005,6 hPa 0,0 l/m 0,0 km/h (0 Bft) SO 135 0 min 0,000 mm 0,0 UV-I 0 W/m -0,3 C 1,0 C 1,6 km/h (1 Bft) 100,00 %
01.01.2018 22:11 0,8 C 3,9 C 91 % 1005,7 hPa 0,0 l/m 3,2 km/h (1 Bft) SO 135 0 min 0,000 mm 0,0 UV-I 0 W/m -0,5 C 0,8 C 3,2 km/h (1 Bft) 100,00 %
01.01.2018 22:12 0,7 C 3,9 C 90 % 1005,6 hPa 0,0 l/m 1,6 km/h (1 Bft) SO 135 0 min 0,000 mm 0,0 UV-I 0 W/m -0,7 C 0,7 C 3,2 km/h (1 Bft) 91,30 %
01.01.2018 22:13 0,5 C 3,9 C 90 % 1005,7 hPa 0,0 l/m 1,6 km/h (1 Bft) SO 135 0 min 0,000 mm 0,0 UV-I 0 W/m -0,9 C 0,5 C 3,2 km/h (1 Bft) 100,00 %
01.01.2018 22:14 0,4 C 3,9 C 91 % 1005,6 hPa 0,0 l/m 1,6 km/h (1 Bft) SO 135 0 min 0,000 mm 0,0 UV-I 0 W/m -0,9 C 0,4 C 3,2 km/h (1 Bft) 100,00 %
01.01.2018 22:15 0,4 C 3,9 C 92 % 1005,7 hPa 0,0 l/m 1,6 km/h (1 Bft) SO 135 0 min 0,000 mm 0,0 UV-I 0 W/m -0,7 C 0,4 C 3,2 km/h (1 Bft) 95,65 %
01.01.2018 22:16 0,5 C 3,9 C 92 % 1005,7 hPa 0,0 l/m 3,2 km/h (1 Bft) SO 135 0 min 0,000 mm 0,0 UV-I 0 W/m -0,6 C 0,5 C 3,2 km/h (1 Bft) 95,65 %
01.01.2018 22:17 0,6 C 3,9 C 92 % 1005,7 hPa 0,0 l/m 1,6 km/h (1 Bft) SO 135 0 min 0,000 mm 0,0 UV-I 0 W/m -0,5 C 0,6 C 3,2 km/h (1 Bft) 100,00 %
01.01.2018 22:18 0,7 C 3,9 C 93 % 1005,7 hPa 0,0 l/m 1,6 km/h (1 Bft) SO 135 0 min 0,000 mm 0,0 UV-I 0 W/m -0,3 C 0,7 C 3,2 km/h (1 Bft) 100,00 %
01.01.2018 22:19 0,8 C 3,9 C 92 % 1005,7 hPa 0,0 l/m 1,6 km/h (1 Bft) SO 135 0 min 0,000 mm 0,0 UV-I 0 W/m -0,3 C 0,8 C 3,2 km/h (1 Bft) 95,65 %
01.01.2018 22:20 0,9 C 3,9 C 92 % 1005,7 hPa 0,0 l/m 3,2 km/h (1 Bft) SO 135 0 min 0,000 mm 0,0 UV-I 0 W/m -0,2 C 0,9 C 3,2 km/h (1 Bft) 100,00 %
01.01.2018 22:21 0,9 C 3,9 C 92 % 1005,7 hPa 0,0 l/m 3,2 km/h (1 Bft) SO 135 0 min 0,000 mm 0,0 UV-I 0 W/m -0,2 C 0,9 C 3,2 km/h (1 Bft) 95,65 %
01.01.2018 22:22 0,9 C 3,9 C 92 % 1005,7 hPa 0,0 l/m 1,6 km/h (1 Bft) SO 135 0 min 0,000 mm 0,0 UV-I 0 W/m -0,2 C 0,9 C 3,2 km/h (1 Bft) 100,00 %
01.01.2018 22:23 0,9 C 3,9 C 92 % 1005,7 hPa 0,0 l/m 1,6 km/h (1 Bft) SO 135 0 min 0,000 mm 0,0 UV-I 0 W/m -0,2 C 0,9 C 1,6 km/h (1 Bft) 100,00 %
01.01.2018 22:24 1,0 C 3,9 C 92 % 1005,7 hPa 0,0 l/m 1,6 km/h (1 Bft) SO 135 0 min 0,000 mm 0,0 UV-I 0 W/m -0,2 C 1,0 C 3,2 km/h (1 Bft) 100,00 %
01.01.2018 22:25 1,1 C 3,9 C 92 % 1005,7 hPa 0,0 l/m 1,6 km/h (1 Bft) SO 135 0 min 0,000 mm 0,0 UV-I 0 W/m -0,1 C 1,1 C 1,6 km/h (1 Bft) 100,00 %
01.01.2018 22:26 0,9 C 3,9 C 91 % 1005,8 hPa 0,0 l/m 1,6 km/h (1 Bft) SO 135 0 min 0,000 mm 0,0 UV-I 0 W/m -0,4 C 0,9 C 1,6 km/h (1 Bft) 95,65 %
01.01.2018 22:27 0,9 C 3,9 C 92 % 1005,8 hPa 0,0 l/m 1,6 km/h (1 Bft) SO 135 0 min 0,000 mm 0,0 UV-I 0 W/m -0,2 C 0,9 C 1,6 km/h (1 Bft) 100,00 %
01.01.2018 22:28 0,9 C 3,9 C 91 % 1005,8 hPa 0,0 l/m 0,0 km/h (0 Bft) SO 135 0 min 0,000 mm 0,0 UV-I 0 W/m -0,4 C 0,9 C 1,6 km/h (1 Bft) 100,00 %
01.01.2018 22:29 0,9 C 3,9 C 92 % 1005,7 hPa 0,0 l/m 0,0 km/h (0 Bft) SO 135 0 min 0,000 mm 0,0 UV-I 0 W/m -0,2 C 0,9 C 1,6 km/h (1 Bft) 100,00 %
01.01.2018 22:30 0,9 C 3,9 C 92 % 1005,7 hPa 0,0 l/m 0,0 km/h (0 Bft) N 0 0 min 0,000 mm 0,0 UV-I 0 W/m -0,2 C 0,9 C 0,0 km/h (0 Bft) 100,00 %
01.01.2018 22:31 0,9 C 3,9 C 92 % 1005,7 hPa 0,0 l/m 0,0 km/h (0 Bft) SO 135 0 min 0,000 mm 0,0 UV-I 0 W/m -0,2 C 0,9 C 1,6 km/h (1 Bft) 100,00 %
01.01.2018 22:32 0,8 C 3,9 C 92 % 1005,7 hPa 0,0 l/m 1,6 km/h (1 Bft) SO 135 0 min 0,000 mm 0,0 UV-I 0 W/m -0,3 C 0,8 C 3,2 km/h (1 Bft) 100,00 %
01.01.2018 22:33 0,8 C 3,9 C 92 % 1005,6 hPa 0,0 l/m 4,8 km/h (1 Bft) SO 135 0 min 0,000 mm 0,0 UV-I 0 W/m -0,3 C 0,8 C 6,4 km/h (2 Bft) 95,65 %
01.01.2018 22:34 0,8 C 3,9 C 92 % 1005,6 hPa 0,0 l/m 4,8 km/h (1 Bft) NO 45 0 min 0,000 mm 0,0 UV-I 0 W/m -0,3 C 0,8 C 8,0 km/h (2 Bft) 100,00 %
01.01.2018 22:35 0,9 C 3,9 C 92 % 1005,6 hPa 0,0 l/m 6,4 km/h (2 Bft) NO 45 0 min 0,000 mm 0,0 UV-I 0 W/m -0,2 C 0,9 C 8,0 km/h (2 Bft) 100,00 %
01.01.2018 22:36 0,9 C 3,9 C 92 % 1005,6 hPa 0,0 l/m 6,4 km/h (2 Bft) NO 45 0 min 0,000 mm 0,0 UV-I 0 W/m -0,2 C 0,9 C 8,0 km/h (2 Bft) 100,00 %
01.01.2018 22:37 1,0 C 3,9 C 92 % 1005,6 hPa 0,0 l/m 6,4 km/h (2 Bft) NO 45 0 min 0,000 mm 0,0 UV-I 0 W/m -0,2 C 1,0 C 8,0 km/h (2 Bft) 100,00 %
01.01.2018 22:38 1,1 C 3,9 C 92 % 1005,6 hPa 0,0 l/m 6,4 km/h (2 Bft) NO 45 0 min 0,000 mm 0,0 UV-I 0 W/m -0,1 C 1,1 C 8,0 km/h (2 Bft) 100,00 %
01.01.2018 22:39 1,1 C 3,9 C 92 % 1005,6 hPa 0,0 l/m 8,0 km/h (2 Bft) NO 45 0 min 0,000 mm 0,0 UV-I 0 W/m -0,1 C -0,5 C 8,0 km/h (2 Bft) 100,00 %
01.01.2018 22:40 1,1 C 3,9 C 92 % 1005,5 hPa 0,0 l/m 8,0 km/h (2 Bft) NO 45 0 min 0,000 mm 0,0 UV-I 0 W/m -0,1 C -0,5 C 11,3 km/h (2 Bft) 95,65 %
01.01.2018 22:41 1,2 C 3,9 C 92 % 1005,5 hPa 0,0 l/m 9,7 km/h (2 Bft) O-NO 67 0 min 0,000 mm 0,0 UV-I 0 W/m 0,0 C -1,9 C 11,3 km/h (2 Bft) 100,00 %
01.01.2018 22:42 1,2 C 3,9 C 92 % 1005,4 hPa 0,0 l/m 11,3 km/h (2 Bft) O-NO 67 0 min 0,000 mm 0,0 UV-I 0 W/m 0,0 C -3,1 C 14,5 km/h (3 Bft) 95,65 %
01.01.2018 22:43 1,2 C 3,9 C 91 % 1005,4 hPa 0,0 l/m 11,3 km/h (2 Bft) O-NO 67 0 min 0,000 mm 0,0 UV-I 0 W/m -0,1 C -3,1 C 14,5 km/h (3 Bft) 100,00 %
01.01.2018 22:44 1,1 C 3,9 C 91 % 1005,3 hPa 0,0 l/m 9,7 km/h (2 Bft) O-NO 67 0 min 0,000 mm 0,0 UV-I 0 W/m -0,2 C -2,0 C 12,9 km/h (3 Bft) 95,65 %
01.01.2018 22:45 1,1 C 3,9 C 92 % 1005,2 hPa 0,0 l/m 11,3 km/h (2 Bft) O-NO 67 0 min 0,000 mm 0,0 UV-I 0 W/m -0,1 C -3,2 C 14,5 km/h (3 Bft) 100,00 %
01.01.2018 22:46 1,0 C 3,9 C 92 % 1005,2 hPa 0,0 l/m 12,9 km/h (3 Bft) O-NO 67 0 min 0,000 mm 0,0 UV-I 0 W/m -0,2 C -4,5 C 14,5 km/h (3 Bft) 100,00 %
01.01.2018 22:47 1,0 C 3,9 C 92 % 1005,2 hPa 0,0 l/m 11,3 km/h (2 Bft) O-NO 67 0 min 0,000 mm 0,0 UV-I 0 W/m -0,2 C -3,3 C 14,5 km/h (3 Bft) 95,65 %
01.01.2018 22:48 1,0 C 3,9 C 92 % 1005,2 hPa 0,0 l/m 11,3 km/h (2 Bft) O-NO 67 0 min 0,000 mm 0,0 UV-I 0 W/m -0,2 C -3,3 C 14,5 km/h (3 Bft) 100,00 %
01.01.2018 22:49 1,1 C 3,9 C 92 % 1005,1 hPa 0,0 l/m 11,3 km/h (2 Bft) O-NO 67 0 min 0,000 mm 0,0 UV-I 0 W/m -0,1 C -3,2 C 16,1 km/h (3 Bft) 100,00 %
01.01.2018 22:50 1,1 C 3,9 C 92 % 1005,1 hPa 0,0 l/m 11,3 km/h (2 Bft) O-NO 67 0 min 0,000 mm 0,0 UV-I 0 W/m -0,1 C -3,2 C 14,5 km/h (3 Bft) 95,65 %
01.01.2018 22:51 1,2 C 3,9 C 92 % 1005,1 hPa 0,0 l/m 8,0 km/h (2 Bft) O-NO 67 0 min 0,000 mm 0,0 UV-I 0 W/m 0,0 C -0,4 C 12,9 km/h (3 Bft) 100,00 %
01.01.2018 22:52 1,2 C 3,9 C 92 % 1005,2 hPa 0,0 l/m 8,0 km/h (2 Bft) O-NO 67 0 min 0,000 mm 0,0 UV-I 0 W/m 0,0 C -0,4 C 12,9 km/h (3 Bft) 100,00 %
01.01.2018 22:53 1,3 C 3,9 C 92 % 1005,3 hPa 0,0 l/m 6,4 km/h (2 Bft) O-NO 67 0 min 0,000 mm 0,0 UV-I 0 W/m 0,1 C 1,3 C 9,7 km/h (2 Bft) 100,00 %
01.01.2018 22:54 1,3 C 3,9 C 92 % 1005,3 hPa 0,0 l/m 6,4 km/h (2 Bft) O-NO 67 0 min 0,000 mm 0,0 UV-I 0 W/m 0,1 C 1,3 C 8,0 km/h (2 Bft) 86,96 %
01.01.2018 22:55 1,3 C 3,9 C 91 % 1005,3 hPa 0,0 l/m 8,0 km/h (2 Bft) O-NO 67 0 min 0,000 mm 0,0 UV-I 0 W/m -0,0 C -0,3 C 12,9 km/h (3 Bft) 95,65 %
01.01.2018 22:56 1,3 C 3,9 C 92 % 1005,3 hPa 0,0 l/m 9,7 km/h (2 Bft) O-NO 67 0 min 0,000 mm 0,0 UV-I 0 W/m 0,1 C -1,8 C 16,1 km/h (3 Bft) 95,65 %
01.01.2018 22:57 1,3 C 3,9 C 92 % 1005,4 hPa 0,0 l/m 9,7 km/h (2 Bft) O-NO 67 0 min 0,000 mm 0,0 UV-I 0 W/m 0,1 C -1,8 C 12,9 km/h (3 Bft) 95,65 %
01.01.2018 22:58 1,3 C 3,9 C 91 % 1005,4 hPa 0,0 l/m 8,0 km/h (2 Bft) O 90 0 min 0,000 mm 0,0 UV-I 0 W/m -0,0 C -0,3 C 12,9 km/h (3 Bft) 100,00 %
01.01.2018 22:59 1,3 C 3,9 C 91 % 1005,4 hPa 0,0 l/m 6,4 km/h (2 Bft) O 90 0 min 0,000 mm 0,0 UV-I 0 W/m -0,0 C 1,3 C 11,3 km/h (2 Bft) 100,00 %
01.01.2018 23:00 1,4 C 3,9 C 91 % 1005,4 hPa 0,0 l/m 4,8 km/h (1 Bft) O 90 0 min 0,000 mm 0,0 UV-I 0 W/m 0,1 C 1,4 C 6,4 km/h (2 Bft) 100,00 %
01.01.2018 23:01 1,4 C 3,9 C 91 % 1005,5 hPa 0,0 l/m 4,8 km/h (1 Bft) O-SO 112 0 min 0,000 mm 0,0 UV-I 0 W/m 0,1 C 1,4 C 8,0 km/h (2 Bft) 95,65 %
01.01.2018 23:02 1,5 C 3,9 C 91 % 1005,5 hPa 0,0 l/m 3,2 km/h (1 Bft) SO 135 0 min 0,000 mm 0,0 UV-I 0 W/m 0,2 C 1,5 C 6,4 km/h (2 Bft) 100,00 %
01.01.2018 23:03 1,6 C 3,9 C 91 % 1005,4 hPa 0,0 l/m 4,8 km/h (1 Bft) O-SO 112 0 min 0,000 mm 0,0 UV-I 0 W/m 0,3 C 1,6 C 6,4 km/h (2 Bft) 100,00 %
01.01.2018 23:04 1,6 C 3,9 C 91 % 1005,5 hPa 0,0 l/m 3,2 km/h (1 Bft) O-SO 112 0 min 0,000 mm 0,0 UV-I 0 W/m 0,3 C 1,6 C 4,8 km/h (1 Bft) 95,65 %
01.01.2018 23:05 1,5 C 3,9 C 90 % 1005,5 hPa 0,0 l/m 3,2 km/h (1 Bft) O-SO 112 0 min 0,000 mm 0,0 UV-I 0 W/m 0,0 C 1,5 C 3,2 km/h (1 Bft) 100,00 %
01.01.2018 23:06 1,4 C 3,9 C 90 % 1005,5 hPa 0,0 l/m 3,2 km/h (1 Bft) O-SO 112 0 min 0,000 mm 0,0 UV-I 0 W/m -0,1 C 1,4 C 4,8 km/h (1 Bft) 95,65 %
01.01.2018 23:07 1,4 C 3,9 C 90 % 1005,5 hPa 0,0 l/m 3,2 km/h (1 Bft) O-SO 112 0 min 0,000 mm 0,0 UV-I 0 W/m -0,1 C 1,4 C 4,8 km/h (1 Bft) 95,65 %
01.01.2018 23:08 1,5 C 3,9 C 90 % 1005,4 hPa 0,0 l/m 4,8 km/h (1 Bft) O 90 0 min 0,000 mm 0,0 UV-I 0 W/m 0,0 C 1,5 C 6,4 km/h (2 Bft) 91,30 %
01.01.2018 23:09 1,4 C 3,9 C 90 % 1005,5 hPa 0,0 l/m 4,8 km/h (1 Bft) NO 45 0 min 0,000 mm 0,0 UV-I 0 W/m -0,1 C 1,4 C 6,4 km/h (2 Bft) 100,00 %
01.01.2018 23:10 1,4 C 3,9 C 90 % 1005,5 hPa 0,0 l/m 6,4 km/h (2 Bft) NO 45 0 min 0,000 mm 0,0 UV-I 0 W/m -0,1 C 1,4 C 6,4 km/h (2 Bft) 95,65 %
01.01.2018 23:11 1,4 C 3,9 C 91 % 1005,5 hPa 0,0 l/m 4,8 km/h (1 Bft) O-NO 67 0 min 0,000 mm 0,0 UV-I 0 W/m 0,1 C 1,4 C 6,4 km/h (2 Bft) 100,00 %
01.01.2018 23:12 1,3 C 3,9 C 91 % 1005,6 hPa 0,0 l/m 4,8 km/h (1 Bft) O-NO 67 0 min 0,000 mm 0,0 UV-I 0 W/m -0,0 C 1,3 C 6,4 km/h (2 Bft) 95,65 %
01.01.2018 23:13 1,4 C 3,9 C 91 % 1005,6 hPa 0,0 l/m 4,8 km/h (1 Bft) O-NO 67 0 min 0,000 mm 0,0 UV-I 0 W/m 0,1 C 1,4 C 6,4 km/h (2 Bft) 95,65 %
01.01.2018 23:14 1,4 C 3,9 C 91 % 1005,6 hPa 0,0 l/m 4,8 km/h (1 Bft) O-NO 67 0 min 0,000 mm 0,0 UV-I 0 W/m 0,1 C 1,4 C 6,4 km/h (2 Bft) 100,00 %
01.01.2018 23:15 1,4 C 3,9 C 91 % 1005,6 hPa 0,0 l/m 4,8 km/h (1 Bft) O-NO 67 0 min 0,000 mm 0,0 UV-I 0 W/m 0,1 C 1,4 C 6,4 km/h (2 Bft) 91,30 %
01.01.2018 23:16 1,4 C 3,9 C 91 % 1005,6 hPa 0,0 l/m 3,2 km/h (1 Bft) O-NO 67 0 min 0,000 mm 0,0 UV-I 0 W/m 0,1 C 1,4 C 4,8 km/h (1 Bft) 100,00 %
01.01.2018 23:17 1,3 C 3,9 C 91 % 1005,7 hPa 0,0 l/m 3,2 km/h (1 Bft) O-NO 67 0 min 0,000 mm 0,0 UV-I 0 W/m -0,0 C 1,3 C 4,8 km/h (1 Bft) 95,65 %
01.01.2018 23:18 1,3 C 3,9 C 91 % 1005,7 hPa 0,0 l/m 0,0 km/h (0 Bft) O-NO 67 0 min 0,000 mm 0,0 UV-I 0 W/m -0,0 C 1,3 C 1,6 km/h (1 Bft) 100,00 %
01.01.2018 23:19 1,3 C 3,9 C 91 % 1005,8 hPa 0,0 l/m 0,0 km/h (0 Bft) O-NO 67 0 min 0,000 mm 0,0 UV-I 0 W/m -0,0 C 1,3 C 1,6 km/h (1 Bft) 95,65 %
01.01.2018 23:20 1,3 C 3,9 C 91 % 1005,8 hPa 0,0 l/m 0,0 km/h (0 Bft) N 0 0 min 0,000 mm 0,0 UV-I 0 W/m -0,0 C 1,3 C 0,0 km/h (0 Bft) 100,00 %
01.01.2018 23:21 1,2 C 3,9 C 91 % 1005,8 hPa 0,0 l/m 0,0 km/h (0 Bft) O-NO 67 0 min 0,000 mm 0,0 UV-I 0 W/m -0,1 C 1,2 C 1,6 km/h (1 Bft) 95,65 %
01.01.2018 23:22 1,1 C 3,9 C 91 % 1005,9 hPa 0,0 l/m 0,0 km/h (0 Bft) O-NO 67 0 min 0,000 mm 0,0 UV-I 0 W/m -0,2 C 1,1 C 1,6 km/h (1 Bft) 95,65 %
01.01.2018 23:23 1,1 C 3,9 C 91 % 1005,9 hPa 0,0 l/m 1,6 km/h (1 Bft) O-NO 67 0 min 0,000 mm 0,0 UV-I 0 W/m -0,2 C 1,1 C 1,6 km/h (1 Bft) 91,30 %
01.01.2018 23:24 1,0 C 3,9 C 92 % 1005,8 hPa 0,0 l/m 1,6 km/h (1 Bft) O-NO 67 0 min 0,000 mm 0,0 UV-I 0 W/m -0,2 C 1,0 C 1,6 km/h (1 Bft) 100,00 %
01.01.2018 23:25 0,9 C 3,9 C 92 % 1005,9 hPa 0,0 l/m 1,6 km/h (1 Bft) O-NO 67 0 min 0,000 mm 0,0 UV-I 0 W/m -0,2 C 0,9 C 1,6 km/h (1 Bft) 95,65 %
01.01.2018 23:26 0,9 C 3,9 C 92 % 1005,9 hPa 0,0 l/m 1,6 km/h (1 Bft) O-NO 67 0 min 0,000 mm 0,0 UV-I 0 W/m -0,2 C 0,9 C 3,2 km/h (1 Bft) 100,00 %
01.01.2018 23:27 0,9 C 3,9 C 92 % 1006,0 hPa 0,0 l/m 3,2 km/h (1 Bft) O-NO 67 0 min 0,000 mm 0,0 UV-I 0 W/m -0,2 C 0,9 C 4,8 km/h (1 Bft) 95,65 %
01.01.2018 23:28 0,9 C 3,9 C 92 % 1006,1 hPa 0,0 l/m 4,8 km/h (1 Bft) NW 315 0 min 0,000 mm 0,0 UV-I 0 W/m -0,2 C 0,9 C 6,4 km/h (2 Bft) 100,00 %
01.01.2018 23:29 0,9 C 3,9 C 92 % 1006,2 hPa 0,0 l/m 4,8 km/h (1 Bft) W-NW 292 0 min 0,000 mm 0,0 UV-I 0 W/m -0,2 C 0,9 C 6,4 km/h (2 Bft) 95,65 %
01.01.2018 23:30 0,9 C 3,9 C 92 % 1006,3 hPa 0,0 l/m 4,8 km/h (1 Bft) W-NW 292 0 min 0,000 mm 0,0 UV-I 0 W/m -0,2 C 0,9 C 6,4 km/h (2 Bft) 100,00 %
01.01.2018 23:31 0,9 C 3,9 C 92 % 1006,3 hPa 0,0 l/m 4,8 km/h (1 Bft) W-NW 292 0 min 0,000 mm 0,0 UV-I 0 W/m -0,2 C 0,9 C 6,4 km/h (2 Bft) 100,00 %
01.01.2018 23:32 0,8 C 3,9 C 92 % 1006,3 hPa 0,0 l/m 3,2 km/h (1 Bft) W-NW 292 0 min 0,000 mm 0,0 UV-I 0 W/m -0,3 C 0,8 C 4,8 km/h (1 Bft) 100,00 %
01.01.2018 23:33 0,9 C 3,9 C 92 % 1006,3 hPa 0,0 l/m 1,6 km/h (1 Bft) W-NW 292 0 min 0,000 mm 0,0 UV-I 0 W/m -0,2 C 0,9 C 3,2 km/h (1 Bft) 95,65 %
01.01.2018 23:34 0,9 C 3,9 C 92 % 1006,2 hPa 0,0 l/m 1,6 km/h (1 Bft) W-NW 292 0 min 0,000 mm 0,0 UV-I 0 W/m -0,2 C 0,9 C 1,6 km/h (1 Bft) 100,00 %
01.01.2018 23:35 1,0 C 3,9 C 93 % 1006,2 hPa 0,0 l/m 1,6 km/h (1 Bft) W-NW 292 0 min 0,000 mm 0,0 UV-I 0 W/m -0,0 C 1,0 C 3,2 km/h (1 Bft) 100,00 %
01.01.2018 23:36 1,0 C 3,9 C 92 % 1006,2 hPa 0,0 l/m 0,0 km/h (0 Bft) N 0 0 min 0,000 mm 0,0 UV-I 0 W/m -0,2 C 1,0 C 0,0 km/h (0 Bft) 95,65 %
01.01.2018 23:37 1,0 C 3,9 C 92 % 1006,3 hPa 0,0 l/m 0,0 km/h (0 Bft) N 0 0 min 0,000 mm 0,0 UV-I 0 W/m -0,2 C 1,0 C 0,0 km/h (0 Bft) 100,00 %
01.01.2018 23:38 0,9 C 3,9 C 92 % 1006,2 hPa 0,0 l/m 1,6 km/h (1 Bft) W-NW 292 0 min 0,000 mm 0,0 UV-I 0 W/m -0,2 C 0,9 C 1,6 km/h (1 Bft) 100,00 %
01.01.2018 23:39 0,9 C 3,9 C 92 % 1006,2 hPa 0,0 l/m 0,0 km/h (0 Bft) W-NW 292 0 min 0,000 mm 0,0 UV-I 0 W/m -0,2 C 0,9 C 1,6 km/h (1 Bft) 100,00 %
01.01.2018 23:40 0,8 C 3,9 C 92 % 1006,2 hPa 0,0 l/m 0,0 km/h (0 Bft) W-NW 292 0 min 0,000 mm 0,0 UV-I 0 W/m -0,3 C 0,8 C 1,6 km/h (1 Bft) 91,30 %
01.01.2018 23:41 0,8 C 3,9 C 92 % 1006,2 hPa 0,0 l/m 3,2 km/h (1 Bft) W-NW 292 0 min 0,000 mm 0,0 UV-I 0 W/m -0,3 C 0,8 C 4,8 km/h (1 Bft) 100,00 %
01.01.2018 23:42 0,8 C 3,9 C 92 % 1006,2 hPa 0,0 l/m 6,4 km/h (2 Bft) W-SW 247 0 min 0,000 mm 0,0 UV-I 0 W/m -0,3 C 0,8 C 8,0 km/h (2 Bft) 95,65 %
01.01.2018 23:43 0,8 C 3,9 C 93 % 1006,3 hPa 0,0 l/m 6,4 km/h (2 Bft) W-SW 247 0 min 0,000 mm 0,0 UV-I 0 W/m -0,2 C 0,8 C 6,4 km/h (2 Bft) 91,30 %
01.01.2018 23:44 0,8 C 3,9 C 93 % 1006,4 hPa 0,0 l/m 6,4 km/h (2 Bft) SW 225 0 min 0,000 mm 0,0 UV-I 0 W/m -0,2 C 0,8 C 8,0 km/h (2 Bft) 95,65 %
01.01.2018 23:45 0,8 C 3,9 C 93 % 1006,5 hPa 0,0 l/m 3,2 km/h (1 Bft) SW 225 0 min 0,000 mm 0,0 UV-I 0 W/m -0,2 C 0,8 C 4,8 km/h (1 Bft) 100,00 %
01.01.2018 23:46 0,8 C 3,9 C 93 % 1006,4 hPa 0,0 l/m 1,6 km/h (1 Bft) SW 225 0 min 0,000 mm 0,0 UV-I 0 W/m -0,2 C 0,8 C 3,2 km/h (1 Bft) 95,65 %
01.01.2018 23:47 0,8 C 3,9 C 93 % 1006,3 hPa 0,0 l/m 0,0 km/h (0 Bft) N 0 0 min 0,000 mm 0,0 UV-I 0 W/m -0,2 C 0,8 C 0,0 km/h (0 Bft) 95,65 %
01.01.2018 23:48 0,9 C 3,9 C 93 % 1006,3 hPa 0,0 l/m 0,0 km/h (0 Bft) N 0 0 min 0,000 mm 0,0 UV-I 0 W/m -0,1 C 0,9 C 0,0 km/h (0 Bft) 100,00 %
01.01.2018 23:49 0,9 C 3,9 C 93 % 1006,3 hPa 0,0 l/m 0,0 km/h (0 Bft) SW 225 0 min 0,000 mm 0,0 UV-I 0 W/m -0,1 C 0,9 C 1,6 km/h (1 Bft) 91,30 %
01.01.2018 23:50 0,9 C 3,9 C 93 % 1006,4 hPa 0,0 l/m 1,6 km/h (1 Bft) SW 225 0 min 0,000 mm 0,0 UV-I 0 W/m -0,1 C 0,9 C 3,2 km/h (1 Bft) 95,65 %
01.01.2018 23:51 0,9 C 3,9 C 93 % 1006,3 hPa 0,0 l/m 1,6 km/h (1 Bft) SW 225 0 min 0,000 mm 0,0 UV-I 0 W/m -0,1 C 0,9 C 4,8 km/h (1 Bft) 95,65 %
01.01.2018 23:52 0,9 C 3,9 C 93 % 1006,2 hPa 0,0 l/m 6,4 km/h (2 Bft) S-SO 157 0 min 0,000 mm 0,0 UV-I 0 W/m -0,1 C 0,9 C 8,0 km/h (2 Bft) 100,00 %
01.01.2018 23:53 0,9 C 3,9 C 92 % 1006,2 hPa 0,0 l/m 4,8 km/h (1 Bft) S-SO 157 0 min 0,000 mm 0,0 UV-I 0 W/m -0,2 C 0,9 C 8,0 km/h (2 Bft) 95,65 %
01.01.2018 23:54 0,8 C 3,9 C 92 % 1006,2 hPa 0,0 l/m 4,8 km/h (1 Bft) S-SO 157 0 min 0,000 mm 0,0 UV-I 0 W/m -0,3 C 0,8 C 8,0 km/h (2 Bft) 95,65 %
01.01.2018 23:55 0,8 C 3,9 C 92 % 1006,2 hPa 0,0 l/m 1,6 km/h (1 Bft) S-SO 157 0 min 0,000 mm 0,0 UV-I 0 W/m -0,3 C 0,8 C 4,8 km/h (1 Bft) 95,65 %
01.01.2018 23:56 0,8 C 3,9 C 92 % 1006,2 hPa 0,0 l/m 3,2 km/h (1 Bft) S 180 0 min 0,000 mm 0,0 UV-I 0 W/m -0,3 C 0,8 C 6,4 km/h (2 Bft) 95,65 %
01.01.2018 23:57 0,8 C 3,9 C 93 % 1006,3 hPa 0,0 l/m 0,0 km/h (0 Bft) S 180 0 min 0,000 mm 0,0 UV-I 0 W/m -0,2 C 0,8 C 3,2 km/h (1 Bft) 95,65 %
01.01.2018 23:58 0,9 C 3,9 C 93 % 1006,2 hPa 0,0 l/m 3,2 km/h (1 Bft) S 180 0 min 0,000 mm 0,0 UV-I 0 W/m -0,1 C 0,9 C 6,4 km/h (2 Bft) 95,65 %
01.01.2018 23:59 0,9 C 3,9 C 93 % 1006,5 hPa 0,0 l/m 9,7 km/h (2 Bft) W 270 0 min 0,000 mm 0,0 UV-I 0 W/m -0,1 C -2,2 C 14,5 km/h (3 Bft) 100,00 %
_ Min-Zeit 21:33 00:01 13:54 22:49 - 00:02 - - - - - - 21:33 22:46 00:02 00:02
Minimum _ 0,1 C 3,9 C 66 % 1005,1 hPa - 0,0 km/h (0 Bft) - - - - - - -1,2 C -4,5 C 0,0 km/h (0 Bft) 0,00 %
_ Max-Zeit 12:25 00:01 01:02 10:19 07:29 08:34 - - 10:53 13:00 00:01 10:55 08:23 13:00 09:15 00:04
Maximum _ 8,1 C 3,9 C 95 % 1012,9 hPa 0,2 l/m 24,1 km/h
SW (4 Bft)
- - 1 min 0,102 mm 0,0 UV-I 190 W/m 4,7 C 8,1 C 33,8 km/h
SW (5 Bft)
100,00 %
Durchschnitt _ 4,1 C 3,9 C 85 % 1008,8 hPa #0,6 l/m 6,9 km/h (2 Bft) SW - #17 min. #0,533 mm 0,0 UV-I 80 W/m 1,8 C 2,6 C 10,0 km/h (2 Bft) 96,87 %